Wetterdaten: Sonntag, 25.08.2019
Datum Zeit Temp. A. Feuchte A. Luftdruck Regen Wind Richtung Richtung Sonnenschein ET UV Solar Taupunkt Windchill Windböen
25.08.2019 00:00 15,7 °C 92 % 1016,3 hPa 0,0 mm 4,4 km/h (1 Bft) W 266 ° 0 min 0,000 mm 0,0 UV-I 0 W/m² 14,4 °C 15,7 °C 6,4 km/h (2 Bft)
25.08.2019 00:01 15,8 °C 92 % 1016,3 hPa 0,0 mm 4,4 km/h (1 Bft) W 271 ° 0 min 0,000 mm 0,0 UV-I 0 W/m² 14,5 °C 15,8 °C 6,4 km/h (2 Bft)
25.08.2019 00:02 15,9 °C 92 % 1016,3 hPa 0,0 mm 3,1 km/h (1 Bft) W 267 ° 0 min 0,000 mm 0,0 UV-I 0 W/m² 14,6 °C 15,9 °C 4,8 km/h (1 Bft)
25.08.2019 00:03 15,9 °C 92 % 1016,3 hPa 0,0 mm 4,3 km/h (1 Bft) W 259 ° 0 min 0,000 mm 0,0 UV-I 0 W/m² 14,6 °C 15,9 °C 6,4 km/h (2 Bft)
25.08.2019 00:04 16,1 °C 91 % 1016,3 hPa 0,0 mm 2,6 km/h (1 Bft) W 259 ° 0 min 0,000 mm 0,0 UV-I 0 W/m² 14,6 °C 16,1 °C 6,4 km/h (2 Bft)
25.08.2019 00:05 16,1 °C 91 % 1016,3 hPa 0,0 mm 2,2 km/h (1 Bft) W 264 ° 0 min 0,000 mm 0,0 UV-I 0 W/m² 14,6 °C 16,1 °C 4,8 km/h (1 Bft)
25.08.2019 00:06 16,1 °C 91 % 1016,3 hPa 0,0 mm 3,0 km/h (1 Bft) W 263 ° 0 min 0,000 mm 0,0 UV-I 0 W/m² 14,6 °C 16,1 °C 6,4 km/h (2 Bft)
25.08.2019 00:07 16,2 °C 90 % 1016,3 hPa 0,0 mm 2,2 km/h (1 Bft) W 263 ° 0 min 0,000 mm 0,0 UV-I 0 W/m² 14,6 °C 16,2 °C 4,8 km/h (1 Bft)
25.08.2019 00:08 16,1 °C 90 % 1016,3 hPa 0,0 mm 4,6 km/h (1 Bft) W 263 ° 0 min 0,000 mm 0,0 UV-I 0 W/m² 14,5 °C 16,1 °C 6,4 km/h (2 Bft)
25.08.2019 00:09 16,1 °C 90 % 1016,4 hPa 0,0 mm 4,2 km/h (1 Bft) W-SW 249 ° 0 min 0,000 mm 0,0 UV-I 0 W/m² 14,5 °C 16,1 °C 11,3 km/h (2 Bft)
25.08.2019 00:10 16,1 °C 90 % 1016,4 hPa 0,0 mm 2,1 km/h (1 Bft) W-SW 250 ° 0 min 0,000 mm 0,0 UV-I 0 W/m² 14,5 °C 16,1 °C 3,2 km/h (1 Bft)
25.08.2019 00:11 16,1 °C 90 % 1016,4 hPa 0,0 mm 0,6 km/h (0 Bft) S 185 ° 0 min 0,000 mm 0,0 UV-I 0 W/m² 14,5 °C 16,1 °C 1,6 km/h (1 Bft)
25.08.2019 00:12 16,1 °C 90 % 1016,4 hPa 0,0 mm 0,2 km/h (0 Bft) S 185 ° 0 min 0,000 mm 0,0 UV-I 0 W/m² 14,5 °C 16,1 °C 1,6 km/h (1 Bft)
25.08.2019 00:13 16,0 °C 90 % 1016,4 hPa 0,0 mm 0,1 km/h (0 Bft) S 184 ° 0 min 0,000 mm 0,0 UV-I 0 W/m² 14,4 °C 16,0 °C 1,6 km/h (1 Bft)
25.08.2019 00:14 15,9 °C 90 % 1016,4 hPa 0,0 mm 2,0 km/h (1 Bft) S 173 ° 0 min 0,000 mm 0,0 UV-I 0 W/m² 14,3 °C 15,9 °C 3,2 km/h (1 Bft)
25.08.2019 00:15 15,9 °C 90 % 1016,5 hPa 0,0 mm 3,7 km/h (1 Bft) S 171 ° 0 min 0,000 mm 0,0 UV-I 0 W/m² 14,3 °C 15,9 °C 6,4 km/h (2 Bft)
25.08.2019 00:16 15,8 °C 90 % 1016,5 hPa 0,0 mm 5,1 km/h (1 Bft) O-SO 111 ° 0 min 0,000 mm 0,0 UV-I 0 W/m² 14,2 °C 15,8 °C 6,4 km/h (2 Bft)
25.08.2019 00:17 15,8 °C 90 % 1016,5 hPa 0,0 mm 4,2 km/h (1 Bft) O-SO 111 ° 0 min 0,000 mm 0,0 UV-I 0 W/m² 14,2 °C 15,8 °C 6,4 km/h (2 Bft)
25.08.2019 00:18 15,7 °C 91 % 1016,6 hPa 0,0 mm 2,7 km/h (1 Bft) O-SO 111 ° 0 min 0,000 mm 0,0 UV-I 0 W/m² 14,2 °C 15,7 °C 4,8 km/h (1 Bft)
25.08.2019 00:19 15,7 °C 91 % 1016,5 hPa 0,0 mm 0,3 km/h (0 Bft) O-SO 111 ° 0 min 0,000 mm 0,0 UV-I 0 W/m² 14,2 °C 15,7 °C 1,6 km/h (1 Bft)
25.08.2019 00:20 15,7 °C 91 % 1016,6 hPa 0,0 mm 0,0 km/h (0 Bft) O-SO 111 ° 0 min 0,000 mm 0,0 UV-I 0 W/m² 14,2 °C 15,7 °C 0,0 km/h (0 Bft)
25.08.2019 00:21 15,6 °C 91 % 1016,6 hPa 0,0 mm 0,0 km/h (0 Bft) O-SO 111 ° 0 min 0,000 mm 0,0 UV-I 0 W/m² 14,1 °C 15,6 °C 0,0 km/h (0 Bft)
25.08.2019 00:22 15,6 °C 91 % 1016,6 hPa 0,0 mm 0,0 km/h (0 Bft) O-SO 111 ° 0 min 0,000 mm 0,0 UV-I 0 W/m² 14,1 °C 15,6 °C 0,0 km/h (0 Bft)
25.08.2019 00:23 15,4 °C 91 % 1016,7 hPa 0,0 mm 0,0 km/h (0 Bft) O-SO 111 ° 0 min 0,000 mm 0,0 UV-I 0 W/m² 13,9 °C 15,4 °C 0,0 km/h (0 Bft)
25.08.2019 00:24 15,3 °C 91 % 1016,6 hPa 0,0 mm 0,1 km/h (0 Bft) O-SO 111 ° 0 min 0,000 mm 0,0 UV-I 0 W/m² 13,8 °C 15,3 °C 1,6 km/h (1 Bft)
25.08.2019 00:25 15,3 °C 91 % 1016,6 hPa 0,0 mm 0,9 km/h (0 Bft) O-SO 111 ° 0 min 0,000 mm 0,0 UV-I 0 W/m² 13,8 °C 15,3 °C 3,2 km/h (1 Bft)
25.08.2019 00:26 15,2 °C 91 % 1016,6 hPa 0,0 mm 1,0 km/h (0 Bft) O-SO 112 ° 0 min 0,000 mm 0,0 UV-I 0 W/m² 13,7 °C 15,2 °C 3,2 km/h (1 Bft)
25.08.2019 00:27 15,2 °C 92 % 1016,7 hPa 0,0 mm 0,0 km/h (0 Bft) O-SO 112 ° 0 min 0,000 mm 0,0 UV-I 0 W/m² 13,9 °C 15,2 °C 0,0 km/h (0 Bft)
25.08.2019 00:28 15,1 °C 91 % 1016,7 hPa 0,0 mm 0,0 km/h (0 Bft) O-SO 112 ° 0 min 0,000 mm 0,0 UV-I 0 W/m² 13,6 °C 15,1 °C 0,0 km/h (0 Bft)
25.08.2019 00:29 15,1 °C 91 % 1016,6 hPa 0,0 mm 0,0 km/h (0 Bft) O-SO 112 ° 0 min 0,000 mm 0,0 UV-I 0 W/m² 13,6 °C 15,1 °C 0,0 km/h (0 Bft)
25.08.2019 00:30 15,1 °C 92 % 1016,6 hPa 0,0 mm 0,0 km/h (0 Bft) O-SO 112 ° 0 min 0,000 mm 0,0 UV-I 0 W/m² 13,8 °C 15,1 °C 0,0 km/h (0 Bft)
25.08.2019 00:31 15,0 °C 92 % 1016,6 hPa 0,0 mm 0,0 km/h (0 Bft) O-SO 112 ° 0 min 0,000 mm 0,0 UV-I 0 W/m² 13,7 °C 15,0 °C 0,0 km/h (0 Bft)
25.08.2019 00:32 15,0 °C 92 % 1016,6 hPa 0,0 mm 0,0 km/h (0 Bft) O-SO 112 ° 0 min 0,000 mm 0,0 UV-I 0 W/m² 13,7 °C 15,0 °C 0,0 km/h (0 Bft)
25.08.2019 00:33 14,9 °C 92 % 1016,6 hPa 0,0 mm 0,0 km/h (0 Bft) O-SO 112 ° 0 min 0,000 mm 0,0 UV-I 0 W/m² 13,6 °C 14,9 °C 0,0 km/h (0 Bft)
25.08.2019 00:34 14,9 °C 92 % 1016,7 hPa 0,0 mm 0,0 km/h (0 Bft) O-SO 112 ° 0 min 0,000 mm 0,0 UV-I 0 W/m² 13,6 °C 14,9 °C 0,0 km/h (0 Bft)
25.08.2019 00:35 15,0 °C 92 % 1016,6 hPa 0,0 mm 0,0 km/h (0 Bft) O-SO 112 ° 0 min 0,000 mm 0,0 UV-I 0 W/m² 13,7 °C 15,0 °C 0,0 km/h (0 Bft)
25.08.2019 00:36 15,0 °C 92 % 1016,6 hPa 0,0 mm 0,0 km/h (0 Bft) O-SO 112 ° 0 min 0,000 mm 0,0 UV-I 0 W/m² 13,7 °C 15,0 °C 0,0 km/h (0 Bft)
25.08.2019 00:37 15,1 °C 92 % 1016,7 hPa 0,0 mm 0,0 km/h (0 Bft) O-SO 112 ° 0 min 0,000 mm 0,0 UV-I 0 W/m² 13,8 °C 15,1 °C 0,0 km/h (0 Bft)
25.08.2019 00:38 15,1 °C 92 % 1016,7 hPa 0,0 mm 0,0 km/h (0 Bft) O-SO 112 ° 0 min 0,000 mm 0,0 UV-I 0 W/m² 13,8 °C 15,1 °C 0,0 km/h (0 Bft)
25.08.2019 00:39 15,0 °C 92 % 1016,7 hPa 0,0 mm 0,0 km/h (0 Bft) O-SO 112 ° 0 min 0,000 mm 0,0 UV-I 0 W/m² 13,7 °C 15,0 °C 0,0 km/h (0 Bft)
25.08.2019 00:40 15,0 °C 92 % 1016,7 hPa 0,0 mm 0,0 km/h (0 Bft) O-SO 112 ° 0 min 0,000 mm 0,0 UV-I 0 W/m² 13,7 °C 15,0 °C 0,0 km/h (0 Bft)
25.08.2019 00:41 15,0 °C 92 % 1016,7 hPa 0,0 mm 0,0 km/h (0 Bft) O-SO 112 ° 0 min 0,000 mm 0,0 UV-I 0 W/m² 13,7 °C 15,0 °C 0,0 km/h (0 Bft)
25.08.2019 00:42 14,9 °C 92 % 1016,8 hPa 0,0 mm 0,0 km/h (0 Bft) O-SO 112 ° 0 min 0,000 mm 0,0 UV-I 0 W/m² 13,6 °C 14,9 °C 0,0 km/h (0 Bft)
25.08.2019 00:43 15,0 °C 92 % 1016,8 hPa 0,0 mm 0,0 km/h (0 Bft) O-SO 112 ° 0 min 0,000 mm 0,0 UV-I 0 W/m² 13,7 °C 15,0 °C 0,0 km/h (0 Bft)
25.08.2019 00:44 15,0 °C 92 % 1016,8 hPa 0,0 mm 0,0 km/h (0 Bft) O-SO 112 ° 0 min 0,000 mm 0,0 UV-I 0 W/m² 13,7 °C 15,0 °C 0,0 km/h (0 Bft)
25.08.2019 00:45 14,9 °C 92 % 1016,7 hPa 0,0 mm 0,0 km/h (0 Bft) O-SO 112 ° 0 min 0,000 mm 0,0 UV-I 0 W/m² 13,6 °C 14,9 °C 0,0 km/h (0 Bft)
25.08.2019 00:46 14,9 °C 92 % 1016,7 hPa 0,0 mm 0,0 km/h (0 Bft) O-SO 111 ° 0 min 0,000 mm 0,0 UV-I 0 W/m² 13,6 °C 14,9 °C 0,0 km/h (0 Bft)
25.08.2019 00:47 14,8 °C 92 % 1016,7 hPa 0,0 mm 0,0 km/h (0 Bft) O-SO 112 ° 0 min 0,000 mm 0,0 UV-I 0 W/m² 13,5 °C 14,8 °C 0,0 km/h (0 Bft)
25.08.2019 00:48 14,7 °C 92 % 1016,7 hPa 0,0 mm 0,0 km/h (0 Bft) O-SO 112 ° 0 min 0,000 mm 0,0 UV-I 0 W/m² 13,4 °C 14,7 °C 0,0 km/h (0 Bft)
25.08.2019 00:49 14,7 °C 92 % 1016,8 hPa 0,0 mm 0,0 km/h (0 Bft) O-SO 112 ° 0 min 0,000 mm 0,0 UV-I 0 W/m² 13,4 °C 14,7 °C 0,0 km/h (0 Bft)
25.08.2019 00:50 14,6 °C 92 % 1016,8 hPa 0,0 mm 0,0 km/h (0 Bft) O-SO 112 ° 0 min 0,000 mm 0,0 UV-I 0 W/m² 13,3 °C 14,6 °C 0,0 km/h (0 Bft)
25.08.2019 00:51 14,6 °C 92 % 1016,8 hPa 0,0 mm 0,0 km/h (0 Bft) O-SO 112 ° 0 min 0,000 mm 0,0 UV-I 0 W/m² 13,3 °C 14,6 °C 0,0 km/h (0 Bft)
25.08.2019 00:52 14,6 °C 92 % 1016,8 hPa 0,0 mm 0,0 km/h (0 Bft) O-SO 112 ° 0 min 0,000 mm 0,0 UV-I 0 W/m² 13,3 °C 14,6 °C 0,0 km/h (0 Bft)
25.08.2019 00:53 14,5 °C 92 % 1016,8 hPa 0,0 mm 0,0 km/h (0 Bft) O-SO 112 ° 0 min 0,000 mm 0,0 UV-I 0 W/m² 13,2 °C 14,5 °C 0,0 km/h (0 Bft)
25.08.2019 00:54 14,3 °C 92 % 1016,8 hPa 0,0 mm 0,0 km/h (0 Bft) O-SO 111 ° 0 min 0,000 mm 0,0 UV-I 0 W/m² 13,0 °C 14,3 °C 0,0 km/h (0 Bft)
25.08.2019 00:55 14,3 °C 92 % 1016,8 hPa 0,0 mm 0,0 km/h (0 Bft) O-SO 111 ° 0 min 0,000 mm 0,0 UV-I 0 W/m² 13,0 °C 14,3 °C 0,0 km/h (0 Bft)
25.08.2019 00:56 14,2 °C 92 % 1016,8 hPa 0,0 mm 0,0 km/h (0 Bft) O-SO 112 ° 0 min 0,000 mm 0,0 UV-I 0 W/m² 12,9 °C 14,2 °C 0,0 km/h (0 Bft)
25.08.2019 00:57 14,2 °C 92 % 1016,8 hPa 0,0 mm 0,0 km/h (0 Bft) O-SO 111 ° 0 min 0,000 mm 0,0 UV-I 0 W/m² 12,9 °C 14,2 °C 0,0 km/h (0 Bft)
25.08.2019 00:58 14,2 °C 93 % 1016,9 hPa 0,0 mm 0,0 km/h (0 Bft) O-SO 112 ° 0 min 0,000 mm 0,0 UV-I 0 W/m² 13,1 °C 14,2 °C 0,0 km/h (0 Bft)
25.08.2019 00:59 14,2 °C 93 % 1016,9 hPa 0,0 mm 0,0 km/h (0 Bft) O-SO 112 ° 0 min 0,000 mm 0,0 UV-I 0 W/m² 13,1 °C 14,2 °C 0,0 km/h (0 Bft)
25.08.2019 01:00 14,1 °C 93 % 1016,9 hPa 0,0 mm 0,0 km/h (0 Bft) O-SO 112 ° 0 min 0,000 mm 0,0 UV-I 0 W/m² 13,0 °C 14,1 °C 0,0 km/h (0 Bft)
25.08.2019 01:01 14,1 °C 93 % 1016,9 hPa 0,0 mm 0,6 km/h (0 Bft) O-SO 112 ° 0 min 0,000 mm 0,0 UV-I 0 W/m² 13,0 °C 14,1 °C 1,6 km/h (1 Bft)
25.08.2019 01:02 14,1 °C 93 % 1016,9 hPa 0,0 mm 0,2 km/h (0 Bft) O-SO 112 ° 0 min 0,000 mm 0,0 UV-I 0 W/m² 13,0 °C 14,1 °C 1,6 km/h (1 Bft)
25.08.2019 01:03 14,1 °C 93 % 1016,9 hPa 0,0 mm 0,0 km/h (0 Bft) O-SO 111 ° 0 min 0,000 mm 0,0 UV-I 0 W/m² 13,0 °C 14,1 °C 0,0 km/h (0 Bft)
25.08.2019 01:04 14,1 °C 93 % 1016,9 hPa 0,0 mm 0,0 km/h (0 Bft) O-SO 112 ° 0 min 0,000 mm 0,0 UV-I 0 W/m² 13,0 °C 14,1 °C 0,0 km/h (0 Bft)
25.08.2019 01:05 14,1 °C 93 % 1016,9 hPa 0,0 mm 0,0 km/h (0 Bft) O-SO 112 ° 0 min 0,000 mm 0,0 UV-I 0 W/m² 13,0 °C 14,1 °C 0,0 km/h (0 Bft)
25.08.2019 01:06 14,2 °C 93 % 1016,9 hPa 0,0 mm 0,0 km/h (0 Bft) O-SO 111 ° 0 min 0,000 mm 0,0 UV-I 0 W/m² 13,1 °C 14,2 °C 0,0 km/h (0 Bft)
25.08.2019 01:07 14,1 °C 93 % 1016,9 hPa 0,0 mm 0,0 km/h (0 Bft) O-SO 111 ° 0 min 0,000 mm 0,0 UV-I 0 W/m² 13,0 °C 14,1 °C 0,0 km/h (0 Bft)
25.08.2019 01:08 14,2 °C 93 % 1016,9 hPa 0,0 mm 0,0 km/h (0 Bft) O-SO 111 ° 0 min 0,000 mm 0,0 UV-I 0 W/m² 13,1 °C 14,2 °C 0,0 km/h (0 Bft)
25.08.2019 01:09 14,2 °C 93 % 1016,8 hPa 0,0 mm 0,0 km/h (0 Bft) O-SO 111 ° 0 min 0,000 mm 0,0 UV-I 0 W/m² 13,1 °C 14,2 °C 0,0 km/h (0 Bft)
25.08.2019 01:10 14,2 °C 94 % 1016,8 hPa 0,0 mm 0,0 km/h (0 Bft) O-SO 111 ° 0 min 0,000 mm 0,0 UV-I 0 W/m² 13,2 °C 14,2 °C 0,0 km/h (0 Bft)
25.08.2019 01:11 14,2 °C 93 % 1016,8 hPa 0,0 mm 0,0 km/h (0 Bft) O-SO 111 ° 0 min 0,000 mm 0,0 UV-I 0 W/m² 13,1 °C 14,2 °C 0,0 km/h (0 Bft)
25.08.2019 01:12 14,2 °C 94 % 1016,8 hPa 0,0 mm 0,0 km/h (0 Bft) O-SO 111 ° 0 min 0,000 mm 0,0 UV-I 0 W/m² 13,2 °C 14,2 °C 0,0 km/h (0 Bft)
25.08.2019 01:13 14,2 °C 94 % 1016,8 hPa 0,0 mm 0,0 km/h (0 Bft) O-SO 112 ° 0 min 0,000 mm 0,0 UV-I 0 W/m² 13,2 °C 14,2 °C 0,0 km/h (0 Bft)
25.08.2019 01:14 14,2 °C 93 % 1016,8 hPa 0,0 mm 0,0 km/h (0 Bft) O-SO 111 ° 0 min 0,000 mm 0,0 UV-I 0 W/m² 13,1 °C 14,2 °C 0,0 km/h (0 Bft)
25.08.2019 01:15 14,1 °C 93 % 1016,8 hPa 0,0 mm 0,1 km/h (0 Bft) O-SO 112 ° 0 min 0,000 mm 0,0 UV-I 0 W/m² 13,0 °C 14,1 °C 1,6 km/h (1 Bft)
25.08.2019 01:16 14,1 °C 93 % 1016,8 hPa 0,0 mm 0,5 km/h (0 Bft) O-SO 111 ° 0 min 0,000 mm 0,0 UV-I 0 W/m² 13,0 °C 14,1 °C 1,6 km/h (1 Bft)
25.08.2019 01:17 14,1 °C 93 % 1016,8 hPa 0,0 mm 0,0 km/h (0 Bft) O-SO 111 ° 0 min 0,000 mm 0,0 UV-I 0 W/m² 13,0 °C 14,1 °C 0,0 km/h (0 Bft)
25.08.2019 01:18 14,0 °C 93 % 1016,8 hPa 0,0 mm 0,0 km/h (0 Bft) O-SO 111 ° 0 min 0,000 mm 0,0 UV-I 0 W/m² 12,9 °C 14,0 °C 0,0 km/h (0 Bft)
25.08.2019 01:19 13,9 °C 93 % 1016,8 hPa 0,0 mm 0,0 km/h (0 Bft) O-SO 111 ° 0 min 0,000 mm 0,0 UV-I 0 W/m² 12,8 °C 13,9 °C 0,0 km/h (0 Bft)
25.08.2019 01:20 13,9 °C 93 % 1016,7 hPa 0,0 mm 0,0 km/h (0 Bft) O-SO 111 ° 0 min 0,000 mm 0,0 UV-I 0 W/m² 12,8 °C 13,9 °C 0,0 km/h (0 Bft)
25.08.2019 01:21 13,9 °C 94 % 1016,7 hPa 0,0 mm 0,0 km/h (0 Bft) O-SO 111 ° 0 min 0,000 mm 0,0 UV-I 0 W/m² 12,9 °C 13,9 °C 0,0 km/h (0 Bft)
25.08.2019 01:22 13,9 °C 94 % 1016,7 hPa 0,0 mm 0,0 km/h (0 Bft) O-SO 111 ° 0 min 0,000 mm 0,0 UV-I 0 W/m² 12,9 °C 13,9 °C 0,0 km/h (0 Bft)
25.08.2019 01:23 13,9 °C 94 % 1016,7 hPa 0,0 mm 0,0 km/h (0 Bft) O-SO 111 ° 0 min 0,000 mm 0,0 UV-I 0 W/m² 12,9 °C 13,9 °C 0,0 km/h (0 Bft)
25.08.2019 01:24 13,9 °C 94 % 1016,7 hPa 0,0 mm 0,0 km/h (0 Bft) O-SO 111 ° 0 min 0,000 mm 0,0 UV-I 0 W/m² 12,9 °C 13,9 °C 0,0 km/h (0 Bft)
25.08.2019 01:25 13,8 °C 94 % 1016,6 hPa 0,0 mm 0,0 km/h (0 Bft) O-SO 111 ° 0 min 0,000 mm 0,0 UV-I 0 W/m² 12,9 °C 13,8 °C 0,0 km/h (0 Bft)
25.08.2019 01:26 13,8 °C 94 % 1016,6 hPa 0,0 mm 0,0 km/h (0 Bft) O-SO 111 ° 0 min 0,000 mm 0,0 UV-I 0 W/m² 12,9 °C 13,8 °C 0,0 km/h (0 Bft)
25.08.2019 01:27 13,8 °C 94 % 1016,6 hPa 0,0 mm 0,0 km/h (0 Bft) O-SO 111 ° 0 min 0,000 mm 0,0 UV-I 0 W/m² 12,9 °C 13,8 °C 0,0 km/h (0 Bft)
25.08.2019 01:28 13,7 °C 94 % 1016,6 hPa 0,0 mm 0,0 km/h (0 Bft) O-SO 111 ° 0 min 0,000 mm 0,0 UV-I 0 W/m² 12,8 °C 13,7 °C 0,0 km/h (0 Bft)
25.08.2019 01:29 13,7 °C 93 % 1016,6 hPa 0,0 mm 0,0 km/h (0 Bft) O-SO 111 ° 0 min 0,000 mm 0,0 UV-I 0 W/m² 12,6 °C 13,7 °C 0,0 km/h (0 Bft)
25.08.2019 01:30 13,6 °C 93 % 1016,6 hPa 0,0 mm 0,0 km/h (0 Bft) O-SO 111 ° 0 min 0,000 mm 0,0 UV-I 0 W/m² 12,5 °C 13,6 °C 0,0 km/h (0 Bft)
25.08.2019 01:31 13,6 °C 94 % 1016,6 hPa 0,0 mm 0,0 km/h (0 Bft) O-SO 111 ° 0 min 0,000 mm 0,0 UV-I 0 W/m² 12,7 °C 13,6 °C 0,0 km/h (0 Bft)
25.08.2019 01:32 13,6 °C 94 % 1016,6 hPa 0,0 mm 0,0 km/h (0 Bft) O-SO 111 ° 0 min 0,000 mm 0,0 UV-I 0 W/m² 12,7 °C 13,6 °C 0,0 km/h (0 Bft)
25.08.2019 01:33 13,5 °C 94 % 1016,6 hPa 0,0 mm 0,0 km/h (0 Bft) O-SO 111 ° 0 min 0,000 mm 0,0 UV-I 0 W/m² 12,6 °C 13,5 °C 0,0 km/h (0 Bft)
25.08.2019 01:34 13,4 °C 94 % 1016,6 hPa 0,0 mm 0,0 km/h (0 Bft) O-SO 111 ° 0 min 0,000 mm 0,0 UV-I 0 W/m² 12,5 °C 13,4 °C 0,0 km/h (0 Bft)
25.08.2019 01:35 13,3 °C 94 % 1016,6 hPa 0,0 mm 0,0 km/h (0 Bft) O-SO 111 ° 0 min 0,000 mm 0,0 UV-I 0 W/m² 12,4 °C 13,3 °C 0,0 km/h (0 Bft)
25.08.2019 01:36 13,3 °C 94 % 1016,6 hPa 0,0 mm 0,0 km/h (0 Bft) O-SO 111 ° 0 min 0,000 mm 0,0 UV-I 0 W/m² 12,4 °C 13,3 °C 0,0 km/h (0 Bft)
25.08.2019 01:37 13,3 °C 94 % 1016,6 hPa 0,0 mm 0,0 km/h (0 Bft) O-SO 111 ° 0 min 0,000 mm 0,0 UV-I 0 W/m² 12,4 °C 13,3 °C 0,0 km/h (0 Bft)
25.08.2019 01:38 13,3 °C 94 % 1016,6 hPa 0,0 mm 0,0 km/h (0 Bft) O-SO 111 ° 0 min 0,000 mm 0,0 UV-I 0 W/m² 12,4 °C 13,3 °C 0,0 km/h (0 Bft)
25.08.2019 01:39 13,3 °C 94 % 1016,5 hPa 0,0 mm 0,0 km/h (0 Bft) O-SO 111 ° 0 min 0,000 mm 0,0 UV-I 0 W/m² 12,4 °C 13,3 °C 0,0 km/h (0 Bft)
25.08.2019 01:40 13,3 °C 94 % 1016,5 hPa 0,0 mm 0,0 km/h (0 Bft) O-SO 111 ° 0 min 0,000 mm 0,0 UV-I 0 W/m² 12,4 °C 13,3 °C 0,0 km/h (0 Bft)
25.08.2019 01:41 13,3 °C 94 % 1016,5 hPa 0,0 mm 0,0 km/h (0 Bft) O-SO 111 ° 0 min 0,000 mm 0,0 UV-I 0 W/m² 12,4 °C 13,3 °C 0,0 km/h (0 Bft)
25.08.2019 01:42 13,2 °C 94 % 1016,5 hPa 0,0 mm 0,0 km/h (0 Bft) O-SO 111 ° 0 min 0,000 mm 0,0 UV-I 0 W/m² 12,3 °C 13,2 °C 0,0 km/h (0 Bft)
25.08.2019 01:43 13,2 °C 94 % 1016,5 hPa 0,0 mm 0,0 km/h (0 Bft) O-SO 111 ° 0 min 0,000 mm 0,0 UV-I 0 W/m² 12,3 °C 13,2 °C 0,0 km/h (0 Bft)
25.08.2019 01:44 13,2 °C 94 % 1016,6 hPa 0,0 mm 0,0 km/h (0 Bft) O-SO 111 ° 0 min 0,000 mm 0,0 UV-I 0 W/m² 12,3 °C 13,2 °C 0,0 km/h (0 Bft)
25.08.2019 01:45 13,2 °C 94 % 1016,6 hPa 0,0 mm 0,0 km/h (0 Bft) O-SO 111 ° 0 min 0,000 mm 0,0 UV-I 0 W/m² 12,3 °C 13,2 °C 0,0 km/h (0 Bft)
25.08.2019 01:46 13,2 °C 94 % 1016,5 hPa 0,0 mm 0,0 km/h (0 Bft) O-SO 111 ° 0 min 0,000 mm 0,0 UV-I 0 W/m² 12,3 °C 13,2 °C 0,0 km/h (0 Bft)
25.08.2019 01:47 13,2 °C 94 % 1016,5 hPa 0,0 mm 0,0 km/h (0 Bft) O-SO 111 ° 0 min 0,000 mm 0,0 UV-I 0 W/m² 12,3 °C 13,2 °C 0,0 km/h (0 Bft)
25.08.2019 01:48 13,2 °C 94 % 1016,6 hPa 0,0 mm 0,0 km/h (0 Bft) O-SO 111 ° 0 min 0,000 mm 0,0 UV-I 0 W/m² 12,3 °C 13,2 °C 0,0 km/h (0 Bft)
25.08.2019 01:49 13,2 °C 94 % 1016,6 hPa 0,0 mm 0,0 km/h (0 Bft) O-SO 111 ° 0 min 0,000 mm 0,0 UV-I 0 W/m² 12,3 °C 13,2 °C 0,0 km/h (0 Bft)
25.08.2019 01:50 13,2 °C 94 % 1016,6 hPa 0,0 mm 0,0 km/h (0 Bft) O-SO 111 ° 0 min 0,000 mm 0,0 UV-I 0 W/m² 12,3 °C 13,2 °C 0,0 km/h (0 Bft)
25.08.2019 01:51 13,1 °C 94 % 1016,6 hPa 0,0 mm 0,0 km/h (0 Bft) O-SO 111 ° 0 min 0,000 mm 0,0 UV-I 0 W/m² 12,2 °C 13,1 °C 0,0 km/h (0 Bft)
25.08.2019 01:52 13,1 °C 94 % 1016,7 hPa 0,0 mm 0,1 km/h (0 Bft) O-SO 111 ° 0 min 0,000 mm 0,0 UV-I 0 W/m² 12,2 °C 13,1 °C 1,6 km/h (1 Bft)
25.08.2019 01:53 13,1 °C 94 % 1016,7 hPa 0,0 mm 0,1 km/h (0 Bft) O-SO 111 ° 0 min 0,000 mm 0,0 UV-I 0 W/m² 12,2 °C 13,1 °C 1,6 km/h (1 Bft)
25.08.2019 01:54 13,1 °C 94 % 1016,7 hPa 0,0 mm 0,0 km/h (0 Bft) O-SO 111 ° 0 min 0,000 mm 0,0 UV-I 0 W/m² 12,2 °C 13,1 °C 0,0 km/h (0 Bft)
25.08.2019 01:55 13,2 °C 95 % 1016,7 hPa 0,0 mm 0,0 km/h (0 Bft) O-SO 111 ° 0 min 0,000 mm 0,0 UV-I 0 W/m² 12,4 °C 13,2 °C 0,0 km/h (0 Bft)
25.08.2019 01:56 13,2 °C 95 % 1016,8 hPa 0,0 mm 0,0 km/h (0 Bft) O-SO 111 ° 0 min 0,000 mm 0,0 UV-I 0 W/m² 12,4 °C 13,2 °C 0,0 km/h (0 Bft)
25.08.2019 01:57 13,2 °C 95 % 1016,8 hPa 0,0 mm 0,0 km/h (0 Bft) O-SO 111 ° 0 min 0,000 mm 0,0 UV-I 0 W/m² 12,4 °C 13,2 °C 0,0 km/h (0 Bft)
25.08.2019 01:58 13,2 °C 95 % 1016,8 hPa 0,0 mm 0,0 km/h (0 Bft) O-SO 111 ° 0 min 0,000 mm 0,0 UV-I 0 W/m² 12,4 °C 13,2 °C 0,0 km/h (0 Bft)
25.08.2019 01:59 13,3 °C 95 % 1016,7 hPa 0,0 mm 0,0 km/h (0 Bft) O-SO 111 ° 0 min 0,000 mm 0,0 UV-I 0 W/m² 12,5 °C 13,3 °C 0,0 km/h (0 Bft)
25.08.2019 02:00 13,3 °C 94 % 1016,7 hPa 0,0 mm 0,0 km/h (0 Bft) O-SO 111 ° 0 min 0,000 mm 0,0 UV-I 0 W/m² 12,4 °C 13,3 °C 0,0 km/h (0 Bft)
25.08.2019 02:01 13,3 °C 94 % 1016,7 hPa 0,0 mm 0,0 km/h (0 Bft) O-SO 111 ° 0 min 0,000 mm 0,0 UV-I 0 W/m² 12,4 °C 13,3 °C 0,0 km/h (0 Bft)
25.08.2019 02:02 13,3 °C 94 % 1016,7 hPa 0,0 mm 0,0 km/h (0 Bft) O-SO 111 ° 0 min 0,000 mm 0,0 UV-I 0 W/m² 12,4 °C 13,3 °C 0,0 km/h (0 Bft)
25.08.2019 02:03 13,3 °C 94 % 1016,7 hPa 0,0 mm 0,0 km/h (0 Bft) O-SO 111 ° 0 min 0,000 mm 0,0 UV-I 0 W/m² 12,4 °C 13,3 °C 0,0 km/h (0 Bft)
25.08.2019 02:04 13,3 °C 94 % 1016,7 hPa 0,0 mm 0,0 km/h (0 Bft) O-SO 112 ° 0 min 0,000 mm 0,0 UV-I 0 W/m² 12,4 °C 13,3 °C 0,0 km/h (0 Bft)
25.08.2019 02:05 13,2 °C 94 % 1016,6 hPa 0,0 mm 0,0 km/h (0 Bft) O-SO 112 ° 0 min 0,000 mm 0,0 UV-I 0 W/m² 12,3 °C 13,2 °C 0,0 km/h (0 Bft)
25.08.2019 02:06 13,2 °C 94 % 1016,7 hPa 0,0 mm 0,0 km/h (0 Bft) O-SO 112 ° 0 min 0,000 mm 0,0 UV-I 0 W/m² 12,3 °C 13,2 °C 0,0 km/h (0 Bft)
25.08.2019 02:07 13,3 °C 95 % 1016,6 hPa 0,0 mm 0,0 km/h (0 Bft) O-SO 112 ° 0 min 0,000 mm 0,0 UV-I 0 W/m² 12,5 °C 13,3 °C 0,0 km/h (0 Bft)
25.08.2019 02:08 13,3 °C 94 % 1016,6 hPa 0,0 mm 0,0 km/h (0 Bft) O-SO 112 ° 0 min 0,000 mm 0,0 UV-I 0 W/m² 12,4 °C 13,3 °C 0,0 km/h (0 Bft)
25.08.2019 02:09 13,4 °C 95 % 1016,6 hPa 0,0 mm 0,0 km/h (0 Bft) O-SO 112 ° 0 min 0,000 mm 0,0 UV-I 0 W/m² 12,6 °C 13,4 °C 0,0 km/h (0 Bft)
25.08.2019 02:10 13,4 °C 94 % 1016,7 hPa 0,0 mm 0,0 km/h (0 Bft) O-SO 112 ° 0 min 0,000 mm 0,0 UV-I 0 W/m² 12,5 °C 13,4 °C 0,0 km/h (0 Bft)
25.08.2019 02:11 13,3 °C 94 % 1016,7 hPa 0,0 mm 0,0 km/h (0 Bft) O-SO 112 ° 0 min 0,000 mm 0,0 UV-I 0 W/m² 12,4 °C 13,3 °C 0,0 km/h (0 Bft)
25.08.2019 02:12 13,3 °C 94 % 1016,7 hPa 0,0 mm 0,0 km/h (0 Bft) O-SO 112 ° 0 min 0,000 mm 0,0 UV-I 0 W/m² 12,4 °C 13,3 °C 0,0 km/h (0 Bft)
25.08.2019 02:13 13,2 °C 94 % 1016,7 hPa 0,0 mm 0,0 km/h (0 Bft) O-SO 112 ° 0 min 0,000 mm 0,0 UV-I 0 W/m² 12,3 °C 13,2 °C 0,0 km/h (0 Bft)
25.08.2019 02:14 13,2 °C 94 % 1016,8 hPa 0,0 mm 0,0 km/h (0 Bft) O-SO 112 ° 0 min 0,000 mm 0,0 UV-I 0 W/m² 12,3 °C 13,2 °C 0,0 km/h (0 Bft)
25.08.2019 02:15 13,2 °C 94 % 1016,7 hPa 0,0 mm 0,0 km/h (0 Bft) O-SO 112 ° 0 min 0,000 mm 0,0 UV-I 0 W/m² 12,3 °C 13,2 °C 0,0 km/h (0 Bft)
25.08.2019 02:16 13,2 °C 94 % 1016,8 hPa 0,0 mm 0,0 km/h (0 Bft) O-SO 112 ° 0 min 0,000 mm 0,0 UV-I 0 W/m² 12,3 °C 13,2 °C 0,0 km/h (0 Bft)
25.08.2019 02:17 13,2 °C 94 % 1016,7 hPa 0,0 mm 0,0 km/h (0 Bft) O-SO 112 ° 0 min 0,000 mm 0,0 UV-I 0 W/m² 12,3 °C 13,2 °C 0,0 km/h (0 Bft)
25.08.2019 02:18 13,2 °C 95 % 1016,7 hPa 0,0 mm 0,0 km/h (0 Bft) O-SO 112 ° 0 min 0,000 mm 0,0 UV-I 0 W/m² 12,4 °C 13,2 °C 0,0 km/h (0 Bft)
25.08.2019 02:19 13,2 °C 94 % 1016,7 hPa 0,0 mm 0,0 km/h (0 Bft) O-SO 112 ° 0 min 0,000 mm 0,0 UV-I 0 W/m² 12,3 °C 13,2 °C 0,0 km/h (0 Bft)
25.08.2019 02:20 13,1 °C 94 % 1016,7 hPa 0,0 mm 0,0 km/h (0 Bft) O-SO 112 ° 0 min 0,000 mm 0,0 UV-I 0 W/m² 12,2 °C 13,1 °C 0,0 km/h (0 Bft)
25.08.2019 02:21 13,0 °C 94 % 1016,7 hPa 0,0 mm 0,0 km/h (0 Bft) O-SO 112 ° 0 min 0,000 mm 0,0 UV-I 0 W/m² 12,1 °C 13,0 °C 0,0 km/h (0 Bft)
25.08.2019 02:22 12,9 °C 94 % 1016,7 hPa 0,0 mm 0,0 km/h (0 Bft) O-SO 112 ° 0 min 0,000 mm 0,0 UV-I 0 W/m² 12,0 °C 12,9 °C 0,0 km/h (0 Bft)
25.08.2019 02:23 12,9 °C 94 % 1016,7 hPa 0,0 mm 0,0 km/h (0 Bft) O-SO 112 ° 0 min 0,000 mm 0,0 UV-I 0 W/m² 12,0 °C 12,9 °C 0,0 km/h (0 Bft)
25.08.2019 02:24 12,9 °C 94 % 1016,7 hPa 0,0 mm 0,0 km/h (0 Bft) O-SO 112 ° 0 min 0,000 mm 0,0 UV-I 0 W/m² 12,0 °C 12,9 °C 0,0 km/h (0 Bft)
25.08.2019 02:25 12,9 °C 94 % 1016,7 hPa 0,0 mm 0,0 km/h (0 Bft) O-SO 112 ° 0 min 0,000 mm 0,0 UV-I 0 W/m² 12,0 °C 12,9 °C 0,0 km/h (0 Bft)
25.08.2019 02:26 12,9 °C 94 % 1016,8 hPa 0,0 mm 0,0 km/h (0 Bft) O-SO 112 ° 0 min 0,000 mm 0,0 UV-I 0 W/m² 12,0 °C 12,9 °C 0,0 km/h (0 Bft)
25.08.2019 02:27 12,9 °C 94 % 1016,7 hPa 0,0 mm 0,0 km/h (0 Bft) O-SO 112 ° 0 min 0,000 mm 0,0 UV-I 0 W/m² 12,0 °C 12,9 °C 0,0 km/h (0 Bft)
25.08.2019 02:28 12,9 °C 94 % 1016,8 hPa 0,0 mm 0,0 km/h (0 Bft) O-SO 112 ° 0 min 0,000 mm 0,0 UV-I 0 W/m² 12,0 °C 12,9 °C 0,0 km/h (0 Bft)
25.08.2019 02:29 12,9 °C 95 % 1016,8 hPa 0,0 mm 0,0 km/h (0 Bft) O-SO 112 ° 0 min 0,000 mm 0,0 UV-I 0 W/m² 12,1 °C 12,9 °C 0,0 km/h (0 Bft)
25.08.2019 02:30 12,9 °C 94 % 1016,7 hPa 0,0 mm 0,0 km/h (0 Bft) O-SO 112 ° 0 min 0,000 mm 0,0 UV-I 0 W/m² 12,0 °C 12,9 °C 0,0 km/h (0 Bft)
25.08.2019 02:31 12,9 °C 94 % 1016,7 hPa 0,0 mm 0,0 km/h (0 Bft) O-SO 112 ° 0 min 0,000 mm 0,0 UV-I 0 W/m² 12,0 °C 12,9 °C 0,0 km/h (0 Bft)
25.08.2019 02:32 12,8 °C 94 % 1016,7 hPa 0,0 mm 0,0 km/h (0 Bft) O-SO 112 ° 0 min 0,000 mm 0,0 UV-I 0 W/m² 11,9 °C 12,8 °C 0,0 km/h (0 Bft)
25.08.2019 02:33 12,8 °C 94 % 1016,7 hPa 0,0 mm 0,0 km/h (0 Bft) O-SO 112 ° 0 min 0,000 mm 0,0 UV-I 0 W/m² 11,9 °C 12,8 °C 0,0 km/h (0 Bft)
25.08.2019 02:34 12,8 °C 94 % 1016,8 hPa 0,0 mm 0,0 km/h (0 Bft) O-SO 112 ° 0 min 0,000 mm 0,0 UV-I 0 W/m² 11,9 °C 12,8 °C 0,0 km/h (0 Bft)
25.08.2019 02:35 12,8 °C 94 % 1016,7 hPa 0,0 mm 0,0 km/h (0 Bft) O-SO 112 ° 0 min 0,000 mm 0,0 UV-I 0 W/m² 11,9 °C 12,8 °C 0,0 km/h (0 Bft)
25.08.2019 02:36 12,8 °C 95 % 1016,7 hPa 0,0 mm 0,0 km/h (0 Bft) O-SO 112 ° 0 min 0,000 mm 0,0 UV-I 0 W/m² 12,0 °C 12,8 °C 0,0 km/h (0 Bft)
25.08.2019 02:37 12,8 °C 95 % 1016,7 hPa 0,0 mm 0,0 km/h (0 Bft) O-SO 112 ° 0 min 0,000 mm 0,0 UV-I 0 W/m² 12,0 °C 12,8 °C 0,0 km/h (0 Bft)
25.08.2019 02:38 12,8 °C 95 % 1016,7 hPa 0,0 mm 0,0 km/h (0 Bft) O-SO 112 ° 0 min 0,000 mm 0,0 UV-I 0 W/m² 12,0 °C 12,8 °C 0,0 km/h (0 Bft)
25.08.2019 02:39 12,8 °C 95 % 1016,7 hPa 0,0 mm 0,0 km/h (0 Bft) O-SO 112 ° 0 min 0,000 mm 0,0 UV-I 0 W/m² 12,0 °C 12,8 °C 0,0 km/h (0 Bft)
25.08.2019 02:40 12,8 °C 95 % 1016,8 hPa 0,0 mm 0,0 km/h (0 Bft) O-SO 112 ° 0 min 0,000 mm 0,0 UV-I 0 W/m² 12,0 °C 12,8 °C 0,0 km/h (0 Bft)
25.08.2019 02:41 12,7 °C 95 % 1016,8 hPa 0,0 mm 0,0 km/h (0 Bft) O-SO 112 ° 0 min 0,000 mm 0,0 UV-I 0 W/m² 11,9 °C 12,7 °C 0,0 km/h (0 Bft)
25.08.2019 02:42 12,7 °C 94 % 1016,8 hPa 0,0 mm 0,0 km/h (0 Bft) O-SO 112 ° 0 min 0,000 mm 0,0 UV-I 0 W/m² 11,8 °C 12,7 °C 0,0 km/h (0 Bft)
25.08.2019 02:43 12,7 °C 94 % 1016,8 hPa 0,0 mm 0,0 km/h (0 Bft) O-SO 112 ° 0 min 0,000 mm 0,0 UV-I 0 W/m² 11,8 °C 12,7 °C 0,0 km/h (0 Bft)
25.08.2019 02:44 12,7 °C 95 % 1016,8 hPa 0,0 mm 0,0 km/h (0 Bft) O-SO 112 ° 0 min 0,000 mm 0,0 UV-I 0 W/m² 11,9 °C 12,7 °C 0,0 km/h (0 Bft)
25.08.2019 02:45 12,8 °C 95 % 1016,8 hPa 0,0 mm 0,0 km/h (0 Bft) O-SO 112 ° 0 min 0,000 mm 0,0 UV-I 0 W/m² 12,0 °C 12,8 °C 0,0 km/h (0 Bft)
25.08.2019 02:46 12,8 °C 95 % 1016,8 hPa 0,0 mm 0,0 km/h (0 Bft) O-SO 112 ° 0 min 0,000 mm 0,0 UV-I 0 W/m² 12,0 °C 12,8 °C 0,0 km/h (0 Bft)
25.08.2019 02:47 12,8 °C 95 % 1016,8 hPa 0,0 mm 0,0 km/h (0 Bft) O-SO 112 ° 0 min 0,000 mm 0,0 UV-I 0 W/m² 12,0 °C 12,8 °C 0,0 km/h (0 Bft)
25.08.2019 02:48 12,9 °C 95 % 1016,8 hPa 0,0 mm 0,0 km/h (0 Bft) O-SO 112 ° 0 min 0,000 mm 0,0 UV-I 0 W/m² 12,1 °C 12,9 °C 0,0 km/h (0 Bft)
25.08.2019 02:49 12,9 °C 95 % 1016,8 hPa 0,0 mm 0,0 km/h (0 Bft) O-SO 112 ° 0 min 0,000 mm 0,0 UV-I 0 W/m² 12,1 °C 12,9 °C 0,0 km/h (0 Bft)
25.08.2019 02:50 12,9 °C 95 % 1016,8 hPa 0,0 mm 0,0 km/h (0 Bft) O-SO 112 ° 0 min 0,000 mm 0,0 UV-I 0 W/m² 12,1 °C 12,9 °C 0,0 km/h (0 Bft)
25.08.2019 02:51 12,9 °C 95 % 1016,8 hPa 0,0 mm 0,0 km/h (0 Bft) O-SO 112 ° 0 min 0,000 mm 0,0 UV-I 0 W/m² 12,1 °C 12,9 °C 0,0 km/h (0 Bft)
25.08.2019 02:52 13,0 °C 95 % 1016,9 hPa 0,0 mm 0,0 km/h (0 Bft) O-SO 112 ° 0 min 0,000 mm 0,0 UV-I 0 W/m² 12,2 °C 13,0 °C 0,0 km/h (0 Bft)
25.08.2019 02:53 13,1 °C 95 % 1016,8 hPa 0,0 mm 0,0 km/h (0 Bft) O-SO 112 ° 0 min 0,000 mm 0,0 UV-I 0 W/m² 12,3 °C 13,1 °C 0,0 km/h (0 Bft)
25.08.2019 02:54 13,1 °C 95 % 1016,8 hPa 0,0 mm 0,0 km/h (0 Bft) O-SO 112 ° 0 min 0,000 mm 0,0 UV-I 0 W/m² 12,3 °C 13,1 °C 0,0 km/h (0 Bft)
25.08.2019 02:55 13,0 °C 94 % 1016,8 hPa 0,0 mm 0,0 km/h (0 Bft) O-SO 112 ° 0 min 0,000 mm 0,0 UV-I 0 W/m² 12,1 °C 13,0 °C 0,0 km/h (0 Bft)
25.08.2019 02:56 12,9 °C 94 % 1016,7 hPa 0,0 mm 0,0 km/h (0 Bft) O-SO 112 ° 0 min 0,000 mm 0,0 UV-I 0 W/m² 12,0 °C 12,9 °C 0,0 km/h (0 Bft)
25.08.2019 02:57 12,9 °C 94 % 1016,7 hPa 0,0 mm 0,0 km/h (0 Bft) O-SO 112 ° 0 min 0,000 mm 0,0 UV-I 0 W/m² 12,0 °C 12,9 °C 0,0 km/h (0 Bft)
25.08.2019 02:58 12,9 °C 94 % 1016,7 hPa 0,0 mm 0,0 km/h (0 Bft) O-SO 112 ° 0 min 0,000 mm 0,0 UV-I 0 W/m² 12,0 °C 12,9 °C 0,0 km/h (0 Bft)
25.08.2019 02:59 12,8 °C 94 % 1016,7 hPa 0,0 mm 0,0 km/h (0 Bft) O-SO 112 ° 0 min 0,000 mm 0,0 UV-I 0 W/m² 11,9 °C 12,8 °C 0,0 km/h (0 Bft)
25.08.2019 03:00 12,8 °C 94 % 1016,8 hPa 0,0 mm 0,0 km/h (0 Bft) O-SO 112 ° 0 min 0,000 mm 0,0 UV-I 0 W/m² 11,9 °C 12,8 °C 0,0 km/h (0 Bft)
25.08.2019 03:01 12,8 °C 94 % 1016,7 hPa 0,0 mm 0,0 km/h (0 Bft) O-SO 112 ° 0 min 0,000 mm 0,0 UV-I 0 W/m² 11,9 °C 12,8 °C 0,0 km/h (0 Bft)
25.08.2019 03:02 12,8 °C 94 % 1016,7 hPa 0,0 mm 0,0 km/h (0 Bft) O-SO 112 ° 0 min 0,000 mm 0,0 UV-I 0 W/m² 11,9 °C 12,8 °C 0,0 km/h (0 Bft)
25.08.2019 03:03 12,8 °C 95 % 1016,7 hPa 0,0 mm 0,0 km/h (0 Bft) O-SO 112 ° 0 min 0,000 mm 0,0 UV-I 0 W/m² 12,0 °C 12,8 °C 0,0 km/h (0 Bft)
25.08.2019 03:04 12,7 °C 94 % 1016,6 hPa 0,0 mm 0,0 km/h (0 Bft) O-SO 112 ° 0 min 0,000 mm 0,0 UV-I 0 W/m² 11,8 °C 12,7 °C 0,0 km/h (0 Bft)
25.08.2019 03:05 12,7 °C 94 % 1016,6 hPa 0,0 mm 0,0 km/h (0 Bft) O-SO 112 ° 0 min 0,000 mm 0,0 UV-I 0 W/m² 11,8 °C 12,7 °C 0,0 km/h (0 Bft)
25.08.2019 03:06 12,7 °C 94 % 1016,6 hPa 0,0 mm 0,0 km/h (0 Bft) O-SO 112 ° 0 min 0,000 mm 0,0 UV-I 0 W/m² 11,8 °C 12,7 °C 0,0 km/h (0 Bft)
25.08.2019 03:07 12,7 °C 94 % 1016,6 hPa 0,0 mm 0,0 km/h (0 Bft) O-SO 112 ° 0 min 0,000 mm 0,0 UV-I 0 W/m² 11,8 °C 12,7 °C 0,0 km/h (0 Bft)
25.08.2019 03:08 12,7 °C 94 % 1016,7 hPa 0,0 mm 0,0 km/h (0 Bft) O-SO 112 ° 0 min 0,000 mm 0,0 UV-I 0 W/m² 11,8 °C 12,7 °C 0,0 km/h (0 Bft)
25.08.2019 03:09 12,6 °C 94 % 1016,6 hPa 0,0 mm 0,0 km/h (0 Bft) O-SO 112 ° 0 min 0,000 mm 0,0 UV-I 0 W/m² 11,7 °C 12,6 °C 0,0 km/h (0 Bft)
25.08.2019 03:10 12,6 °C 94 % 1016,6 hPa 0,0 mm 0,0 km/h (0 Bft) O-SO 112 ° 0 min 0,000 mm 0,0 UV-I 0 W/m² 11,7 °C 12,6 °C 0,0 km/h (0 Bft)
25.08.2019 03:11 12,6 °C 94 % 1016,6 hPa 0,0 mm 0,0 km/h (0 Bft) O-SO 112 ° 0 min 0,000 mm 0,0 UV-I 0 W/m² 11,7 °C 12,6 °C 0,0 km/h (0 Bft)
25.08.2019 03:12 12,6 °C 95 % 1016,6 hPa 0,0 mm 0,0 km/h (0 Bft) O-SO 112 ° 0 min 0,000 mm 0,0 UV-I 0 W/m² 11,8 °C 12,6 °C 0,0 km/h (0 Bft)
25.08.2019 03:13 12,6 °C 94 % 1016,6 hPa 0,0 mm 0,0 km/h (0 Bft) O-SO 112 ° 0 min 0,000 mm 0,0 UV-I 0 W/m² 11,7 °C 12,6 °C 0,0 km/h (0 Bft)
25.08.2019 03:14 12,6 °C 95 % 1016,6 hPa 0,0 mm 0,0 km/h (0 Bft) O-SO 112 ° 0 min 0,000 mm 0,0 UV-I 0 W/m² 11,8 °C 12,6 °C 0,0 km/h (0 Bft)
25.08.2019 03:15 12,6 °C 95 % 1016,6 hPa 0,0 mm 0,0 km/h (0 Bft) O-SO 112 ° 0 min 0,000 mm 0,0 UV-I 0 W/m² 11,8 °C 12,6 °C 0,0 km/h (0 Bft)
25.08.2019 03:16 12,6 °C 95 % 1016,6 hPa 0,0 mm 0,0 km/h (0 Bft) O-SO 112 ° 0 min 0,000 mm 0,0 UV-I 0 W/m² 11,8 °C 12,6 °C 0,0 km/h (0 Bft)
25.08.2019 03:17 12,6 °C 95 % 1016,6 hPa 0,0 mm 0,0 km/h (0 Bft) O-SO 112 ° 0 min 0,000 mm 0,0 UV-I 0 W/m² 11,8 °C 12,6 °C 0,0 km/h (0 Bft)
25.08.2019 03:18 12,6 °C 95 % 1016,6 hPa 0,0 mm 0,0 km/h (0 Bft) O-SO 112 ° 0 min 0,000 mm 0,0 UV-I 0 W/m² 11,8 °C 12,6 °C 0,0 km/h (0 Bft)
25.08.2019 03:19 12,6 °C 95 % 1016,6 hPa 0,0 mm 0,0 km/h (0 Bft) O-SO 112 ° 0 min 0,000 mm 0,0 UV-I 0 W/m² 11,8 °C 12,6 °C 0,0 km/h (0 Bft)
25.08.2019 03:20 12,7 °C 95 % 1016,6 hPa 0,0 mm 0,0 km/h (0 Bft) O-SO 112 ° 0 min 0,000 mm 0,0 UV-I 0 W/m² 11,9 °C 12,7 °C 0,0 km/h (0 Bft)
25.08.2019 03:21 12,7 °C 95 % 1016,6 hPa 0,0 mm 0,0 km/h (0 Bft) O-SO 112 ° 0 min 0,000 mm 0,0 UV-I 0 W/m² 11,9 °C 12,7 °C 0,0 km/h (0 Bft)
25.08.2019 03:22 12,7 °C 95 % 1016,6 hPa 0,0 mm 0,0 km/h (0 Bft) O-SO 112 ° 0 min 0,000 mm 0,0 UV-I 0 W/m² 11,9 °C 12,7 °C 0,0 km/h (0 Bft)
25.08.2019 03:23 12,8 °C 95 % 1016,6 hPa 0,0 mm 0,0 km/h (0 Bft) O-SO 112 ° 0 min 0,000 mm 0,0 UV-I 0 W/m² 12,0 °C 12,8 °C 0,0 km/h (0 Bft)
25.08.2019 03:24 12,7 °C 95 % 1016,5 hPa 0,0 mm 0,0 km/h (0 Bft) O-SO 112 ° 0 min 0,000 mm 0,0 UV-I 0 W/m² 11,9 °C 12,7 °C 0,0 km/h (0 Bft)
25.08.2019 03:25 12,8 °C 95 % 1016,5 hPa 0,0 mm 0,0 km/h (0 Bft) O-SO 112 ° 0 min 0,000 mm 0,0 UV-I 0 W/m² 12,0 °C 12,8 °C 0,0 km/h (0 Bft)
25.08.2019 03:26 12,8 °C 95 % 1016,6 hPa 0,0 mm 0,0 km/h (0 Bft) O-SO 112 ° 0 min 0,000 mm 0,0 UV-I 0 W/m² 12,0 °C 12,8 °C 0,0 km/h (0 Bft)
25.08.2019 03:27 12,8 °C 95 % 1016,5 hPa 0,0 mm 0,0 km/h (0 Bft) O-SO 112 ° 0 min 0,000 mm 0,0 UV-I 0 W/m² 12,0 °C 12,8 °C 0,0 km/h (0 Bft)
25.08.2019 03:28 12,8 °C 95 % 1016,5 hPa 0,0 mm 0,0 km/h (0 Bft) O-SO 112 ° 0 min 0,000 mm 0,0 UV-I 0 W/m² 12,0 °C 12,8 °C 0,0 km/h (0 Bft)
25.08.2019 03:29 12,8 °C 95 % 1016,6 hPa 0,0 mm 0,0 km/h (0 Bft) O-SO 112 ° 0 min 0,000 mm 0,0 UV-I 0 W/m² 12,0 °C 12,8 °C 0,0 km/h (0 Bft)
25.08.2019 03:30 12,9 °C 95 % 1016,6 hPa 0,0 mm 0,0 km/h (0 Bft) O-SO 112 ° 0 min 0,000 mm 0,0 UV-I 0 W/m² 12,1 °C 12,9 °C 0,0 km/h (0 Bft)
25.08.2019 03:31 12,9 °C 95 % 1016,6 hPa 0,0 mm 0,0 km/h (0 Bft) O-SO 112 ° 0 min 0,000 mm 0,0 UV-I 0 W/m² 12,1 °C 12,9 °C 0,0 km/h (0 Bft)
25.08.2019 03:32 12,9 °C 95 % 1016,6 hPa 0,0 mm 0,0 km/h (0 Bft) O-SO 112 ° 0 min 0,000 mm 0,0 UV-I 0 W/m² 12,1 °C 12,9 °C 0,0 km/h (0 Bft)
25.08.2019 03:33 13,0 °C 95 % 1016,6 hPa 0,0 mm 0,0 km/h (0 Bft) O-SO 112 ° 0 min 0,000 mm 0,0 UV-I 0 W/m² 12,2 °C 13,0 °C 0,0 km/h (0 Bft)
25.08.2019 03:34 13,1 °C 95 % 1016,6 hPa 0,0 mm 0,0 km/h (0 Bft) O-SO 112 ° 0 min 0,000 mm 0,0 UV-I 0 W/m² 12,3 °C 13,1 °C 0,0 km/h (0 Bft)
25.08.2019 03:35 13,1 °C 95 % 1016,6 hPa 0,0 mm 0,0 km/h (0 Bft) O-SO 112 ° 0 min 0,000 mm 0,0 UV-I 0 W/m² 12,3 °C 13,1 °C 0,0 km/h (0 Bft)
25.08.2019 03:36 13,1 °C 95 % 1016,6 hPa 0,0 mm 0,0 km/h (0 Bft) O-SO 112 ° 0 min 0,000 mm 0,0 UV-I 0 W/m² 12,3 °C 13,1 °C 0,0 km/h (0 Bft)
25.08.2019 03:37 13,0 °C 95 % 1016,6 hPa 0,0 mm 0,0 km/h (0 Bft) O-SO 112 ° 0 min 0,000 mm 0,0 UV-I 0 W/m² 12,2 °C 13,0 °C 0,0 km/h (0 Bft)
25.08.2019 03:38 12,9 °C 95 % 1016,6 hPa 0,0 mm 0,0 km/h (0 Bft) O-SO 112 ° 0 min 0,000 mm 0,0 UV-I 0 W/m² 12,1 °C 12,9 °C 0,0 km/h (0 Bft)
25.08.2019 03:39 12,9 °C 95 % 1016,6 hPa 0,0 mm 0,0 km/h (0 Bft) O-SO 112 ° 0 min 0,000 mm 0,0 UV-I 0 W/m² 12,1 °C 12,9 °C 0,0 km/h (0 Bft)
25.08.2019 03:40 12,9 °C 95 % 1016,6 hPa 0,0 mm 0,0 km/h (0 Bft) O-SO 112 ° 0 min 0,000 mm 0,0 UV-I 0 W/m² 12,1 °C 12,9 °C 0,0 km/h (0 Bft)
25.08.2019 03:41 12,9 °C 95 % 1016,6 hPa 0,0 mm 0,0 km/h (0 Bft) O-SO 112 ° 0 min 0,000 mm 0,0 UV-I 0 W/m² 12,1 °C 12,9 °C 0,0 km/h (0 Bft)
25.08.2019 03:42 12,9 °C 95 % 1016,7 hPa 0,0 mm 0,0 km/h (0 Bft) O-SO 112 ° 0 min 0,000 mm 0,0 UV-I 0 W/m² 12,1 °C 12,9 °C 0,0 km/h (0 Bft)
25.08.2019 03:43 12,8 °C 95 % 1016,7 hPa 0,0 mm 0,0 km/h (0 Bft) O-SO 112 ° 0 min 0,000 mm 0,0 UV-I 0 W/m² 12,0 °C 12,8 °C 0,0 km/h (0 Bft)
25.08.2019 03:44 12,8 °C 95 % 1016,7 hPa 0,0 mm 0,0 km/h (0 Bft) O-SO 112 ° 0 min 0,000 mm 0,0 UV-I 0 W/m² 12,0 °C 12,8 °C 0,0 km/h (0 Bft)
25.08.2019 03:45 12,7 °C 94 % 1016,7 hPa 0,0 mm 0,0 km/h (0 Bft) O-SO 112 ° 0 min 0,000 mm 0,0 UV-I 0 W/m² 11,8 °C 12,7 °C 0,0 km/h (0 Bft)
25.08.2019 03:46 12,7 °C 94 % 1016,8 hPa 0,0 mm 0,0 km/h (0 Bft) O-SO 112 ° 0 min 0,000 mm 0,0 UV-I 0 W/m² 11,8 °C 12,7 °C 0,0 km/h (0 Bft)
25.08.2019 03:47 12,7 °C 95 % 1016,8 hPa 0,0 mm 0,0 km/h (0 Bft) O-SO 112 ° 0 min 0,000 mm 0,0 UV-I 0 W/m² 11,9 °C 12,7 °C 0,0 km/h (0 Bft)
25.08.2019 03:48 12,7 °C 95 % 1016,7 hPa 0,0 mm 0,0 km/h (0 Bft) O-SO 112 ° 0 min 0,000 mm 0,0 UV-I 0 W/m² 11,9 °C 12,7 °C 0,0 km/h (0 Bft)
25.08.2019 03:49 12,8 °C 95 % 1016,7 hPa 0,0 mm 0,0 km/h (0 Bft) O-SO 112 ° 0 min 0,000 mm 0,0 UV-I 0 W/m² 12,0 °C 12,8 °C 0,0 km/h (0 Bft)
25.08.2019 03:50 12,8 °C 95 % 1016,7 hPa 0,0 mm 0,0 km/h (0 Bft) O-SO 112 ° 0 min 0,000 mm 0,0 UV-I 0 W/m² 12,0 °C 12,8 °C 0,0 km/h (0 Bft)
25.08.2019 03:51 12,9 °C 95 % 1016,8 hPa 0,0 mm 0,0 km/h (0 Bft) O-SO 112 ° 0 min 0,000 mm 0,0 UV-I 0 W/m² 12,1 °C 12,9 °C 0,0 km/h (0 Bft)
25.08.2019 03:52 12,9 °C 95 % 1016,8 hPa 0,0 mm 0,0 km/h (0 Bft) O-SO 112 ° 0 min 0,000 mm 0,0 UV-I 0 W/m² 12,1 °C 12,9 °C 0,0 km/h (0 Bft)
25.08.2019 03:53 12,9 °C 95 % 1016,8 hPa 0,0 mm 0,0 km/h (0 Bft) O-SO 112 ° 0 min 0,000 mm 0,0 UV-I 0 W/m² 12,1 °C 12,9 °C 0,0 km/h (0 Bft)
25.08.2019 03:54 12,9 °C 95 % 1016,8 hPa 0,0 mm 0,0 km/h (0 Bft) O-SO 112 ° 0 min 0,000 mm 0,0 UV-I 0 W/m² 12,1 °C 12,9 °C 0,0 km/h (0 Bft)
25.08.2019 03:55 12,9 °C 95 % 1016,8 hPa 0,0 mm 0,0 km/h (0 Bft) O-SO 112 ° 0 min 0,000 mm 0,0 UV-I 0 W/m² 12,1 °C 12,9 °C 0,0 km/h (0 Bft)
25.08.2019 03:56 12,9 °C 95 % 1016,7 hPa 0,0 mm 0,0 km/h (0 Bft) O-SO 112 ° 0 min 0,000 mm 0,0 UV-I 0 W/m² 12,1 °C 12,9 °C 0,0 km/h (0 Bft)
25.08.2019 03:57 12,9 °C 95 % 1016,7 hPa 0,0 mm 0,0 km/h (0 Bft) O-SO 112 ° 0 min 0,000 mm 0,0 UV-I 0 W/m² 12,1 °C 12,9 °C 0,0 km/h (0 Bft)
25.08.2019 03:58 12,9 °C 95 % 1016,7 hPa 0,0 mm 0,0 km/h (0 Bft) O-SO 112 ° 0 min 0,000 mm 0,0 UV-I 0 W/m² 12,1 °C 12,9 °C 0,0 km/h (0 Bft)
25.08.2019 03:59 12,9 °C 95 % 1016,7 hPa 0,0 mm 0,0 km/h (0 Bft) O-SO 112 ° 0 min 0,000 mm 0,0 UV-I 0 W/m² 12,1 °C 12,9 °C 0,0 km/h (0 Bft)
25.08.2019 04:00 12,8 °C 95 % 1016,7 hPa 0,0 mm 0,0 km/h (0 Bft) O-SO 112 ° 0 min 0,000 mm 0,0 UV-I 0 W/m² 12,0 °C 12,8 °C 0,0 km/h (0 Bft)
25.08.2019 04:02 12,8 °C 95 % 1016,7 hPa 0,0 mm 0,0 km/h (0 Bft) O-SO 112 ° 0 min 0,000 mm 0,0 UV-I 0 W/m² 12,0 °C 12,8 °C 0,0 km/h (0 Bft)
25.08.2019 04:03 12,8 °C 95 % 1016,7 hPa 0,0 mm 0,0 km/h (0 Bft) O-SO 112 ° 0 min 0,000 mm 0,0 UV-I 0 W/m² 12,0 °C 12,8 °C 0,0 km/h (0 Bft)
25.08.2019 04:04 12,7 °C 95 % 1016,7 hPa 0,0 mm 0,0 km/h (0 Bft) O-SO 112 ° 0 min 0,000 mm 0,0 UV-I 0 W/m² 11,9 °C 12,7 °C 0,0 km/h (0 Bft)
25.08.2019 04:05 12,7 °C 94 % 1016,7 hPa 0,0 mm 0,0 km/h (0 Bft) O-SO 112 ° 0 min 0,000 mm 0,0 UV-I 0 W/m² 11,8 °C 12,7 °C 0,0 km/h (0 Bft)
25.08.2019 04:06 12,6 °C 94 % 1016,8 hPa 0,0 mm 0,0 km/h (0 Bft) O-SO 112 ° 0 min 0,000 mm 0,0 UV-I 0 W/m² 11,7 °C 12,6 °C 0,0 km/h (0 Bft)
25.08.2019 04:07 12,6 °C 94 % 1016,8 hPa 0,0 mm 0,0 km/h (0 Bft) O-SO 112 ° 0 min 0,000 mm 0,0 UV-I 0 W/m² 11,7 °C 12,6 °C 0,0 km/h (0 Bft)
25.08.2019 04:08 12,6 °C 94 % 1016,8 hPa 0,0 mm 0,0 km/h (0 Bft) O-SO 112 ° 0 min 0,000 mm 0,0 UV-I 0 W/m² 11,7 °C 12,6 °C 0,0 km/h (0 Bft)
25.08.2019 04:09 12,6 °C 95 % 1016,7 hPa 0,0 mm 0,0 km/h (0 Bft) O-SO 112 ° 0 min 0,000 mm 0,0 UV-I 0 W/m² 11,8 °C 12,6 °C 0,0 km/h (0 Bft)
25.08.2019 04:10 12,6 °C 95 % 1016,8 hPa 0,0 mm 0,0 km/h (0 Bft) O-SO 112 ° 0 min 0,000 mm 0,0 UV-I 0 W/m² 11,8 °C 12,6 °C 0,0 km/h (0 Bft)
25.08.2019 04:11 12,7 °C 95 % 1016,8 hPa 0,0 mm 0,4 km/h (0 Bft) O-SO 112 ° 0 min 0,000 mm 0,0 UV-I 0 W/m² 11,9 °C 12,7 °C 1,6 km/h (1 Bft)
25.08.2019 04:12 12,7 °C 95 % 1016,8 hPa 0,0 mm 0,0 km/h (0 Bft) O-SO 112 ° 0 min 0,000 mm 0,0 UV-I 0 W/m² 11,9 °C 12,7 °C 0,0 km/h (0 Bft)
25.08.2019 04:13 12,8 °C 95 % 1016,8 hPa 0,0 mm 0,0 km/h (0 Bft) O-SO 112 ° 0 min 0,000 mm 0,0 UV-I 0 W/m² 12,0 °C 12,8 °C 0,0 km/h (0 Bft)
25.08.2019 04:14 12,7 °C 95 % 1016,8 hPa 0,0 mm 0,0 km/h (0 Bft) O-SO 112 ° 0 min 0,000 mm 0,0 UV-I 0 W/m² 11,9 °C 12,7 °C 0,0 km/h (0 Bft)
25.08.2019 04:15 12,7 °C 95 % 1016,8 hPa 0,0 mm 0,0 km/h (0 Bft) O-SO 112 ° 0 min 0,000 mm 0,0 UV-I 0 W/m² 11,9 °C 12,7 °C 0,0 km/h (0 Bft)
25.08.2019 04:16 12,6 °C 95 % 1016,8 hPa 0,0 mm 0,0 km/h (0 Bft) O-SO 112 ° 0 min 0,000 mm 0,0 UV-I 0 W/m² 11,8 °C 12,6 °C 0,0 km/h (0 Bft)
25.08.2019 04:17 12,6 °C 95 % 1016,8 hPa 0,0 mm 0,1 km/h (0 Bft) O-SO 112 ° 0 min 0,000 mm 0,0 UV-I 0 W/m² 11,8 °C 12,6 °C 1,6 km/h (1 Bft)
25.08.2019 04:18 12,6 °C 95 % 1016,8 hPa 0,0 mm 0,0 km/h (0 Bft) O-SO 112 ° 0 min 0,000 mm 0,0 UV-I 0 W/m² 11,8 °C 12,6 °C 0,0 km/h (0 Bft)
25.08.2019 04:19 12,5 °C 95 % 1016,7 hPa 0,0 mm 0,0 km/h (0 Bft) O-SO 112 ° 0 min 0,000 mm 0,0 UV-I 0 W/m² 11,7 °C 12,5 °C 0,0 km/h (0 Bft)
25.08.2019 04:20 12,5 °C 95 % 1016,7 hPa 0,0 mm 0,0 km/h (0 Bft) O-SO 112 ° 0 min 0,000 mm 0,0 UV-I 0 W/m² 11,7 °C 12,5 °C 0,0 km/h (0 Bft)
25.08.2019 04:21 12,5 °C 95 % 1016,8 hPa 0,0 mm 0,0 km/h (0 Bft) O-SO 112 ° 0 min 0,000 mm 0,0 UV-I 0 W/m² 11,7 °C 12,5 °C 0,0 km/h (0 Bft)
25.08.2019 04:22 12,5 °C 95 % 1016,8 hPa 0,0 mm 0,0 km/h (0 Bft) O-SO 112 ° 0 min 0,000 mm 0,0 UV-I 0 W/m² 11,7 °C 12,5 °C 0,0 km/h (0 Bft)
25.08.2019 04:23 12,5 °C 95 % 1016,8 hPa 0,0 mm 0,0 km/h (0 Bft) O-SO 112 ° 0 min 0,000 mm 0,0 UV-I 0 W/m² 11,7 °C 12,5 °C 0,0 km/h (0 Bft)
25.08.2019 04:24 12,4 °C 95 % 1016,7 hPa 0,0 mm 0,0 km/h (0 Bft) O-SO 112 ° 0 min 0,000 mm 0,0 UV-I 0 W/m² 11,6 °C 12,4 °C 0,0 km/h (0 Bft)
25.08.2019 04:25 12,4 °C 95 % 1016,7 hPa 0,0 mm 0,0 km/h (0 Bft) O-SO 112 ° 0 min 0,000 mm 0,0 UV-I 0 W/m² 11,6 °C 12,4 °C 0,0 km/h (0 Bft)
25.08.2019 04:26 12,4 °C 95 % 1016,8 hPa 0,0 mm 0,0 km/h (0 Bft) O-SO 112 ° 0 min 0,000 mm 0,0 UV-I 0 W/m² 11,6 °C 12,4 °C 0,0 km/h (0 Bft)
25.08.2019 04:27 12,4 °C 95 % 1016,8 hPa 0,0 mm 0,0 km/h (0 Bft) O-SO 112 ° 0 min 0,000 mm 0,0 UV-I 0 W/m² 11,6 °C 12,4 °C 0,0 km/h (0 Bft)
25.08.2019 04:28 12,4 °C 95 % 1016,8 hPa 0,0 mm 0,0 km/h (0 Bft) O-SO 112 ° 0 min 0,000 mm 0,0 UV-I 0 W/m² 11,6 °C 12,4 °C 0,0 km/h (0 Bft)
25.08.2019 04:29 12,4 °C 95 % 1016,9 hPa 0,0 mm 0,0 km/h (0 Bft) O-SO 112 ° 0 min 0,000 mm 0,0 UV-I 0 W/m² 11,6 °C 12,4 °C 0,0 km/h (0 Bft)
25.08.2019 04:30 12,3 °C 95 % 1016,9 hPa 0,0 mm 0,0 km/h (0 Bft) O-SO 112 ° 0 min 0,000 mm 0,0 UV-I 0 W/m² 11,5 °C 12,3 °C 0,0 km/h (0 Bft)
25.08.2019 04:31 12,3 °C 95 % 1016,8 hPa 0,0 mm 0,0 km/h (0 Bft) O-SO 112 ° 0 min 0,000 mm 0,0 UV-I 0 W/m² 11,5 °C 12,3 °C 0,0 km/h (0 Bft)
25.08.2019 04:32 12,3 °C 95 % 1016,8 hPa 0,0 mm 0,0 km/h (0 Bft) O-SO 112 ° 0 min 0,000 mm 0,0 UV-I 0 W/m² 11,5 °C 12,3 °C 0,0 km/h (0 Bft)
25.08.2019 04:33 12,3 °C 95 % 1016,8 hPa 0,0 mm 0,0 km/h (0 Bft) O-SO 112 ° 0 min 0,000 mm 0,0 UV-I 0 W/m² 11,5 °C 12,3 °C 0,0 km/h (0 Bft)
25.08.2019 04:34 12,3 °C 95 % 1016,8 hPa 0,0 mm 0,0 km/h (0 Bft) O-SO 112 ° 0 min 0,000 mm 0,0 UV-I 0 W/m² 11,5 °C 12,3 °C 0,0 km/h (0 Bft)
25.08.2019 04:35 12,3 °C 95 % 1016,8 hPa 0,0 mm 0,0 km/h (0 Bft) O-SO 112 ° 0 min 0,000 mm 0,0 UV-I 0 W/m² 11,5 °C 12,3 °C 0,0 km/h (0 Bft)
25.08.2019 04:36 12,3 °C 95 % 1016,8 hPa 0,0 mm 0,0 km/h (0 Bft) O-SO 112 ° 0 min 0,000 mm 0,0 UV-I 0 W/m² 11,5 °C 12,3 °C 0,0 km/h (0 Bft)
25.08.2019 04:37 12,3 °C 95 % 1016,8 hPa 0,0 mm 0,0 km/h (0 Bft) O-SO 112 ° 0 min 0,000 mm 0,0 UV-I 0 W/m² 11,5 °C 12,3 °C 0,0 km/h (0 Bft)
25.08.2019 04:38 12,3 °C 95 % 1016,8 hPa 0,0 mm 0,0 km/h (0 Bft) O-SO 112 ° 0 min 0,000 mm 0,0 UV-I 0 W/m² 11,5 °C 12,3 °C 0,0 km/h (0 Bft)
25.08.2019 04:39 12,4 °C 95 % 1016,8 hPa 0,0 mm 0,0 km/h (0 Bft) O-SO 112 ° 0 min 0,000 mm 0,0 UV-I 0 W/m² 11,6 °C 12,4 °C 0,0 km/h (0 Bft)
25.08.2019 04:40 12,4 °C 95 % 1016,8 hPa 0,0 mm 0,0 km/h (0 Bft) O-SO 112 ° 0 min 0,000 mm 0,0 UV-I 0 W/m² 11,6 °C 12,4 °C 0,0 km/h (0 Bft)
25.08.2019 04:41 12,4 °C 95 % 1016,8 hPa 0,0 mm 0,0 km/h (0 Bft) O-SO 112 ° 0 min 0,000 mm 0,0 UV-I 0 W/m² 11,6 °C 12,4 °C 0,0 km/h (0 Bft)
25.08.2019 04:42 12,3 °C 95 % 1016,8 hPa 0,0 mm 0,0 km/h (0 Bft) O-SO 112 ° 0 min 0,000 mm 0,0 UV-I 0 W/m² 11,5 °C 12,3 °C 0,0 km/h (0 Bft)
25.08.2019 04:43 12,3 °C 95 % 1016,8 hPa 0,0 mm 0,0 km/h (0 Bft) O-SO 112 ° 0 min 0,000 mm 0,0 UV-I 0 W/m² 11,5 °C 12,3 °C 0,0 km/h (0 Bft)
25.08.2019 04:44 12,3 °C 95 % 1016,8 hPa 0,0 mm 0,0 km/h (0 Bft) O-SO 112 ° 0 min 0,000 mm 0,0 UV-I 0 W/m² 11,5 °C 12,3 °C 0,0 km/h (0 Bft)
25.08.2019 04:45 12,3 °C 95 % 1016,8 hPa 0,0 mm 0,0 km/h (0 Bft) O-SO 112 ° 0 min 0,000 mm 0,0 UV-I 0 W/m² 11,5 °C 12,3 °C 0,0 km/h (0 Bft)
25.08.2019 04:46 12,3 °C 95 % 1016,8 hPa 0,0 mm 0,0 km/h (0 Bft) O-SO 112 ° 0 min 0,000 mm 0,0 UV-I 0 W/m² 11,5 °C 12,3 °C 0,0 km/h (0 Bft)
25.08.2019 04:47 12,3 °C 95 % 1016,8 hPa 0,0 mm 0,0 km/h (0 Bft) O-SO 112 ° 0 min 0,000 mm 0,0 UV-I 0 W/m² 11,5 °C 12,3 °C 0,0 km/h (0 Bft)
25.08.2019 04:48 12,3 °C 95 % 1016,8 hPa 0,0 mm 0,0 km/h (0 Bft) O-SO 112 ° 0 min 0,000 mm 0,0 UV-I 0 W/m² 11,5 °C 12,3 °C 0,0 km/h (0 Bft)
25.08.2019 04:49 12,3 °C 95 % 1016,8 hPa 0,0 mm 0,0 km/h (0 Bft) O-SO 112 ° 0 min 0,000 mm 0,0 UV-I 0 W/m² 11,5 °C 12,3 °C 0,0 km/h (0 Bft)
25.08.2019 04:50 12,2 °C 95 % 1016,8 hPa 0,0 mm 0,0 km/h (0 Bft) O-SO 112 ° 0 min 0,000 mm 0,0 UV-I 0 W/m² 11,4 °C 12,2 °C 0,0 km/h (0 Bft)
25.08.2019 04:51 12,2 °C 95 % 1016,8 hPa 0,0 mm 0,0 km/h (0 Bft) O-SO 112 ° 0 min 0,000 mm 0,0 UV-I 0 W/m² 11,4 °C 12,2 °C 0,0 km/h (0 Bft)
25.08.2019 04:52 12,2 °C 95 % 1016,8 hPa 0,0 mm 0,0 km/h (0 Bft) O-SO 112 ° 0 min 0,000 mm 0,0 UV-I 0 W/m² 11,4 °C 12,2 °C 0,0 km/h (0 Bft)
25.08.2019 04:53 12,3 °C 95 % 1016,8 hPa 0,0 mm 0,0 km/h (0 Bft) O-SO 112 ° 0 min 0,000 mm 0,0 UV-I 0 W/m² 11,5 °C 12,3 °C 0,0 km/h (0 Bft)
25.08.2019 04:54 12,3 °C 95 % 1016,8 hPa 0,0 mm 0,0 km/h (0 Bft) O-SO 112 ° 0 min 0,000 mm 0,0 UV-I 0 W/m² 11,5 °C 12,3 °C 0,0 km/h (0 Bft)
25.08.2019 04:55 12,3 °C 95 % 1016,8 hPa 0,0 mm 0,0 km/h (0 Bft) O-SO 112 ° 0 min 0,000 mm 0,0 UV-I 0 W/m² 11,5 °C 12,3 °C 0,0 km/h (0 Bft)
25.08.2019 04:56 12,3 °C 95 % 1016,8 hPa 0,0 mm 0,0 km/h (0 Bft) O-SO 112 ° 0 min 0,000 mm 0,0 UV-I 0 W/m² 11,5 °C 12,3 °C 0,0 km/h (0 Bft)
25.08.2019 04:57 12,3 °C 95 % 1016,8 hPa 0,0 mm 0,0 km/h (0 Bft) O-SO 112 ° 0 min 0,000 mm 0,0 UV-I 0 W/m² 11,5 °C 12,3 °C 0,0 km/h (0 Bft)
25.08.2019 04:58 12,2 °C 95 % 1016,8 hPa 0,0 mm 0,0 km/h (0 Bft) O-SO 112 ° 0 min 0,000 mm 0,0 UV-I 0 W/m² 11,4 °C 12,2 °C 0,0 km/h (0 Bft)
25.08.2019 04:59 12,2 °C 95 % 1016,8 hPa 0,0 mm 0,0 km/h (0 Bft) O-SO 112 ° 0 min 0,000 mm 0,0 UV-I 0 W/m² 11,4 °C 12,2 °C 0,0 km/h (0 Bft)
25.08.2019 05:00 12,2 °C 95 % 1016,8 hPa 0,0 mm 0,0 km/h (0 Bft) O-SO 112 ° 0 min 0,000 mm 0,0 UV-I 0 W/m² 11,4 °C 12,2 °C 0,0 km/h (0 Bft)
25.08.2019 05:01 12,2 °C 95 % 1016,8 hPa 0,0 mm 0,0 km/h (0 Bft) O-SO 112 ° 0 min 0,000 mm 0,0 UV-I 0 W/m² 11,4 °C 12,2 °C 0,0 km/h (0 Bft)
25.08.2019 05:02 12,1 °C 95 % 1016,8 hPa 0,0 mm 0,0 km/h (0 Bft) O-SO 112 ° 0 min 0,000 mm 0,0 UV-I 0 W/m² 11,3 °C 12,1 °C 0,0 km/h (0 Bft)
25.08.2019 05:03 12,1 °C 95 % 1016,8 hPa 0,0 mm 0,0 km/h (0 Bft) O-SO 112 ° 0 min 0,000 mm 0,0 UV-I 0 W/m² 11,3 °C 12,1 °C 0,0 km/h (0 Bft)
25.08.2019 05:04 12,1 °C 95 % 1016,8 hPa 0,0 mm 0,0 km/h (0 Bft) O-SO 112 ° 0 min 0,000 mm 0,0 UV-I 0 W/m² 11,3 °C 12,1 °C 0,0 km/h (0 Bft)
25.08.2019 05:05 12,1 °C 95 % 1016,8 hPa 0,0 mm 0,0 km/h (0 Bft) O-SO 112 ° 0 min 0,000 mm 0,0 UV-I 0 W/m² 11,3 °C 12,1 °C 0,0 km/h (0 Bft)
25.08.2019 05:06 12,1 °C 95 % 1016,8 hPa 0,0 mm 0,0 km/h (0 Bft) O-SO 112 ° 0 min 0,000 mm 0,0 UV-I 0 W/m² 11,3 °C 12,1 °C 0,0 km/h (0 Bft)
25.08.2019 05:07 12,1 °C 95 % 1016,8 hPa 0,0 mm 0,0 km/h (0 Bft) O-SO 112 ° 0 min 0,000 mm 0,0 UV-I 0 W/m² 11,3 °C 12,1 °C 0,0 km/h (0 Bft)
25.08.2019 05:08 12,1 °C 95 % 1016,7 hPa 0,0 mm 0,0 km/h (0 Bft) O-SO 112 ° 0 min 0,000 mm 0,0 UV-I 0 W/m² 11,3 °C 12,1 °C 0,0 km/h (0 Bft)
25.08.2019 05:09 12,1 °C 95 % 1016,7 hPa 0,0 mm 0,0 km/h (0 Bft) O-SO 112 ° 0 min 0,000 mm 0,0 UV-I 0 W/m² 11,3 °C 12,1 °C 0,0 km/h (0 Bft)
25.08.2019 05:10 12,0 °C 95 % 1016,7 hPa 0,0 mm 0,0 km/h (0 Bft) O-SO 112 ° 0 min 0,000 mm 0,0 UV-I 0 W/m² 11,2 °C 12,0 °C 0,0 km/h (0 Bft)
25.08.2019 05:11 12,0 °C 95 % 1016,7 hPa 0,0 mm 0,0 km/h (0 Bft) O-SO 112 ° 0 min 0,000 mm 0,0 UV-I 0 W/m² 11,2 °C 12,0 °C 0,0 km/h (0 Bft)
25.08.2019 05:12 12,0 °C 95 % 1016,7 hPa 0,0 mm 0,0 km/h (0 Bft) O-SO 112 ° 0 min 0,000 mm 0,0 UV-I 0 W/m² 11,2 °C 12,0 °C 0,0 km/h (0 Bft)
25.08.2019 05:13 12,0 °C 95 % 1016,7 hPa 0,0 mm 0,0 km/h (0 Bft) O-SO 112 ° 0 min 0,000 mm 0,0 UV-I 0 W/m² 11,2 °C 12,0 °C 0,0 km/h (0 Bft)
25.08.2019 05:14 12,1 °C 95 % 1016,7 hPa 0,0 mm 0,0 km/h (0 Bft) O-SO 112 ° 0 min 0,000 mm 0,0 UV-I 0 W/m² 11,3 °C 12,1 °C 0,0 km/h (0 Bft)
25.08.2019 05:15 12,1 °C 95 % 1016,7 hPa 0,0 mm 0,0 km/h (0 Bft) O-SO 112 ° 0 min 0,000 mm 0,0 UV-I 0 W/m² 11,3 °C 12,1 °C 0,0 km/h (0 Bft)
25.08.2019 05:16 12,1 °C 95 % 1016,8 hPa 0,0 mm 0,0 km/h (0 Bft) O-SO 112 ° 0 min 0,000 mm 0,0 UV-I 0 W/m² 11,3 °C 12,1 °C 0,0 km/h (0 Bft)
25.08.2019 05:17 12,1 °C 95 % 1016,8 hPa 0,0 mm 0,0 km/h (0 Bft) O-SO 112 ° 0 min 0,000 mm 0,0 UV-I 0 W/m² 11,3 °C 12,1 °C 0,0 km/h (0 Bft)
25.08.2019 05:18 12,1 °C 95 % 1016,8 hPa 0,0 mm 0,0 km/h (0 Bft) O-SO 112 ° 0 min 0,000 mm 0,0 UV-I 0 W/m² 11,3 °C 12,1 °C 0,0 km/h (0 Bft)
25.08.2019 05:19 12,1 °C 95 % 1016,8 hPa 0,0 mm 0,0 km/h (0 Bft) O-SO 112 ° 0 min 0,000 mm 0,0 UV-I 0 W/m² 11,3 °C 12,1 °C 0,0 km/h (0 Bft)
25.08.2019 05:20 12,1 °C 95 % 1016,8 hPa 0,0 mm 0,0 km/h (0 Bft) O-SO 112 ° 0 min 0,000 mm 0,0 UV-I 0 W/m² 11,3 °C 12,1 °C 0,0 km/h (0 Bft)
25.08.2019 05:21 12,1 °C 95 % 1016,8 hPa 0,0 mm 0,0 km/h (0 Bft) O-SO 112 ° 0 min 0,000 mm 0,0 UV-I 0 W/m² 11,3 °C 12,1 °C 0,0 km/h (0 Bft)
25.08.2019 05:22 12,1 °C 95 % 1016,8 hPa 0,0 mm 0,0 km/h (0 Bft) O-SO 112 ° 0 min 0,000 mm 0,0 UV-I 0 W/m² 11,3 °C 12,1 °C 0,0 km/h (0 Bft)
25.08.2019 05:23 12,0 °C 95 % 1016,8 hPa 0,0 mm 0,0 km/h (0 Bft) O-SO 112 ° 0 min 0,000 mm 0,0 UV-I 0 W/m² 11,2 °C 12,0 °C 0,0 km/h (0 Bft)
25.08.2019 05:24 11,9 °C 95 % 1016,8 hPa 0,0 mm 0,0 km/h (0 Bft) O-SO 112 ° 0 min 0,000 mm 0,0 UV-I 0 W/m² 11,1 °C 11,9 °C 0,0 km/h (0 Bft)
25.08.2019 05:25 11,9 °C 95 % 1016,8 hPa 0,0 mm 0,0 km/h (0 Bft) O-SO 112 ° 0 min 0,000 mm 0,0 UV-I 0 W/m² 11,1 °C 11,9 °C 0,0 km/h (0 Bft)
25.08.2019 05:26 11,9 °C 95 % 1016,8 hPa 0,0 mm 0,0 km/h (0 Bft) O-SO 112 ° 0 min 0,000 mm 0,0 UV-I 0 W/m² 11,1 °C 11,9 °C 0,0 km/h (0 Bft)
25.08.2019 05:27 11,8 °C 95 % 1016,8 hPa 0,0 mm 0,0 km/h (0 Bft) O-SO 112 ° 0 min 0,000 mm 0,0 UV-I 0 W/m² 11,0 °C 11,8 °C 0,0 km/h (0 Bft)
25.08.2019 05:28 11,8 °C 95 % 1016,8 hPa 0,0 mm 0,0 km/h (0 Bft) O-SO 112 ° 0 min 0,000 mm 0,0 UV-I 0 W/m² 11,0 °C 11,8 °C 0,0 km/h (0 Bft)
25.08.2019 05:29 11,9 °C 95 % 1016,8 hPa 0,0 mm 0,0 km/h (0 Bft) O-SO 112 ° 0 min 0,000 mm 0,0 UV-I 0 W/m² 11,1 °C 11,9 °C 0,0 km/h (0 Bft)
25.08.2019 05:30 11,9 °C 95 % 1016,8 hPa 0,0 mm 0,0 km/h (0 Bft) O-SO 112 ° 0 min 0,000 mm 0,0 UV-I 0 W/m² 11,1 °C 11,9 °C 0,0 km/h (0 Bft)
25.08.2019 05:31 11,9 °C 95 % 1016,8 hPa 0,0 mm 0,0 km/h (0 Bft) O-SO 112 ° 0 min 0,000 mm 0,0 UV-I 0 W/m² 11,1 °C 11,9 °C 0,0 km/h (0 Bft)
25.08.2019 05:32 11,9 °C 95 % 1016,8 hPa 0,0 mm 0,0 km/h (0 Bft) O-SO 112 ° 0 min 0,000 mm 0,0 UV-I 0 W/m² 11,1 °C 11,9 °C 0,0 km/h (0 Bft)
25.08.2019 05:33 11,9 °C 95 % 1016,8 hPa 0,0 mm 0,0 km/h (0 Bft) O-SO 112 ° 0 min 0,000 mm 0,0 UV-I 0 W/m² 11,1 °C 11,9 °C 0,0 km/h (0 Bft)
25.08.2019 05:34 12,1 °C 95 % 1016,8 hPa 0,0 mm 0,0 km/h (0 Bft) O-SO 112 ° 0 min 0,000 mm 0,0 UV-I 0 W/m² 11,3 °C 12,1 °C 0,0 km/h (0 Bft)
25.08.2019 05:35 12,1 °C 95 % 1016,8 hPa 0,0 mm 0,0 km/h (0 Bft) O-SO 112 ° 0 min 0,000 mm 0,0 UV-I 0 W/m² 11,3 °C 12,1 °C 0,0 km/h (0 Bft)
25.08.2019 05:36 12,1 °C 95 % 1016,8 hPa 0,0 mm 0,0 km/h (0 Bft) O-SO 112 ° 0 min 0,000 mm 0,0 UV-I 0 W/m² 11,3 °C 12,1 °C 0,0 km/h (0 Bft)
25.08.2019 05:37 12,0 °C 95 % 1016,8 hPa 0,0 mm 0,0 km/h (0 Bft) O-SO 112 ° 0 min 0,000 mm 0,0 UV-I 0 W/m² 11,2 °C 12,0 °C 0,0 km/h (0 Bft)
25.08.2019 05:38 12,0 °C 95 % 1016,8 hPa 0,0 mm 0,0 km/h (0 Bft) O-SO 112 ° 0 min 0,000 mm 0,0 UV-I 0 W/m² 11,2 °C 12,0 °C 0,0 km/h (0 Bft)
25.08.2019 05:39 12,1 °C 95 % 1016,8 hPa 0,0 mm 0,0 km/h (0 Bft) O-SO 112 ° 0 min 0,000 mm 0,0 UV-I 0 W/m² 11,3 °C 12,1 °C 0,0 km/h (0 Bft)
25.08.2019 05:40 12,0 °C 95 % 1016,8 hPa 0,0 mm 0,0 km/h (0 Bft) O-SO 112 ° 0 min 0,000 mm 0,0 UV-I 0 W/m² 11,2 °C 12,0 °C 0,0 km/h (0 Bft)
25.08.2019 05:41 12,0 °C 95 % 1016,8 hPa 0,0 mm 0,0 km/h (0 Bft) O-SO 112 ° 0 min 0,000 mm 0,0 UV-I 0 W/m² 11,2 °C 12,0 °C 0,0 km/h (0 Bft)
25.08.2019 05:42 12,1 °C 95 % 1016,8 hPa 0,0 mm 0,0 km/h (0 Bft) O-SO 112 ° 0 min 0,000 mm 0,0 UV-I 0 W/m² 11,3 °C 12,1 °C 0,0 km/h (0 Bft)
25.08.2019 05:43 12,0 °C 95 % 1016,8 hPa 0,0 mm 0,0 km/h (0 Bft) O-SO 112 ° 0 min 0,000 mm 0,0 UV-I 0 W/m² 11,2 °C 12,0 °C 0,0 km/h (0 Bft)
25.08.2019 05:44 12,0 °C 95 % 1016,8 hPa 0,0 mm 0,0 km/h (0 Bft) O-SO 112 ° 0 min 0,000 mm 0,0 UV-I 0 W/m² 11,2 °C 12,0 °C 0,0 km/h (0 Bft)
25.08.2019 05:45 11,9 °C 95 % 1016,8 hPa 0,0 mm 0,0 km/h (0 Bft) O-SO 112 ° 0 min 0,000 mm 0,0 UV-I 0 W/m² 11,1 °C 11,9 °C 0,0 km/h (0 Bft)
25.08.2019 05:46 11,8 °C 95 % 1016,8 hPa 0,0 mm 0,0 km/h (0 Bft) O-SO 112 ° 0 min 0,000 mm 0,0 UV-I 0 W/m² 11,0 °C 11,8 °C 0,0 km/h (0 Bft)
25.08.2019 05:47 11,8 °C 95 % 1016,8 hPa 0,0 mm 0,0 km/h (0 Bft) O-SO 112 ° 0 min 0,000 mm 0,0 UV-I 0 W/m² 11,0 °C 11,8 °C 0,0 km/h (0 Bft)
25.08.2019 05:48 11,7 °C 95 % 1016,8 hPa 0,0 mm 0,0 km/h (0 Bft) O-SO 112 ° 0 min 0,000 mm 0,0 UV-I 0 W/m² 10,9 °C 11,7 °C 0,0 km/h (0 Bft)
25.08.2019 05:49 11,7 °C 95 % 1016,8 hPa 0,0 mm 0,0 km/h (0 Bft) O-SO 112 ° 0 min 0,000 mm 0,0 UV-I 0 W/m² 10,9 °C 11,7 °C 0,0 km/h (0 Bft)
25.08.2019 05:50 11,8 °C 95 % 1016,8 hPa 0,0 mm 0,0 km/h (0 Bft) O-SO 112 ° 0 min 0,000 mm 0,0 UV-I 0 W/m² 11,0 °C 11,8 °C 0,0 km/h (0 Bft)
25.08.2019 05:51 11,8 °C 95 % 1016,8 hPa 0,0 mm 0,0 km/h (0 Bft) O-SO 112 ° 0 min 0,000 mm 0,0 UV-I 0 W/m² 11,0 °C 11,8 °C 0,0 km/h (0 Bft)
25.08.2019 05:52 11,9 °C 95 % 1016,8 hPa 0,0 mm 0,0 km/h (0 Bft) O-SO 112 ° 0 min 0,000 mm 0,0 UV-I 0 W/m² 11,1 °C 11,9 °C 0,0 km/h (0 Bft)
25.08.2019 05:53 11,9 °C 96 % 1016,8 hPa 0,0 mm 0,0 km/h (0 Bft) O-SO 112 ° 0 min 0,000 mm 0,0 UV-I 0 W/m² 11,3 °C 11,9 °C 0,0 km/h (0 Bft)
25.08.2019 05:54 11,9 °C 95 % 1016,8 hPa 0,0 mm 0,0 km/h (0 Bft) O-SO 112 ° 0 min 0,000 mm 0,0 UV-I 0 W/m² 11,1 °C 11,9 °C 0,0 km/h (0 Bft)
25.08.2019 05:55 11,9 °C 95 % 1016,8 hPa 0,0 mm 0,0 km/h (0 Bft) O-SO 112 ° 0 min 0,000 mm 0,0 UV-I 0 W/m² 11,1 °C 11,9 °C 0,0 km/h (0 Bft)
25.08.2019 05:56 11,9 °C 95 % 1016,8 hPa 0,0 mm 0,0 km/h (0 Bft) O-SO 112 ° 0 min 0,000 mm 0,0 UV-I 0 W/m² 11,1 °C 11,9 °C 0,0 km/h (0 Bft)
25.08.2019 05:57 11,9 °C 95 % 1016,9 hPa 0,0 mm 0,0 km/h (0 Bft) O-SO 112 ° 0 min 0,000 mm 0,0 UV-I 0 W/m² 11,1 °C 11,9 °C 0,0 km/h (0 Bft)
25.08.2019 05:58 11,9 °C 95 % 1016,9 hPa 0,0 mm 0,0 km/h (0 Bft) O-SO 112 ° 0 min 0,000 mm 0,0 UV-I 0 W/m² 11,1 °C 11,9 °C 0,0 km/h (0 Bft)
25.08.2019 05:59 11,9 °C 95 % 1016,9 hPa 0,0 mm 0,0 km/h (0 Bft) O-SO 112 ° 0 min 0,000 mm 0,0 UV-I 0 W/m² 11,1 °C 11,9 °C 0,0 km/h (0 Bft)
25.08.2019 06:00 11,9 °C 95 % 1016,9 hPa 0,0 mm 0,0 km/h (0 Bft) O-SO 112 ° 0 min 0,000 mm 0,0 UV-I 0 W/m² 11,1 °C 11,9 °C 0,0 km/h (0 Bft)
25.08.2019 06:01 12,0 °C 96 % 1016,9 hPa 0,0 mm 0,0 km/h (0 Bft) O-SO 112 ° 0 min 0,000 mm 0,0 UV-I 0 W/m² 11,4 °C 12,0 °C 0,0 km/h (0 Bft)
25.08.2019 06:02 12,0 °C 95 % 1016,8 hPa 0,0 mm 0,0 km/h (0 Bft) O-SO 112 ° 0 min 0,000 mm 0,0 UV-I 0 W/m² 11,2 °C 12,0 °C 0,0 km/h (0 Bft)
25.08.2019 06:03 12,1 °C 95 % 1016,9 hPa 0,0 mm 0,0 km/h (0 Bft) O-SO 112 ° 0 min 0,000 mm 0,0 UV-I 0 W/m² 11,3 °C 12,1 °C 0,0 km/h (0 Bft)
25.08.2019 06:04 12,1 °C 95 % 1016,9 hPa 0,0 mm 0,0 km/h (0 Bft) O-SO 112 ° 0 min 0,000 mm 0,0 UV-I 0 W/m² 11,3 °C 12,1 °C 0,0 km/h (0 Bft)
25.08.2019 06:05 12,2 °C 95 % 1016,8 hPa 0,0 mm 0,0 km/h (0 Bft) O-SO 112 ° 0 min 0,000 mm 0,0 UV-I 0 W/m² 11,4 °C 12,2 °C 0,0 km/h (0 Bft)
25.08.2019 06:06 12,2 °C 95 % 1016,8 hPa 0,0 mm 0,0 km/h (0 Bft) O-SO 112 ° 0 min 0,000 mm 0,0 UV-I 0 W/m² 11,4 °C 12,2 °C 0,0 km/h (0 Bft)
25.08.2019 06:07 12,1 °C 95 % 1016,8 hPa 0,0 mm 0,0 km/h (0 Bft) O-SO 112 ° 0 min 0,000 mm 0,0 UV-I 0 W/m² 11,3 °C 12,1 °C 0,0 km/h (0 Bft)
25.08.2019 06:08 12,2 °C 95 % 1016,9 hPa 0,0 mm 0,0 km/h (0 Bft) O-SO 112 ° 0 min 0,000 mm 0,0 UV-I 0 W/m² 11,4 °C 12,2 °C 0,0 km/h (0 Bft)
25.08.2019 06:09 12,2 °C 95 % 1016,9 hPa 0,0 mm 0,0 km/h (0 Bft) O-SO 112 ° 0 min 0,000 mm 0,0 UV-I 0 W/m² 11,4 °C 12,2 °C 0,0 km/h (0 Bft)
25.08.2019 06:10 12,2 °C 95 % 1016,9 hPa 0,0 mm 0,0 km/h (0 Bft) O-SO 112 ° 0 min 0,000 mm 0,0 UV-I 0 W/m² 11,4 °C 12,2 °C 0,0 km/h (0 Bft)
25.08.2019 06:11 12,2 °C 95 % 1016,9 hPa 0,0 mm 0,0 km/h (0 Bft) O-SO 112 ° 0 min 0,000 mm 0,0 UV-I 0 W/m² 11,4 °C 12,2 °C 0,0 km/h (0 Bft)
25.08.2019 06:12 12,2 °C 95 % 1016,9 hPa 0,0 mm 0,0 km/h (0 Bft) O-SO 112 ° 0 min 0,000 mm 0,0 UV-I 0 W/m² 11,4 °C 12,2 °C 0,0 km/h (0 Bft)
25.08.2019 06:13 12,1 °C 95 % 1016,9 hPa 0,0 mm 0,0 km/h (0 Bft) O-SO 112 ° 0 min 0,000 mm 0,0 UV-I 0 W/m² 11,3 °C 12,1 °C 0,0 km/h (0 Bft)
25.08.2019 06:14 12,1 °C 95 % 1016,9 hPa 0,0 mm 0,0 km/h (0 Bft) O-SO 112 ° 0 min 0,000 mm 0,0 UV-I 0 W/m² 11,3 °C 12,1 °C 0,0 km/h (0 Bft)
25.08.2019 06:15 12,1 °C 95 % 1016,9 hPa 0,0 mm 0,0 km/h (0 Bft) O-SO 112 ° 0 min 0,000 mm 0,0 UV-I 0 W/m² 11,3 °C 12,1 °C 0,0 km/h (0 Bft)
25.08.2019 06:16 12,1 °C 95 % 1016,9 hPa 0,0 mm 0,0 km/h (0 Bft) O-SO 112 ° 0 min 0,000 mm 0,0 UV-I 0 W/m² 11,3 °C 12,1 °C 0,0 km/h (0 Bft)
25.08.2019 06:17 12,1 °C 95 % 1016,9 hPa 0,0 mm 0,0 km/h (0 Bft) O-SO 112 ° 0 min 0,000 mm 0,0 UV-I 0 W/m² 11,3 °C 12,1 °C 0,0 km/h (0 Bft)
25.08.2019 06:18 12,1 °C 95 % 1016,9 hPa 0,0 mm 0,0 km/h (0 Bft) O-SO 112 ° 0 min 0,000 mm 0,0 UV-I 0 W/m² 11,3 °C 12,1 °C 0,0 km/h (0 Bft)
25.08.2019 06:19 12,1 °C 95 % 1016,9 hPa 0,0 mm 0,0 km/h (0 Bft) O-SO 112 ° 0 min 0,000 mm 0,0 UV-I 0 W/m² 11,3 °C 12,1 °C 0,0 km/h (0 Bft)
25.08.2019 06:20 12,0 °C 95 % 1016,8 hPa 0,0 mm 0,0 km/h (0 Bft) O-SO 112 ° 0 min 0,000 mm 0,0 UV-I 0 W/m² 11,2 °C 12,0 °C 0,0 km/h (0 Bft)
25.08.2019 06:21 12,1 °C 95 % 1016,8 hPa 0,0 mm 0,0 km/h (0 Bft) O-SO 112 ° 0 min 0,000 mm 0,0 UV-I 0 W/m² 11,3 °C 12,1 °C 0,0 km/h (0 Bft)
25.08.2019 06:22 12,1 °C 95 % 1016,9 hPa 0,0 mm 0,0 km/h (0 Bft) O-SO 112 ° 0 min 0,000 mm 0,0 UV-I 0 W/m² 11,3 °C 12,1 °C 0,0 km/h (0 Bft)
25.08.2019 06:23 12,1 °C 95 % 1016,9 hPa 0,0 mm 0,0 km/h (0 Bft) O-SO 112 ° 0 min 0,000 mm 0,0 UV-I 0 W/m² 11,3 °C 12,1 °C 0,0 km/h (0 Bft)
25.08.2019 06:24 12,0 °C 95 % 1016,9 hPa 0,0 mm 0,0 km/h (0 Bft) O-SO 112 ° 0 min 0,000 mm 0,0 UV-I 0 W/m² 11,2 °C 12,0 °C 0,0 km/h (0 Bft)
25.08.2019 06:25 12,0 °C 95 % 1016,9 hPa 0,0 mm 0,0 km/h (0 Bft) O-SO 112 ° 0 min 0,000 mm 0,0 UV-I 0 W/m² 11,2 °C 12,0 °C 0,0 km/h (0 Bft)
25.08.2019 06:26 12,0 °C 95 % 1016,9 hPa 0,0 mm 0,0 km/h (0 Bft) O-SO 112 ° 0 min 0,000 mm 0,0 UV-I 0 W/m² 11,2 °C 12,0 °C 0,0 km/h (0 Bft)
25.08.2019 06:27 12,1 °C 95 % 1017,0 hPa 0,0 mm 0,0 km/h (0 Bft) O-SO 112 ° 0 min 0,000 mm 0,0 UV-I 0 W/m² 11,3 °C 12,1 °C 0,0 km/h (0 Bft)
25.08.2019 06:28 12,1 °C 95 % 1016,9 hPa 0,0 mm 0,0 km/h (0 Bft) O-SO 112 ° 0 min 0,000 mm 0,0 UV-I 5 W/m² 11,3 °C 12,1 °C 0,0 km/h (0 Bft)
25.08.2019 06:29 12,1 °C 95 % 1016,9 hPa 0,0 mm 0,0 km/h (0 Bft) O-SO 112 ° 0 min 0,000 mm 0,0 UV-I 5 W/m² 11,3 °C 12,1 °C 0,0 km/h (0 Bft)
25.08.2019 06:30 12,1 °C 95 % 1017,0 hPa 0,0 mm 0,0 km/h (0 Bft) O-SO 112 ° 0 min 0,000 mm 0,0 UV-I 5 W/m² 11,3 °C 12,1 °C 0,0 km/h (0 Bft)
25.08.2019 06:31 12,1 °C 95 % 1017,0 hPa 0,0 mm 0,0 km/h (0 Bft) O-SO 112 ° 0 min 0,000 mm 0,0 UV-I 7 W/m² 11,3 °C 12,1 °C 0,0 km/h (0 Bft)
25.08.2019 06:32 12,1 °C 95 % 1016,9 hPa 0,0 mm 0,0 km/h (0 Bft) O-SO 112 ° 0 min 0,000 mm 0,0 UV-I 7 W/m² 11,3 °C 12,1 °C 0,0 km/h (0 Bft)
25.08.2019 06:33 12,1 °C 95 % 1017,0 hPa 0,0 mm 0,0 km/h (0 Bft) O-SO 112 ° 0 min 0,000 mm 0,0 UV-I 7 W/m² 11,3 °C 12,1 °C 0,0 km/h (0 Bft)
25.08.2019 06:34 12,2 °C 95 % 1016,9 hPa 0,0 mm 0,0 km/h (0 Bft) O-SO 112 ° 0 min 0,000 mm 0,0 UV-I 9 W/m² 11,4 °C 12,2 °C 0,0 km/h (0 Bft)
25.08.2019 06:35 12,2 °C 95 % 1016,9 hPa 0,0 mm 0,0 km/h (0 Bft) O-SO 112 ° 0 min 0,000 mm 0,0 UV-I 9 W/m² 11,4 °C 12,2 °C 0,0 km/h (0 Bft)
25.08.2019 06:36 12,2 °C 95 % 1016,9 hPa 0,0 mm 0,0 km/h (0 Bft) O-SO 112 ° 0 min 0,000 mm 0,0 UV-I 11 W/m² 11,4 °C 12,2 °C 0,0 km/h (0 Bft)
25.08.2019 06:37 12,2 °C 95 % 1016,9 hPa 0,0 mm 0,0 km/h (0 Bft) O-SO 112 ° 0 min 0,000 mm 0,0 UV-I 12 W/m² 11,4 °C 12,2 °C 0,0 km/h (0 Bft)
25.08.2019 06:38 12,2 °C 95 % 1016,9 hPa 0,0 mm 0,0 km/h (0 Bft) O-SO 112 ° 0 min 0,000 mm 0,0 UV-I 12 W/m² 11,4 °C 12,2 °C 0,0 km/h (0 Bft)
25.08.2019 06:39 12,2 °C 95 % 1016,9 hPa 0,0 mm 0,0 km/h (0 Bft) O-SO 112 ° 0 min 0,000 mm 0,0 UV-I 12 W/m² 11,4 °C 12,2 °C 0,0 km/h (0 Bft)
25.08.2019 06:40 12,1 °C 95 % 1016,9 hPa 0,0 mm 0,0 km/h (0 Bft) O-SO 112 ° 0 min 0,000 mm 0,0 UV-I 12 W/m² 11,3 °C 12,1 °C 0,0 km/h (0 Bft)
25.08.2019 06:41 12,1 °C 95 % 1017,0 hPa 0,0 mm 0,0 km/h (0 Bft) O-SO 112 ° 0 min 0,000 mm 0,0 UV-I 14 W/m² 11,3 °C 12,1 °C 0,0 km/h (0 Bft)
25.08.2019 06:42 12,0 °C 95 % 1017,0 hPa 0,0 mm 0,0 km/h (0 Bft) O-SO 112 ° 0 min 0,000 mm 0,0 UV-I 16 W/m² 11,2 °C 12,0 °C 0,0 km/h (0 Bft)
25.08.2019 06:43 12,0 °C 95 % 1017,0 hPa 0,0 mm 0,0 km/h (0 Bft) O-SO 112 ° 0 min 0,000 mm 0,0 UV-I 18 W/m² 11,2 °C 12,0 °C 0,0 km/h (0 Bft)
25.08.2019 06:44 12,0 °C 95 % 1016,9 hPa 0,0 mm 0,0 km/h (0 Bft) O-SO 112 ° 0 min 0,000 mm 0,0 UV-I 18 W/m² 11,2 °C 12,0 °C 0,0 km/h (0 Bft)
25.08.2019 06:45 12,0 °C 95 % 1017,0 hPa 0,0 mm 0,0 km/h (0 Bft) O-SO 112 ° 0 min 0,000 mm 0,0 UV-I 19 W/m² 11,2 °C 12,0 °C 0,0 km/h (0 Bft)
25.08.2019 06:46 12,1 °C 95 % 1017,0 hPa 0,0 mm 0,0 km/h (0 Bft) O-SO 112 ° 0 min 0,000 mm 0,0 UV-I 21 W/m² 11,3 °C 12,1 °C 0,0 km/h (0 Bft)
25.08.2019 06:47 12,0 °C 95 % 1017,0 hPa 0,0 mm 0,0 km/h (0 Bft) O-SO 112 ° 0 min 0,000 mm 0,0 UV-I 21 W/m² 11,2 °C 12,0 °C 0,0 km/h (0 Bft)
25.08.2019 06:48 12,0 °C 95 % 1017,0 hPa 0,0 mm 0,0 km/h (0 Bft) O-SO 112 ° 0 min 0,000 mm 0,0 UV-I 25 W/m² 11,2 °C 12,0 °C 0,0 km/h (0 Bft)
25.08.2019 06:49 12,1 °C 95 % 1017,0 hPa 0,0 mm 0,0 km/h (0 Bft) O-SO 112 ° 0 min 0,000 mm 0,0 UV-I 25 W/m² 11,3 °C 12,1 °C 0,0 km/h (0 Bft)
25.08.2019 06:50 12,1 °C 95 % 1017,0 hPa 0,0 mm 0,0 km/h (0 Bft) O-SO 112 ° 0 min 0,000 mm 0,0 UV-I 26 W/m² 11,3 °C 12,1 °C 0,0 km/h (0 Bft)
25.08.2019 06:51 12,1 °C 95 % 1017,0 hPa 0,0 mm 0,0 km/h (0 Bft) O-SO 112 ° 0 min 0,000 mm 0,0 UV-I 26 W/m² 11,3 °C 12,1 °C 0,0 km/h (0 Bft)
25.08.2019 06:52 12,0 °C 95 % 1017,0 hPa 0,0 mm 0,0 km/h (0 Bft) O-SO 112 ° 0 min 0,000 mm 0,0 UV-I 28 W/m² 11,2 °C 12,0 °C 0,0 km/h (0 Bft)
25.08.2019 06:53 12,0 °C 95 % 1017,0 hPa 0,0 mm 0,0 km/h (0 Bft) O-SO 112 ° 0 min 0,000 mm 0,0 UV-I 30 W/m² 11,2 °C 12,0 °C 0,0 km/h (0 Bft)
25.08.2019 06:54 11,9 °C 95 % 1017,1 hPa 0,0 mm 0,0 km/h (0 Bft) O-SO 112 ° 0 min 0,000 mm 0,0 UV-I 32 W/m² 11,1 °C 11,9 °C 0,0 km/h (0 Bft)
25.08.2019 06:55 12,0 °C 95 % 1017,1 hPa 0,0 mm 0,0 km/h (0 Bft) O-SO 112 ° 0 min 0,000 mm 0,0 UV-I 32 W/m² 11,2 °C 12,0 °C 0,0 km/h (0 Bft)
25.08.2019 06:56 12,1 °C 95 % 1017,1 hPa 0,0 mm 0,0 km/h (0 Bft) O-SO 112 ° 0 min 0,000 mm 0,0 UV-I 33 W/m² 11,3 °C 12,1 °C 0,0 km/h (0 Bft)
25.08.2019 06:57 12,0 °C 95 % 1017,1 hPa 0,0 mm 0,0 km/h (0 Bft) O-SO 112 ° 0 min 0,000 mm 0,0 UV-I 33 W/m² 11,2 °C 12,0 °C 0,0 km/h (0 Bft)
25.08.2019 06:58 12,1 °C 95 % 1017,0 hPa 0,0 mm 0,0 km/h (0 Bft) O-SO 112 ° 0 min 0,000 mm 0,0 UV-I 35 W/m² 11,3 °C 12,1 °C 0,0 km/h (0 Bft)
25.08.2019 06:59 12,1 °C 95 % 1017,0 hPa 0,0 mm 0,0 km/h (0 Bft) O-SO 112 ° 0 min 0,000 mm 0,0 UV-I 35 W/m² 11,3 °C 12,1 °C 0,0 km/h (0 Bft)
25.08.2019 07:00 12,1 °C 95 % 1017,0 hPa 0,0 mm 0,0 km/h (0 Bft) O-SO 112 ° 0 min 0,000 mm 0,0 UV-I 37 W/m² 11,3 °C 12,1 °C 0,0 km/h (0 Bft)
25.08.2019 07:01 12,1 °C 95 % 1016,9 hPa 0,0 mm 0,0 km/h (0 Bft) O-SO 112 ° 0 min 0,000 mm 0,0 UV-I 37 W/m² 11,3 °C 12,1 °C 0,0 km/h (0 Bft)
25.08.2019 07:02 12,1 °C 95 % 1017,0 hPa 0,0 mm 0,0 km/h (0 Bft) O-SO 112 ° 0 min 0,000 mm 0,0 UV-I 39 W/m² 11,3 °C 12,1 °C 0,0 km/h (0 Bft)
25.08.2019 07:03 12,1 °C 95 % 1017,0 hPa 0,0 mm 0,0 km/h (0 Bft) O-SO 112 ° 0 min 0,000 mm 0,0 UV-I 39 W/m² 11,3 °C 12,1 °C 0,0 km/h (0 Bft)
25.08.2019 07:04 12,1 °C 95 % 1017,0 hPa 0,0 mm 0,0 km/h (0 Bft) O-SO 112 ° 0 min 0,000 mm 0,0 UV-I 40 W/m² 11,3 °C 12,1 °C 0,0 km/h (0 Bft)
25.08.2019 07:05 12,2 °C 95 % 1017,0 hPa 0,0 mm 0,0 km/h (0 Bft) O-SO 112 ° 0 min 0,000 mm 0,0 UV-I 42 W/m² 11,4 °C 12,2 °C 0,0 km/h (0 Bft)
25.08.2019 07:06 12,2 °C 95 % 1017,0 hPa 0,0 mm 0,0 km/h (0 Bft) O-SO 112 ° 0 min 0,000 mm 0,0 UV-I 42 W/m² 11,4 °C 12,2 °C 0,0 km/h (0 Bft)
25.08.2019 07:07 12,2 °C 95 % 1017,0 hPa 0,0 mm 0,0 km/h (0 Bft) O-SO 112 ° 0 min 0,000 mm 0,0 UV-I 44 W/m² 11,4 °C 12,2 °C 0,0 km/h (0 Bft)
25.08.2019 07:08 12,2 °C 95 % 1016,9 hPa 0,0 mm 0,0 km/h (0 Bft) O-SO 112 ° 0 min 0,000 mm 0,0 UV-I 44 W/m² 11,4 °C 12,2 °C 0,0 km/h (0 Bft)
25.08.2019 07:09 12,2 °C 95 % 1017,0 hPa 0,0 mm 0,0 km/h (0 Bft) O-SO 112 ° 0 min 0,000 mm 0,0 UV-I 44 W/m² 11,4 °C 12,2 °C 0,0 km/h (0 Bft)
25.08.2019 07:10 12,3 °C 95 % 1017,0 hPa 0,0 mm 0,0 km/h (0 Bft) O-SO 112 ° 0 min 0,000 mm 0,0 UV-I 46 W/m² 11,5 °C 12,3 °C 0,0 km/h (0 Bft)
25.08.2019 07:11 12,3 °C 95 % 1017,0 hPa 0,0 mm 0,0 km/h (0 Bft) O-SO 112 ° 0 min 0,000 mm 0,0 UV-I 47 W/m² 11,5 °C 12,3 °C 0,0 km/h (0 Bft)
25.08.2019 07:12 12,3 °C 95 % 1017,0 hPa 0,0 mm 0,0 km/h (0 Bft) O-SO 112 ° 0 min 0,000 mm 0,0 UV-I 49 W/m² 11,5 °C 12,3 °C 0,0 km/h (0 Bft)
25.08.2019 07:13 12,3 °C 95 % 1017,0 hPa 0,0 mm 0,0 km/h (0 Bft) O-SO 112 ° 0 min 0,000 mm 0,0 UV-I 49 W/m² 11,5 °C 12,3 °C 0,0 km/h (0 Bft)
25.08.2019 07:14 12,3 °C 95 % 1016,9 hPa 0,0 mm 0,0 km/h (0 Bft) O-SO 112 ° 0 min 0,000 mm 0,0 UV-I 51 W/m² 11,5 °C 12,3 °C 0,0 km/h (0 Bft)
25.08.2019 07:15 12,4 °C 95 % 1016,9 hPa 0,0 mm 0,0 km/h (0 Bft) O-SO 112 ° 0 min 0,000 mm 0,0 UV-I 53 W/m² 11,6 °C 12,4 °C 0,0 km/h (0 Bft)
25.08.2019 07:16 12,4 °C 95 % 1016,9 hPa 0,0 mm 0,0 km/h (0 Bft) O-SO 112 ° 0 min 0,000 mm 0,0 UV-I 53 W/m² 11,6 °C 12,4 °C 0,0 km/h (0 Bft)
25.08.2019 07:17 12,4 °C 95 % 1016,9 hPa 0,0 mm 0,0 km/h (0 Bft) O-SO 112 ° 0 min 0,000 mm 0,0 UV-I 54 W/m² 11,6 °C 12,4 °C 0,0 km/h (0 Bft)
25.08.2019 07:18 12,5 °C 95 % 1016,9 hPa 0,0 mm 0,0 km/h (0 Bft) O-SO 112 ° 0 min 0,000 mm 0,0 UV-I 56 W/m² 11,7 °C 12,5 °C 0,0 km/h (0 Bft)
25.08.2019 07:19 12,6 °C 95 % 1016,9 hPa 0,0 mm 0,0 km/h (0 Bft) O-SO 112 ° 0 min 0,000 mm 0,0 UV-I 56 W/m² 11,8 °C 12,6 °C 0,0 km/h (0 Bft)
25.08.2019 07:20 12,6 °C 96 % 1017,0 hPa 0,0 mm 0,0 km/h (0 Bft) O-SO 112 ° 0 min 0,000 mm 0,0 UV-I 58 W/m² 12,0 °C 12,6 °C 0,0 km/h (0 Bft)
25.08.2019 07:21 12,7 °C 96 % 1016,9 hPa 0,0 mm 0,0 km/h (0 Bft) O-SO 112 ° 0 min 0,000 mm 0,0 UV-I 58 W/m² 12,1 °C 12,7 °C 0,0 km/h (0 Bft)
25.08.2019 07:22 12,7 °C 96 % 1016,9 hPa 0,0 mm 0,0 km/h (0 Bft) O-SO 112 ° 0 min 0,000 mm 0,0 UV-I 60 W/m² 12,1 °C 12,7 °C 0,0 km/h (0 Bft)
25.08.2019 07:23 12,8 °C 95 % 1016,9 hPa 0,0 mm 0,0 km/h (0 Bft) O-SO 112 ° 0 min 0,000 mm 0,0 UV-I 62 W/m² 12,0 °C 12,8 °C 0,0 km/h (0 Bft)
25.08.2019 07:24 12,8 °C 95 % 1016,9 hPa 0,0 mm 0,0 km/h (0 Bft) O-SO 112 ° 0 min 0,000 mm 0,0 UV-I 62 W/m² 12,0 °C 12,8 °C 0,0 km/h (0 Bft)
25.08.2019 07:25 12,8 °C 95 % 1017,0 hPa 0,0 mm 0,0 km/h (0 Bft) O-SO 112 ° 0 min 0,000 mm 0,0 UV-I 62 W/m² 12,0 °C 12,8 °C 0,0 km/h (0 Bft)
25.08.2019 07:26 12,9 °C 96 % 1016,9 hPa 0,0 mm 0,0 km/h (0 Bft) O-SO 112 ° 0 min 0,000 mm 0,0 UV-I 63 W/m² 12,3 °C 12,9 °C 0,0 km/h (0 Bft)
25.08.2019 07:27 12,9 °C 96 % 1016,9 hPa 0,0 mm 0,0 km/h (0 Bft) O-SO 112 ° 0 min 0,000 mm 0,0 UV-I 63 W/m² 12,3 °C 12,9 °C 0,0 km/h (0 Bft)
25.08.2019 07:28 13,1 °C 96 % 1016,9 hPa 0,0 mm 0,0 km/h (0 Bft) O-SO 112 ° 0 min 0,000 mm 0,0 UV-I 65 W/m² 12,5 °C 13,1 °C 0,0 km/h (0 Bft)
25.08.2019 07:29 13,1 °C 96 % 1016,9 hPa 0,0 mm 0,0 km/h (0 Bft) O-SO 112 ° 0 min 0,000 mm 0,0 UV-I 67 W/m² 12,5 °C 13,1 °C 0,0 km/h (0 Bft)
25.08.2019 07:30 13,2 °C 96 % 1016,9 hPa 0,0 mm 0,0 km/h (0 Bft) O-SO 112 ° 0 min 0,000 mm 0,0 UV-I 67 W/m² 12,6 °C 13,2 °C 0,0 km/h (0 Bft)
25.08.2019 07:31 13,3 °C 96 % 1016,9 hPa 0,0 mm 0,0 km/h (0 Bft) O-SO 112 ° 0 min 0,000 mm 0,0 UV-I 67 W/m² 12,7 °C 13,3 °C 0,0 km/h (0 Bft)
25.08.2019 07:32 13,4 °C 96 % 1016,9 hPa 0,0 mm 0,0 km/h (0 Bft) O-SO 112 ° 0 min 0,000 mm 0,0 UV-I 69 W/m² 12,8 °C 13,4 °C 0,0 km/h (0 Bft)
25.08.2019 07:33 13,4 °C 96 % 1016,9 hPa 0,0 mm 0,0 km/h (0 Bft) O-SO 112 ° 0 min 0,000 mm 0,0 UV-I 69 W/m² 12,8 °C 13,4 °C 0,0 km/h (0 Bft)
25.08.2019 07:34 13,6 °C 96 % 1016,9 hPa 0,0 mm 0,0 km/h (0 Bft) O-SO 112 ° 0 min 0,000 mm 0,0 UV-I 70 W/m² 13,0 °C 13,6 °C 0,0 km/h (0 Bft)
25.08.2019 07:35 13,6 °C 96 % 1016,9 hPa 0,0 mm 0,0 km/h (0 Bft) O-SO 112 ° 0 min 0,000 mm 0,5 UV-I 72 W/m² 13,0 °C 13,6 °C 0,0 km/h (0 Bft)
25.08.2019 07:36 13,7 °C 95 % 1016,9 hPa 0,0 mm 0,0 km/h (0 Bft) O-SO 112 ° 0 min 0,000 mm 0,5 UV-I 72 W/m² 12,9 °C 13,7 °C 0,0 km/h (0 Bft)
25.08.2019 07:37 13,7 °C 96 % 1016,9 hPa 0,0 mm 0,0 km/h (0 Bft) O-SO 112 ° 0 min 0,000 mm 0,5 UV-I 72 W/m² 13,1 °C 13,7 °C 0,0 km/h (0 Bft)
25.08.2019 07:38 13,8 °C 96 % 1016,9 hPa 0,0 mm 0,0 km/h (0 Bft) O-SO 112 ° 0 min 0,000 mm 0,5 UV-I 74 W/m² 13,2 °C 13,8 °C 0,0 km/h (0 Bft)
25.08.2019 07:39 13,8 °C 95 % 1016,9 hPa 0,0 mm 0,0 km/h (0 Bft) O-SO 112 ° 0 min 0,000 mm 0,5 UV-I 74 W/m² 13,0 °C 13,8 °C 0,0 km/h (0 Bft)
25.08.2019 07:40 13,8 °C 95 % 1016,9 hPa 0,0 mm 0,0 km/h (0 Bft) O-SO 112 ° 0 min 0,000 mm 0,5 UV-I 76 W/m² 13,0 °C 13,8 °C 0,0 km/h (0 Bft)
25.08.2019 07:41 13,9 °C 95 % 1016,9 hPa 0,0 mm 0,0 km/h (0 Bft) O-SO 112 ° 0 min 0,000 mm 0,5 UV-I 81 W/m² 13,1 °C 13,9 °C 0,0 km/h (0 Bft)
25.08.2019 07:42 13,9 °C 95 % 1016,9 hPa 0,0 mm 0,0 km/h (0 Bft) O-SO 112 ° 0 min 0,000 mm 0,5 UV-I 95 W/m² 13,1 °C 13,9 °C 0,0 km/h (0 Bft)
25.08.2019 07:43 14,0 °C 95 % 1016,9 hPa 0,0 mm 0,0 km/h (0 Bft) O-SO 112 ° 0 min 0,000 mm 0,5 UV-I 113 W/m² 13,2 °C 14,0 °C 0,0 km/h (0 Bft)
25.08.2019 07:44 14,1 °C 95 % 1017,0 hPa 0,0 mm 0,0 km/h (0 Bft) O-SO 112 ° 0 min 0,000 mm 0,6 UV-I 125 W/m² 13,3 °C 14,1 °C 0,0 km/h (0 Bft)
25.08.2019 07:45 14,1 °C 95 % 1017,0 hPa 0,0 mm 0,0 km/h (0 Bft) O-SO 112 ° 0 min 0,000 mm 0,6 UV-I 132 W/m² 13,3 °C 14,1 °C 0,0 km/h (0 Bft)
25.08.2019 07:46 14,2 °C 95 % 1017,0 hPa 0,0 mm 0,0 km/h (0 Bft) O-SO 112 ° 0 min 0,000 mm 0,6 UV-I 134 W/m² 13,4 °C 14,2 °C 0,0 km/h (0 Bft)
25.08.2019 07:47 14,3 °C 95 % 1017,0 hPa 0,0 mm 0,0 km/h (0 Bft) O-SO 112 ° 0 min 0,000 mm 0,6 UV-I 132 W/m² 13,5 °C 14,3 °C 0,0 km/h (0 Bft)
25.08.2019 07:48 14,3 °C 95 % 1017,0 hPa 0,0 mm 0,0 km/h (0 Bft) O-SO 112 ° 0 min 0,000 mm 0,6 UV-I 127 W/m² 13,5 °C 14,3 °C 0,0 km/h (0 Bft)
25.08.2019 07:49 14,4 °C 95 % 1017,0 hPa 0,0 mm 0,0 km/h (0 Bft) O-SO 112 ° 0 min 0,000 mm 0,6 UV-I 121 W/m² 13,6 °C 14,4 °C 0,0 km/h (0 Bft)
25.08.2019 07:50 14,4 °C 95 % 1017,0 hPa 0,0 mm 0,0 km/h (0 Bft) O-SO 112 ° 0 min 0,000 mm 0,6 UV-I 120 W/m² 13,6 °C 14,4 °C 0,0 km/h (0 Bft)
25.08.2019 07:51 14,5 °C 95 % 1017,0 hPa 0,0 mm 0,0 km/h (0 Bft) O-SO 112 ° 0 min 0,000 mm 0,6 UV-I 123 W/m² 13,7 °C 14,5 °C 0,0 km/h (0 Bft)
25.08.2019 07:52 14,6 °C 95 % 1016,9 hPa 0,0 mm 0,0 km/h (0 Bft) O-SO 112 ° 0 min 0,000 mm 0,6 UV-I 121 W/m² 13,8 °C 14,6 °C 0,0 km/h (0 Bft)
25.08.2019 07:53 14,6 °C 95 % 1017,0 hPa 0,0 mm 0,0 km/h (0 Bft) O-SO 112 ° 0 min 0,000 mm 0,6 UV-I 121 W/m² 13,8 °C 14,6 °C 0,0 km/h (0 Bft)
25.08.2019 07:54 14,6 °C 95 % 1017,0 hPa 0,0 mm 0,0 km/h (0 Bft) O-SO 112 ° 0 min 0,000 mm 0,7 UV-I 121 W/m² 13,8 °C 14,6 °C 0,0 km/h (0 Bft)
25.08.2019 07:55 14,7 °C 95 % 1016,9 hPa 0,0 mm 0,0 km/h (0 Bft) O-SO 112 ° 0 min 0,000 mm 0,7 UV-I 123 W/m² 13,9 °C 14,7 °C 0,0 km/h (0 Bft)
25.08.2019 07:56 14,7 °C 95 % 1017,0 hPa 0,0 mm 0,0 km/h (0 Bft) O-SO 112 ° 0 min 0,000 mm 0,7 UV-I 125 W/m² 13,9 °C 14,7 °C 0,0 km/h (0 Bft)
25.08.2019 07:57 14,7 °C 95 % 1017,0 hPa 0,0 mm 0,0 km/h (0 Bft) O-SO 112 ° 0 min 0,000 mm 0,7 UV-I 128 W/m² 13,9 °C 14,7 °C 0,0 km/h (0 Bft)
25.08.2019 07:58 14,7 °C 95 % 1016,9 hPa 0,0 mm 0,0 km/h (0 Bft) O-SO 112 ° 0 min 0,000 mm 0,7 UV-I 127 W/m² 13,9 °C 14,7 °C 0,0 km/h (0 Bft)
25.08.2019 07:59 14,8 °C 95 % 1016,9 hPa 0,0 mm 0,0 km/h (0 Bft) O-SO 112 ° 0 min 0,000 mm 0,7 UV-I 118 W/m² 14,0 °C 14,8 °C 0,0 km/h (0 Bft)
25.08.2019 08:00 14,9 °C 94 % 1016,9 hPa 0,0 mm 0,0 km/h (0 Bft) O-SO 112 ° 0 min 0,051 mm 0,7 UV-I 121 W/m² 13,9 °C 14,9 °C 0,0 km/h (0 Bft)
25.08.2019 08:01 14,9 °C 95 % 1017,0 hPa 0,0 mm 0,0 km/h (0 Bft) O-SO 112 ° 0 min 0,000 mm 0,7 UV-I 130 W/m² 14,1 °C 14,9 °C 0,0 km/h (0 Bft)
25.08.2019 08:02 14,9 °C 94 % 1017,0 hPa 0,0 mm 0,0 km/h (0 Bft) O-SO 112 ° 0 min 0,000 mm 0,7 UV-I 130 W/m² 13,9 °C 14,9 °C 0,0 km/h (0 Bft)
25.08.2019 08:03 15,0 °C 94 % 1017,0 hPa 0,0 mm 0,0 km/h (0 Bft) O-SO 112 ° 0 min 0,000 mm 0,7 UV-I 134 W/m² 14,0 °C 15,0 °C 0,0 km/h (0 Bft)
25.08.2019 08:04 15,0 °C 94 % 1016,9 hPa 0,0 mm 0,0 km/h (0 Bft) O-SO 112 ° 0 min 0,000 mm 0,8 UV-I 135 W/m² 14,0 °C 15,0 °C 0,0 km/h (0 Bft)
25.08.2019 08:05 15,1 °C 94 % 1017,0 hPa 0,0 mm 1,6 km/h (1 Bft) O-SO 112 ° 0 min 0,000 mm 0,8 UV-I 142 W/m² 14,1 °C 15,1 °C 4,8 km/h (1 Bft)
25.08.2019 08:06 15,1 °C 94 % 1017,0 hPa 0,0 mm 0,0 km/h (0 Bft) O-SO 112 ° 0 min 0,000 mm 0,8 UV-I 151 W/m² 14,1 °C 15,1 °C 0,0 km/h (0 Bft)
25.08.2019 08:07 15,1 °C 93 % 1017,0 hPa 0,0 mm 1,4 km/h (1 Bft) O-SO 105 ° 0 min 0,000 mm 0,8 UV-I 156 W/m² 14,0 °C 15,1 °C 4,8 km/h (1 Bft)
25.08.2019 08:08 15,2 °C 94 % 1017,0 hPa 0,0 mm 0,0 km/h (0 Bft) O-SO 105 ° 0 min 0,000 mm 0,8 UV-I 169 W/m² 14,2 °C 15,2 °C 0,0 km/h (0 Bft)
25.08.2019 08:09 15,3 °C 93 % 1017,0 hPa 0,0 mm 0,0 km/h (0 Bft) O-SO 105 ° 0 min 0,000 mm 0,8 UV-I 186 W/m² 14,2 °C 15,3 °C 0,0 km/h (0 Bft)
25.08.2019 08:10 15,3 °C 93 % 1017,0 hPa 0,0 mm 0,0 km/h (0 Bft) O-SO 105 ° 0 min 0,000 mm 0,8 UV-I 190 W/m² 14,2 °C 15,3 °C 0,0 km/h (0 Bft)
25.08.2019 08:11 15,4 °C 93 % 1017,0 hPa 0,0 mm 0,0 km/h (0 Bft) O-SO 105 ° 0 min 0,000 mm 0,9 UV-I 192 W/m² 14,3 °C 15,4 °C 0,0 km/h (0 Bft)
25.08.2019 08:12 15,5 °C 93 % 1017,0 hPa 0,0 mm 0,0 km/h (0 Bft) O-SO 105 ° 0 min 0,000 mm 0,9 UV-I 188 W/m² 14,4 °C 15,5 °C 0,0 km/h (0 Bft)
25.08.2019 08:13 15,6 °C 93 % 1017,0 hPa 0,0 mm 0,0 km/h (0 Bft) O-SO 105 ° 0 min 0,000 mm 0,9 UV-I 176 W/m² 14,5 °C 15,6 °C 0,0 km/h (0 Bft)
25.08.2019 08:14 15,7 °C 92 % 1017,0 hPa 0,0 mm 2,0 km/h (1 Bft) W 266 ° 0 min 0,000 mm 0,9 UV-I 174 W/m² 14,4 °C 15,7 °C 4,8 km/h (1 Bft)
25.08.2019 08:15 15,9 °C 93 % 1017,0 hPa 0,0 mm 2,5 km/h (1 Bft) W 267 ° 0 min 0,000 mm 0,9 UV-I 176 W/m² 14,8 °C 15,9 °C 4,8 km/h (1 Bft)
25.08.2019 08:16 16,1 °C 92 % 1017,0 hPa 0,0 mm 0,3 km/h (0 Bft) W-SW 246 ° 0 min 0,000 mm 0,9 UV-I 176 W/m² 14,8 °C 16,1 °C 3,2 km/h (1 Bft)
25.08.2019 08:17 16,1 °C 92 % 1017,0 hPa 0,0 mm 0,3 km/h (0 Bft) W-SW 246 ° 0 min 0,000 mm 0,9 UV-I 178 W/m² 14,8 °C 16,1 °C 1,6 km/h (1 Bft)
25.08.2019 08:18 16,1 °C 91 % 1017,0 hPa 0,0 mm 0,0 km/h (0 Bft) W-SW 246 ° 0 min 0,000 mm 0,9 UV-I 172 W/m² 14,6 °C 16,1 °C 0,0 km/h (0 Bft)
25.08.2019 08:19 16,1 °C 90 % 1017,0 hPa 0,0 mm 0,0 km/h (0 Bft) W-SW 246 ° 0 min 0,000 mm 0,9 UV-I 174 W/m² 14,5 °C 16,1 °C 0,0 km/h (0 Bft)
25.08.2019 08:20 16,1 °C 90 % 1017,0 hPa 0,0 mm 0,0 km/h (0 Bft) W-SW 246 ° 0 min 0,000 mm 0,9 UV-I 183 W/m² 14,5 °C 16,1 °C 0,0 km/h (0 Bft)
25.08.2019 08:21 16,1 °C 89 % 1017,1 hPa 0,0 mm 0,0 km/h (0 Bft) W-SW 246 ° 0 min 0,000 mm 1,0 UV-I 193 W/m² 14,3 °C 16,1 °C 0,0 km/h (0 Bft)
25.08.2019 08:22 16,1 °C 91 % 1017,0 hPa 0,0 mm 0,0 km/h (0 Bft) W-SW 246 ° 0 min 0,000 mm 1,0 UV-I 197 W/m² 14,6 °C 16,1 °C 0,0 km/h (0 Bft)
25.08.2019 08:23 16,1 °C 91 % 1017,0 hPa 0,0 mm 0,0 km/h (0 Bft) W-SW 246 ° 0 min 0,000 mm 1,0 UV-I 179 W/m² 14,6 °C 16,1 °C 0,0 km/h (0 Bft)
25.08.2019 08:24 16,1 °C 91 % 1017,0 hPa 0,0 mm 0,0 km/h (0 Bft) W-SW 246 ° 0 min 0,000 mm 1,0 UV-I 190 W/m² 14,6 °C 16,1 °C 0,0 km/h (0 Bft)
25.08.2019 08:25 16,1 °C 89 % 1017,1 hPa 0,0 mm 0,0 km/h (0 Bft) W-SW 246 ° 0 min 0,000 mm 1,0 UV-I 199 W/m² 14,3 °C 16,1 °C 0,0 km/h (0 Bft)
25.08.2019 08:26 16,1 °C 90 % 1017,1 hPa 0,0 mm 0,0 km/h (0 Bft) W-SW 246 ° 0 min 0,000 mm 1,0 UV-I 202 W/m² 14,5 °C 16,1 °C 0,0 km/h (0 Bft)
25.08.2019 08:27 16,2 °C 90 % 1017,1 hPa 0,0 mm 0,0 km/h (0 Bft) W-SW 246 ° 0 min 0,000 mm 1,0 UV-I 202 W/m² 14,6 °C 16,2 °C 0,0 km/h (0 Bft)
25.08.2019 08:28 16,3 °C 91 % 1017,1 hPa 0,0 mm 0,0 km/h (0 Bft) W-SW 246 ° 0 min 0,000 mm 1,1 UV-I 206 W/m² 14,8 °C 16,3 °C 0,0 km/h (0 Bft)
25.08.2019 08:29 16,4 °C 91 % 1017,1 hPa 0,0 mm 0,0 km/h (0 Bft) W-SW 246 ° 0 min 0,000 mm 1,1 UV-I 207 W/m² 14,9 °C 16,4 °C 0,0 km/h (0 Bft)
25.08.2019 08:30 16,5 °C 90 % 1017,1 hPa 0,0 mm 0,0 km/h (0 Bft) W-SW 246 ° 0 min 0,000 mm 1,1 UV-I 211 W/m² 14,9 °C 16,5 °C 0,0 km/h (0 Bft)
25.08.2019 08:31 16,4 °C 88 % 1017,1 hPa 0,0 mm 0,0 km/h (0 Bft) W-SW 246 ° 0 min 0,000 mm 1,1 UV-I 216 W/m² 14,4 °C 16,4 °C 0,0 km/h (0 Bft)
25.08.2019 08:32 16,4 °C 88 % 1017,1 hPa 0,0 mm 0,0 km/h (0 Bft) W-SW 246 ° 0 min 0,000 mm 1,1 UV-I 216 W/m² 14,4 °C 16,4 °C 0,0 km/h (0 Bft)
25.08.2019 08:33 16,6 °C 89 % 1017,1 hPa 0,0 mm 0,0 km/h (0 Bft) W-SW 246 ° 0 min 0,000 mm 1,1 UV-I 220 W/m² 14,8 °C 16,6 °C 0,0 km/h (0 Bft)
25.08.2019 08:34 16,7 °C 91 % 1017,0 hPa 0,0 mm 0,0 km/h (0 Bft) W-SW 246 ° 0 min 0,000 mm 1,2 UV-I 223 W/m² 15,2 °C 16,7 °C 0,0 km/h (0 Bft)
25.08.2019 08:35 16,8 °C 90 % 1017,0 hPa 0,0 mm 0,0 km/h (0 Bft) W-SW 246 ° 0 min 0,000 mm 1,2 UV-I 221 W/m² 15,1 °C 16,8 °C 0,0 km/h (0 Bft)
25.08.2019 08:36 16,7 °C 90 % 1017,0 hPa 0,0 mm 0,0 km/h (0 Bft) W-SW 246 ° 0 min 0,000 mm 1,2 UV-I 221 W/m² 15,0 °C 16,7 °C 0,0 km/h (0 Bft)
25.08.2019 08:37 16,7 °C 88 % 1017,0 hPa 0,0 mm 0,0 km/h (0 Bft) W-SW 246 ° 0 min 0,000 mm 1,2 UV-I 220 W/m² 14,7 °C 16,7 °C 0,0 km/h (0 Bft)
25.08.2019 08:38 16,7 °C 87 % 1017,0 hPa 0,0 mm 0,0 km/h (0 Bft) W-SW 246 ° 0 min 0,000 mm 1,2 UV-I 221 W/m² 14,5 °C 16,7 °C 0,0 km/h (0 Bft)
25.08.2019 08:39 16,8 °C 89 % 1017,0 hPa 0,0 mm 0,0 km/h (0 Bft) W-SW 246 ° 0 min 0,000 mm 1,3 UV-I 236 W/m² 15,0 °C 16,8 °C 0,0 km/h (0 Bft)
25.08.2019 08:40 16,8 °C 89 % 1017,0 hPa 0,0 mm 0,0 km/h (0 Bft) W-SW 246 ° 0 min 0,000 mm 1,3 UV-I 243 W/m² 15,0 °C 16,8 °C 0,0 km/h (0 Bft)
25.08.2019 08:41 16,8 °C 88 % 1017,0 hPa 0,0 mm 0,0 km/h (0 Bft) W-SW 246 ° 0 min 0,000 mm 1,3 UV-I 250 W/m² 14,8 °C 16,8 °C 0,0 km/h (0 Bft)
25.08.2019 08:42 16,8 °C 87 % 1017,0 hPa 0,0 mm 0,0 km/h (0 Bft) W-SW 246 ° 0 min 0,000 mm 1,3 UV-I 257 W/m² 14,6 °C 16,8 °C 0,0 km/h (0 Bft)
25.08.2019 08:43 16,9 °C 87 % 1017,1 hPa 0,0 mm 0,0 km/h (0 Bft) W-SW 246 ° 0 min 0,000 mm 1,3 UV-I 258 W/m² 14,7 °C 16,9 °C 0,0 km/h (0 Bft)
25.08.2019 08:44 16,9 °C 89 % 1017,0 hPa 0,0 mm 0,0 km/h (0 Bft) W-SW 246 ° 0 min 0,000 mm 1,3 UV-I 264 W/m² 15,1 °C 16,9 °C 0,0 km/h (0 Bft)
25.08.2019 08:45 17,0 °C 88 % 1017,1 hPa 0,0 mm 0,0 km/h (0 Bft) W-SW 246 ° 0 min 0,000 mm 1,4 UV-I 271 W/m² 15,0 °C 17,0 °C 0,0 km/h (0 Bft)
25.08.2019 08:46 17,1 °C 87 % 1017,1 hPa 0,0 mm 0,0 km/h (0 Bft) W-SW 246 ° 0 min 0,000 mm 1,4 UV-I 272 W/m² 14,9 °C 17,1 °C 0,0 km/h (0 Bft)
25.08.2019 08:47 17,2 °C 88 % 1017,1 hPa 0,0 mm 0,0 km/h (0 Bft) W-SW 246 ° 0 min 0,000 mm 1,4 UV-I 274 W/m² 15,2 °C 17,2 °C 0,0 km/h (0 Bft)
25.08.2019 08:48 17,3 °C 88 % 1017,1 hPa 0,0 mm 0,0 km/h (0 Bft) W-SW 246 ° 0 min 0,000 mm 1,4 UV-I 279 W/m² 15,3 °C 17,3 °C 0,0 km/h (0 Bft)
25.08.2019 08:49 17,4 °C 88 % 1017,1 hPa 0,0 mm 0,0 km/h (0 Bft) W-SW 246 ° 0 min 0,000 mm 1,5 UV-I 287 W/m² 15,4 °C 17,4 °C 0,0 km/h (0 Bft)
25.08.2019 08:50 17,5 °C 87 % 1017,1 hPa 0,0 mm 0,0 km/h (0 Bft) W-SW 246 ° 0 min 0,000 mm 1,5 UV-I 294 W/m² 15,3 °C 17,5 °C 0,0 km/h (0 Bft)
25.08.2019 08:51 17,4 °C 87 % 1017,1 hPa 0,0 mm 0,0 km/h (0 Bft) W-SW 246 ° 0 min 0,000 mm 1,5 UV-I 299 W/m² 15,2 °C 17,4 °C 0,0 km/h (0 Bft)
25.08.2019 08:52 17,4 °C 87 % 1017,1 hPa 0,0 mm 0,0 km/h (0 Bft) W-SW 246 ° 0 min 0,000 mm 1,5 UV-I 301 W/m² 15,2 °C 17,4 °C 0,0 km/h (0 Bft)
25.08.2019 08:53 17,4 °C 86 % 1017,1 hPa 0,0 mm 0,0 km/h (0 Bft) W-SW 246 ° 0 min 0,000 mm 1,6 UV-I 304 W/m² 15,0 °C 17,4 °C 0,0 km/h (0 Bft)
25.08.2019 08:54 17,4 °C 87 % 1017,1 hPa 0,0 mm 0,0 km/h (0 Bft) W-SW 246 ° 0 min 0,000 mm 1,6 UV-I 304 W/m² 15,2 °C 17,4 °C 0,0 km/h (0 Bft)
25.08.2019 08:55 17,5 °C 86 % 1017,1 hPa 0,0 mm 0,0 km/h (0 Bft) W-SW 246 ° 0 min 0,000 mm 1,6 UV-I 294 W/m² 15,1 °C 17,5 °C 0,0 km/h (0 Bft)
25.08.2019 08:56 17,5 °C 86 % 1017,1 hPa 0,0 mm 0,0 km/h (0 Bft) W-SW 246 ° 0 min 0,000 mm 1,6 UV-I 301 W/m² 15,1 °C 17,5 °C 0,0 km/h (0 Bft)
25.08.2019 08:57 17,6 °C 86 % 1017,1 hPa 0,0 mm 0,0 km/h (0 Bft) W-SW 246 ° 0 min 0,000 mm 1,6 UV-I 304 W/m² 15,2 °C 17,6 °C 0,0 km/h (0 Bft)
25.08.2019 08:58 17,7 °C 87 % 1017,2 hPa 0,0 mm 0,0 km/h (0 Bft) W-SW 246 ° 0 min 0,000 mm 1,6 UV-I 301 W/m² 15,5 °C 17,7 °C 0,0 km/h (0 Bft)
25.08.2019 08:59 17,7 °C 88 % 1017,1 hPa 0,0 mm 0,0 km/h (0 Bft) W-SW 246 ° 0 min 0,000 mm 1,6 UV-I 302 W/m² 15,7 °C 17,7 °C 0,0 km/h (0 Bft)
25.08.2019 09:00 17,8 °C 86 % 1017,2 hPa 0,0 mm 0,0 km/h (0 Bft) W-SW 246 ° 0 min 0,000 mm 1,6 UV-I 302 W/m² 15,4 °C 17,8 °C 0,0 km/h (0 Bft)
25.08.2019 09:01 17,7 °C 86 % 1017,1 hPa 0,0 mm 0,0 km/h (0 Bft) W-SW 246 ° 0 min 0,127 mm 1,7 UV-I 299 W/m² 15,3 °C 17,7 °C 0,0 km/h (0 Bft)
25.08.2019 09:02 17,7 °C 86 % 1017,1 hPa 0,0 mm 0,0 km/h (0 Bft) W-SW 246 ° 0 min 0,000 mm 1,7 UV-I 301 W/m² 15,3 °C 17,7 °C 0,0 km/h (0 Bft)
25.08.2019 09:03 17,8 °C 86 % 1017,2 hPa 0,0 mm 0,0 km/h (0 Bft) W-SW 246 ° 0 min 0,000 mm 1,7 UV-I 294 W/m² 15,4 °C 17,8 °C 0,0 km/h (0 Bft)
25.08.2019 09:04 17,8 °C 86 % 1017,2 hPa 0,0 mm 0,0 km/h (0 Bft) W-SW 246 ° 0 min 0,000 mm 1,7 UV-I 299 W/m² 15,4 °C 17,8 °C 0,0 km/h (0 Bft)
25.08.2019 09:05 17,9 °C 86 % 1017,2 hPa 0,0 mm 0,0 km/h (0 Bft) W-SW 246 ° 0 min 0,000 mm 1,7 UV-I 302 W/m² 15,5 °C 17,9 °C 0,0 km/h (0 Bft)
25.08.2019 09:06 17,9 °C 86 % 1017,2 hPa 0,0 mm 0,0 km/h (0 Bft) W-SW 246 ° 0 min 0,000 mm 1,7 UV-I 306 W/m² 15,5 °C 17,9 °C 0,0 km/h (0 Bft)
25.08.2019 09:07 17,9 °C 86 % 1017,2 hPa 0,0 mm 0,0 km/h (0 Bft) W-SW 246 ° 0 min 0,000 mm 1,7 UV-I 315 W/m² 15,5 °C 17,9 °C 0,0 km/h (0 Bft)
25.08.2019 09:08 17,9 °C 86 % 1017,2 hPa 0,0 mm 0,0 km/h (0 Bft) W-SW 246 ° 0 min 0,000 mm 1,8 UV-I 318 W/m² 15,5 °C 17,9 °C 0,0 km/h (0 Bft)
25.08.2019 09:09 17,9 °C 86 % 1017,2 hPa 0,0 mm 0,0 km/h (0 Bft) W-SW 246 ° 0 min 0,000 mm 1,8 UV-I 315 W/m² 15,5 °C 17,9 °C 0,0 km/h (0 Bft)
25.08.2019 09:10 18,1 °C 86 % 1017,2 hPa 0,0 mm 0,0 km/h (0 Bft) W-SW 246 ° 0 min 0,000 mm 1,8 UV-I 306 W/m² 15,7 °C 18,1 °C 0,0 km/h (0 Bft)
25.08.2019 09:11 18,2 °C 85 % 1017,2 hPa 0,0 mm 0,0 km/h (0 Bft) W-SW 246 ° 0 min 0,000 mm 1,8 UV-I 315 W/m² 15,6 °C 18,2 °C 0,0 km/h (0 Bft)
25.08.2019 09:12 18,2 °C 86 % 1017,2 hPa 0,0 mm 0,0 km/h (0 Bft) W-SW 246 ° 0 min 0,000 mm 1,9 UV-I 332 W/m² 15,8 °C 18,2 °C 0,0 km/h (0 Bft)
25.08.2019 09:13 18,2 °C 85 % 1017,1 hPa 0,0 mm 0,0 km/h (0 Bft) W-SW 246 ° 0 min 0,000 mm 1,9 UV-I 339 W/m² 15,6 °C 18,2 °C 0,0 km/h (0 Bft)
25.08.2019 09:14 18,2 °C 85 % 1017,2 hPa 0,0 mm 0,0 km/h (0 Bft) W-SW 246 ° 0 min 0,000 mm 1,9 UV-I 353 W/m² 15,6 °C 18,2 °C 0,0 km/h (0 Bft)
25.08.2019 09:15 18,2 °C 85 % 1017,2 hPa 0,0 mm 0,0 km/h (0 Bft) W-SW 246 ° 0 min 0,000 mm 2,0 UV-I 359 W/m² 15,6 °C 18,2 °C 0,0 km/h (0 Bft)
25.08.2019 09:16 18,3 °C 85 % 1017,2 hPa 0,0 mm 0,0 km/h (0 Bft) W-SW 246 ° 0 min 0,000 mm 2,0 UV-I 364 W/m² 15,7 °C 18,3 °C 0,0 km/h (0 Bft)
25.08.2019 09:17 18,4 °C 84 % 1017,2 hPa 0,0 mm 0,0 km/h (0 Bft) W-SW 246 ° 0 min 0,000 mm 2,0 UV-I 369 W/m² 15,6 °C 18,4 °C 0,0 km/h (0 Bft)
25.08.2019 09:18 18,6 °C 85 % 1017,2 hPa 0,0 mm 0,0 km/h (0 Bft) W-SW 246 ° 0 min 0,000 mm 2,1 UV-I 374 W/m² 16,0 °C 18,6 °C 0,0 km/h (0 Bft)
25.08.2019 09:19 18,6 °C 84 % 1017,1 hPa 0,0 mm 0,0 km/h (0 Bft) W-SW 246 ° 0 min 0,000 mm 2,1 UV-I 369 W/m² 15,8 °C 18,6 °C 0,0 km/h (0 Bft)
25.08.2019 09:20 18,7 °C 83 % 1017,1 hPa 0,0 mm 0,0 km/h (0 Bft) W-SW 246 ° 0 min 0,000 mm 2,1 UV-I 381 W/m² 15,8 °C 18,7 °C 0,0 km/h (0 Bft)
25.08.2019 09:21 18,7 °C 84 % 1017,1 hPa 0,0 mm 0,0 km/h (0 Bft) W-SW 246 ° 0 min 0,000 mm 2,1 UV-I 381 W/m² 15,9 °C 18,7 °C 0,0 km/h (0 Bft)
25.08.2019 09:22 18,7 °C 84 % 1017,2 hPa 0,0 mm 0,0 km/h (0 Bft) W-SW 246 ° 0 min 0,000 mm 2,1 UV-I 376 W/m² 15,9 °C 18,7 °C 0,0 km/h (0 Bft)
25.08.2019 09:23 18,7 °C 84 % 1017,2 hPa 0,0 mm 0,0 km/h (0 Bft) W-SW 246 ° 0 min 0,000 mm 2,2 UV-I 381 W/m² 15,9 °C 18,7 °C 0,0 km/h (0 Bft)
25.08.2019 09:24 18,7 °C 84 % 1017,2 hPa 0,0 mm 0,0 km/h (0 Bft) W-SW 246 ° 0 min 0,000 mm 2,2 UV-I 380 W/m² 15,9 °C 18,7 °C 0,0 km/h (0 Bft)
25.08.2019 09:25 18,7 °C 84 % 1017,2 hPa 0,0 mm 0,0 km/h (0 Bft) W-SW 246 ° 0 min 0,000 mm 2,2 UV-I 381 W/m² 15,9 °C 18,7 °C 0,0 km/h (0 Bft)
25.08.2019 09:26 18,6 °C 85 % 1017,2 hPa 0,0 mm 0,0 km/h (0 Bft) W-SW 246 ° 0 min 0,000 mm 2,2 UV-I 381 W/m² 16,0 °C 18,6 °C 0,0 km/h (0 Bft)
25.08.2019 09:27 18,6 °C 85 % 1017,2 hPa 0,0 mm 0,0 km/h (0 Bft) W-SW 246 ° 0 min 0,000 mm 2,2 UV-I 387 W/m² 16,0 °C 18,6 °C 0,0 km/h (0 Bft)
25.08.2019 09:28 18,6 °C 85 % 1017,2 hPa 0,0 mm 0,0 km/h (0 Bft) W-SW 246 ° 0 min 0,000 mm 2,2 UV-I 387 W/m² 16,0 °C 18,6 °C 0,0 km/h (0 Bft)
25.08.2019 09:29 18,6 °C 85 % 1017,2 hPa 0,0 mm 0,0 km/h (0 Bft) W-SW 246 ° 0 min 0,000 mm 2,2 UV-I 388 W/m² 16,0 °C 18,6 °C 0,0 km/h (0 Bft)
25.08.2019 09:30 18,6 °C 85 % 1017,2 hPa 0,0 mm 0,0 km/h (0 Bft) W-SW 246 ° 0 min 0,000 mm 2,2 UV-I 387 W/m² 16,0 °C 18,6 °C 0,0 km/h (0 Bft)
25.08.2019 09:31 18,6 °C 85 % 1017,2 hPa 0,0 mm 0,0 km/h (0 Bft) W-SW 246 ° 0 min 0,000 mm 2,3 UV-I 388 W/m² 16,0 °C 18,6 °C 0,0 km/h (0 Bft)
25.08.2019 09:32 18,6 °C 84 % 1017,2 hPa 0,0 mm 0,0 km/h (0 Bft) W-SW 246 ° 0 min 0,000 mm 2,3 UV-I 387 W/m² 15,8 °C 18,6 °C 0,0 km/h (0 Bft)
25.08.2019 09:33 18,6 °C 85 % 1017,2 hPa 0,0 mm 0,0 km/h (0 Bft) W-SW 246 ° 0 min 0,000 mm 2,3 UV-I 390 W/m² 16,0 °C 18,6 °C 0,0 km/h (0 Bft)
25.08.2019 09:34 18,7 °C 85 % 1017,2 hPa 0,0 mm 0,0 km/h (0 Bft) W-SW 246 ° 0 min 0,000 mm 2,3 UV-I 399 W/m² 16,1 °C 18,7 °C 0,0 km/h (0 Bft)
25.08.2019 09:35 18,7 °C 84 % 1017,3 hPa 0,0 mm 0,0 km/h (0 Bft) W-SW 245 ° 0 min 0,000 mm 2,4 UV-I 408 W/m² 15,9 °C 18,7 °C 0,0 km/h (0 Bft)
25.08.2019 09:36 18,8 °C 84 % 1017,3 hPa 0,0 mm 0,0 km/h (0 Bft) W-SW 245 ° 0 min 0,000 mm 2,4 UV-I 410 W/m² 16,0 °C 18,8 °C 0,0 km/h (0 Bft)
25.08.2019 09:37 18,8 °C 84 % 1017,2 hPa 0,0 mm 0,0 km/h (0 Bft) W-SW 245 ° 0 min 0,000 mm 2,4 UV-I 427 W/m² 16,0 °C 18,8 °C 0,0 km/h (0 Bft)
25.08.2019 09:38 18,9 °C 85 % 1017,2 hPa 0,0 mm 0,0 km/h (0 Bft) W-SW 245 ° 0 min 0,000 mm 2,4 UV-I 436 W/m² 16,3 °C 18,9 °C 0,0 km/h (0 Bft)
25.08.2019 09:39 19,0 °C 85 % 1017,2 hPa 0,0 mm 0,0 km/h (0 Bft) W-SW 245 ° 0 min 0,000 mm 2,5 UV-I 441 W/m² 16,4 °C 19,0 °C 0,0 km/h (0 Bft)
25.08.2019 09:40 19,2 °C 85 % 1017,2 hPa 0,0 mm 0,0 km/h (0 Bft) W-SW 245 ° 0 min 0,000 mm 2,5 UV-I 445 W/m² 16,6 °C 19,2 °C 0,0 km/h (0 Bft)
25.08.2019 09:41 19,3 °C 84 % 1017,2 hPa 0,0 mm 0,0 km/h (0 Bft) W-SW 245 ° 0 min 0,000 mm 2,5 UV-I 441 W/m² 16,5 °C 19,3 °C 0,0 km/h (0 Bft)
25.08.2019 09:42 19,3 °C 83 % 1017,2 hPa 0,0 mm 0,0 km/h (0 Bft) W-SW 245 ° 0 min 0,000 mm 2,5 UV-I 438 W/m² 16,3 °C 19,3 °C 0,0 km/h (0 Bft)
25.08.2019 09:43 19,3 °C 82 % 1017,1 hPa 0,0 mm 0,0 km/h (0 Bft) W-SW 245 ° 0 min 0,000 mm 2,5 UV-I 420 W/m² 16,1 °C 19,3 °C 0,0 km/h (0 Bft)
25.08.2019 09:44 19,4 °C 82 % 1017,2 hPa 0,0 mm 0,0 km/h (0 Bft) W-SW 245 ° 0 min 0,000 mm 2,5 UV-I 410 W/m² 16,2 °C 19,4 °C 0,0 km/h (0 Bft)
25.08.2019 09:45 19,4 °C 82 % 1017,2 hPa 0,0 mm 0,0 km/h (0 Bft) W-SW 245 ° 0 min 0,000 mm 2,5 UV-I 408 W/m² 16,2 °C 19,4 °C 0,0 km/h (0 Bft)
25.08.2019 09:46 19,4 °C 84 % 1017,2 hPa 0,0 mm 0,0 km/h (0 Bft) W-SW 245 ° 0 min 0,000 mm 2,6 UV-I 429 W/m² 16,6 °C 19,4 °C 0,0 km/h (0 Bft)
25.08.2019 09:47 19,4 °C 83 % 1017,3 hPa 0,0 mm 0,0 km/h (0 Bft) W-SW 246 ° 0 min 0,000 mm 2,6 UV-I 436 W/m² 16,4 °C 19,4 °C 0,0 km/h (0 Bft)
25.08.2019 09:48 19,6 °C 85 % 1017,3 hPa 0,0 mm 0,0 km/h (0 Bft) W-SW 252 ° 0 min 0,000 mm 2,7 UV-I 452 W/m² 17,0 °C 19,6 °C 0,0 km/h (0 Bft)
25.08.2019 09:49 19,8 °C 84 % 1017,3 hPa 0,0 mm 0,0 km/h (0 Bft) W-SW 252 ° 0 min 0,000 mm 2,7 UV-I 448 W/m² 17,0 °C 19,8 °C 0,0 km/h (0 Bft)
25.08.2019 09:50 19,9 °C 80 % 1017,3 hPa 0,0 mm 0,0 km/h (0 Bft) W-SW 252 ° 0 min 0,000 mm 2,7 UV-I 443 W/m² 16,3 °C 19,9 °C 0,0 km/h (0 Bft)
25.08.2019 09:51 20,1 °C 79 % 1017,3 hPa 0,0 mm 0,0 km/h (0 Bft) W-SW 252 ° 0 min 0,000 mm 2,6 UV-I 422 W/m² 16,3 °C 20,1 °C 0,0 km/h (0 Bft)
25.08.2019 09:52 20,1 °C 80 % 1017,3 hPa 0,0 mm 0,0 km/h (0 Bft) W-SW 251 ° 0 min 0,000 mm 2,7 UV-I 434 W/m² 16,5 °C 20,1 °C 0,0 km/h (0 Bft)
25.08.2019 09:53 20,1 °C 80 % 1017,3 hPa 0,0 mm 0,0 km/h (0 Bft) W-SW 251 ° 0 min 0,000 mm 2,7 UV-I 443 W/m² 16,5 °C 20,1 °C 0,0 km/h (0 Bft)
25.08.2019 09:54 19,9 °C 80 % 1017,3 hPa 0,0 mm 0,0 km/h (0 Bft) W-SW 251 ° 0 min 0,000 mm 2,8 UV-I 455 W/m² 16,3 °C 19,9 °C 0,0 km/h (0 Bft)
25.08.2019 09:55 19,9 °C 81 % 1017,3 hPa 0,0 mm 0,0 km/h (0 Bft) W-SW 253 ° 0 min 0,000 mm 2,8 UV-I 461 W/m² 16,5 °C 19,9 °C 0,0 km/h (0 Bft)
25.08.2019 09:56 20,0 °C 80 % 1017,3 hPa 0,0 mm 0,0 km/h (0 Bft) W-SW 253 ° 0 min 0,000 mm 2,9 UV-I 473 W/m² 16,4 °C 20,0 °C 0,0 km/h (0 Bft)
25.08.2019 09:57 20,2 °C 80 % 1017,3 hPa 0,0 mm 0,0 km/h (0 Bft) W-SW 253 ° 0 min 0,000 mm 2,9 UV-I 483 W/m² 16,6 °C 20,2 °C 0,0 km/h (0 Bft)
25.08.2019 09:58 20,3 °C 80 % 1017,3 hPa 0,0 mm 0,0 km/h (0 Bft) W 263 ° 0 min 0,000 mm 3,0 UV-I 501 W/m² 16,7 °C 20,3 °C 0,0 km/h (0 Bft)
25.08.2019 09:59 20,5 °C 80 % 1017,3 hPa 0,0 mm 0,0 km/h (0 Bft) W 263 ° 0 min 0,000 mm 3,0 UV-I 483 W/m² 16,9 °C 20,5 °C 0,0 km/h (0 Bft)
25.08.2019 10:00 20,6 °C 80 % 1017,4 hPa 0,0 mm 0,0 km/h (0 Bft) NW 304 ° 0 min 0,228 mm 3,0 UV-I 492 W/m² 17,0 °C 20,6 °C 0,0 km/h (0 Bft)
25.08.2019 10:01 20,7 °C 79 % 1017,3 hPa 0,0 mm 0,0 km/h (0 Bft) NW 304 ° 0 min 0,000 mm 3,1 UV-I 489 W/m² 16,9 °C 20,7 °C 0,0 km/h (0 Bft)
25.08.2019 10:02 20,7 °C 77 % 1017,3 hPa 0,0 mm 0,0 km/h (0 Bft) NW 304 ° 0 min 0,000 mm 3,1 UV-I 503 W/m² 16,5 °C 20,7 °C 0,0 km/h (0 Bft)
25.08.2019 10:03 20,7 °C 76 % 1017,3 hPa 0,0 mm 0,0 km/h (0 Bft) NW 304 ° 0 min 0,000 mm 3,0 UV-I 487 W/m² 16,3 °C 20,7 °C 0,0 km/h (0 Bft)
25.08.2019 10:04 20,7 °C 76 % 1017,4 hPa 0,0 mm 0,0 km/h (0 Bft) NW 310 ° 0 min 0,000 mm 3,1 UV-I 490 W/m² 16,3 °C 20,7 °C 0,0 km/h (0 Bft)
25.08.2019 10:05 20,7 °C 77 % 1017,3 hPa 0,0 mm 0,0 km/h (0 Bft) NW 310 ° 0 min 0,000 mm 3,1 UV-I 497 W/m² 16,5 °C 20,7 °C 0,0 km/h (0 Bft)
25.08.2019 10:06 20,8 °C 77 % 1017,3 hPa 0,0 mm 0,0 km/h (0 Bft) NW 309 ° 0 min 0,000 mm 3,1 UV-I 503 W/m² 16,6 °C 20,8 °C 0,0 km/h (0 Bft)
25.08.2019 10:07 20,8 °C 77 % 1017,3 hPa 0,0 mm 0,0 km/h (0 Bft) NW 309 ° 0 min 0,000 mm 3,1 UV-I 512 W/m² 16,6 °C 20,8 °C 0,0 km/h (0 Bft)
25.08.2019 10:08 20,9 °C 76 % 1017,3 hPa 0,0 mm 0,0 km/h (0 Bft) NW 309 ° 0 min 0,000 mm 3,2 UV-I 512 W/m² 16,5 °C 20,9 °C 0,0 km/h (0 Bft)
25.08.2019 10:09 20,8 °C 74 % 1017,3 hPa 0,0 mm 0,0 km/h (0 Bft) NW 309 ° 0 min 0,000 mm 3,2 UV-I 513 W/m² 16,0 °C 20,8 °C 0,0 km/h (0 Bft)
25.08.2019 10:10 20,9 °C 75 % 1017,3 hPa 0,0 mm 0,0 km/h (0 Bft) N 350 ° 0 min 0,000 mm 3,2 UV-I 513 W/m² 16,3 °C 20,9 °C 0,0 km/h (0 Bft)
25.08.2019 10:11 20,9 °C 76 % 1017,3 hPa 0,0 mm 0,0 km/h (0 Bft) N 349 ° 0 min 0,000 mm 3,2 UV-I 520 W/m² 16,5 °C 20,9 °C 0,0 km/h (0 Bft)
25.08.2019 10:12 20,9 °C 77 % 1017,3 hPa 0,0 mm 0,0 km/h (0 Bft) N 349 ° 0 min 0,000 mm 3,3 UV-I 526 W/m² 16,7 °C 20,9 °C 0,0 km/h (0 Bft)
25.08.2019 10:13 20,9 °C 79 % 1017,3 hPa 0,0 mm 0,0 km/h (0 Bft) N 349 ° 0 min 0,000 mm 3,3 UV-I 529 W/m² 17,1 °C 20,9 °C 0,0 km/h (0 Bft)
25.08.2019 10:14 21,0 °C 78 % 1017,3 hPa 0,0 mm 0,0 km/h (0 Bft) N 349 ° 0 min 0,000 mm 3,3 UV-I 543 W/m² 17,0 °C 21,0 °C 0,0 km/h (0 Bft)
25.08.2019 10:15 21,0 °C 79 % 1017,3 hPa 0,0 mm 0,0 km/h (0 Bft) N 349 ° 0 min 0,000 mm 3,4 UV-I 545 W/m² 17,2 °C 21,0 °C 0,0 km/h (0 Bft)
25.08.2019 10:16 21,0 °C 75 % 1017,3 hPa 0,0 mm 0,0 km/h (0 Bft) N 349 ° 0 min 0,000 mm 3,4 UV-I 543 W/m² 16,4 °C 21,0 °C 0,0 km/h (0 Bft)
25.08.2019 10:17 21,1 °C 77 % 1017,3 hPa 0,0 mm 0,0 km/h (0 Bft) N 349 ° 0 min 0,000 mm 3,4 UV-I 545 W/m² 16,9 °C 21,1 °C 0,0 km/h (0 Bft)
25.08.2019 10:18 21,1 °C 76 % 1017,3 hPa 0,0 mm 0,0 km/h (0 Bft) N 349 ° 0 min 0,000 mm 3,4 UV-I 545 W/m² 16,7 °C 21,1 °C 0,0 km/h (0 Bft)
25.08.2019 10:19 20,9 °C 75 % 1017,3 hPa 0,0 mm 0,0 km/h (0 Bft) N 349 ° 0 min 0,000 mm 3,4 UV-I 545 W/m² 16,3 °C 20,9 °C 0,0 km/h (0 Bft)
25.08.2019 10:20 20,8 °C 74 % 1017,3 hPa 0,0 mm 0,0 km/h (0 Bft) N 349 ° 0 min 0,000 mm 3,4 UV-I 540 W/m² 16,0 °C 20,8 °C 0,0 km/h (0 Bft)
25.08.2019 10:21 20,7 °C 79 % 1017,2 hPa 0,0 mm 0,0 km/h (0 Bft) N-NW 333 ° 0 min 0,000 mm 3,4 UV-I 536 W/m² 16,9 °C 20,7 °C 0,0 km/h (0 Bft)
25.08.2019 10:22 20,7 °C 77 % 1017,3 hPa 0,0 mm 0,0 km/h (0 Bft) N-NW 339 ° 0 min 0,000 mm 3,4 UV-I 531 W/m² 16,5 °C 20,7 °C 0,0 km/h (0 Bft)
25.08.2019 10:23 20,9 °C 79 % 1017,2 hPa 0,0 mm 0,0 km/h (0 Bft) N-NW 339 ° 0 min 0,000 mm 3,4 UV-I 524 W/m² 17,1 °C 20,9 °C 0,0 km/h (0 Bft)
25.08.2019 10:24 21,1 °C 77 % 1017,2 hPa 0,0 mm 0,0 km/h (0 Bft) N-NW 340 ° 0 min 0,000 mm 3,4 UV-I 540 W/m² 16,9 °C 21,1 °C 0,0 km/h (0 Bft)
25.08.2019 10:25 21,2 °C 78 % 1017,2 hPa 0,0 mm 0,0 km/h (0 Bft) N-NW 340 ° 0 min 0,000 mm 3,5 UV-I 541 W/m² 17,2 °C 21,2 °C 0,0 km/h (0 Bft)
25.08.2019 10:26 21,3 °C 76 % 1017,2 hPa 0,0 mm 0,0 km/h (0 Bft) N-NW 340 ° 0 min 0,000 mm 3,5 UV-I 541 W/m² 16,9 °C 21,3 °C 0,0 km/h (0 Bft)
25.08.2019 10:27 21,3 °C 73 % 1017,2 hPa 0,0 mm 0,0 km/h (0 Bft) NW 313 ° 0 min 0,000 mm 3,5 UV-I 547 W/m² 16,3 °C 21,3 °C 0,0 km/h (0 Bft)
25.08.2019 10:28 21,3 °C 76 % 1017,3 hPa 0,0 mm 0,0 km/h (0 Bft) NW 313 ° 0 min 0,000 mm 3,5 UV-I 545 W/m² 16,9 °C 21,3 °C 0,0 km/h (0 Bft)
25.08.2019 10:29 21,4 °C 76 % 1017,2 hPa 0,0 mm 0,0 km/h (0 Bft) NW 313 ° 0 min 0,000 mm 3,5 UV-I 543 W/m² 17,0 °C 21,4 °C 0,0 km/h (0 Bft)
25.08.2019 10:30 21,4 °C 75 % 1017,2 hPa 0,0 mm 0,0 km/h (0 Bft) SW 234 ° 0 min 0,000 mm 3,6 UV-I 550 W/m² 16,8 °C 21,4 °C 0,0 km/h (0 Bft)
25.08.2019 10:31 21,6 °C 77 % 1017,2 hPa 0,0 mm 0,0 km/h (0 Bft) SW 234 ° 0 min 0,000 mm 3,6 UV-I 548 W/m² 17,4 °C 21,6 °C 0,0 km/h (0 Bft)
25.08.2019 10:32 21,6 °C 74 % 1017,2 hPa 0,0 mm 0,0 km/h (0 Bft) W 261 ° 0 min 0,000 mm 3,6 UV-I 547 W/m² 16,8 °C 21,6 °C 0,0 km/h (0 Bft)
25.08.2019 10:33 21,6 °C 72 % 1017,2 hPa 0,0 mm 0,0 km/h (0 Bft) W 261 ° 0 min 0,000 mm 3,6 UV-I 545 W/m² 16,3 °C 21,6 °C 0,0 km/h (0 Bft)
25.08.2019 10:34 21,7 °C 74 % 1017,2 hPa 0,0 mm 0,0 km/h (0 Bft) W 261 ° 0 min 0,000 mm 3,6 UV-I 534 W/m² 16,9 °C 21,7 °C 0,0 km/h (0 Bft)
25.08.2019 10:35 21,8 °C 74 % 1017,2 hPa 0,0 mm 0,0 km/h (0 Bft) W 261 ° 0 min 0,000 mm 3,7 UV-I 554 W/m² 17,0 °C 21,8 °C 0,0 km/h (0 Bft)
25.08.2019 10:36 21,8 °C 73 % 1017,3 hPa 0,0 mm 0,0 km/h (0 Bft) W 273 ° 0 min 0,000 mm 3,7 UV-I 575 W/m² 16,7 °C 21,8 °C 0,0 km/h (0 Bft)
25.08.2019 10:37 21,8 °C 70 % 1017,2 hPa 0,0 mm 0,0 km/h (0 Bft) W 272 ° 0 min 0,000 mm 3,8 UV-I 584 W/m² 16,1 °C 21,8 °C 0,0 km/h (0 Bft)
25.08.2019 10:38 21,8 °C 70 % 1017,3 hPa 0,0 mm 0,0 km/h (0 Bft) W-NW 288 ° 0 min 0,000 mm 3,8 UV-I 589 W/m² 16,1 °C 21,8 °C 0,0 km/h (0 Bft)
25.08.2019 10:39 21,9 °C 72 % 1017,3 hPa 0,0 mm 0,0 km/h (0 Bft) W-NW 287 ° 0 min 0,000 mm 3,8 UV-I 591 W/m² 16,6 °C 21,9 °C 0,0 km/h (0 Bft)
25.08.2019 10:40 22,1 °C 75 % 1017,2 hPa 0,0 mm 0,8 km/h (0 Bft) W-SW 247 ° 0 min 0,000 mm 3,8 UV-I 585 W/m² 17,5 °C 22,1 °C 4,8 km/h (1 Bft)
25.08.2019 10:41 22,1 °C 72 % 1017,3 hPa 0,0 mm 1,2 km/h (1 Bft) W-SW 254 ° 0 min 0,000 mm 3,8 UV-I 570 W/m² 16,8 °C 22,1 °C 3,2 km/h (1 Bft)
25.08.2019 10:42 21,9 °C 72 % 1017,3 hPa 0,0 mm 0,0 km/h (0 Bft) W-SW 254 ° 0 min 0,000 mm 3,8 UV-I 575 W/m² 16,6 °C 21,9 °C 0,0 km/h (0 Bft)
25.08.2019 10:43 21,8 °C 73 % 1017,2 hPa 0,0 mm 0,0 km/h (0 Bft) W-SW 254 ° 0 min 0,000 mm 3,8 UV-I 585 W/m² 16,7 °C 21,8 °C 0,0 km/h (0 Bft)
25.08.2019 10:44 21,5 °C 70 % 1017,3 hPa 0,0 mm 0,0 km/h (0 Bft) N 10 ° 0 min 0,000 mm 3,9 UV-I 591 W/m² 15,8 °C 21,5 °C 0,0 km/h (0 Bft)
25.08.2019 10:45 21,3 °C 76 % 1017,3 hPa 0,0 mm 0,1 km/h (0 Bft) N 10 ° 0 min 0,000 mm 3,9 UV-I 591 W/m² 16,9 °C 21,3 °C 1,6 km/h (1 Bft)
25.08.2019 10:46 21,2 °C 75 % 1017,3 hPa 0,0 mm 3,1 km/h (1 Bft) W-NW 298 ° 0 min 0,000 mm 3,9 UV-I 599 W/m² 16,6 °C 21,2 °C 6,4 km/h (2 Bft)
25.08.2019 10:47 21,3 °C 74 % 1017,3 hPa 0,0 mm 0,6 km/h (0 Bft) W-NW 299 ° 1 min 0,000 mm 3,9 UV-I 601 W/m² 16,5 °C 21,3 °C 3,2 km/h (1 Bft)
25.08.2019 10:48 21,4 °C 74 % 1017,3 hPa 0,0 mm 0,6 km/h (0 Bft) W-NW 299 ° 0 min 0,000 mm 4,0 UV-I 598 W/m² 16,6 °C 21,4 °C 1,6 km/h (1 Bft)
25.08.2019 10:49 21,6 °C 74 % 1017,3 hPa 0,0 mm 2,6 km/h (1 Bft) NW 321 ° 0 min 0,000 mm 3,9 UV-I 596 W/m² 16,8 °C 21,6 °C 6,4 km/h (2 Bft)
25.08.2019 10:50 21,7 °C 74 % 1017,3 hPa 0,0 mm 3,2 km/h (1 Bft) NW 313 ° 0 min 0,000 mm 3,9 UV-I 592 W/m² 16,9 °C 21,7 °C 4,8 km/h (1 Bft)
25.08.2019 10:51 21,8 °C 75 % 1017,3 hPa 0,0 mm 0,0 km/h (0 Bft) NW 313 ° 1 min 0,000 mm 4,0 UV-I 601 W/m² 17,2 °C 21,8 °C 0,0 km/h (0 Bft)
25.08.2019 10:52 21,9 °C 75 % 1017,3 hPa 0,0 mm 0,1 km/h (0 Bft) NW 315 ° 1 min 0,000 mm 4,0 UV-I 612 W/m² 17,3 °C 21,9 °C 3,2 km/h (1 Bft)
25.08.2019 10:53 22,0 °C 73 % 1017,3 hPa 0,0 mm 0,9 km/h (0 Bft) NW 315 ° 0 min 0,000 mm 3,9 UV-I 575 W/m² 16,9 °C 22,0 °C 3,2 km/h (1 Bft)
25.08.2019 10:54 21,9 °C 72 % 1017,3 hPa 0,0 mm 0,0 km/h (0 Bft) NW 315 ° 0 min 0,000 mm 3,7 UV-I 541 W/m² 16,6 °C 21,9 °C 0,0 km/h (0 Bft)
25.08.2019 10:55 21,9 °C 71 % 1017,3 hPa 0,0 mm 0,0 km/h (0 Bft) NW 315 ° 0 min 0,000 mm 3,5 UV-I 431 W/m² 16,4 °C 21,9 °C 0,0 km/h (0 Bft)
25.08.2019 10:56 21,9 °C 72 % 1017,2 hPa 0,0 mm 0,0 km/h (0 Bft) NW 315 ° 0 min 0,000 mm 3,7 UV-I 508 W/m² 16,6 °C 21,9 °C 0,0 km/h (0 Bft)
25.08.2019 10:57 21,9 °C 74 % 1017,3 hPa 0,0 mm 0,0 km/h (0 Bft) NW 315 ° 0 min 0,000 mm 3,8 UV-I 520 W/m² 17,0 °C 21,9 °C 0,0 km/h (0 Bft)
25.08.2019 10:58 21,8 °C 77 % 1017,3 hPa 0,0 mm 0,0 km/h (0 Bft) NW 313 ° 1 min 0,000 mm 3,9 UV-I 612 W/m² 17,6 °C 21,8 °C 0,0 km/h (0 Bft)
25.08.2019 10:59 21,7 °C 75 % 1017,2 hPa 0,0 mm 2,7 km/h (1 Bft) NW 311 ° 1 min 0,000 mm 4,0 UV-I 601 W/m² 17,1 °C 21,7 °C 4,8 km/h (1 Bft)
25.08.2019 11:00 21,6 °C 78 % 1017,2 hPa 0,0 mm 1,8 km/h (1 Bft) NW 311 ° 1 min 0,000 mm 4,0 UV-I 610 W/m² 17,6 °C 21,6 °C 4,8 km/h (1 Bft)
25.08.2019 11:01 21,7 °C 76 % 1017,2 hPa 0,0 mm 0,0 km/h (0 Bft) NW 311 ° 1 min 0,331 mm 4,0 UV-I 612 W/m² 17,3 °C 21,7 °C 0,0 km/h (0 Bft)
25.08.2019 11:02 21,9 °C 75 % 1017,2 hPa 0,0 mm 0,0 km/h (0 Bft) NW 311 ° 1 min 0,000 mm 4,1 UV-I 626 W/m² 17,3 °C 21,9 °C 0,0 km/h (0 Bft)
25.08.2019 11:03 22,0 °C 75 % 1017,2 hPa 0,0 mm 2,6 km/h (1 Bft) W-NW 290 ° 0 min 0,000 mm 4,1 UV-I 589 W/m² 17,4 °C 22,0 °C 3,2 km/h (1 Bft)
25.08.2019 11:04 22,1 °C 73 % 1017,2 hPa 0,0 mm 0,5 km/h (0 Bft) W-NW 290 ° 1 min 0,000 mm 4,1 UV-I 610 W/m² 17,0 °C 22,1 °C 3,2 km/h (1 Bft)
25.08.2019 11:05 22,1 °C 71 % 1017,2 hPa 0,0 mm 0,0 km/h (0 Bft) W-NW 290 ° 1 min 0,000 mm 4,2 UV-I 647 W/m² 16,6 °C 22,1 °C 0,0 km/h (0 Bft)
25.08.2019 11:06 22,0 °C 73 % 1017,2 hPa 0,0 mm 0,0 km/h (0 Bft) W-NW 290 ° 1 min 0,000 mm 4,2 UV-I 647 W/m² 16,9 °C 22,0 °C 0,0 km/h (0 Bft)
25.08.2019 11:07 22,2 °C 75 % 1017,2 hPa 0,0 mm 3,4 km/h (1 Bft) W 274 ° 1 min 0,000 mm 4,2 UV-I 610 W/m² 17,5 °C 22,2 °C 4,8 km/h (1 Bft)
25.08.2019 11:08 22,3 °C 77 % 1017,2 hPa 0,0 mm 0,7 km/h (0 Bft) W 274 ° 1 min 0,000 mm 4,2 UV-I 621 W/m² 18,1 °C 22,3 °C 3,2 km/h (1 Bft)
25.08.2019 11:09 22,3 °C 74 % 1017,2 hPa 0,0 mm 0,0 km/h (0 Bft) W 274 ° 1 min 0,000 mm 4,2 UV-I 603 W/m² 17,4 °C 22,3 °C 0,0 km/h (0 Bft)
25.08.2019 11:10 22,1 °C 73 % 1017,2 hPa 0,0 mm 0,0 km/h (0 Bft) W 274 ° 0 min 0,000 mm 4,2 UV-I 589 W/m² 17,0 °C 22,1 °C 0,0 km/h (0 Bft)
25.08.2019 11:11 21,9 °C 73 % 1017,1 hPa 0,0 mm 0,9 km/h (0 Bft) N 11 ° 1 min 0,000 mm 4,2 UV-I 606 W/m² 16,8 °C 21,9 °C 4,8 km/h (1 Bft)
25.08.2019 11:12 21,8 °C 74 % 1017,1 hPa 0,0 mm 3,0 km/h (1 Bft) N-NW 342 ° 1 min 0,000 mm 4,4 UV-I 629 W/m² 17,0 °C 21,8 °C 4,8 km/h (1 Bft)
25.08.2019 11:13 21,9 °C 74 % 1017,1 hPa 0,0 mm 0,5 km/h (0 Bft) N-NW 342 ° 1 min 0,000 mm 4,4 UV-I 654 W/m² 17,0 °C 21,9 °C 1,6 km/h (1 Bft)
25.08.2019 11:14 22,1 °C 71 % 1017,1 hPa 0,0 mm 1,7 km/h (1 Bft) NW 304 ° 1 min 0,000 mm 4,4 UV-I 656 W/m² 16,6 °C 22,1 °C 3,2 km/h (1 Bft)
25.08.2019 11:15 22,2 °C 69 % 1017,1 hPa 0,0 mm 6,4 km/h (2 Bft) W-SW 244 ° 1 min 0,000 mm 4,5 UV-I 675 W/m² 16,2 °C 22,2 °C 11,3 km/h (2 Bft)
25.08.2019 11:16 22,2 °C 69 % 1017,1 hPa 0,0 mm 4,6 km/h (1 Bft) W 261 ° 1 min 0,000 mm 4,5 UV-I 668 W/m² 16,2 °C 22,2 °C 6,4 km/h (2 Bft)
25.08.2019 11:17 22,2 °C 70 % 1017,1 hPa 0,0 mm 3,8 km/h (1 Bft) W 259 ° 1 min 0,000 mm 4,4 UV-I 631 W/m² 16,5 °C 22,2 °C 6,4 km/h (2 Bft)
25.08.2019 11:18 22,2 °C 70 % 1017,1 hPa 0,0 mm 1,9 km/h (1 Bft) W 259 ° 1 min 0,000 mm 4,3 UV-I 606 W/m² 16,5 °C 22,2 °C 4,8 km/h (1 Bft)
25.08.2019 11:19 22,3 °C 72 % 1017,1 hPa 0,0 mm 0,5 km/h (0 Bft) W 259 ° 0 min 0,000 mm 4,1 UV-I 548 W/m² 17,0 °C 22,3 °C 1,6 km/h (1 Bft)
25.08.2019 11:20 22,4 °C 73 % 1017,1 hPa 0,0 mm 0,0 km/h (0 Bft) W 259 ° 0 min 0,000 mm 3,9 UV-I 471 W/m² 17,3 °C 22,4 °C 0,0 km/h (0 Bft)
25.08.2019 11:21 22,2 °C 71 % 1017,1 hPa 0,0 mm 0,0 km/h (0 Bft) W 259 ° 0 min 0,000 mm 3,8 UV-I 404 W/m² 16,7 °C 22,2 °C 0,0 km/h (0 Bft)
25.08.2019 11:22 22,0 °C 72 % 1017,1 hPa 0,0 mm 0,0 km/h (0 Bft) W 259 ° 0 min 0,000 mm 4,2 UV-I 404 W/m² 16,7 °C 22,0 °C 0,0 km/h (0 Bft)
25.08.2019 11:23 22,1 °C 75 % 1017,1 hPa 0,0 mm 0,3 km/h (0 Bft) W 259 ° 1 min 0,000 mm 4,3 UV-I 605 W/m² 17,5 °C 22,1 °C 1,6 km/h (1 Bft)
25.08.2019 11:24 22,2 °C 75 % 1017,1 hPa 0,0 mm 4,3 km/h (1 Bft) W 263 ° 1 min 0,000 mm 4,5 UV-I 626 W/m² 17,5 °C 22,2 °C 6,4 km/h (2 Bft)
25.08.2019 11:25 22,3 °C 73 % 1017,1 hPa 0,0 mm 2,5 km/h (1 Bft) W 263 ° 1 min 0,000 mm 4,5 UV-I 638 W/m² 17,2 °C 22,3 °C 4,8 km/h (1 Bft)
25.08.2019 11:26 22,4 °C 73 % 1017,1 hPa 0,0 mm 4,1 km/h (1 Bft) W 263 ° 1 min 0,000 mm 4,6 UV-I 654 W/m² 17,3 °C 22,4 °C 4,8 km/h (1 Bft)
25.08.2019 11:27 22,4 °C 72 % 1017,0 hPa 0,0 mm 0,9 km/h (0 Bft) W 263 ° 1 min 0,000 mm 4,7 UV-I 670 W/m² 17,1 °C 22,4 °C 3,2 km/h (1 Bft)
25.08.2019 11:28 22,6 °C 72 % 1017,0 hPa 0,0 mm 2,5 km/h (1 Bft) W 263 ° 1 min 0,000 mm 4,7 UV-I 675 W/m² 17,3 °C 22,6 °C 4,8 km/h (1 Bft)
25.08.2019 11:29 22,6 °C 70 % 1017,1 hPa 0,0 mm 6,5 km/h (2 Bft) W 278 ° 1 min 0,000 mm 4,7 UV-I 691 W/m² 16,8 °C 22,6 °C 9,7 km/h (2 Bft)
25.08.2019 11:30 22,7 °C 67 % 1017,0 hPa 0,0 mm 4,8 km/h (1 Bft) W-SW 258 ° 1 min 0,000 mm 4,8 UV-I 696 W/m² 16,2 °C 22,7 °C 6,4 km/h (2 Bft)
25.08.2019 11:31 22,6 °C 67 % 1017,0 hPa 0,0 mm 1,9 km/h (1 Bft) W-SW 257 ° 1 min 0,000 mm 4,9 UV-I 710 W/m² 16,2 °C 22,6 °C 4,8 km/h (1 Bft)
25.08.2019 11:32 22,7 °C 68 % 1017,0 hPa 0,0 mm 4,8 km/h (1 Bft) W-SW 255 ° 1 min 0,000 mm 4,9 UV-I 714 W/m² 16,5 °C 22,7 °C 6,4 km/h (2 Bft)
25.08.2019 11:33 22,7 °C 69 % 1017,0 hPa 0,0 mm 1,4 km/h (1 Bft) W 267 ° 1 min 0,000 mm 4,9 UV-I 707 W/m² 16,7 °C 22,7 °C 4,8 km/h (1 Bft)
25.08.2019 11:34 22,8 °C 69 % 1017,0 hPa 0,0 mm 0,0 km/h (0 Bft) W 266 ° 1 min 0,000 mm 4,9 UV-I 700 W/m² 16,8 °C 22,8 °C 0,0 km/h (0 Bft)
25.08.2019 11:35 22,8 °C 66 % 1017,0 hPa 0,0 mm 0,0 km/h (0 Bft) W 266 ° 1 min 0,000 mm 4,9 UV-I 693 W/m² 16,1 °C 22,8 °C 0,0 km/h (0 Bft)
25.08.2019 11:36 22,8 °C 68 % 1016,9 hPa 0,0 mm 0,0 km/h (0 Bft) W 266 ° 1 min 0,000 mm 4,9 UV-I 693 W/m² 16,6 °C 22,8 °C 0,0 km/h (0 Bft)
25.08.2019 11:37 22,8 °C 70 % 1016,9 hPa 0,0 mm 0,0 km/h (0 Bft) W 266 ° 1 min 0,000 mm 4,9 UV-I 696 W/m² 17,0 °C 22,8 °C 0,0 km/h (0 Bft)
25.08.2019 11:38 22,8 °C 68 % 1016,9 hPa 0,0 mm 0,0 km/h (0 Bft) W 266 ° 1 min 0,000 mm 5,0 UV-I 705 W/m² 16,6 °C 22,8 °C 0,0 km/h (0 Bft)
25.08.2019 11:39 22,9 °C 72 % 1016,9 hPa 0,0 mm 0,0 km/h (0 Bft) W 266 ° 1 min 0,000 mm 5,0 UV-I 721 W/m² 17,6 °C 22,9 °C 0,0 km/h (0 Bft)
25.08.2019 11:40 23,0 °C 71 % 1016,9 hPa 0,0 mm 0,0 km/h (0 Bft) W 268 ° 1 min 0,000 mm 5,1 UV-I 738 W/m² 17,4 °C 23,0 °C 0,0 km/h (0 Bft)
25.08.2019 11:41 22,9 °C 68 % 1017,0 hPa 0,0 mm 0,0 km/h (0 Bft) W-NW 284 ° 1 min 0,000 mm 5,1 UV-I 751 W/m² 16,7 °C 22,9 °C 0,0 km/h (0 Bft)
25.08.2019 11:42 22,7 °C 70 % 1017,0 hPa 0,0 mm 4,4 km/h (1 Bft) W-NW 294 ° 1 min 0,000 mm 5,2 UV-I 752 W/m² 16,9 °C 22,7 °C 6,4 km/h (2 Bft)
25.08.2019 11:43 22,7 °C 68 % 1017,0 hPa 0,0 mm 1,5 km/h (1 Bft) W-NW 294 ° 1 min 0,000 mm 5,2 UV-I 768 W/m² 16,5 °C 22,7 °C 3,2 km/h (1 Bft)
25.08.2019 11:44 22,7 °C 68 % 1017,0 hPa 0,0 mm 0,0 km/h (0 Bft) W-NW 294 ° 1 min 0,000 mm 5,2 UV-I 758 W/m² 16,5 °C 22,7 °C 0,0 km/h (0 Bft)
25.08.2019 11:45 22,7 °C 67 % 1017,0 hPa 0,0 mm 0,0 km/h (0 Bft) W-NW 294 ° 1 min 0,000 mm 4,9 UV-I 710 W/m² 16,2 °C 22,7 °C 0,0 km/h (0 Bft)
25.08.2019 11:46 22,7 °C 67 % 1017,0 hPa 0,0 mm 0,1 km/h (0 Bft) W-NW 302 ° 0 min 0,000 mm 4,7 UV-I 573 W/m² 16,2 °C 22,7 °C 1,6 km/h (1 Bft)
25.08.2019 11:47 22,6 °C 68 % 1016,9 hPa 0,0 mm 1,3 km/h (1 Bft) W-NW 302 ° 1 min 0,000 mm 4,5 UV-I 603 W/m² 16,4 °C 22,6 °C 3,2 km/h (1 Bft)
25.08.2019 11:48 22,4 °C 68 % 1016,9 hPa 0,0 mm 0,0 km/h (0 Bft) W-NW 302 ° 0 min 0,000 mm 4,4 UV-I 557 W/m² 16,2 °C 22,4 °C 0,0 km/h (0 Bft)
25.08.2019 11:49 22,4 °C 72 % 1016,9 hPa 0,0 mm 0,0 km/h (0 Bft) W-NW 302 ° 0 min 0,000 mm 4,0 UV-I 492 W/m² 17,1 °C 22,4 °C 0,0 km/h (0 Bft)
25.08.2019 11:50 22,4 °C 69 % 1016,9 hPa 0,0 mm 0,0 km/h (0 Bft) W-NW 302 ° 0 min 0,000 mm 3,9 UV-I 466 W/m² 16,4 °C 22,4 °C 0,0 km/h (0 Bft)
25.08.2019 11:51 22,5 °C 68 % 1016,9 hPa 0,0 mm 0,0 km/h (0 Bft) W-NW 302 ° 0 min 0,000 mm 3,9 UV-I 441 W/m² 16,3 °C 22,5 °C 0,0 km/h (0 Bft)
25.08.2019 11:52 22,6 °C 72 % 1016,9 hPa 0,0 mm 0,0 km/h (0 Bft) W-NW 302 ° 0 min 0,000 mm 3,8 UV-I 476 W/m² 17,3 °C 22,6 °C 0,0 km/h (0 Bft)
25.08.2019 11:53 22,6 °C 70 % 1017,0 hPa 0,0 mm 0,0 km/h (0 Bft) W-NW 301 ° 0 min 0,000 mm 3,8 UV-I 448 W/m² 16,8 °C 22,6 °C 0,0 km/h (0 Bft)
25.08.2019 11:54 22,6 °C 67 % 1016,9 hPa 0,0 mm 1,7 km/h (1 Bft) W-SW 242 ° 0 min 0,000 mm 3,8 UV-I 424 W/m² 16,2 °C 22,6 °C 3,2 km/h (1 Bft)
25.08.2019 11:55 22,4 °C 65 % 1016,9 hPa 0,0 mm 0,0 km/h (0 Bft) W-SW 242 ° 0 min 0,000 mm 3,8 UV-I 454 W/m² 15,5 °C 22,4 °C 0,0 km/h (0 Bft)
25.08.2019 11:56 22,4 °C 70 % 1016,9 hPa 0,0 mm 3,2 km/h (1 Bft) W-SW 250 ° 0 min 0,000 mm 3,6 UV-I 413 W/m² 16,7 °C 22,4 °C 4,8 km/h (1 Bft)
25.08.2019 11:57 22,4 °C 68 % 1016,9 hPa 0,0 mm 2,8 km/h (1 Bft) W-SW 251 ° 0 min 0,000 mm 3,5 UV-I 381 W/m² 16,2 °C 22,4 °C 4,8 km/h (1 Bft)
25.08.2019 11:58 22,4 °C 67 % 1016,9 hPa 0,0 mm 1,0 km/h (0 Bft) W-SW 250 ° 0 min 0,000 mm 3,5 UV-I 401 W/m² 16,0 °C 22,4 °C 3,2 km/h (1 Bft)
25.08.2019 11:59 22,4 °C 65 % 1016,9 hPa 0,0 mm 0,0 km/h (0 Bft) W-SW 250 ° 0 min 0,000 mm 3,7 UV-I 431 W/m² 15,5 °C 22,4 °C 0,0 km/h (0 Bft)
25.08.2019 12:00 22,4 °C 66 % 1016,9 hPa 0,0 mm 0,8 km/h (0 Bft) W-SW 250 ° 0 min 0,355 mm 3,8 UV-I 422 W/m² 15,7 °C 22,4 °C 3,2 km/h (1 Bft)
25.08.2019 12:01 22,4 °C 67 % 1016,9 hPa 0,0 mm 0,0 km/h (0 Bft) W-NW 302 ° 0 min 0,000 mm 3,8 UV-I 448 W/m² 16,0 °C 22,4 °C 0,0 km/h (0 Bft)
25.08.2019 12:02 22,4 °C 70 % 1016,9 hPa 0,0 mm 0,0 km/h (0 Bft) W-NW 301 ° 0 min 0,000 mm 3,9 UV-I 454 W/m² 16,7 °C 22,4 °C 0,0 km/h (0 Bft)
25.08.2019 12:03 22,4 °C 70 % 1016,9 hPa 0,0 mm 0,0 km/h (0 Bft) W-NW 301 ° 0 min 0,000 mm 3,9 UV-I 471 W/m² 16,7 °C 22,4 °C 0,0 km/h (0 Bft)
25.08.2019 12:04 22,6 °C 71 % 1016,9 hPa 0,0 mm 0,0 km/h (0 Bft) W-NW 300 ° 0 min 0,000 mm 4,1 UV-I 519 W/m² 17,1 °C 22,6 °C 0,0 km/h (0 Bft)
25.08.2019 12:05 22,6 °C 69 % 1016,9 hPa 0,0 mm 0,1 km/h (0 Bft) W-NW 301 ° 0 min 0,000 mm 4,2 UV-I 531 W/m² 16,6 °C 22,6 °C 1,6 km/h (1 Bft)
25.08.2019 12:06 22,7 °C 72 % 1016,8 hPa 0,0 mm 1,3 km/h (1 Bft) W-SW 256 ° 0 min 0,000 mm 4,3 UV-I 533 W/m² 17,4 °C 22,7 °C 6,4 km/h (2 Bft)
25.08.2019 12:07 22,7 °C 70 % 1016,9 hPa 0,0 mm 4,3 km/h (1 Bft) W-SW 252 ° 0 min 0,000 mm 4,3 UV-I 540 W/m² 16,9 °C 22,7 °C 6,4 km/h (2 Bft)
25.08.2019 12:08 22,7 °C 68 % 1016,9 hPa 0,0 mm 4,3 km/h (1 Bft) W-SW 253 ° 0 min 0,000 mm 4,5 UV-I 571 W/m² 16,5 °C 22,7 °C 4,8 km/h (1 Bft)
25.08.2019 12:09 22,6 °C 68 % 1016,9 hPa 0,0 mm 2,3 km/h (1 Bft) W-SW 254 ° 1 min 0,000 mm 4,8 UV-I 629 W/m² 16,4 °C 22,6 °C 4,8 km/h (1 Bft)
25.08.2019 12:10 22,7 °C 74 % 1016,9 hPa 0,0 mm 0,1 km/h (0 Bft) W-SW 254 ° 1 min 0,000 mm 4,9 UV-I 689 W/m² 17,8 °C 22,7 °C 1,6 km/h (1 Bft)
25.08.2019 12:11 22,8 °C 71 % 1016,8 hPa 0,0 mm 1,3 km/h (1 Bft) W-NW 286 ° 1 min 0,000 mm 5,1 UV-I 705 W/m² 17,3 °C 22,8 °C 3,2 km/h (1 Bft)
25.08.2019 12:12 22,8 °C 69 % 1016,9 hPa 0,0 mm 3,4 km/h (1 Bft) W 275 ° 1 min 0,000 mm 5,1 UV-I 703 W/m² 16,8 °C 22,8 °C 4,8 km/h (1 Bft)
25.08.2019 12:13 22,9 °C 67 % 1016,9 hPa 0,0 mm 3,5 km/h (1 Bft) W-SW 244 ° 1 min 0,000 mm 5,1 UV-I 705 W/m² 16,4 °C 22,9 °C 8,0 km/h (2 Bft)
25.08.2019 12:14 22,9 °C 68 % 1016,9 hPa 0,0 mm 3,7 km/h (1 Bft) W-SW 250 ° 1 min 0,000 mm 5,2 UV-I 719 W/m² 16,7 °C 22,9 °C 6,4 km/h (2 Bft)
25.08.2019 12:15 22,9 °C 72 % 1016,9 hPa 0,0 mm 5,8 km/h (2 Bft) W-NW 303 ° 1 min 0,000 mm 5,2 UV-I 728 W/m² 17,6 °C 22,9 °C 9,7 km/h (2 Bft)
25.08.2019 12:16 23,0 °C 70 % 1016,9 hPa 0,0 mm 5,7 km/h (1 Bft) W-SW 240 ° 1 min 0,000 mm 5,3 UV-I 726 W/m² 17,2 °C 23,0 °C 8,0 km/h (2 Bft)
25.08.2019 12:17 23,0 °C 69 % 1016,8 hPa 0,0 mm 4,6 km/h (1 Bft) W-NW 292 ° 1 min 0,000 mm 5,2 UV-I 712 W/m² 17,0 °C 23,0 °C 8,0 km/h (2 Bft)
25.08.2019 12:18 23,1 °C 65 % 1016,8 hPa 0,0 mm 3,2 km/h (1 Bft) W-NW 282 ° 1 min 0,000 mm 5,2 UV-I 700 W/m² 16,2 °C 23,1 °C 6,4 km/h (2 Bft)
25.08.2019 12:19 23,1 °C 68 % 1016,9 hPa 0,0 mm 4,1 km/h (1 Bft) W-NW 288 ° 1 min 0,000 mm 5,2 UV-I 701 W/m² 16,9 °C 23,1 °C 6,4 km/h (2 Bft)
25.08.2019 12:20 23,2 °C 66 % 1016,9 hPa 0,0 mm 0,7 km/h (0 Bft) W 280 ° 1 min 0,000 mm 5,2 UV-I 696 W/m² 16,5 °C 23,2 °C 4,8 km/h (1 Bft)
25.08.2019 12:21 23,2 °C 67 % 1016,8 hPa 0,0 mm 4,2 km/h (1 Bft) N-NW 334 ° 1 min 0,000 mm 5,2 UV-I 687 W/m² 16,7 °C 23,2 °C 8,0 km/h (2 Bft)
25.08.2019 12:22 23,1 °C 67 % 1016,8 hPa 0,0 mm 1,5 km/h (1 Bft) W-NW 296 ° 1 min 0,000 mm 5,2 UV-I 689 W/m² 16,6 °C 23,1 °C 3,2 km/h (1 Bft)
25.08.2019 12:23 23,2 °C 71 % 1016,8 hPa 0,0 mm 3,1 km/h (1 Bft) W-SW 258 ° 1 min 0,000 mm 5,1 UV-I 663 W/m² 17,6 °C 23,2 °C 4,8 km/h (1 Bft)
25.08.2019 12:24 23,2 °C 68 % 1016,8 hPa 0,0 mm 0,6 km/h (0 Bft) W-SW 258 ° 1 min 0,000 mm 5,1 UV-I 663 W/m² 17,0 °C 23,2 °C 3,2 km/h (1 Bft)
25.08.2019 12:25 23,2 °C 67 % 1016,8 hPa 0,0 mm 0,0 km/h (0 Bft) W-SW 258 ° 1 min 0,000 mm 5,1 UV-I 650 W/m² 16,7 °C 23,2 °C 0,0 km/h (0 Bft)
25.08.2019 12:26 23,2 °C 71 % 1016,8 hPa 0,0 mm 2,5 km/h (1 Bft) N 11 ° 1 min 0,000 mm 5,1 UV-I 668 W/m² 17,6 °C 23,2 °C 4,8 km/h (1 Bft)
25.08.2019 12:27 23,2 °C 71 % 1016,8 hPa 0,0 mm 3,5 km/h (1 Bft) NO 49 ° 1 min 0,000 mm 5,2 UV-I 712 W/m² 17,6 °C 23,2 °C 4,8 km/h (1 Bft)
25.08.2019 12:28 23,1 °C 68 % 1016,8 hPa 0,0 mm 0,5 km/h (0 Bft) NO 49 ° 1 min 0,000 mm 5,3 UV-I 721 W/m² 16,9 °C 23,1 °C 3,2 km/h (1 Bft)
25.08.2019 12:29 23,1 °C 73 % 1016,8 hPa 0,0 mm 0,0 km/h (0 Bft) NO 49 ° 1 min 0,000 mm 5,4 UV-I 733 W/m² 18,0 °C 23,1 °C 0,0 km/h (0 Bft)
25.08.2019 12:30 23,1 °C 66 % 1016,8 hPa 0,0 mm 3,7 km/h (1 Bft) W 281 ° 1 min 0,000 mm 5,4 UV-I 728 W/m² 16,4 °C 23,1 °C 6,4 km/h (2 Bft)
25.08.2019 12:31 23,1 °C 65 % 1016,8 hPa 0,0 mm 3,8 km/h (1 Bft) W 281 ° 1 min 0,000 mm 5,5 UV-I 738 W/m² 16,2 °C 23,1 °C 4,8 km/h (1 Bft)
25.08.2019 12:32 23,1 °C 68 % 1016,8 hPa 0,0 mm 2,8 km/h (1 Bft) W-NW 291 ° 1 min 0,000 mm 5,5 UV-I 749 W/m² 16,9 °C 23,1 °C 6,4 km/h (2 Bft)
25.08.2019 12:33 23,2 °C 66 % 1016,8 hPa 0,0 mm 1,6 km/h (1 Bft) N-NW 344 ° 1 min 0,000 mm 5,6 UV-I 761 W/m² 16,5 °C 23,2 °C 4,8 km/h (1 Bft)
25.08.2019 12:34 23,3 °C 66 % 1016,9 hPa 0,0 mm 1,7 km/h (1 Bft) N 360 ° 1 min 0,000 mm 5,6 UV-I 763 W/m² 16,6 °C 23,3 °C 3,2 km/h (1 Bft)
25.08.2019 12:35 23,3 °C 67 % 1016,8 hPa 0,0 mm 0,9 km/h (0 Bft) N-NO 32 ° 1 min 0,000 mm 5,6 UV-I 761 W/m² 16,8 °C 23,3 °C 4,8 km/h (1 Bft)
25.08.2019 12:36 23,3 °C 68 % 1016,8 hPa 0,0 mm 1,8 km/h (1 Bft) NO 39 ° 1 min 0,000 mm 5,6 UV-I 759 W/m² 17,1 °C 23,3 °C 6,4 km/h (2 Bft)
25.08.2019 12:37 23,3 °C 65 % 1016,8 hPa 0,0 mm 0,3 km/h (0 Bft) NO 40 ° 1 min 0,000 mm 5,6 UV-I 758 W/m² 16,3 °C 23,3 °C 1,6 km/h (1 Bft)
25.08.2019 12:38 23,3 °C 64 % 1016,8 hPa 0,0 mm 0,0 km/h (0 Bft) NO 40 ° 1 min 0,000 mm 5,6 UV-I 756 W/m² 16,1 °C 23,3 °C 0,0 km/h (0 Bft)
25.08.2019 12:39 23,3 °C 68 % 1016,8 hPa 0,0 mm 0,0 km/h (0 Bft) W-NW 290 ° 1 min 0,000 mm 5,6 UV-I 761 W/m² 17,1 °C 23,3 °C 0,0 km/h (0 Bft)
25.08.2019 12:40 23,4 °C 68 % 1016,8 hPa 0,0 mm 3,8 km/h (1 Bft) W-NW 282 ° 1 min 0,000 mm 5,6 UV-I 744 W/m² 17,1 °C 23,4 °C 6,4 km/h (2 Bft)
25.08.2019 12:41 23,4 °C 65 % 1016,8 hPa 0,0 mm 1,3 km/h (1 Bft) W-NW 282 ° 1 min 0,000 mm 5,6 UV-I 749 W/m² 16,4 °C 23,4 °C 3,2 km/h (1 Bft)
25.08.2019 12:42 23,3 °C 66 % 1016,8 hPa 0,0 mm 2,1 km/h (1 Bft) N-NW 327 ° 1 min 0,000 mm 5,6 UV-I 761 W/m² 16,6 °C 23,3 °C 4,8 km/h (1 Bft)
25.08.2019 12:43 23,3 °C 68 % 1016,8 hPa 0,0 mm 3,6 km/h (1 Bft) NW 326 ° 1 min 0,000 mm 5,6 UV-I 754 W/m² 17,1 °C 23,3 °C 4,8 km/h (1 Bft)
25.08.2019 12:44 23,4 °C 67 % 1016,8 hPa 0,0 mm 4,4 km/h (1 Bft) NW 322 ° 1 min 0,000 mm 5,5 UV-I 745 W/m² 16,9 °C 23,4 °C 6,4 km/h (2 Bft)
25.08.2019 12:45 23,5 °C 66 % 1016,8 hPa 0,0 mm 3,2 km/h (1 Bft) NW 322 ° 1 min 0,000 mm 5,5 UV-I 742 W/m² 16,8 °C 23,5 °C 4,8 km/h (1 Bft)
25.08.2019 12:46 23,6 °C 67 % 1016,8 hPa 0,0 mm 0,2 km/h (0 Bft) NW 322 ° 1 min 0,000 mm 5,5 UV-I 735 W/m² 17,1 °C 23,6 °C 1,6 km/h (1 Bft)
25.08.2019 12:47 23,7 °C 65 % 1016,8 hPa 0,0 mm 0,0 km/h (0 Bft) NW 322 ° 1 min 0,000 mm 5,4 UV-I 687 W/m² 16,7 °C 23,7 °C 0,0 km/h (0 Bft)
25.08.2019 12:48 23,7 °C 66 % 1016,8 hPa 0,0 mm 0,0 km/h (0 Bft) NW 322 ° 1 min 0,000 mm 5,5 UV-I 738 W/m² 17,0 °C 23,7 °C 0,0 km/h (0 Bft)
25.08.2019 12:49 23,6 °C 64 % 1016,8 hPa 0,0 mm 2,7 km/h (1 Bft) S 177 ° 1 min 0,000 mm 5,5 UV-I 749 W/m² 16,4 °C 23,6 °C 6,4 km/h (2 Bft)
25.08.2019 12:50 23,4 °C 64 % 1016,8 hPa 0,0 mm 3,4 km/h (1 Bft) S 173 ° 1 min 0,000 mm 5,5 UV-I 749 W/m² 16,2 °C 23,4 °C 4,8 km/h (1 Bft)
25.08.2019 12:51 23,3 °C 65 % 1016,8 hPa 0,0 mm 0,6 km/h (0 Bft) S 173 ° 1 min 0,000 mm 5,5 UV-I 744 W/m² 16,3 °C 23,3 °C 3,2 km/h (1 Bft)
25.08.2019 12:52 23,3 °C 64 % 1016,8 hPa 0,0 mm 0,0 km/h (0 Bft) S 173 ° 1 min 0,000 mm 5,4 UV-I 701 W/m² 16,1 °C 23,3 °C 0,0 km/h (0 Bft)
25.08.2019 12:53 23,3 °C 67 % 1016,8 hPa 0,0 mm 0,0 km/h (0 Bft) N 355 ° 1 min 0,000 mm 5,3 UV-I 679 W/m² 16,8 °C 23,3 °C 0,0 km/h (0 Bft)
25.08.2019 12:54 23,4 °C 66 % 1016,8 hPa 0,0 mm 0,0 km/h (0 Bft) N 355 ° 1 min 0,000 mm 5,2 UV-I 650 W/m² 16,7 °C 23,4 °C 0,0 km/h (0 Bft)
25.08.2019 12:55 23,3 °C 63 % 1016,8 hPa 0,0 mm 0,0 km/h (0 Bft) W 272 ° 1 min 0,000 mm 5,3 UV-I 666 W/m² 15,9 °C 23,3 °C 0,0 km/h (0 Bft)
25.08.2019 12:56 23,4 °C 66 % 1016,8 hPa 0,0 mm 0,3 km/h (0 Bft) NW 317 ° 1 min 0,000 mm 5,4 UV-I 698 W/m² 16,7 °C 23,4 °C 1,6 km/h (1 Bft)
25.08.2019 12:57 23,4 °C 68 % 1016,8 hPa 0,0 mm 2,4 km/h (1 Bft) NW 324 ° 1 min 0,000 mm 5,5 UV-I 701 W/m² 17,1 °C 23,4 °C 6,4 km/h (2 Bft)
25.08.2019 12:58 23,5 °C 65 % 1016,8 hPa 0,0 mm 2,0 km/h (1 Bft) N-NO 32 ° 1 min 0,000 mm 5,6 UV-I 726 W/m² 16,5 °C 23,5 °C 4,8 km/h (1 Bft)
25.08.2019 12:59 23,6 °C 67 % 1016,8 hPa 0,0 mm 0,1 km/h (0 Bft) N-NO 30 ° 1 min 0,000 mm 5,5 UV-I 728 W/m² 17,1 °C 23,6 °C 1,6 km/h (1 Bft)
25.08.2019 13:00 23,6 °C 66 % 1016,7 hPa 0,0 mm 0,0 km/h (0 Bft) N-NO 30 ° 1 min 0,000 mm 5,5 UV-I 705 W/m² 16,9 °C 23,6 °C 0,0 km/h (0 Bft)
25.08.2019 13:01 23,6 °C 66 % 1016,7 hPa 0,0 mm 0,0 km/h (0 Bft) N-NO 30 ° 1 min 0,432 mm 5,5 UV-I 719 W/m² 16,9 °C 23,6 °C 0,0 km/h (0 Bft)
25.08.2019 13:02 23,6 °C 65 % 1016,8 hPa 0,0 mm 0,0 km/h (0 Bft) N-NO 30 ° 1 min 0,000 mm 5,4 UV-I 679 W/m² 16,6 °C 23,6 °C 0,0 km/h (0 Bft)
25.08.2019 13:03 23,7 °C 63 % 1016,7 hPa 0,0 mm 0,0 km/h (0 Bft) N-NO 30 ° 1 min 0,000 mm 5,3 UV-I 663 W/m² 16,2 °C 23,7 °C 0,0 km/h (0 Bft)
25.08.2019 13:04 23,6 °C 64 % 1016,7 hPa 0,0 mm 3,9 km/h (1 Bft) W-NW 301 ° 1 min 0,000 mm 5,3 UV-I 661 W/m² 16,4 °C 23,6 °C 6,4 km/h (2 Bft)
25.08.2019 13:05 23,6 °C 63 % 1016,7 hPa 0,0 mm 2,9 km/h (1 Bft) W-NW 301 ° 1 min 0,000 mm 5,2 UV-I 661 W/m² 16,1 °C 23,6 °C 4,8 km/h (1 Bft)
25.08.2019 13:06 23,5 °C 66 % 1016,8 hPa 0,0 mm 0,4 km/h (0 Bft) W-NW 301 ° 1 min 0,000 mm 5,2 UV-I 635 W/m² 16,8 °C 23,5 °C 3,2 km/h (1 Bft)
25.08.2019 13:07 23,5 °C 65 % 1016,7 hPa 0,0 mm 0,0 km/h (0 Bft) W-NW 301 ° 1 min 0,000 mm 5,3 UV-I 668 W/m² 16,5 °C 23,5 °C 0,0 km/h (0 Bft)
25.08.2019 13:08 23,5 °C 65 % 1016,8 hPa 0,0 mm 0,5 km/h (0 Bft) NW 317 ° 1 min 0,000 mm 5,3 UV-I 663 W/m² 16,5 °C 23,5 °C 4,8 km/h (1 Bft)
25.08.2019 13:09 23,5 °C 67 % 1016,8 hPa 0,0 mm 0,7 km/h (0 Bft) NW 317 ° 1 min 0,000 mm 5,3 UV-I 659 W/m² 17,0 °C 23,5 °C 3,2 km/h (1 Bft)
25.08.2019 13:10 23,6 °C 70 % 1016,8 hPa 0,0 mm 0,0 km/h (0 Bft) NW 317 ° 1 min 0,000 mm 5,4 UV-I 679 W/m² 17,8 °C 23,6 °C 0,0 km/h (0 Bft)
25.08.2019 13:11 23,6 °C 70 % 1016,8 hPa 0,0 mm 0,0 km/h (0 Bft) NW 317 ° 1 min 0,000 mm 5,4 UV-I 696 W/m² 17,8 °C 23,6 °C 0,0 km/h (0 Bft)
25.08.2019 13:12 23,4 °C 65 % 1016,7 hPa 0,0 mm 0,1 km/h (0 Bft) NW 317 ° 1 min 0,000 mm 5,4 UV-I 696 W/m² 16,4 °C 23,4 °C 1,6 km/h (1 Bft)
25.08.2019 13:13 23,3 °C 66 % 1016,7 hPa 0,0 mm 0,0 km/h (0 Bft) NW 317 ° 1 min 0,000 mm 5,4 UV-I 684 W/m² 16,6 °C 23,3 °C 0,0 km/h (0 Bft)
25.08.2019 13:14 23,3 °C 65 % 1016,7 hPa 0,0 mm 0,0 km/h (0 Bft) NW 317 ° 1 min 0,000 mm 5,3 UV-I 673 W/m² 16,3 °C 23,3 °C 0,0 km/h (0 Bft)
25.08.2019 13:15 23,3 °C 68 % 1016,6 hPa 0,0 mm 0,0 km/h (0 Bft) NW 317 ° 1 min 0,000 mm 5,3 UV-I 666 W/m² 17,1 °C 23,3 °C 0,0 km/h (0 Bft)
25.08.2019 13:16 23,3 °C 66 % 1016,6 hPa 0,0 mm 0,0 km/h (0 Bft) NW 317 ° 1 min 0,000 mm 5,3 UV-I 668 W/m² 16,6 °C 23,3 °C 0,0 km/h (0 Bft)
25.08.2019 13:17 23,3 °C 70 % 1016,6 hPa 0,0 mm 0,0 km/h (0 Bft) NW 317 ° 1 min 0,000 mm 5,3 UV-I 671 W/m² 17,5 °C 23,3 °C 0,0 km/h (0 Bft)
25.08.2019 13:18 23,3 °C 68 % 1016,6 hPa 0,0 mm 0,0 km/h (0 Bft) NW 317 ° 1 min 0,000 mm 5,3 UV-I 670 W/m² 17,1 °C 23,3 °C 0,0 km/h (0 Bft)
25.08.2019 13:19 23,2 °C 69 % 1016,6 hPa 0,0 mm 0,0 km/h (0 Bft) NW 317 ° 1 min 0,000 mm 5,3 UV-I 671 W/m² 17,2 °C 23,2 °C 0,0 km/h (0 Bft)
25.08.2019 13:20 23,1 °C 70 % 1016,6 hPa 0,0 mm 0,0 km/h (0 Bft) NW 317 ° 1 min 0,000 mm 5,4 UV-I 689 W/m² 17,3 °C 23,1 °C 0,0 km/h (0 Bft)
25.08.2019 13:21 23,2 °C 72 % 1016,6 hPa 0,0 mm 0,0 km/h (0 Bft) NW 317 ° 1 min 0,000 mm 5,4 UV-I 698 W/m² 17,9 °C 23,2 °C 0,0 km/h (0 Bft)
25.08.2019 13:22 23,3 °C 70 % 1016,6 hPa 0,0 mm 1,1 km/h (1 Bft) N-NW 327 ° 1 min 0,000 mm 5,4 UV-I 693 W/m² 17,5 °C 23,3 °C 4,8 km/h (1 Bft)
25.08.2019 13:23 23,6 °C 72 % 1016,6 hPa 0,0 mm 5,1 km/h (1 Bft) N-NW 327 ° 1 min 0,000 mm 5,4 UV-I 693 W/m² 18,2 °C 23,6 °C 8,0 km/h (2 Bft)
25.08.2019 13:24 23,8 °C 69 % 1016,6 hPa 0,0 mm 4,1 km/h (1 Bft) NW 306 ° 1 min 0,000 mm 5,5 UV-I 703 W/m² 17,8 °C 23,8 °C 6,4 km/h (2 Bft)
25.08.2019 13:25 23,9 °C 69 % 1016,6 hPa 0,0 mm 5,4 km/h (1 Bft) W-NW 301 ° 1 min 0,000 mm 5,4 UV-I 693 W/m² 17,9 °C 23,9 °C 8,0 km/h (2 Bft)
25.08.2019 13:26 23,9 °C 68 % 1016,6 hPa 0,0 mm 6,0 km/h (2 Bft) NW 323 ° 1 min 0,000 mm 5,4 UV-I 696 W/m² 17,6 °C 23,9 °C 9,7 km/h (2 Bft)
25.08.2019 13:27 23,9 °C 66 % 1016,7 hPa 0,0 mm 3,5 km/h (1 Bft) N-NW 329 ° 1 min 0,000 mm 5,3 UV-I 671 W/m² 17,1 °C 23,9 °C 6,4 km/h (2 Bft)
25.08.2019 13:28 23,9 °C 65 % 1016,7 hPa 0,0 mm 3,1 km/h (1 Bft) N-NW 348 ° 1 min 0,000 mm 5,3 UV-I 675 W/m² 16,9 °C 23,9 °C 4,8 km/h (1 Bft)
25.08.2019 13:29 23,9 °C 67 % 1016,7 hPa 0,0 mm 1,7 km/h (1 Bft) N 360 ° 1 min 0,000 mm 5,0 UV-I 621 W/m² 17,4 °C 23,9 °C 3,2 km/h (1 Bft)
25.08.2019 13:30 23,9 °C 67 % 1016,7 hPa 0,0 mm 2,2 km/h (1 Bft) N 5 ° 0 min 0,000 mm 4,9 UV-I 591 W/m² 17,4 °C 23,9 °C 3,2 km/h (1 Bft)
25.08.2019 13:31 23,8 °C 63 % 1016,7 hPa 0,0 mm 0,0 km/h (0 Bft) O 87 ° 1 min 0,000 mm 5,0 UV-I 608 W/m² 16,3 °C 23,8 °C 0,0 km/h (0 Bft)
25.08.2019 13:32 23,7 °C 64 % 1016,6 hPa 0,0 mm 0,0 km/h (0 Bft) O 87 ° 0 min 0,000 mm 4,9 UV-I 570 W/m² 16,5 °C 23,7 °C 0,0 km/h (0 Bft)
25.08.2019 13:33 23,5 °C 64 % 1016,6 hPa 0,0 mm 0,0 km/h (0 Bft) O-NO 58 ° 0 min 0,000 mm 4,6 UV-I 541 W/m² 16,3 °C 23,5 °C 0,0 km/h (0 Bft)
25.08.2019 13:34 23,6 °C 66 % 1016,7 hPa 0,0 mm 1,2 km/h (1 Bft) N-NW 343 ° 0 min 0,000 mm 4,5 UV-I 499 W/m² 16,9 °C 23,6 °C 4,8 km/h (1 Bft)
25.08.2019 13:35 23,6 °C 65 % 1016,7 hPa 0,0 mm 3,9 km/h (1 Bft) N-NW 339 ° 0 min 0,000 mm 4,4 UV-I 490 W/m² 16,6 °C 23,6 °C 4,8 km/h (1 Bft)
25.08.2019 13:36 23,7 °C 64 % 1016,7 hPa 0,0 mm 0,2 km/h (0 Bft) N-NW 339 ° 0 min 0,000 mm 4,4 UV-I 497 W/m² 16,5 °C 23,7 °C 1,6 km/h (1 Bft)
25.08.2019 13:37 23,7 °C 63 % 1016,6 hPa 0,0 mm 0,5 km/h (0 Bft) N-NW 342 ° 0 min 0,000 mm 4,4 UV-I 510 W/m² 16,2 °C 23,7 °C 3,2 km/h (1 Bft)
25.08.2019 13:38 23,7 °C 65 % 1016,7 hPa 0,0 mm 1,9 km/h (1 Bft) N-NW 327 ° 0 min 0,000 mm 4,4 UV-I 448 W/m² 16,7 °C 23,7 °C 3,2 km/h (1 Bft)
25.08.2019 13:39 23,7 °C 65 % 1016,7 hPa 0,0 mm 1,3 km/h (1 Bft) N-NW 327 ° 0 min 0,000 mm 4,2 UV-I 445 W/m² 16,7 °C 23,7 °C 3,2 km/h (1 Bft)
25.08.2019 13:40 23,7 °C 65 % 1016,7 hPa 0,0 mm 0,0 km/h (0 Bft) N-NW 327 ° 0 min 0,000 mm 4,2 UV-I 445 W/m² 16,7 °C 23,7 °C 0,0 km/h (0 Bft)
25.08.2019 13:41 23,7 °C 65 % 1016,7 hPa 0,0 mm 0,0 km/h (0 Bft) NW 326 ° 0 min 0,000 mm 4,0 UV-I 420 W/m² 16,7 °C 23,7 °C 0,0 km/h (0 Bft)
25.08.2019 13:42 23,6 °C 67 % 1016,7 hPa 0,0 mm 0,0 km/h (0 Bft) NW 326 ° 0 min 0,000 mm 4,0 UV-I 396 W/m² 17,1 °C 23,6 °C 0,0 km/h (0 Bft)
25.08.2019 13:43 23,6 °C 67 % 1016,6 hPa 0,0 mm 0,0 km/h (0 Bft) NW 326 ° 0 min 0,000 mm 4,2 UV-I 425 W/m² 17,1 °C 23,6 °C 0,0 km/h (0 Bft)
25.08.2019 13:44 23,5 °C 66 % 1016,6 hPa 0,0 mm 0,0 km/h (0 Bft) NW 326 ° 0 min 0,000 mm 4,6 UV-I 508 W/m² 16,8 °C 23,5 °C 0,0 km/h (0 Bft)
25.08.2019 13:45 23,4 °C 64 % 1016,6 hPa 0,0 mm 0,0 km/h (0 Bft) NW 326 ° 0 min 0,000 mm 4,4 UV-I 469 W/m² 16,2 °C 23,4 °C 0,0 km/h (0 Bft)
25.08.2019 13:46 23,4 °C 67 % 1016,6 hPa 0,0 mm 0,0 km/h (0 Bft) NW 326 ° 0 min 0,000 mm 4,7 UV-I 517 W/m² 16,9 °C 23,4 °C 0,0 km/h (0 Bft)
25.08.2019 13:47 23,4 °C 66 % 1016,6 hPa 0,0 mm 0,0 km/h (0 Bft) NW 326 ° 0 min 0,000 mm 4,8 UV-I 550 W/m² 16,7 °C 23,4 °C 0,0 km/h (0 Bft)
25.08.2019 13:48 23,5 °C 64 % 1016,6 hPa 0,0 mm 0,0 km/h (0 Bft) NW 326 ° 1 min 0,000 mm 5,0 UV-I 601 W/m² 16,3 °C 23,5 °C 0,0 km/h (0 Bft)
25.08.2019 13:49 23,6 °C 65 % 1016,6 hPa 0,0 mm 0,0 km/h (0 Bft) NW 326 ° 1 min 0,000 mm 5,1 UV-I 652 W/m² 16,6 °C 23,6 °C 0,0 km/h (0 Bft)
25.08.2019 13:50 23,7 °C 65 % 1016,6 hPa 0,0 mm 0,0 km/h (0 Bft) NW 326 ° 1 min 0,000 mm 5,2 UV-I 673 W/m² 16,7 °C 23,7 °C 0,0 km/h (0 Bft)
25.08.2019 13:51 23,7 °C 68 % 1016,6 hPa 0,0 mm 0,0 km/h (0 Bft) NW 326 ° 1 min 0,000 mm 5,4 UV-I 703 W/m² 17,4 °C 23,7 °C 0,0 km/h (0 Bft)
25.08.2019 13:52 23,7 °C 68 % 1016,6 hPa 0,0 mm 0,0 km/h (0 Bft) NW 326 ° 1 min 0,000 mm 5,5 UV-I 705 W/m² 17,4 °C 23,7 °C 0,0 km/h (0 Bft)
25.08.2019 13:53 23,8 °C 67 % 1016,6 hPa 0,0 mm 0,0 km/h (0 Bft) NW 326 ° 1 min 0,000 mm 5,5 UV-I 714 W/m² 17,3 °C 23,8 °C 0,0 km/h (0 Bft)
25.08.2019 13:54 23,9 °C 69 % 1016,5 hPa 0,0 mm 0,0 km/h (0 Bft) NW 326 ° 1 min 0,000 mm 5,5 UV-I 701 W/m² 17,9 °C 23,9 °C 0,0 km/h (0 Bft)
25.08.2019 13:55 23,9 °C 67 % 1016,6 hPa 0,0 mm 1,4 km/h (1 Bft) W-SW 254 ° 1 min 0,000 mm 5,5 UV-I 694 W/m² 17,4 °C 23,9 °C 4,8 km/h (1 Bft)
25.08.2019 13:56 23,9 °C 67 % 1016,6 hPa 0,0 mm 3,4 km/h (1 Bft) W-NW 288 ° 1 min 0,000 mm 5,5 UV-I 682 W/m² 17,4 °C 23,9 °C 9,7 km/h (2 Bft)
25.08.2019 13:57 23,9 °C 67 % 1016,5 hPa 0,0 mm 3,9 km/h (1 Bft) W 262 ° 1 min 0,000 mm 5,5 UV-I 689 W/m² 17,4 °C 23,9 °C 4,8 km/h (1 Bft)
25.08.2019 13:58 23,9 °C 67 % 1016,6 hPa 0,0 mm 2,3 km/h (1 Bft) W 263 ° 1 min 0,000 mm 5,6 UV-I 714 W/m² 17,4 °C 23,9 °C 3,2 km/h (1 Bft)
25.08.2019 13:59 23,9 °C 70 % 1016,6 hPa 0,0 mm 1,9 km/h (1 Bft) W 263 ° 1 min 0,000 mm 5,7 UV-I 752 W/m² 18,1 °C 23,9 °C 3,2 km/h (1 Bft)
25.08.2019 14:00 23,9 °C 69 % 1016,6 hPa 0,0 mm 1,1 km/h (1 Bft) W 263 ° 1 min 0,000 mm 5,7 UV-I 751 W/m² 17,9 °C 23,9 °C 3,2 km/h (1 Bft)
25.08.2019 14:01 24,0 °C 68 % 1016,6 hPa 0,0 mm 0,0 km/h (0 Bft) W 263 ° 1 min 0,381 mm 5,8 UV-I 758 W/m² 17,7 °C 24,0 °C 0,0 km/h (0 Bft)
25.08.2019 14:02 24,2 °C 68 % 1016,6 hPa 0,0 mm 1,3 km/h (1 Bft) W-SW 254 ° 1 min 0,000 mm 5,9 UV-I 789 W/m² 17,9 °C 24,2 °C 4,8 km/h (1 Bft)
25.08.2019 14:03 24,3 °C 68 % 1016,6 hPa 0,0 mm 2,0 km/h (1 Bft) W-SW 254 ° 1 min 0,000 mm 5,9 UV-I 802 W/m² 18,0 °C 24,3 °C 4,8 km/h (1 Bft)
25.08.2019 14:04 24,3 °C 72 % 1016,6 hPa 0,0 mm 0,3 km/h (0 Bft) N-NW 329 ° 1 min 0,000 mm 6,0 UV-I 809 W/m² 18,9 °C 24,3 °C 3,2 km/h (1 Bft)
25.08.2019 14:05 24,4 °C 68 % 1016,6 hPa 0,0 mm 3,0 km/h (1 Bft) N-NW 329 ° 1 min 0,000 mm 6,0 UV-I 817 W/m² 18,1 °C 24,4 °C 4,8 km/h (1 Bft)
25.08.2019 14:06 24,6 °C 66 % 1016,6 hPa 0,0 mm 0,0 km/h (0 Bft) N-NW 329 ° 1 min 0,000 mm 6,0 UV-I 821 W/m² 17,8 °C 24,6 °C 0,0 km/h (0 Bft)
25.08.2019 14:07 24,5 °C 65 % 1016,6 hPa 0,0 mm 0,0 km/h (0 Bft) N-NW 329 ° 1 min 0,000 mm 6,0 UV-I 828 W/m² 17,5 °C 24,5 °C 0,0 km/h (0 Bft)
25.08.2019 14:08 24,5 °C 67 % 1016,6 hPa 0,0 mm 1,4 km/h (1 Bft) W-SW 250 ° 1 min 0,000 mm 6,1 UV-I 842 W/m² 18,0 °C 24,5 °C 4,8 km/h (1 Bft)
25.08.2019 14:09 24,6 °C 70 % 1016,6 hPa 0,0 mm 0,9 km/h (0 Bft) W-SW 251 ° 1 min 0,000 mm 6,1 UV-I 842 W/m² 18,8 °C 24,6 °C 3,2 km/h (1 Bft)
25.08.2019 14:10 24,7 °C 69 % 1016,6 hPa 0,0 mm 2,5 km/h (1 Bft) W 263 ° 1 min 0,000 mm 6,0 UV-I 838 W/m² 18,6 °C 24,7 °C 6,4 km/h (2 Bft)
25.08.2019 14:11 24,7 °C 65 % 1016,7 hPa 0,0 mm 5,0 km/h (1 Bft) W 277 ° 1 min 0,000 mm 6,0 UV-I 840 W/m² 17,7 °C 24,7 °C 6,4 km/h (2 Bft)
25.08.2019 14:12 24,6 °C 64 % 1016,6 hPa 0,0 mm 2,3 km/h (1 Bft) W-SW 242 ° 1 min 0,000 mm 6,1 UV-I 842 W/m² 17,3 °C 24,6 °C 6,4 km/h (2 Bft)
25.08.2019 14:13 24,6 °C 65 % 1016,6 hPa 0,0 mm 4,0 km/h (1 Bft) W-NW 284 ° 1 min 0,000 mm 6,1 UV-I 856 W/m² 17,6 °C 24,6 °C 6,4 km/h (2 Bft)
25.08.2019 14:14 24,4 °C 63 % 1016,7 hPa 0,0 mm 1,9 km/h (1 Bft) W-NW 291 ° 1 min 0,000 mm 6,1 UV-I 863 W/m² 16,9 °C 24,4 °C 3,2 km/h (1 Bft)
25.08.2019 14:15 24,4 °C 66 % 1016,6 hPa 0,0 mm 3,5 km/h (1 Bft) NW 319 ° 1 min 0,000 mm 6,2 UV-I 874 W/m² 17,6 °C 24,4 °C 6,4 km/h (2 Bft)
25.08.2019 14:16 24,6 °C 68 % 1016,6 hPa 0,0 mm 3,7 km/h (1 Bft) N-NW 342 ° 1 min 0,000 mm 6,2 UV-I 877 W/m² 18,3 °C 24,6 °C 6,4 km/h (2 Bft)
25.08.2019 14:17 24,8 °C 68 % 1016,6 hPa 0,0 mm 0,1 km/h (0 Bft) N-NW 344 ° 1 min 0,000 mm 6,2 UV-I 882 W/m² 18,5 °C 24,8 °C 1,6 km/h (1 Bft)
25.08.2019 14:18 24,9 °C 69 % 1016,6 hPa 0,0 mm 1,0 km/h (0 Bft) NW 316 ° 1 min 0,000 mm 6,2 UV-I 886 W/m² 18,8 °C 24,9 °C 3,2 km/h (1 Bft)
25.08.2019 14:19 25,0 °C 65 % 1016,5 hPa 0,0 mm 2,1 km/h (1 Bft) NW 319 ° 1 min 0,000 mm 6,2 UV-I 900 W/m² 17,9 °C 25,0 °C 4,8 km/h (1 Bft)
25.08.2019 14:20 25,1 °C 66 % 1016,5 hPa 0,0 mm 3,4 km/h (1 Bft) N-NO 23 ° 1 min 0,000 mm 6,1 UV-I 907 W/m² 18,3 °C 25,1 °C 6,4 km/h (2 Bft)
25.08.2019 14:21 25,1 °C 65 % 1016,5 hPa 0,0 mm 1,9 km/h (1 Bft) W-SW 254 ° 1 min 0,000 mm 5,9 UV-I 893 W/m² 18,0 °C 25,1 °C 6,4 km/h (2 Bft)
25.08.2019 14:22 24,8 °C 64 % 1016,5 hPa 0,0 mm 5,0 km/h (1 Bft) W 280 ° 1 min 0,000 mm 4,5 UV-I 867 W/m² 17,5 °C 24,8 °C 6,4 km/h (2 Bft)
25.08.2019 14:23 24,7 °C 66 % 1016,4 hPa 0,0 mm 1,6 km/h (1 Bft) W 279 ° 1 min 0,000 mm 3,7 UV-I 867 W/m² 17,9 °C 24,7 °C 3,2 km/h (1 Bft)
25.08.2019 14:24 24,5 °C 66 % 1016,5 hPa 0,0 mm 1,4 km/h (1 Bft) S-SW 198 ° 1 min 0,000 mm 5,2 UV-I 867 W/m² 17,7 °C 24,5 °C 6,4 km/h (2 Bft)
25.08.2019 14:25 24,4 °C 68 % 1016,5 hPa 0,0 mm 4,8 km/h (1 Bft) S-SW 196 ° 1 min 0,000 mm 5,8 UV-I 867 W/m² 18,1 °C 24,4 °C 6,4 km/h (2 Bft)
25.08.2019 14:26 24,4 °C 65 % 1016,4 hPa 0,0 mm 3,2 km/h (1 Bft) S 184 ° 0 min 0,000 mm 3,5 UV-I 294 W/m² 17,4 °C 24,4 °C 6,4 km/h (2 Bft)
25.08.2019 14:27 24,3 °C 68 % 1016,4 hPa 0,0 mm 0,0 km/h (0 Bft) S 184 ° 0 min 0,000 mm 3,5 UV-I 287 W/m² 18,0 °C 24,3 °C 0,0 km/h (0 Bft)
25.08.2019 14:28 24,2 °C 67 % 1016,4 hPa 0,0 mm 0,0 km/h (0 Bft) S 184 ° 0 min 0,000 mm 3,4 UV-I 290 W/m² 17,7 °C 24,2 °C 0,0 km/h (0 Bft)
25.08.2019 14:29 24,1 °C 68 % 1016,4 hPa 0,0 mm 0,0 km/h (0 Bft) S 184 ° 0 min 0,000 mm 3,4 UV-I 292 W/m² 17,8 °C 24,1 °C 0,0 km/h (0 Bft)
25.08.2019 14:30 23,9 °C 69 % 1016,4 hPa 0,0 mm 0,0 km/h (0 Bft) S 184 ° 0 min 0,000 mm 3,4 UV-I 352 W/m² 17,9 °C 23,9 °C 0,0 km/h (0 Bft)
25.08.2019 14:31 23,8 °C 69 % 1016,4 hPa 0,0 mm 0,0 km/h (0 Bft) S 184 ° 0 min 0,000 mm 4,3 UV-I 352 W/m² 17,8 °C 23,8 °C 0,0 km/h (0 Bft)
25.08.2019 14:32 23,8 °C 70 % 1016,4 hPa 0,0 mm 0,0 km/h (0 Bft) SO 138 ° 0 min 0,000 mm 5,2 UV-I 352 W/m² 18,0 °C 23,8 °C 0,0 km/h (0 Bft)
25.08.2019 14:33 23,7 °C 71 % 1016,4 hPa 0,0 mm 0,0 km/h (0 Bft) O-NO 78 ° 0 min 0,000 mm 5,3 UV-I 352 W/m² 18,1 °C 23,7 °C 0,0 km/h (0 Bft)
25.08.2019 14:34 23,8 °C 70 % 1016,3 hPa 0,0 mm 2,3 km/h (1 Bft) O-NO 76 ° 1 min 0,000 mm 5,0 UV-I 868 W/m² 18,0 °C 23,8 °C 3,2 km/h (1 Bft)
25.08.2019 14:35 23,8 °C 71 % 1016,4 hPa 0,0 mm 2,3 km/h (1 Bft) O-SO 119 ° 1 min 0,000 mm 3,1 UV-I 868 W/m² 18,2 °C 23,8 °C 6,4 km/h (2 Bft)
25.08.2019 14:36 23,8 °C 71 % 1016,4 hPa 0,0 mm 4,2 km/h (1 Bft) O-SO 122 ° 0 min 0,000 mm 3,0 UV-I 295 W/m² 18,2 °C 23,8 °C 6,4 km/h (2 Bft)
25.08.2019 14:37 23,8 °C 69 % 1016,4 hPa 0,0 mm 2,1 km/h (1 Bft) O-SO 122 ° 0 min 0,000 mm 2,8 UV-I 294 W/m² 17,8 °C 23,8 °C 3,2 km/h (1 Bft)
25.08.2019 14:38 23,7 °C 67 % 1016,4 hPa 0,0 mm 1,7 km/h (1 Bft) O-SO 113 ° 0 min 0,000 mm 3,2 UV-I 294 W/m² 17,2 °C 23,7 °C 3,2 km/h (1 Bft)
25.08.2019 14:39 23,6 °C 72 % 1016,3 hPa 0,0 mm 2,7 km/h (1 Bft) NO 53 ° 0 min 0,000 mm 3,7 UV-I 573 W/m² 18,2 °C 23,6 °C 6,4 km/h (2 Bft)
25.08.2019 14:40 23,6 °C 73 % 1016,3 hPa 0,0 mm 3,8 km/h (1 Bft) O 90 ° 0 min 0,000 mm 3,2 UV-I 520 W/m² 18,5 °C 23,6 °C 6,4 km/h (2 Bft)
25.08.2019 14:41 23,5 °C 71 % 1016,3 hPa 0,0 mm 2,1 km/h (1 Bft) NO 42 ° 0 min 0,000 mm 2,6 UV-I 520 W/m² 17,9 °C 23,5 °C 6,4 km/h (2 Bft)
25.08.2019 14:42 23,5 °C 71 % 1016,3 hPa 0,0 mm 6,3 km/h (2 Bft) NO 39 ° 0 min 0,000 mm 2,4 UV-I 246 W/m² 17,9 °C 23,5 °C 9,7 km/h (2 Bft)
25.08.2019 14:43 23,6 °C 73 % 1016,3 hPa 0,0 mm 6,4 km/h (2 Bft) O-NO 57 ° 0 min 0,000 mm 2,3 UV-I 239 W/m² 18,5 °C 23,6 °C 9,7 km/h (2 Bft)
25.08.2019 14:44 23,7 °C 72 % 1016,3 hPa 0,0 mm 7,6 km/h (2 Bft) O-SO 110 ° 0 min 0,000 mm 2,2 UV-I 241 W/m² 18,3 °C 23,7 °C 12,9 km/h (3 Bft)
25.08.2019 14:45 23,6 °C 74 % 1016,3 hPa 0,0 mm 6,0 km/h (2 Bft) O-NO 75 ° 0 min 0,000 mm 2,2 UV-I 241 W/m² 18,7 °C 23,6 °C 12,9 km/h (3 Bft)
25.08.2019 14:46 23,5 °C 75 % 1016,3 hPa 0,0 mm 0,7 km/h (0 Bft) O-NO 78 ° 0 min 0,000 mm 2,1 UV-I 230 W/m² 18,8 °C 23,5 °C 4,8 km/h (1 Bft)
25.08.2019 14:47 23,3 °C 74 % 1016,3 hPa 0,0 mm 2,2 km/h (1 Bft) O-NO 64 ° 0 min 0,000 mm 2,0 UV-I 204 W/m² 18,4 °C 23,3 °C 4,8 km/h (1 Bft)
25.08.2019 14:48 23,3 °C 74 % 1016,3 hPa 0,0 mm 2,3 km/h (1 Bft) O-NO 64 ° 0 min 0,000 mm 2,0 UV-I 188 W/m² 18,4 °C 23,3 °C 4,8 km/h (1 Bft)
25.08.2019 14:49 23,1 °C 75 % 1016,2 hPa 0,0 mm 0,0 km/h (0 Bft) O-NO 64 ° 0 min 0,000 mm 1,9 UV-I 185 W/m² 18,4 °C 23,1 °C 0,0 km/h (0 Bft)
25.08.2019 14:50 23,0 °C 76 % 1016,2 hPa 0,0 mm 2,1 km/h (1 Bft) NO 51 ° 0 min 0,000 mm 1,9 UV-I 179 W/m² 18,5 °C 23,0 °C 6,4 km/h (2 Bft)
25.08.2019 14:51 22,8 °C 75 % 1016,2 hPa 0,0 mm 0,9 km/h (0 Bft) O 84 ° 0 min 0,000 mm 1,9 UV-I 178 W/m² 18,1 °C 22,8 °C 3,2 km/h (1 Bft)
25.08.2019 14:52 22,8 °C 75 % 1016,2 hPa 0,0 mm 1,0 km/h (0 Bft) O-NO 70 ° 0 min 0,000 mm 1,9 UV-I 179 W/m² 18,1 °C 22,8 °C 3,2 km/h (1 Bft)
25.08.2019 14:53 22,7 °C 77 % 1016,2 hPa 0,0 mm 5,8 km/h (2 Bft) SO 140 ° 0 min 0,000 mm 1,9 UV-I 179 W/m² 18,5 °C 22,7 °C 9,7 km/h (2 Bft)
25.08.2019 14:54 22,6 °C 77 % 1016,2 hPa 0,0 mm 2,2 km/h (1 Bft) S-SO 148 ° 0 min 0,000 mm 1,9 UV-I 171 W/m² 18,4 °C 22,6 °C 4,8 km/h (1 Bft)
25.08.2019 14:55 22,4 °C 76 % 1016,1 hPa 0,0 mm 3,2 km/h (1 Bft) SO 146 ° 0 min 0,000 mm 1,9 UV-I 165 W/m² 18,0 °C 22,4 °C 4,8 km/h (1 Bft)
25.08.2019 14:56 22,4 °C 76 % 1016,1 hPa 0,0 mm 4,6 km/h (1 Bft) O 91 ° 0 min 0,000 mm 1,9 UV-I 162 W/m² 18,0 °C 22,4 °C 11,3 km/h (2 Bft)
25.08.2019 14:57 22,3 °C 77 % 1016,2 hPa 0,0 mm 2,1 km/h (1 Bft) O 96 ° 0 min 0,000 mm 1,9 UV-I 162 W/m² 18,1 °C 22,3 °C 4,8 km/h (1 Bft)
25.08.2019 14:58 22,2 °C 77 % 1016,2 hPa 0,0 mm 0,3 km/h (0 Bft) O-SO 107 ° 0 min 0,000 mm 1,9 UV-I 162 W/m² 18,0 °C 22,2 °C 1,6 km/h (1 Bft)
25.08.2019 14:59 22,2 °C 77 % 1016,2 hPa 0,0 mm 2,0 km/h (1 Bft) S-SO 161 ° 0 min 0,000 mm 1,9 UV-I 163 W/m² 18,0 °C 22,2 °C 3,2 km/h (1 Bft)
25.08.2019 15:00 22,1 °C 79 % 1016,2 hPa 0,0 mm 0,5 km/h (0 Bft) S-SO 155 ° 0 min 0,330 mm 1,9 UV-I 167 W/m² 18,3 °C 22,1 °C 4,8 km/h (1 Bft)
25.08.2019 15:01 22,1 °C 78 % 1016,2 hPa 0,0 mm 3,9 km/h (1 Bft) SO 135 ° 0 min 0,000 mm 1,9 UV-I 167 W/m² 18,1 °C 22,1 °C 6,4 km/h (2 Bft)
25.08.2019 15:02 21,9 °C 79 % 1016,2 hPa 0,0 mm 4,1 km/h (1 Bft) O-SO 115 ° 0 min 0,000 mm 1,9 UV-I 165 W/m² 18,1 °C 21,9 °C 6,4 km/h (2 Bft)
25.08.2019 15:03 21,9 °C 80 % 1016,3 hPa 0,0 mm 2,7 km/h (1 Bft) O-SO 121 ° 0 min 0,000 mm 1,9 UV-I 163 W/m² 18,3 °C 21,9 °C 4,8 km/h (1 Bft)
25.08.2019 15:04 21,8 °C 80 % 1016,3 hPa 0,0 mm 1,3 km/h (1 Bft) O-SO 121 ° 0 min 0,000 mm 1,9 UV-I 162 W/m² 18,2 °C 21,8 °C 3,2 km/h (1 Bft)
25.08.2019 15:05 21,7 °C 80 % 1016,2 hPa 0,0 mm 3,6 km/h (1 Bft) SO 126 ° 0 min 0,000 mm 1,9 UV-I 158 W/m² 18,1 °C 21,7 °C 4,8 km/h (1 Bft)
25.08.2019 15:06 21,6 °C 82 % 1016,3 hPa 0,0 mm 3,4 km/h (1 Bft) SO 144 ° 0 min 0,000 mm 1,9 UV-I 155 W/m² 18,4 °C 21,6 °C 6,4 km/h (2 Bft)
25.08.2019 15:07 21,5 °C 82 % 1016,3 hPa 0,0 mm 1,5 km/h (1 Bft) SO 144 ° 0 min 0,000 mm 1,8 UV-I 153 W/m² 18,3 °C 21,5 °C 3,2 km/h (1 Bft)
25.08.2019 15:08 21,5 °C 81 % 1016,3 hPa 0,0 mm 3,1 km/h (1 Bft) SO 144 ° 0 min 0,000 mm 1,8 UV-I 153 W/m² 18,1 °C 21,5 °C 6,4 km/h (2 Bft)
25.08.2019 15:09 21,4 °C 83 % 1016,2 hPa 0,0 mm 6,0 km/h (2 Bft) SO 144 ° 0 min 0,000 mm 1,8 UV-I 153 W/m² 18,4 °C 21,4 °C 9,7 km/h (2 Bft)
25.08.2019 15:10 21,3 °C 82 % 1016,3 hPa 0,0 mm 5,8 km/h (2 Bft) SO 141 ° 0 min 0,000 mm 1,8 UV-I 153 W/m² 18,1 °C 21,3 °C 11,3 km/h (2 Bft)
25.08.2019 15:11 21,2 °C 82 % 1016,3 hPa 0,0 mm 3,1 km/h (1 Bft) SO 142 ° 0 min 0,000 mm 1,9 UV-I 153 W/m² 18,0 °C 21,2 °C 6,4 km/h (2 Bft)
25.08.2019 15:12 21,2 °C 82 % 1016,3 hPa 0,0 mm 0,0 km/h (0 Bft) SO 143 ° 0 min 0,000 mm 1,9 UV-I 155 W/m² 18,0 °C 21,2 °C 0,0 km/h (0 Bft)
25.08.2019 15:13 21,2 °C 82 % 1016,2 hPa 0,0 mm 0,0 km/h (0 Bft) SO 143 ° 0 min 0,000 mm 1,8 UV-I 156 W/m² 18,0 °C 21,2 °C 0,0 km/h (0 Bft)
25.08.2019 15:14 21,2 °C 83 % 1016,2 hPa 0,0 mm 0,0 km/h (0 Bft) SO 143 ° 0 min 0,000 mm 1,8 UV-I 158 W/m² 18,2 °C 21,2 °C 0,0 km/h (0 Bft)
25.08.2019 15:15 21,2 °C 81 % 1016,2 hPa 0,0 mm 0,0 km/h (0 Bft) SO 143 ° 0 min 0,000 mm 1,8 UV-I 160 W/m² 17,8 °C 21,2 °C 0,0 km/h (0 Bft)
25.08.2019 15:16 21,2 °C 81 % 1016,2 hPa 0,0 mm 0,0 km/h (0 Bft) SO 143 ° 0 min 0,000 mm 1,9 UV-I 162 W/m² 17,8 °C 21,2 °C 0,0 km/h (0 Bft)
25.08.2019 15:17 21,3 °C 82 % 1016,2 hPa 0,0 mm 0,0 km/h (0 Bft) SO 143 ° 0 min 0,000 mm 2,0 UV-I 167 W/m² 18,1 °C 21,3 °C 0,0 km/h (0 Bft)
25.08.2019 15:18 21,3 °C 85 % 1016,2 hPa 0,0 mm 0,0 km/h (0 Bft) SO 143 ° 0 min 0,000 mm 2,0 UV-I 172 W/m² 18,7 °C 21,3 °C 0,0 km/h (0 Bft)
25.08.2019 15:19 21,3 °C 85 % 1016,2 hPa 0,0 mm 0,0 km/h (0 Bft) SO 143 ° 0 min 0,000 mm 2,1 UV-I 188 W/m² 18,7 °C 21,3 °C 0,0 km/h (0 Bft)
25.08.2019 15:20 21,2 °C 84 % 1016,2 hPa 0,0 mm 0,0 km/h (0 Bft) SO 143 ° 0 min 0,000 mm 2,1 UV-I 195 W/m² 18,4 °C 21,2 °C 0,0 km/h (0 Bft)
25.08.2019 15:21 21,2 °C 86 % 1016,2 hPa 0,0 mm 0,0 km/h (0 Bft) SO 143 ° 0 min 0,000 mm 2,2 UV-I 202 W/m² 18,8 °C 21,2 °C 0,0 km/h (0 Bft)
25.08.2019 15:22 21,1 °C 85 % 1016,2 hPa 0,0 mm 0,0 km/h (0 Bft) SO 143 ° 0 min 0,000 mm 2,2 UV-I 209 W/m² 18,5 °C 21,1 °C 0,0 km/h (0 Bft)
25.08.2019 15:23 21,1 °C 85 % 1016,2 hPa 0,0 mm 0,0 km/h (0 Bft) SO 143 ° 0 min 0,000 mm 2,3 UV-I 229 W/m² 18,5 °C 21,1 °C 0,0 km/h (0 Bft)
25.08.2019 15:24 21,1 °C 85 % 1016,2 hPa 0,0 mm 0,0 km/h (0 Bft) SO 143 ° 0 min 0,000 mm 2,4 UV-I 243 W/m² 18,5 °C 21,1 °C 0,0 km/h (0 Bft)
25.08.2019 15:25 21,2 °C 85 % 1016,2 hPa 0,0 mm 0,0 km/h (0 Bft) SO 128 ° 0 min 0,000 mm 2,7 UV-I 299 W/m² 18,6 °C 21,2 °C 0,0 km/h (0 Bft)
25.08.2019 15:26 21,2 °C 86 % 1016,2 hPa 0,0 mm 2,3 km/h (1 Bft) SO 128 ° 0 min 0,000 mm 2,8 UV-I 374 W/m² 18,8 °C 21,2 °C 3,2 km/h (1 Bft)
25.08.2019 15:27 21,3 °C 84 % 1016,1 hPa 0,0 mm 1,1 km/h (1 Bft) SO 128 ° 0 min 0,000 mm 2,6 UV-I 290 W/m² 18,5 °C 21,3 °C 3,2 km/h (1 Bft)
25.08.2019 15:28 21,3 °C 84 % 1016,1 hPa 0,0 mm 0,0 km/h (0 Bft) SO 128 ° 0 min 0,000 mm 2,9 UV-I 318 W/m² 18,5 °C 21,3 °C 0,0 km/h (0 Bft)
25.08.2019 15:29 21,4 °C 84 % 1016,1 hPa 0,0 mm 0,0 km/h (0 Bft) SO 128 ° 0 min 0,000 mm 3,1 UV-I 350 W/m² 18,6 °C 21,4 °C 0,0 km/h (0 Bft)
25.08.2019 15:30 21,6 °C 85 % 1016,1 hPa 0,0 mm 0,0 km/h (0 Bft) SO 128 ° 1 min 0,000 mm 3,8 UV-I 615 W/m² 19,0 °C 21,6 °C 0,0 km/h (0 Bft)
25.08.2019 15:31 21,7 °C 85 % 1016,0 hPa 0,0 mm 0,0 km/h (0 Bft) SO 128 ° 1 min 0,000 mm 4,0 UV-I 696 W/m² 19,1 °C 21,7 °C 0,0 km/h (0 Bft)
25.08.2019 15:32 21,8 °C 82 % 1016,0 hPa 0,0 mm 0,0 km/h (0 Bft) SO 128 ° 1 min 0,000 mm 4,1 UV-I 722 W/m² 18,6 °C 21,8 °C 0,0 km/h (0 Bft)
25.08.2019 15:33 22,1 °C 81 % 1016,0 hPa 0,0 mm 0,0 km/h (0 Bft) SO 127 ° 1 min 0,000 mm 4,1 UV-I 712 W/m² 18,7 °C 22,1 °C 0,0 km/h (0 Bft)
25.08.2019 15:34 22,3 °C 81 % 1015,9 hPa 0,0 mm 0,0 km/h (0 Bft) SO 128 ° 1 min 0,000 mm 4,1 UV-I 721 W/m² 18,9 °C 22,3 °C 0,0 km/h (0 Bft)
25.08.2019 15:35 22,5 °C 81 % 1016,0 hPa 0,0 mm 0,0 km/h (0 Bft) O-SO 120 ° 1 min 0,000 mm 4,2 UV-I 738 W/m² 19,1 °C 22,5 °C 0,0 km/h (0 Bft)
25.08.2019 15:36 22,6 °C 75 % 1016,0 hPa 0,0 mm 0,0 km/h (0 Bft) O-NO 59 ° 1 min 0,000 mm 4,1 UV-I 733 W/m² 17,9 °C 22,6 °C 0,0 km/h (0 Bft)
25.08.2019 15:37 22,7 °C 75 % 1015,9 hPa 0,0 mm 0,0 km/h (0 Bft) O-NO 59 ° 1 min 0,000 mm 4,0 UV-I 729 W/m² 18,0 °C 22,7 °C 0,0 km/h (0 Bft)
25.08.2019 15:38 22,8 °C 72 % 1016,0 hPa 0,0 mm 0,0 km/h (0 Bft) O-NO 59 ° 1 min 0,000 mm 4,0 UV-I 719 W/m² 17,5 °C 22,8 °C 0,0 km/h (0 Bft)
25.08.2019 15:39 23,1 °C 71 % 1015,9 hPa 0,0 mm 0,0 km/h (0 Bft) O-NO 59 ° 1 min 0,000 mm 4,0 UV-I 708 W/m² 17,5 °C 23,1 °C 0,0 km/h (0 Bft)
25.08.2019 15:40 23,2 °C 70 % 1015,9 hPa 0,0 mm 0,4 km/h (0 Bft) O-NO 59 ° 1 min 0,000 mm 4,0 UV-I 698 W/m² 17,4 °C 23,2 °C 1,6 km/h (1 Bft)
25.08.2019 15:41 23,3 °C 73 % 1016,0 hPa 0,0 mm 2,2 km/h (1 Bft) NO 50 ° 1 min 0,000 mm 3,9 UV-I 640 W/m² 18,2 °C 23,3 °C 4,8 km/h (1 Bft)
25.08.2019 15:42 23,3 °C 69 % 1015,9 hPa 0,0 mm 0,0 km/h (0 Bft) NO 50 ° 1 min 0,000 mm 4,0 UV-I 664 W/m² 17,3 °C 23,3 °C 0,0 km/h (0 Bft)
25.08.2019 15:43 23,2 °C 70 % 1015,9 hPa 0,0 mm 0,0 km/h (0 Bft) NO 41 ° 1 min 0,000 mm 4,0 UV-I 682 W/m² 17,4 °C 23,2 °C 0,0 km/h (0 Bft)
25.08.2019 15:44 23,3 °C 70 % 1015,9 hPa 0,0 mm 0,3 km/h (0 Bft) NO 44 ° 1 min 0,000 mm 4,0 UV-I 686 W/m² 17,5 °C 23,3 °C 1,6 km/h (1 Bft)
25.08.2019 15:45 23,3 °C 70 % 1015,9 hPa 0,0 mm 1,7 km/h (1 Bft) NO 44 ° 1 min 0,000 mm 4,0 UV-I 684 W/m² 17,5 °C 23,3 °C 3,2 km/h (1 Bft)
25.08.2019 15:46 23,4 °C 70 % 1015,9 hPa 0,0 mm 3,0 km/h (1 Bft) N-NO 13 ° 1 min 0,000 mm 4,0 UV-I 671 W/m² 17,6 °C 23,4 °C 4,8 km/h (1 Bft)
25.08.2019 15:47 23,6 °C 71 % 1015,9 hPa 0,0 mm 1,5 km/h (1 Bft) N-NO 31 ° 1 min 0,000 mm 3,9 UV-I 668 W/m² 18,0 °C 23,6 °C 3,2 km/h (1 Bft)
25.08.2019 15:48 23,6 °C 71 % 1015,9 hPa 0,0 mm 0,3 km/h (0 Bft) N-NO 31 ° 1 min 0,000 mm 3,9 UV-I 657 W/m² 18,0 °C 23,6 °C 1,6 km/h (1 Bft)
25.08.2019 15:49 23,7 °C 72 % 1015,9 hPa 0,0 mm 0,0 km/h (0 Bft) N-NO 31 ° 1 min 0,000 mm 3,9 UV-I 668 W/m² 18,3 °C 23,7 °C 0,0 km/h (0 Bft)
25.08.2019 15:50 23,6 °C 71 % 1015,9 hPa 0,0 mm 3,2 km/h (1 Bft) NO 53 ° 1 min 0,000 mm 3,9 UV-I 679 W/m² 18,0 °C 23,6 °C 4,8 km/h (1 Bft)
25.08.2019 15:51 23,5 °C 70 % 1015,9 hPa 0,0 mm 2,8 km/h (1 Bft) NO 52 ° 1 min 0,000 mm 3,9 UV-I 684 W/m² 17,7 °C 23,5 °C 4,8 km/h (1 Bft)
25.08.2019 15:52 23,5 °C 70 % 1015,9 hPa 0,0 mm 3,6 km/h (1 Bft) NO 44 ° 1 min 0,000 mm 3,8 UV-I 691 W/m² 17,7 °C 23,5 °C 6,4 km/h (2 Bft)
25.08.2019 15:53 23,6 °C 71 % 1015,9 hPa 0,0 mm 4,7 km/h (1 Bft) NO 50 ° 1 min 0,000 mm 3,1 UV-I 691 W/m² 18,0 °C 23,6 °C 6,4 km/h (2 Bft)
25.08.2019 15:54 23,6 °C 71 % 1015,9 hPa 0,0 mm 2,4 km/h (1 Bft) NO 47 ° 1 min 0,000 mm 2,9 UV-I 691 W/m² 18,0 °C 23,6 °C 4,8 km/h (1 Bft)
25.08.2019 15:55 23,6 °C 70 % 1016,0 hPa 0,0 mm 2,5 km/h (1 Bft) NO 56 ° 0 min 0,000 mm 2,8 UV-I 304 W/m² 17,8 °C 23,6 °C 4,8 km/h (1 Bft)
25.08.2019 15:56 23,4 °C 71 % 1015,9 hPa 0,0 mm 1,1 km/h (1 Bft) NO 56 ° 0 min 0,000 mm 2,8 UV-I 260 W/m² 17,8 °C 23,4 °C 3,2 km/h (1 Bft)
25.08.2019 15:57 23,4 °C 73 % 1015,9 hPa 0,0 mm 1,4 km/h (1 Bft) O-NO 57 ° 0 min 0,000 mm 2,6 UV-I 257 W/m² 18,3 °C 23,4 °C 3,2 km/h (1 Bft)
25.08.2019 15:58 23,3 °C 74 % 1016,0 hPa 0,0 mm 2,0 km/h (1 Bft) O 96 ° 0 min 0,000 mm 2,6 UV-I 318 W/m² 18,4 °C 23,3 °C 4,8 km/h (1 Bft)
25.08.2019 15:59 23,2 °C 77 % 1015,9 hPa 0,0 mm 0,1 km/h (0 Bft) O 96 ° 0 min 0,000 mm 2,7 UV-I 318 W/m² 18,9 °C 23,2 °C 1,6 km/h (1 Bft)
25.08.2019 16:00 23,1 °C 74 % 1015,9 hPa 0,0 mm 0,0 km/h (0 Bft) O 96 ° 0 min 0,254 mm 3,1 UV-I 506 W/m² 18,2 °C 23,1 °C 0,0 km/h (0 Bft)
25.08.2019 16:01 23,1 °C 75 % 1015,9 hPa 0,0 mm 0,0 km/h (0 Bft) O 96 ° 0 min 0,000 mm 2,8 UV-I 438 W/m² 18,4 °C 23,1 °C 0,0 km/h (0 Bft)
25.08.2019 16:02 23,1 °C 74 % 1015,9 hPa 0,0 mm 0,0 km/h (0 Bft) O 96 ° 0 min 0,000 mm 2,8 UV-I 438 W/m² 18,2 °C 23,1 °C 0,0 km/h (0 Bft)
25.08.2019 16:03 23,1 °C 76 % 1015,9 hPa 0,0 mm 0,0 km/h (0 Bft) O 96 ° 0 min 0,000 mm 2,6 UV-I 227 W/m² 18,6 °C 23,1 °C 0,0 km/h (0 Bft)
25.08.2019 16:04 23,0 °C 72 % 1015,9 hPa 0,0 mm 0,0 km/h (0 Bft) O 96 ° 0 min 0,000 mm 2,6 UV-I 255 W/m² 17,7 °C 23,0 °C 0,0 km/h (0 Bft)
25.08.2019 16:05 22,9 °C 76 % 1015,9 hPa 0,0 mm 0,0 km/h (0 Bft) O 96 ° 0 min 0,000 mm 3,2 UV-I 255 W/m² 18,4 °C 22,9 °C 0,0 km/h (0 Bft)
25.08.2019 16:06 22,9 °C 77 % 1015,9 hPa 0,0 mm 1,2 km/h (1 Bft) O 96 ° 0 min 0,000 mm 3,3 UV-I 255 W/m² 18,6 °C 22,9 °C 3,2 km/h (1 Bft)
25.08.2019 16:07 22,8 °C 81 % 1016,0 hPa 0,0 mm 0,5 km/h (0 Bft) O 96 ° 0 min 0,000 mm 3,1 UV-I 255 W/m² 19,4 °C 22,8 °C 1,6 km/h (1 Bft)
25.08.2019 16:08 22,8 °C 72 % 1015,9 hPa 0,0 mm 0,0 km/h (0 Bft) O 96 ° 0 min 0,000 mm 2,7 UV-I 420 W/m² 17,5 °C 22,8 °C 0,0 km/h (0 Bft)
25.08.2019 16:09 22,9 °C 73 % 1015,9 hPa 0,0 mm 3,6 km/h (1 Bft) O 96 ° 0 min 0,000 mm 2,2 UV-I 420 W/m² 17,8 °C 22,9 °C 6,4 km/h (2 Bft)
25.08.2019 16:10 22,9 °C 73 % 1015,9 hPa 0,0 mm 4,4 km/h (1 Bft) O 96 ° 0 min 0,000 mm 2,2 UV-I 162 W/m² 17,8 °C 22,9 °C 6,4 km/h (2 Bft)
25.08.2019 16:11 22,8 °C 76 % 1016,0 hPa 0,0 mm 2,7 km/h (1 Bft) O 96 ° 0 min 0,000 mm 2,2 UV-I 178 W/m² 18,3 °C 22,8 °C 4,8 km/h (1 Bft)
25.08.2019 16:12 22,7 °C 76 % 1015,9 hPa 0,0 mm 0,0 km/h (0 Bft) O 96 ° 0 min 0,000 mm 2,2 UV-I 174 W/m² 18,2 °C 22,7 °C 0,0 km/h (0 Bft)
25.08.2019 16:13 22,6 °C 77 % 1015,9 hPa 0,0 mm 0,0 km/h (0 Bft) O 96 ° 0 min 0,000 mm 2,2 UV-I 171 W/m² 18,4 °C 22,6 °C 0,0 km/h (0 Bft)
25.08.2019 16:14 22,5 °C 77 % 1015,9 hPa 0,0 mm 0,0 km/h (0 Bft) O 96 ° 0 min 0,000 mm 2,2 UV-I 167 W/m² 18,3 °C 22,5 °C 0,0 km/h (0 Bft)
25.08.2019 16:15 22,4 °C 78 % 1015,9 hPa 0,0 mm 0,0 km/h (0 Bft) O 96 ° 0 min 0,000 mm 2,1 UV-I 165 W/m² 18,4 °C 22,4 °C 0,0 km/h (0 Bft)
25.08.2019 16:16 22,3 °C 80 % 1016,0 hPa 0,0 mm 0,0 km/h (0 Bft) O 96 ° 0 min 0,000 mm 2,1 UV-I 167 W/m² 18,7 °C 22,3 °C 0,0 km/h (0 Bft)
25.08.2019 16:17 22,3 °C 80 % 1016,1 hPa 0,0 mm 0,0 km/h (0 Bft) O 96 ° 0 min 0,000 mm 1,9 UV-I 169 W/m² 18,7 °C 22,3 °C 0,0 km/h (0 Bft)
25.08.2019 16:18 22,2 °C 78 % 1016,0 hPa 0,0 mm 0,0 km/h (0 Bft) O 96 ° 0 min 0,000 mm 1,8 UV-I 169 W/m² 18,2 °C 22,2 °C 0,0 km/h (0 Bft)
25.08.2019 16:19 22,2 °C 76 % 1016,1 hPa 0,0 mm 0,0 km/h (0 Bft) O 96 ° 0 min 0,000 mm 1,7 UV-I 162 W/m² 17,8 °C 22,2 °C 0,0 km/h (0 Bft)
25.08.2019 16:20 22,3 °C 76 % 1016,1 hPa 0,0 mm 0,0 km/h (0 Bft) O 96 ° 0 min 0,000 mm 1,6 UV-I 153 W/m² 17,9 °C 22,3 °C 0,0 km/h (0 Bft)
25.08.2019 16:21 22,3 °C 82 % 1016,1 hPa 0,0 mm 0,0 km/h (0 Bft) O 96 ° 0 min 0,000 mm 1,5 UV-I 141 W/m² 19,1 °C 22,3 °C 0,0 km/h (0 Bft)
25.08.2019 16:22 22,3 °C 78 % 1016,1 hPa 0,0 mm 0,0 km/h (0 Bft) O 96 ° 0 min 0,000 mm 1,3 UV-I 120 W/m² 18,3 °C 22,3 °C 0,0 km/h (0 Bft)
25.08.2019 16:23 22,3 °C 82 % 1016,2 hPa 0,0 mm 2,3 km/h (1 Bft) N-NW 338 ° 0 min 0,000 mm 1,1 UV-I 109 W/m² 19,1 °C 22,3 °C 4,8 km/h (1 Bft)
25.08.2019 16:24 22,4 °C 79 % 1016,4 hPa 0,0 mm 12,5 km/h (3 Bft) N-NW 329 ° 0 min 0,000 mm 0,9 UV-I 97 W/m² 18,6 °C 22,4 °C 17,7 km/h (3 Bft)
25.08.2019 16:25 22,3 °C 77 % 1016,4 hPa 0,0 mm 12,4 km/h (3 Bft) NW 317 ° 0 min 0,000 mm 0,8 UV-I 83 W/m² 18,1 °C 22,3 °C 17,7 km/h (3 Bft)
25.08.2019 16:26 22,3 °C 76 % 1016,5 hPa 0,0 mm 10,1 km/h (2 Bft) N-NW 327 ° 0 min 0,000 mm 0,7 UV-I 70 W/m² 17,9 °C 22,3 °C 16,1 km/h (3 Bft)
25.08.2019 16:27 22,1 °C 76 % 1016,6 hPa 0,0 mm 11,4 km/h (2 Bft) NW 305 ° 0 min 0,000 mm 0,6 UV-I 63 W/m² 17,7 °C 22,1 °C 19,3 km/h (3 Bft)
25.08.2019 16:28 21,8 °C 76 % 1016,5 hPa 0,0 mm 5,7 km/h (1 Bft) W-NW 290 ° 0 min 0,000 mm 0,6 UV-I 63 W/m² 17,4 °C 21,8 °C 14,5 km/h (3 Bft)
25.08.2019 16:29 21,6 °C 76 % 1016,5 hPa 0,0 mm 9,3 km/h (2 Bft) N-NW 342 ° 0 min 0,000 mm 0,8 UV-I 76 W/m² 17,2 °C 21,6 °C 19,3 km/h (3 Bft)
25.08.2019 16:30 21,3 °C 76 % 1016,5 hPa 0,0 mm 10,7 km/h (2 Bft) NW 319 ° 0 min 0,000 mm 0,8 UV-I 83 W/m² 16,9 °C 21,3 °C 20,9 km/h (4 Bft)
25.08.2019 16:31 21,0 °C 75 % 1016,6 hPa 0,0 mm 5,0 km/h (1 Bft) N-NW 331 ° 0 min 0,000 mm 0,8 UV-I 83 W/m² 16,4 °C 21,0 °C 9,7 km/h (2 Bft)
25.08.2019 16:32 20,8 °C 75 % 1016,6 hPa 0,0 mm 6,1 km/h (2 Bft) W-NW 300 ° 0 min 0,000 mm 0,8 UV-I 79 W/m² 16,2 °C 20,8 °C 9,7 km/h (2 Bft)
25.08.2019 16:33 20,6 °C 73 % 1016,6 hPa 0,0 mm 9,9 km/h (2 Bft) N-NW 328 ° 0 min 0,000 mm 0,7 UV-I 72 W/m² 15,6 °C 20,6 °C 14,5 km/h (3 Bft)
25.08.2019 16:34 20,4 °C 74 % 1016,7 hPa 0,0 mm 10,2 km/h (2 Bft) W-NW 293 ° 0 min 0,000 mm 0,7 UV-I 70 W/m² 15,6 °C 20,4 °C 14,5 km/h (3 Bft)
25.08.2019 16:35 20,2 °C 74 % 1016,8 hPa 0,0 mm 11,4 km/h (2 Bft) W-NW 293 ° 0 min 0,000 mm 0,7 UV-I 70 W/m² 15,4 °C 20,2 °C 20,9 km/h (4 Bft)
25.08.2019 16:36 20,1 °C 75 % 1016,7 hPa 0,0 mm 15,7 km/h (3 Bft) NW 324 ° 0 min 0,000 mm 0,7 UV-I 69 W/m² 15,5 °C 20,1 °C 22,5 km/h (4 Bft)
25.08.2019 16:37 19,9 °C 78 % 1016,6 hPa 0,0 mm 7,4 km/h (2 Bft) W 273 ° 0 min 0,000 mm 0,7 UV-I 69 W/m² 15,9 °C 19,9 °C 11,3 km/h (2 Bft)
25.08.2019 16:38 19,8 °C 80 % 1016,6 hPa 0,0 mm 18,8 km/h (3 Bft) NW 314 ° 0 min 0,000 mm 0,7 UV-I 69 W/m² 16,2 °C 19,8 °C 27,4 km/h (4 Bft)
25.08.2019 16:39 19,6 °C 81 % 1016,7 hPa 0,0 mm 22,3 km/h (4 Bft) N-NW 330 ° 0 min 0,000 mm 0,7 UV-I 65 W/m² 16,2 °C 19,6 °C 32,2 km/h (5 Bft)
25.08.2019 16:40 19,4 °C 82 % 1016,7 hPa 0,0 mm 22,5 km/h (4 Bft) NW 307 ° 0 min 0,000 mm 0,6 UV-I 60 W/m² 16,2 °C 19,4 °C 32,2 km/h (5 Bft)
25.08.2019 16:41 19,2 °C 83 % 1016,7 hPa 0,0 mm 19,7 km/h (3 Bft) W-NW 298 ° 0 min 0,000 mm 0,5 UV-I 58 W/m² 16,2 °C 19,2 °C 32,2 km/h (5 Bft)
25.08.2019 16:42 18,9 °C 83 % 1016,6 hPa 0,0 mm 18,5 km/h (3 Bft) W 265 ° 0 min 0,000 mm 0,6 UV-I 56 W/m² 15,9 °C 18,9 °C 32,2 km/h (5 Bft)
25.08.2019 16:43 18,7 °C 84 % 1016,5 hPa 0,0 mm 23,5 km/h (4 Bft) W 263 ° 0 min 0,000 mm 0,0 UV-I 54 W/m² 15,9 °C 18,7 °C 33,8 km/h (5 Bft)
25.08.2019 16:44 18,5 °C 85 % 1016,2 hPa 0,0 mm 28,0 km/h (4 Bft) W 262 ° 0 min 0,000 mm 0,0 UV-I 54 W/m² 15,9 °C 18,5 °C 40,2 km/h (6 Bft)
25.08.2019 16:45 18,4 °C 84 % 1016,3 hPa 0,2 mm 18,6 km/h (3 Bft) W 277 ° 0 min 0,000 mm 0,0 UV-I 51 W/m² 15,6 °C 18,4 °C 22,5 km/h (4 Bft)
25.08.2019 16:46 18,2 °C 85 % 1016,3 hPa 0,0 mm 17,3 km/h (3 Bft) W 267 ° 0 min 0,000 mm 0,0 UV-I 51 W/m² 15,6 °C 18,2 °C 24,1 km/h (4 Bft)
25.08.2019 16:47 17,9 °C 85 % 1016,3 hPa 0,0 mm 18,5 km/h (3 Bft) W 259 ° 0 min 0,000 mm 0,0 UV-I 47 W/m² 15,3 °C 17,9 °C 22,5 km/h (4 Bft)
25.08.2019 16:48 17,8 °C 86 % 1016,4 hPa 0,0 mm 15,1 km/h (3 Bft) W 265 ° 0 min 0,000 mm 0,0 UV-I 47 W/m² 15,4 °C 17,8 °C 19,3 km/h (3 Bft)
25.08.2019 16:49 17,5 °C 86 % 1016,4 hPa 0,0 mm 10,8 km/h (2 Bft) S 191 ° 0 min 0,000 mm 0,0 UV-I 47 W/m² 15,1 °C 17,5 °C 22,5 km/h (4 Bft)
25.08.2019 16:50 17,3 °C 86 % 1016,4 hPa 0,0 mm 6,7 km/h (2 Bft) S 186 ° 0 min 0,000 mm 0,0 UV-I 49 W/m² 14,9 °C 17,3 °C 11,3 km/h (2 Bft)
25.08.2019 16:51 17,1 °C 87 % 1016,4 hPa 0,2 mm 9,7 km/h (2 Bft) S 181 ° 0 min 0,000 mm 0,0 UV-I 49 W/m² 14,9 °C 17,1 °C 16,1 km/h (3 Bft)
25.08.2019 16:52 16,9 °C 87 % 1016,3 hPa 0,0 mm 10,6 km/h (2 Bft) S 189 ° 0 min 0,000 mm 0,0 UV-I 49 W/m² 14,7 °C 16,9 °C 17,7 km/h (3 Bft)
25.08.2019 16:53 16,8 °C 87 % 1016,3 hPa 0,0 mm 7,5 km/h (2 Bft) S 184 ° 0 min 0,000 mm 0,0 UV-I 49 W/m² 14,6 °C 16,8 °C 11,3 km/h (2 Bft)
25.08.2019 16:54 16,7 °C 88 % 1016,3 hPa 0,0 mm 7,5 km/h (2 Bft) S 186 ° 0 min 0,000 mm 0,0 UV-I 49 W/m² 14,7 °C 16,7 °C 11,3 km/h (2 Bft)
25.08.2019 16:55 16,6 °C 87 % 1016,3 hPa 0,0 mm 3,9 km/h (1 Bft) S 191 ° 0 min 0,000 mm 0,0 UV-I 49 W/m² 14,4 °C 16,6 °C 6,4 km/h (2 Bft)
25.08.2019 16:56 16,6 °C 88 % 1016,4 hPa 0,2 mm 2,6 km/h (1 Bft) S-SW 201 ° 0 min 0,000 mm 0,0 UV-I 49 W/m² 14,6 °C 16,6 °C 8,0 km/h (2 Bft)
25.08.2019 16:57 16,6 °C 88 % 1016,4 hPa 0,0 mm 0,3 km/h (0 Bft) S-SW 201 ° 0 min 0,000 mm 0,0 UV-I 49 W/m² 14,6 °C 16,6 °C 1,6 km/h (1 Bft)
25.08.2019 16:58 16,4 °C 89 % 1016,4 hPa 0,0 mm 2,2 km/h (1 Bft) S 190 ° 0 min 0,000 mm 0,0 UV-I 47 W/m² 14,6 °C 16,4 °C 4,8 km/h (1 Bft)
25.08.2019 16:59 16,3 °C 89 % 1016,4 hPa 0,0 mm 2,7 km/h (1 Bft) N 355 ° 0 min 0,000 mm 0,0 UV-I 46 W/m² 14,5 °C 16,3 °C 8,0 km/h (2 Bft)
25.08.2019 17:00 16,3 °C 91 % 1016,6 hPa 0,0 mm 1,8 km/h (1 Bft) N 355 ° 0 min 0,102 mm 0,0 UV-I 42 W/m² 14,8 °C 16,3 °C 4,8 km/h (1 Bft)
25.08.2019 17:01 16,2 °C 91 % 1016,6 hPa 0,0 mm 5,3 km/h (1 Bft) O-NO 74 ° 0 min 0,000 mm 0,0 UV-I 40 W/m² 14,7 °C 16,2 °C 8,0 km/h (2 Bft)
25.08.2019 17:02 16,2 °C 91 % 1016,8 hPa 0,0 mm 6,3 km/h (2 Bft) S 182 ° 0 min 0,000 mm 0,0 UV-I 39 W/m² 14,7 °C 16,2 °C 8,0 km/h (2 Bft)
25.08.2019 17:03 16,1 °C 91 % 1016,8 hPa 0,2 mm 4,2 km/h (1 Bft) S 181 ° 0 min 0,000 mm 0,0 UV-I 35 W/m² 14,6 °C 16,1 °C 6,4 km/h (2 Bft)
25.08.2019 17:04 16,1 °C 91 % 1016,9 hPa 0,0 mm 5,7 km/h (1 Bft) SO 128 ° 0 min 0,000 mm 0,0 UV-I 35 W/m² 14,6 °C 16,1 °C 11,3 km/h (2 Bft)
25.08.2019 17:05 16,1 °C 91 % 1016,8 hPa 0,0 mm 6,4 km/h (2 Bft) O-SO 102 ° 0 min 0,000 mm 0,0 UV-I 33 W/m² 14,6 °C 16,1 °C 9,7 km/h (2 Bft)
25.08.2019 17:06 16,1 °C 92 % 1016,9 hPa 0,0 mm 6,4 km/h (2 Bft) O 94 ° 0 min 0,000 mm 0,0 UV-I 32 W/m² 14,8 °C 16,1 °C 9,7 km/h (2 Bft)
25.08.2019 17:07 16,1 °C 92 % 1016,9 hPa 0,0 mm 2,7 km/h (1 Bft) O 94 ° 0 min 0,000 mm 0,0 UV-I 30 W/m² 14,8 °C 16,1 °C 4,8 km/h (1 Bft)
25.08.2019 17:08 16,1 °C 92 % 1017,1 hPa 0,0 mm 2,0 km/h (1 Bft) O 94 ° 0 min 0,000 mm 0,0 UV-I 28 W/m² 14,8 °C 16,1 °C 3,2 km/h (1 Bft)
25.08.2019 17:09 16,1 °C 92 % 1017,1 hPa 0,0 mm 2,0 km/h (1 Bft) O 94 ° 0 min 0,000 mm 0,0 UV-I 28 W/m² 14,8 °C 16,1 °C 3,2 km/h (1 Bft)
25.08.2019 17:10 16,1 °C 92 % 1017,1 hPa 0,0 mm 2,5 km/h (1 Bft) S 188 ° 0 min 0,000 mm 0,0 UV-I 26 W/m² 14,8 °C 16,1 °C 4,8 km/h (1 Bft)
25.08.2019 17:11 16,1 °C 92 % 1017,2 hPa 0,2 mm 5,2 km/h (1 Bft) S-SO 153 ° 0 min 0,000 mm 0,0 UV-I 26 W/m² 14,8 °C 16,1 °C 8,0 km/h (2 Bft)
25.08.2019 17:12 16,2 °C 93 % 1017,2 hPa 0,0 mm 2,1 km/h (1 Bft) S-SO 159 ° 0 min 0,000 mm 0,0 UV-I 25 W/m² 15,1 °C 16,2 °C 3,2 km/h (1 Bft)
25.08.2019 17:13 16,3 °C 93 % 1017,2 hPa 0,0 mm 3,7 km/h (1 Bft) O 93 ° 0 min 0,000 mm 0,0 UV-I 25 W/m² 15,2 °C 16,3 °C 4,8 km/h (1 Bft)
25.08.2019 17:14 16,3 °C 93 % 1017,3 hPa 0,0 mm 2,1 km/h (1 Bft) O 93 ° 0 min 0,000 mm 0,0 UV-I 25 W/m² 15,2 °C 16,3 °C 4,8 km/h (1 Bft)
25.08.2019 17:15 16,3 °C 93 % 1017,3 hPa 0,0 mm 1,7 km/h (1 Bft) O 93 ° 0 min 0,000 mm 0,0 UV-I 25 W/m² 15,2 °C 16,3 °C 3,2 km/h (1 Bft)
25.08.2019 17:16 16,3 °C 93 % 1017,3 hPa 0,0 mm 2,0 km/h (1 Bft) O 93 ° 0 min 0,000 mm 0,0 UV-I 25 W/m² 15,2 °C 16,3 °C 3,2 km/h (1 Bft)
25.08.2019 17:17 16,4 °C 93 % 1017,3 hPa 0,0 mm 2,1 km/h (1 Bft) O 93 ° 0 min 0,000 mm 0,0 UV-I 25 W/m² 15,3 °C 16,4 °C 4,8 km/h (1 Bft)
25.08.2019 17:18 16,4 °C 93 % 1017,4 hPa 0,0 mm 1,5 km/h (1 Bft) O 93 ° 0 min 0,000 mm 0,0 UV-I 25 W/m² 15,3 °C 16,4 °C 4,8 km/h (1 Bft)
25.08.2019 17:19 16,4 °C 93 % 1017,4 hPa 0,0 mm 3,5 km/h (1 Bft) O 92 ° 0 min 0,000 mm 0,0 UV-I 25 W/m² 15,3 °C 16,4 °C 4,8 km/h (1 Bft)
25.08.2019 17:20 16,4 °C 93 % 1017,5 hPa 0,0 mm 4,4 km/h (1 Bft) O 92 ° 0 min 0,000 mm 0,0 UV-I 25 W/m² 15,3 °C 16,4 °C 4,8 km/h (1 Bft)
25.08.2019 17:21 16,4 °C 93 % 1017,5 hPa 0,2 mm 3,4 km/h (1 Bft) O 92 ° 0 min 0,000 mm 0,0 UV-I 25 W/m² 15,3 °C 16,4 °C 4,8 km/h (1 Bft)
25.08.2019 17:22 16,5 °C 93 % 1017,5 hPa 0,0 mm 3,6 km/h (1 Bft) O 92 ° 0 min 0,000 mm 0,0 UV-I 25 W/m² 15,4 °C 16,5 °C 4,8 km/h (1 Bft)
25.08.2019 17:23 16,5 °C 93 % 1017,6 hPa 0,0 mm 4,1 km/h (1 Bft) O 92 ° 0 min 0,000 mm 0,0 UV-I 25 W/m² 15,4 °C 16,5 °C 6,4 km/h (2 Bft)
25.08.2019 17:24 16,5 °C 93 % 1017,6 hPa 0,0 mm 1,3 km/h (1 Bft) O 91 ° 0 min 0,000 mm 0,0 UV-I 26 W/m² 15,4 °C 16,5 °C 4,8 km/h (1 Bft)
25.08.2019 17:25 16,5 °C 93 % 1017,6 hPa 0,0 mm 6,3 km/h (2 Bft) O-SO 118 ° 0 min 0,000 mm 0,0 UV-I 26 W/m² 15,4 °C 16,5 °C 9,7 km/h (2 Bft)
25.08.2019 17:26 16,6 °C 93 % 1017,6 hPa 0,0 mm 7,4 km/h (2 Bft) O-NO 68 ° 0 min 0,000 mm 0,0 UV-I 26 W/m² 15,5 °C 16,6 °C 9,7 km/h (2 Bft)
25.08.2019 17:27 16,6 °C 93 % 1017,6 hPa 0,0 mm 8,2 km/h (2 Bft) SO 138 ° 0 min 0,000 mm 0,0 UV-I 26 W/m² 15,5 °C 16,6 °C 14,5 km/h (3 Bft)
25.08.2019 17:28 16,7 °C 94 % 1017,6 hPa 0,0 mm 8,0 km/h (2 Bft) O 96 ° 0 min 0,000 mm 0,0 UV-I 26 W/m² 15,7 °C 16,7 °C 12,9 km/h (3 Bft)
25.08.2019 17:29 16,7 °C 94 % 1017,6 hPa 0,0 mm 3,8 km/h (1 Bft) O-SO 102 ° 0 min 0,000 mm 0,0 UV-I 26 W/m² 15,7 °C 16,7 °C 6,4 km/h (2 Bft)
25.08.2019 17:30 16,8 °C 94 % 1017,6 hPa 0,0 mm 8,2 km/h (2 Bft) O 95 ° 0 min 0,000 mm 0,0 UV-I 26 W/m² 15,8 °C 16,8 °C 16,1 km/h (3 Bft)
25.08.2019 17:31 16,8 °C 93 % 1017,6 hPa 0,0 mm 5,1 km/h (1 Bft) O 90 ° 0 min 0,000 mm 0,0 UV-I 26 W/m² 15,7 °C 16,8 °C 6,4 km/h (2 Bft)
25.08.2019 17:32 16,9 °C 93 % 1017,6 hPa 0,0 mm 4,8 km/h (1 Bft) O-NO 69 ° 0 min 0,000 mm 0,0 UV-I 25 W/m² 15,8 °C 16,9 °C 8,0 km/h (2 Bft)
25.08.2019 17:33 16,9 °C 93 % 1017,5 hPa 0,2 mm 6,4 km/h (2 Bft) O 84 ° 0 min 0,000 mm 0,0 UV-I 25 W/m² 15,8 °C 16,9 °C 12,9 km/h (3 Bft)
25.08.2019 17:34 16,9 °C 93 % 1017,5 hPa 0,0 mm 2,6 km/h (1 Bft) O 81 ° 0 min 0,000 mm 0,0 UV-I 25 W/m² 15,8 °C 16,9 °C 6,4 km/h (2 Bft)
25.08.2019 17:35 17,0 °C 93 % 1017,5 hPa 0,0 mm 0,0 km/h (0 Bft) O 81 ° 0 min 0,000 mm 0,0 UV-I 25 W/m² 15,9 °C 17,0 °C 0,0 km/h (0 Bft)
25.08.2019 17:36 17,1 °C 93 % 1017,5 hPa 0,0 mm 1,6 km/h (1 Bft) NO 34 ° 0 min 0,000 mm 0,0 UV-I 25 W/m² 16,0 °C 17,1 °C 3,2 km/h (1 Bft)
25.08.2019 17:37 17,1 °C 93 % 1017,5 hPa 0,0 mm 0,5 km/h (0 Bft) N-NO 30 ° 0 min 0,000 mm 0,0 UV-I 25 W/m² 16,0 °C 17,1 °C 1,6 km/h (1 Bft)
25.08.2019 17:38 17,1 °C 93 % 1017,5 hPa 0,0 mm 0,8 km/h (0 Bft) N-NO 30 ° 0 min 0,000 mm 0,0 UV-I 23 W/m² 16,0 °C 17,1 °C 1,6 km/h (1 Bft)
25.08.2019 17:39 17,1 °C 93 % 1017,6 hPa 0,0 mm 0,5 km/h (0 Bft) N-NO 30 ° 0 min 0,000 mm 0,0 UV-I 23 W/m² 16,0 °C 17,1 °C 3,2 km/h (1 Bft)
25.08.2019 17:40 17,1 °C 93 % 1017,6 hPa 0,0 mm 0,3 km/h (0 Bft) N-NO 33 ° 0 min 0,000 mm 0,0 UV-I 23 W/m² 16,0 °C 17,1 °C 1,6 km/h (1 Bft)
25.08.2019 17:41 17,1 °C 93 % 1017,6 hPa 0,0 mm 0,0 km/h (0 Bft) N-NO 33 ° 0 min 0,000 mm 0,0 UV-I 23 W/m² 16,0 °C 17,1 °C 0,0 km/h (0 Bft)
25.08.2019 17:42 17,0 °C 93 % 1017,6 hPa 0,0 mm 0,0 km/h (0 Bft) N-NO 33 ° 0 min 0,000 mm 0,0 UV-I 21 W/m² 15,9 °C 17,0 °C 0,0 km/h (0 Bft)
25.08.2019 17:43 17,1 °C 93 % 1017,6 hPa 0,0 mm 0,0 km/h (0 Bft) N-NO 33 ° 0 min 0,000 mm 0,0 UV-I 21 W/m² 16,0 °C 17,1 °C 0,0 km/h (0 Bft)
25.08.2019 17:44 17,0 °C 93 % 1017,7 hPa 0,0 mm 0,0 km/h (0 Bft) N-NO 33 ° 0 min 0,000 mm 0,0 UV-I 21 W/m² 15,9 °C 17,0 °C 0,0 km/h (0 Bft)
25.08.2019 17:45 16,9 °C 93 % 1017,7 hPa 0,0 mm 0,0 km/h (0 Bft) N-NO 33 ° 0 min 0,000 mm 0,0 UV-I 21 W/m² 15,8 °C 16,9 °C 0,0 km/h (0 Bft)
25.08.2019 17:46 16,9 °C 93 % 1017,7 hPa 0,0 mm 0,0 km/h (0 Bft) N-NO 33 ° 0 min 0,000 mm 0,0 UV-I 21 W/m² 15,8 °C 16,9 °C 0,0 km/h (0 Bft)
25.08.2019 17:47 16,9 °C 93 % 1017,7 hPa 0,0 mm 0,0 km/h (0 Bft) N-NO 33 ° 0 min 0,000 mm 0,0 UV-I 21 W/m² 15,8 °C 16,9 °C 0,0 km/h (0 Bft)
25.08.2019 17:48 16,9 °C 93 % 1017,7 hPa 0,0 mm 0,0 km/h (0 Bft) N-NO 33 ° 0 min 0,000 mm 0,0 UV-I 21 W/m² 15,8 °C 16,9 °C 0,0 km/h (0 Bft)
25.08.2019 17:49 16,9 °C 93 % 1017,7 hPa 0,0 mm 0,0 km/h (0 Bft) N-NO 33 ° 0 min 0,000 mm 0,0 UV-I 21 W/m² 15,8 °C 16,9 °C 0,0 km/h (0 Bft)
25.08.2019 17:50 16,9 °C 93 % 1017,7 hPa 0,0 mm 0,0 km/h (0 Bft) N-NO 33 ° 0 min 0,000 mm 0,0 UV-I 21 W/m² 15,8 °C 16,9 °C 0,0 km/h (0 Bft)
25.08.2019 17:51 16,9 °C 93 % 1017,7 hPa 0,2 mm 0,0 km/h (0 Bft) N-NO 33 ° 0 min 0,000 mm 0,0 UV-I 21 W/m² 15,8 °C 16,9 °C 0,0 km/h (0 Bft)
25.08.2019 17:52 16,8 °C 93 % 1017,7 hPa 0,0 mm 0,0 km/h (0 Bft) N-NO 33 ° 0 min 0,000 mm 0,0 UV-I 21 W/m² 15,7 °C 16,8 °C 0,0 km/h (0 Bft)
25.08.2019 17:53 16,8 °C 94 % 1017,7 hPa 0,0 mm 0,0 km/h (0 Bft) N-NO 33 ° 0 min 0,000 mm 0,0 UV-I 21 W/m² 15,8 °C 16,8 °C 0,0 km/h (0 Bft)
25.08.2019 17:54 16,8 °C 94 % 1017,6 hPa 0,0 mm 0,0 km/h (0 Bft) N-NO 33 ° 0 min 0,000 mm 0,0 UV-I 19 W/m² 15,8 °C 16,8 °C 0,0 km/h (0 Bft)
25.08.2019 17:55 16,8 °C 94 % 1017,6 hPa 0,0 mm 0,0 km/h (0 Bft) N-NO 33 ° 0 min 0,000 mm 0,0 UV-I 19 W/m² 15,8 °C 16,8 °C 0,0 km/h (0 Bft)
25.08.2019 17:56 16,8 °C 94 % 1017,6 hPa 0,0 mm 0,0 km/h (0 Bft) N-NO 33 ° 0 min 0,000 mm 0,0 UV-I 19 W/m² 15,8 °C 16,8 °C 0,0 km/h (0 Bft)
25.08.2019 17:57 16,8 °C 94 % 1017,6 hPa 0,0 mm 0,0 km/h (0 Bft) N-NO 33 ° 0 min 0,000 mm 0,0 UV-I 19 W/m² 15,8 °C 16,8 °C 0,0 km/h (0 Bft)
25.08.2019 17:58 16,8 °C 94 % 1017,5 hPa 0,0 mm 0,0 km/h (0 Bft) N-NO 33 ° 0 min 0,000 mm 0,0 UV-I 19 W/m² 15,8 °C 16,8 °C 0,0 km/h (0 Bft)
25.08.2019 17:59 16,8 °C 94 % 1017,5 hPa 0,0 mm 0,0 km/h (0 Bft) N-NO 33 ° 0 min 0,000 mm 0,0 UV-I 19 W/m² 15,8 °C 16,8 °C 0,0 km/h (0 Bft)
25.08.2019 18:00 16,8 °C 94 % 1017,6 hPa 0,0 mm 0,0 km/h (0 Bft) N-NO 33 ° 0 min 0,000 mm 0,0 UV-I 19 W/m² 15,8 °C 16,8 °C 0,0 km/h (0 Bft)
25.08.2019 18:01 16,8 °C 94 % 1017,5 hPa 0,0 mm 0,0 km/h (0 Bft) N-NO 33 ° 0 min 0,025 mm 0,0 UV-I 19 W/m² 15,8 °C 16,8 °C 0,0 km/h (0 Bft)
25.08.2019 18:02 16,8 °C 94 % 1017,5 hPa 0,0 mm 0,0 km/h (0 Bft) N-NO 33 ° 0 min 0,000 mm 0,0 UV-I 19 W/m² 15,8 °C 16,8 °C 0,0 km/h (0 Bft)
25.08.2019 18:03 16,7 °C 94 % 1017,5 hPa 0,0 mm 0,0 km/h (0 Bft) N-NO 33 ° 0 min 0,000 mm 0,0 UV-I 19 W/m² 15,7 °C 16,7 °C 0,0 km/h (0 Bft)
25.08.2019 18:04 16,7 °C 94 % 1017,5 hPa 0,0 mm 0,0 km/h (0 Bft) N-NO 33 ° 0 min 0,000 mm 0,0 UV-I 19 W/m² 15,7 °C 16,7 °C 0,0 km/h (0 Bft)
25.08.2019 18:05 16,7 °C 94 % 1017,5 hPa 0,0 mm 0,0 km/h (0 Bft) N-NO 33 ° 0 min 0,000 mm 0,0 UV-I 19 W/m² 15,7 °C 16,7 °C 0,0 km/h (0 Bft)
25.08.2019 18:06 16,7 °C 94 % 1017,5 hPa 0,0 mm 0,0 km/h (0 Bft) N-NO 33 ° 0 min 0,000 mm 0,0 UV-I 19 W/m² 15,7 °C 16,7 °C 0,0 km/h (0 Bft)
25.08.2019 18:07 16,7 °C 94 % 1017,5 hPa 0,0 mm 0,0 km/h (0 Bft) N-NO 33 ° 0 min 0,000 mm 0,0 UV-I 19 W/m² 15,7 °C 16,7 °C 0,0 km/h (0 Bft)
25.08.2019 18:08 16,7 °C 94 % 1017,5 hPa 0,0 mm 0,0 km/h (0 Bft) N-NO 33 ° 0 min 0,000 mm 0,0 UV-I 19 W/m² 15,7 °C 16,7 °C 0,0 km/h (0 Bft)
25.08.2019 18:09 16,6 °C 94 % 1017,5 hPa 0,0 mm 0,0 km/h (0 Bft) N-NO 33 ° 0 min 0,000 mm 0,0 UV-I 19 W/m² 15,6 °C 16,6 °C 0,0 km/h (0 Bft)
25.08.2019 18:10 16,6 °C 94 % 1017,5 hPa 0,0 mm 0,0 km/h (0 Bft) N-NO 33 ° 0 min 0,000 mm 0,0 UV-I 19 W/m² 15,6 °C 16,6 °C 0,0 km/h (0 Bft)
25.08.2019 18:11 16,6 °C 94 % 1017,5 hPa 0,0 mm 0,0 km/h (0 Bft) N-NO 33 ° 0 min 0,000 mm 0,0 UV-I 19 W/m² 15,6 °C 16,6 °C 0,0 km/h (0 Bft)
25.08.2019 18:12 16,6 °C 94 % 1017,6 hPa 0,0 mm 0,0 km/h (0 Bft) N-NO 33 ° 0 min 0,000 mm 0,0 UV-I 19 W/m² 15,6 °C 16,6 °C 0,0 km/h (0 Bft)
25.08.2019 18:13 16,6 °C 94 % 1017,5 hPa 0,0 mm 0,0 km/h (0 Bft) N-NO 33 ° 0 min 0,000 mm 0,0 UV-I 19 W/m² 15,6 °C 16,6 °C 0,0 km/h (0 Bft)
25.08.2019 18:14 16,6 °C 94 % 1017,4 hPa 0,0 mm 0,2 km/h (0 Bft) N-NO 33 ° 0 min 0,000 mm 0,0 UV-I 21 W/m² 15,6 °C 16,6 °C 1,6 km/h (1 Bft)
25.08.2019 18:15 16,6 °C 94 % 1017,5 hPa 0,0 mm 0,0 km/h (0 Bft) N-NO 33 ° 0 min 0,000 mm 0,0 UV-I 21 W/m² 15,6 °C 16,6 °C 0,0 km/h (0 Bft)
25.08.2019 18:16 16,6 °C 94 % 1017,4 hPa 0,2 mm 0,0 km/h (0 Bft) N-NO 33 ° 0 min 0,000 mm 0,0 UV-I 21 W/m² 15,6 °C 16,6 °C 0,0 km/h (0 Bft)
25.08.2019 18:17 16,6 °C 94 % 1017,5 hPa 0,0 mm 0,0 km/h (0 Bft) N-NO 33 ° 0 min 0,000 mm 0,0 UV-I 21 W/m² 15,6 °C 16,6 °C 0,0 km/h (0 Bft)
25.08.2019 18:18 16,6 °C 94 % 1017,5 hPa 0,0 mm 0,0 km/h (0 Bft) N-NO 33 ° 0 min 0,000 mm 0,0 UV-I 21 W/m² 15,6 °C 16,6 °C 0,0 km/h (0 Bft)
25.08.2019 18:19 16,6 °C 94 % 1017,4 hPa 0,0 mm 0,0 km/h (0 Bft) N-NO 33 ° 0 min 0,000 mm 0,0 UV-I 21 W/m² 15,6 °C 16,6 °C 0,0 km/h (0 Bft)
25.08.2019 18:20 16,5 °C 94 % 1017,4 hPa 0,0 mm 0,0 km/h (0 Bft) N-NO 33 ° 0 min 0,000 mm 0,0 UV-I 21 W/m² 15,5 °C 16,5 °C 0,0 km/h (0 Bft)
25.08.2019 18:21 16,5 °C 94 % 1017,5 hPa 0,0 mm 0,0 km/h (0 Bft) N-NO 33 ° 0 min 0,000 mm 0,0 UV-I 23 W/m² 15,5 °C 16,5 °C 0,0 km/h (0 Bft)
25.08.2019 18:22 16,6 °C 94 % 1017,4 hPa 0,0 mm 0,0 km/h (0 Bft) N-NO 33 ° 0 min 0,000 mm 0,0 UV-I 23 W/m² 15,6 °C 16,6 °C 0,0 km/h (0 Bft)
25.08.2019 18:23 16,5 °C 94 % 1017,4 hPa 0,0 mm 0,0 km/h (0 Bft) N-NO 33 ° 0 min 0,000 mm 0,0 UV-I 23 W/m² 15,5 °C 16,5 °C 0,0 km/h (0 Bft)
25.08.2019 18:24 16,5 °C 94 % 1017,5 hPa 0,0 mm 0,0 km/h (0 Bft) N-NO 33 ° 0 min 0,000 mm 0,0 UV-I 23 W/m² 15,5 °C 16,5 °C 0,0 km/h (0 Bft)
25.08.2019 18:25 16,6 °C 94 % 1017,5 hPa 0,0 mm 0,0 km/h (0 Bft) N-NO 33 ° 0 min 0,000 mm 0,0 UV-I 23 W/m² 15,6 °C 16,6 °C 0,0 km/h (0 Bft)
25.08.2019 18:26 16,6 °C 94 % 1017,5 hPa 0,0 mm 0,5 km/h (0 Bft) N-NO 33 ° 0 min 0,000 mm 0,0 UV-I 25 W/m² 15,6 °C 16,6 °C 3,2 km/h (1 Bft)
25.08.2019 18:27 16,6 °C 94 % 1017,5 hPa 0,0 mm 0,1 km/h (0 Bft) N-NO 33 ° 0 min 0,000 mm 0,0 UV-I 25 W/m² 15,6 °C 16,6 °C 1,6 km/h (1 Bft)
25.08.2019 18:28 16,6 °C 94 % 1017,5 hPa 0,0 mm 0,0 km/h (0 Bft) N-NO 33 ° 0 min 0,000 mm 0,0 UV-I 25 W/m² 15,6 °C 16,6 °C 0,0 km/h (0 Bft)
25.08.2019 18:29 16,6 °C 94 % 1017,5 hPa 0,0 mm 0,0 km/h (0 Bft) N-NO 33 ° 0 min 0,000 mm 0,0 UV-I 25 W/m² 15,6 °C 16,6 °C 0,0 km/h (0 Bft)
25.08.2019 18:30 16,6 °C 94 % 1017,5 hPa 0,0 mm 0,2 km/h (0 Bft) N-NO 33 ° 0 min 0,000 mm 0,0 UV-I 25 W/m² 15,6 °C 16,6 °C 1,6 km/h (1 Bft)
25.08.2019 18:31 16,6 °C 94 % 1017,5 hPa 0,0 mm 0,0 km/h (0 Bft) N-NO 33 ° 0 min 0,000 mm 0,0 UV-I 26 W/m² 15,6 °C 16,6 °C 0,0 km/h (0 Bft)
25.08.2019 18:32 16,6 °C 94 % 1017,5 hPa 0,0 mm 0,0 km/h (0 Bft) N-NO 33 ° 0 min 0,000 mm 0,0 UV-I 26 W/m² 15,6 °C 16,6 °C 0,0 km/h (0 Bft)
25.08.2019 18:33 16,6 °C 94 % 1017,5 hPa 0,0 mm 0,5 km/h (0 Bft) N-NO 19 ° 0 min 0,000 mm 0,0 UV-I 26 W/m² 15,6 °C 16,6 °C 3,2 km/h (1 Bft)
25.08.2019 18:34 16,6 °C 94 % 1017,5 hPa 0,0 mm 0,0 km/h (0 Bft) N-NO 19 ° 0 min 0,000 mm 0,0 UV-I 26 W/m² 15,6 °C 16,6 °C 0,0 km/h (0 Bft)
25.08.2019 18:35 16,6 °C 94 % 1017,4 hPa 0,0 mm 0,0 km/h (0 Bft) N-NO 19 ° 0 min 0,000 mm 0,0 UV-I 26 W/m² 15,6 °C 16,6 °C 0,0 km/h (0 Bft)
25.08.2019 18:36 16,6 °C 94 % 1017,4 hPa 0,0 mm 0,1 km/h (0 Bft) N-NO 19 ° 0 min 0,000 mm 0,0 UV-I 26 W/m² 15,6 °C 16,6 °C 1,6 km/h (1 Bft)
25.08.2019 18:37 16,6 °C 94 % 1017,4 hPa 0,0 mm 0,1 km/h (0 Bft) N-NO 19 ° 0 min 0,000 mm 0,0 UV-I 26 W/m² 15,6 °C 16,6 °C 1,6 km/h (1 Bft)
25.08.2019 18:38 16,6 °C 94 % 1017,4 hPa 0,0 mm 0,0 km/h (0 Bft) N-NO 19 ° 0 min 0,000 mm 0,0 UV-I 28 W/m² 15,6 °C 16,6 °C 0,0 km/h (0 Bft)
25.08.2019 18:39 16,6 °C 94 % 1017,4 hPa 0,0 mm 0,0 km/h (0 Bft) N-NO 19 ° 0 min 0,000 mm 0,0 UV-I 28 W/m² 15,6 °C 16,6 °C 0,0 km/h (0 Bft)
25.08.2019 18:40 16,6 °C 94 % 1017,4 hPa 0,0 mm 0,0 km/h (0 Bft) N-NO 19 ° 0 min 0,000 mm 0,0 UV-I 28 W/m² 15,6 °C 16,6 °C 0,0 km/h (0 Bft)
25.08.2019 18:41 16,6 °C 94 % 1017,4 hPa 0,0 mm 0,0 km/h (0 Bft) N-NO 19 ° 0 min 0,000 mm 0,0 UV-I 28 W/m² 15,6 °C 16,6 °C 0,0 km/h (0 Bft)
25.08.2019 18:42 16,6 °C 95 % 1017,4 hPa 0,0 mm 0,0 km/h (0 Bft) N-NO 19 ° 0 min 0,000 mm 0,0 UV-I 30 W/m² 15,8 °C 16,6 °C 0,0 km/h (0 Bft)
25.08.2019 18:43 16,6 °C 95 % 1017,4 hPa 0,0 mm 0,0 km/h (0 Bft) N-NO 19 ° 0 min 0,000 mm 0,0 UV-I 30 W/m² 15,8 °C 16,6 °C 0,0 km/h (0 Bft)
25.08.2019 18:44 16,6 °C 95 % 1017,4 hPa 0,0 mm 1,7 km/h (1 Bft) NO 42 ° 0 min 0,000 mm 0,0 UV-I 32 W/m² 15,8 °C 16,6 °C 6,4 km/h (2 Bft)
25.08.2019 18:45 16,6 °C 95 % 1017,4 hPa 0,0 mm 0,3 km/h (0 Bft) NO 42 ° 0 min 0,000 mm 0,0 UV-I 32 W/m² 15,8 °C 16,6 °C 1,6 km/h (1 Bft)
25.08.2019 18:46 16,6 °C 95 % 1017,4 hPa 0,0 mm 0,4 km/h (0 Bft) NO 42 ° 0 min 0,000 mm 0,0 UV-I 33 W/m² 15,8 °C 16,6 °C 3,2 km/h (1 Bft)
25.08.2019 18:47 16,6 °C 95 % 1017,4 hPa 0,0 mm 0,4 km/h (0 Bft) NO 42 ° 0 min 0,000 mm 0,0 UV-I 33 W/m² 15,8 °C 16,6 °C 1,6 km/h (1 Bft)
25.08.2019 18:48 16,6 °C 95 % 1017,4 hPa 0,0 mm 0,0 km/h (0 Bft) NO 42 ° 0 min 0,000 mm 0,0 UV-I 35 W/m² 15,8 °C 16,6 °C 0,0 km/h (0 Bft)
25.08.2019 18:49 16,6 °C 95 % 1017,4 hPa 0,0 mm 0,0 km/h (0 Bft) NO 42 ° 0 min 0,000 mm 0,0 UV-I 35 W/m² 15,8 °C 16,6 °C 0,0 km/h (0 Bft)
25.08.2019 18:50 16,6 °C 95 % 1017,4 hPa 0,0 mm 0,0 km/h (0 Bft) NO 42 ° 0 min 0,000 mm 0,0 UV-I 37 W/m² 15,8 °C 16,6 °C 0,0 km/h (0 Bft)
25.08.2019 18:51 16,6 °C 95 % 1017,4 hPa 0,0 mm 0,0 km/h (0 Bft) NO 42 ° 0 min 0,000 mm 0,0 UV-I 37 W/m² 15,8 °C 16,6 °C 0,0 km/h (0 Bft)
25.08.2019 18:52 16,6 °C 95 % 1017,4 hPa 0,0 mm 0,5 km/h (0 Bft) NO 41 ° 0 min 0,000 mm 0,0 UV-I 37 W/m² 15,8 °C 16,6 °C 3,2 km/h (1 Bft)
25.08.2019 18:53 16,6 °C 95 % 1017,4 hPa 0,0 mm 0,0 km/h (0 Bft) NO 41 ° 0 min 0,000 mm 0,0 UV-I 40 W/m² 15,8 °C 16,6 °C 0,0 km/h (0 Bft)
25.08.2019 18:54 16,6 °C 95 % 1017,4 hPa 0,0 mm 0,0 km/h (0 Bft) NO 41 ° 0 min 0,000 mm 0,0 UV-I 42 W/m² 15,8 °C 16,6 °C 0,0 km/h (0 Bft)
25.08.2019 18:55 16,7 °C 95 % 1017,5 hPa 0,0 mm 0,4 km/h (0 Bft) NO 41 ° 0 min 0,000 mm 0,0 UV-I 44 W/m² 15,9 °C 16,7 °C 3,2 km/h (1 Bft)
25.08.2019 18:56 16,7 °C 95 % 1017,4 hPa 0,0 mm 0,5 km/h (0 Bft) NO 41 ° 0 min 0,000 mm 0,0 UV-I 46 W/m² 15,9 °C 16,7 °C 1,6 km/h (1 Bft)
25.08.2019 18:57 16,7 °C 95 % 1017,4 hPa 0,0 mm 0,3 km/h (0 Bft) NO 41 ° 0 min 0,000 mm 0,0 UV-I 47 W/m² 15,9 °C 16,7 °C 1,6 km/h (1 Bft)
25.08.2019 18:58 16,7 °C 95 % 1017,4 hPa 0,0 mm 0,3 km/h (0 Bft) NO 41 ° 0 min 0,000 mm 0,0 UV-I 47 W/m² 15,9 °C 16,7 °C 3,2 km/h (1 Bft)
25.08.2019 18:59 16,6 °C 95 % 1017,4 hPa 0,0 mm 0,2 km/h (0 Bft) NO 41 ° 0 min 0,000 mm 0,0 UV-I 49 W/m² 15,8 °C 16,6 °C 1,6 km/h (1 Bft)
25.08.2019 19:00 16,6 °C 95 % 1017,4 hPa 0,0 mm 0,0 km/h (0 Bft) NO 41 ° 0 min 0,026 mm 0,0 UV-I 51 W/m² 15,8 °C 16,6 °C 0,0 km/h (0 Bft)
25.08.2019 19:01 16,6 °C 95 % 1017,4 hPa 0,2 mm 1,1 km/h (1 Bft) N-NW 331 ° 0 min 0,000 mm 0,0 UV-I 53 W/m² 15,8 °C 16,6 °C 4,8 km/h (1 Bft)
25.08.2019 19:02 16,6 °C 95 % 1017,4 hPa 0,0 mm 0,8 km/h (0 Bft) N-NW 331 ° 0 min 0,000 mm 0,0 UV-I 53 W/m² 15,8 °C 16,6 °C 3,2 km/h (1 Bft)
25.08.2019 19:03 16,6 °C 95 % 1017,4 hPa 0,0 mm 1,4 km/h (1 Bft) N-NW 337 ° 0 min 0,000 mm 0,0 UV-I 54 W/m² 15,8 °C 16,6 °C 4,8 km/h (1 Bft)
25.08.2019 19:04 16,6 °C 95 % 1017,4 hPa 0,0 mm 0,1 km/h (0 Bft) N-NW 338 ° 0 min 0,000 mm 0,0 UV-I 56 W/m² 15,8 °C 16,6 °C 1,6 km/h (1 Bft)
25.08.2019 19:05 16,6 °C 95 % 1017,3 hPa 0,0 mm 0,9 km/h (0 Bft) N-NW 338 ° 0 min 0,000 mm 0,0 UV-I 56 W/m² 15,8 °C 16,6 °C 3,2 km/h (1 Bft)
25.08.2019 19:06 16,6 °C 95 % 1017,3 hPa 0,0 mm 0,8 km/h (0 Bft) N-NO 29 ° 0 min 0,000 mm 0,0 UV-I 58 W/m² 15,8 °C 16,6 °C 1,6 km/h (1 Bft)
25.08.2019 19:07 16,6 °C 95 % 1017,3 hPa 0,0 mm 0,4 km/h (0 Bft) N-NO 29 ° 0 min 0,000 mm 0,0 UV-I 60 W/m² 15,8 °C 16,6 °C 1,6 km/h (1 Bft)
25.08.2019 19:08 16,6 °C 95 % 1017,4 hPa 0,0 mm 0,0 km/h (0 Bft) N-NO 29 ° 0 min 0,000 mm 0,0 UV-I 60 W/m² 15,8 °C 16,6 °C 0,0 km/h (0 Bft)
25.08.2019 19:09 16,5 °C 95 % 1017,3 hPa 0,0 mm 0,0 km/h (0 Bft) N-NO 29 ° 0 min 0,000 mm 0,0 UV-I 62 W/m² 15,7 °C 16,5 °C 0,0 km/h (0 Bft)
25.08.2019 19:10 16,5 °C 95 % 1017,4 hPa 0,0 mm 0,1 km/h (0 Bft) N-NO 28 ° 0 min 0,000 mm 0,0 UV-I 62 W/m² 15,7 °C 16,5 °C 1,6 km/h (1 Bft)
25.08.2019 19:11 16,6 °C 95 % 1017,3 hPa 0,0 mm 0,7 km/h (0 Bft) N-NO 28 ° 0 min 0,000 mm 0,0 UV-I 62 W/m² 15,8 °C 16,6 °C 3,2 km/h (1 Bft)
25.08.2019 19:12 16,6 °C 95 % 1017,3 hPa 0,0 mm 0,2 km/h (0 Bft) N-NO 28 ° 0 min 0,000 mm 0,0 UV-I 65 W/m² 15,8 °C 16,6 °C 1,6 km/h (1 Bft)
25.08.2019 19:13 16,6 °C 95 % 1017,3 hPa 0,0 mm 0,8 km/h (0 Bft) N-NO 28 ° 0 min 0,000 mm 0,0 UV-I 67 W/m² 15,8 °C 16,6 °C 3,2 km/h (1 Bft)
25.08.2019 19:14 16,6 °C 95 % 1017,3 hPa 0,0 mm 0,1 km/h (0 Bft) N-NO 28 ° 0 min 0,000 mm 0,0 UV-I 67 W/m² 15,8 °C 16,6 °C 1,6 km/h (1 Bft)
25.08.2019 19:15 16,6 °C 95 % 1017,3 hPa 0,0 mm 0,0 km/h (0 Bft) N-NO 28 ° 0 min 0,000 mm 0,0 UV-I 67 W/m² 15,8 °C 16,6 °C 0,0 km/h (0 Bft)
25.08.2019 19:16 16,6 °C 95 % 1017,4 hPa 0,0 mm 0,0 km/h (0 Bft) N-NO 28 ° 0 min 0,000 mm 0,0 UV-I 70 W/m² 15,8 °C 16,6 °C 0,0 km/h (0 Bft)
25.08.2019 19:17 16,6 °C 95 % 1017,3 hPa 0,0 mm 0,1 km/h (0 Bft) N-NO 28 ° 0 min 0,000 mm 0,0 UV-I 81 W/m² 15,8 °C 16,6 °C 1,6 km/h (1 Bft)
25.08.2019 19:18 16,6 °C 95 % 1017,3 hPa 0,0 mm 0,0 km/h (0 Bft) N-NO 28 ° 0 min 0,000 mm 0,0 UV-I 79 W/m² 15,8 °C 16,6 °C 0,0 km/h (0 Bft)
25.08.2019 19:19 16,6 °C 95 % 1017,3 hPa 0,0 mm 0,0 km/h (0 Bft) N-NO 28 ° 0 min 0,000 mm 0,0 UV-I 74 W/m² 15,8 °C 16,6 °C 0,0 km/h (0 Bft)
25.08.2019 19:20 16,6 °C 95 % 1017,4 hPa 0,0 mm 0,0 km/h (0 Bft) N-NO 28 ° 0 min 0,000 mm 0,0 UV-I 72 W/m² 15,8 °C 16,6 °C 0,0 km/h (0 Bft)
25.08.2019 19:21 16,7 °C 95 % 1017,4 hPa 0,0 mm 0,4 km/h (0 Bft) N-NO 28 ° 0 min 0,000 mm 0,0 UV-I 72 W/m² 15,9 °C 16,7 °C 3,2 km/h (1 Bft)
25.08.2019 19:22 16,7 °C 95 % 1017,3 hPa 0,0 mm 0,1 km/h (0 Bft) N-NO 28 ° 0 min 0,000 mm 0,0 UV-I 74 W/m² 15,9 °C 16,7 °C 1,6 km/h (1 Bft)
25.08.2019 19:23 16,6 °C 95 % 1017,3 hPa 0,0 mm 0,0 km/h (0 Bft) N-NO 28 ° 0 min 0,000 mm 0,0 UV-I 76 W/m² 15,8 °C 16,6 °C 0,0 km/h (0 Bft)
25.08.2019 19:24 16,7 °C 95 % 1017,3 hPa 0,0 mm 0,0 km/h (0 Bft) N-NO 28 ° 0 min 0,000 mm 0,0 UV-I 76 W/m² 15,9 °C 16,7 °C 0,0 km/h (0 Bft)
25.08.2019 19:25 16,7 °C 95 % 1017,3 hPa 0,0 mm 0,0 km/h (0 Bft) N-NO 28 ° 0 min 0,000 mm 0,0 UV-I 79 W/m² 15,9 °C 16,7 °C 0,0 km/h (0 Bft)
25.08.2019 19:26 16,6 °C 95 % 1017,3 hPa 0,0 mm 0,0 km/h (0 Bft) N-NO 28 ° 0 min 0,000 mm 0,0 UV-I 81 W/m² 15,8 °C 16,6 °C 0,0 km/h (0 Bft)
25.08.2019 19:27 16,6 °C 95 % 1017,3 hPa 0,0 mm 0,2 km/h (0 Bft) N-NO 28 ° 0 min 0,000 mm 0,0 UV-I 79 W/m² 15,8 °C 16,6 °C 1,6 km/h (1 Bft)
25.08.2019 19:28 16,7 °C 95 % 1017,3 hPa 0,0 mm 0,0 km/h (0 Bft) N-NO 28 ° 0 min 0,000 mm 0,0 UV-I 79 W/m² 15,9 °C 16,7 °C 0,0 km/h (0 Bft)
25.08.2019 19:29 16,7 °C 95 % 1017,3 hPa 0,0 mm 0,5 km/h (0 Bft) N-NO 28 ° 0 min 0,000 mm 0,0 UV-I 77 W/m² 15,9 °C 16,7 °C 3,2 km/h (1 Bft)
25.08.2019 19:30 16,7 °C 95 % 1017,3 hPa 0,0 mm 0,0 km/h (0 Bft) N-NO 28 ° 0 min 0,000 mm 0,0 UV-I 77 W/m² 15,9 °C 16,7 °C 0,0 km/h (0 Bft)
25.08.2019 19:31 16,7 °C 95 % 1017,3 hPa 0,0 mm 0,0 km/h (0 Bft) N-NO 28 ° 0 min 0,000 mm 0,0 UV-I 77 W/m² 15,9 °C 16,7 °C 0,0 km/h (0 Bft)
25.08.2019 19:32 16,7 °C 95 % 1017,3 hPa 0,0 mm 0,0 km/h (0 Bft) N-NO 28 ° 0 min 0,000 mm 0,0 UV-I 77 W/m² 15,9 °C 16,7 °C 0,0 km/h (0 Bft)
25.08.2019 19:33 16,7 °C 95 % 1017,3 hPa 0,0 mm 0,0 km/h (0 Bft) N-NO 28 ° 0 min 0,000 mm 0,0 UV-I 76 W/m² 15,9 °C 16,7 °C 0,0 km/h (0 Bft)
25.08.2019 19:34 16,7 °C 95 % 1017,3 hPa 0,0 mm 0,3 km/h (0 Bft) N-NO 28 ° 0 min 0,000 mm 0,0 UV-I 76 W/m² 15,9 °C 16,7 °C 1,6 km/h (1 Bft)
25.08.2019 19:35 16,6 °C 95 % 1017,3 hPa 0,0 mm 0,0 km/h (0 Bft) N-NO 28 ° 0 min 0,000 mm 0,0 UV-I 74 W/m² 15,8 °C 16,6 °C 0,0 km/h (0 Bft)
25.08.2019 19:36 16,6 °C 95 % 1017,3 hPa 0,0 mm 0,0 km/h (0 Bft) N-NO 28 ° 0 min 0,000 mm 0,0 UV-I 74 W/m² 15,8 °C 16,6 °C 0,0 km/h (0 Bft)
25.08.2019 19:37 16,6 °C 95 % 1017,3 hPa 0,0 mm 0,0 km/h (0 Bft) N-NO 28 ° 0 min 0,000 mm 0,0 UV-I 74 W/m² 15,8 °C 16,6 °C 0,0 km/h (0 Bft)
25.08.2019 19:38 16,7 °C 95 % 1017,3 hPa 0,0 mm 1,2 km/h (1 Bft) O-SO 103 ° 0 min 0,000 mm 0,0 UV-I 72 W/m² 15,9 °C 16,7 °C 6,4 km/h (2 Bft)
25.08.2019 19:39 16,6 °C 95 % 1017,3 hPa 0,0 mm 0,0 km/h (0 Bft) O-SO 103 ° 0 min 0,000 mm 0,0 UV-I 72 W/m² 15,8 °C 16,6 °C 0,0 km/h (0 Bft)
25.08.2019 19:40 16,6 °C 95 % 1017,3 hPa 0,0 mm 0,0 km/h (0 Bft) O-SO 103 ° 0 min 0,000 mm 0,0 UV-I 72 W/m² 15,8 °C 16,6 °C 0,0 km/h (0 Bft)
25.08.2019 19:41 16,6 °C 95 % 1017,3 hPa 0,0 mm 0,0 km/h (0 Bft) O-SO 103 ° 0 min 0,000 mm 0,0 UV-I 70 W/m² 15,8 °C 16,6 °C 0,0 km/h (0 Bft)
25.08.2019 19:42 16,6 °C 95 % 1017,4 hPa 0,0 mm 0,0 km/h (0 Bft) O-SO 103 ° 0 min 0,000 mm 0,0 UV-I 69 W/m² 15,8 °C 16,6 °C 0,0 km/h (0 Bft)
25.08.2019 19:43 16,5 °C 95 % 1017,4 hPa 0,0 mm 0,0 km/h (0 Bft) O-SO 103 ° 0 min 0,000 mm 0,0 UV-I 69 W/m² 15,7 °C 16,5 °C 0,0 km/h (0 Bft)
25.08.2019 19:44 16,6 °C 95 % 1017,3 hPa 0,0 mm 0,6 km/h (0 Bft) O-NO 57 ° 0 min 0,000 mm 0,0 UV-I 67 W/m² 15,8 °C 16,6 °C 3,2 km/h (1 Bft)
25.08.2019 19:45 16,5 °C 95 % 1017,3 hPa 0,0 mm 0,0 km/h (0 Bft) O-NO 57 ° 0 min 0,000 mm 0,0 UV-I 67 W/m² 15,7 °C 16,5 °C 0,0 km/h (0 Bft)
25.08.2019 19:46 16,6 °C 95 % 1017,3 hPa 0,0 mm 0,0 km/h (0 Bft) O-NO 57 ° 0 min 0,000 mm 0,0 UV-I 67 W/m² 15,8 °C 16,6 °C 0,0 km/h (0 Bft)
25.08.2019 19:47 16,6 °C 95 % 1017,4 hPa 0,0 mm 0,0 km/h (0 Bft) O-NO 57 ° 0 min 0,000 mm 0,0 UV-I 63 W/m² 15,8 °C 16,6 °C 0,0 km/h (0 Bft)
25.08.2019 19:48 16,6 °C 95 % 1017,4 hPa 0,0 mm 0,0 km/h (0 Bft) O-NO 57 ° 0 min 0,000 mm 0,0 UV-I 62 W/m² 15,8 °C 16,6 °C 0,0 km/h (0 Bft)
25.08.2019 19:49 16,6 °C 95 % 1017,4 hPa 0,0 mm 0,0 km/h (0 Bft) O-NO 57 ° 0 min 0,000 mm 0,0 UV-I 60 W/m² 15,8 °C 16,6 °C 0,0 km/h (0 Bft)
25.08.2019 19:50 16,5 °C 95 % 1017,3 hPa 0,0 mm 0,0 km/h (0 Bft) O-NO 57 ° 0 min 0,000 mm 0,0 UV-I 60 W/m² 15,7 °C 16,5 °C 0,0 km/h (0 Bft)
25.08.2019 19:51 16,5 °C 95 % 1017,3 hPa 0,2 mm 0,0 km/h (0 Bft) O-NO 57 ° 0 min 0,000 mm 0,0 UV-I 58 W/m² 15,7 °C 16,5 °C 0,0 km/h (0 Bft)
25.08.2019 19:52 16,5 °C 95 % 1017,3 hPa 0,0 mm 0,0 km/h (0 Bft) O-NO 57 ° 0 min 0,000 mm 0,0 UV-I 58 W/m² 15,7 °C 16,5 °C 0,0 km/h (0 Bft)
25.08.2019 19:53 16,4 °C 95 % 1017,3 hPa 0,0 mm 0,0 km/h (0 Bft) O-NO 57 ° 0 min 0,000 mm 0,0 UV-I 56 W/m² 15,6 °C 16,4 °C 0,0 km/h (0 Bft)
25.08.2019 19:54 16,4 °C 95 % 1017,4 hPa 0,0 mm 0,0 km/h (0 Bft) O-NO 57 ° 0 min 0,000 mm 0,0 UV-I 56 W/m² 15,6 °C 16,4 °C 0,0 km/h (0 Bft)
25.08.2019 19:55 16,4 °C 95 % 1017,3 hPa 0,0 mm 0,0 km/h (0 Bft) O-NO 57 ° 0 min 0,000 mm 0,0 UV-I 54 W/m² 15,6 °C 16,4 °C 0,0 km/h (0 Bft)
25.08.2019 19:56 16,4 °C 95 % 1017,4 hPa 0,0 mm 0,0 km/h (0 Bft) O-NO 57 ° 0 min 0,000 mm 0,0 UV-I 54 W/m² 15,6 °C 16,4 °C 0,0 km/h (0 Bft)
25.08.2019 19:57 16,4 °C 95 % 1017,4 hPa 0,0 mm 0,0 km/h (0 Bft) O-NO 57 ° 0 min 0,000 mm 0,0 UV-I 53 W/m² 15,6 °C 16,4 °C 0,0 km/h (0 Bft)
25.08.2019 19:58 16,4 °C 95 % 1017,3 hPa 0,0 mm 0,0 km/h (0 Bft) O-NO 57 ° 0 min 0,000 mm 0,0 UV-I 51 W/m² 15,6 °C 16,4 °C 0,0 km/h (0 Bft)
25.08.2019 19:59 16,4 °C 95 % 1017,4 hPa 0,0 mm 0,0 km/h (0 Bft) O-NO 58 ° 0 min 0,000 mm 0,0 UV-I 51 W/m² 15,6 °C 16,4 °C 0,0 km/h (0 Bft)
25.08.2019 20:00 16,4 °C 95 % 1017,4 hPa 0,0 mm 0,0 km/h (0 Bft) O-NO 58 ° 0 min 0,000 mm 0,0 UV-I 49 W/m² 15,6 °C 16,4 °C 0,0 km/h (0 Bft)
25.08.2019 20:01 16,4 °C 95 % 1017,3 hPa 0,0 mm 0,0 km/h (0 Bft) O-NO 58 ° 0 min 0,025 mm 0,0 UV-I 47 W/m² 15,6 °C 16,4 °C 0,0 km/h (0 Bft)
25.08.2019 20:02 16,3 °C 94 % 1017,3 hPa 0,0 mm 0,0 km/h (0 Bft) O-NO 58 ° 0 min 0,000 mm 0,0 UV-I 47 W/m² 15,3 °C 16,3 °C 0,0 km/h (0 Bft)
25.08.2019 20:03 16,4 °C 95 % 1017,3 hPa 0,0 mm 0,0 km/h (0 Bft) O-NO 58 ° 0 min 0,000 mm 0,0 UV-I 46 W/m² 15,6 °C 16,4 °C 0,0 km/h (0 Bft)
25.08.2019 20:04 16,4 °C 95 % 1017,3 hPa 0,0 mm 0,0 km/h (0 Bft) O-NO 58 ° 0 min 0,000 mm 0,0 UV-I 42 W/m² 15,6 °C 16,4 °C 0,0 km/h (0 Bft)
25.08.2019 20:05 16,4 °C 95 % 1017,3 hPa 0,0 mm 0,0 km/h (0 Bft) O-NO 58 ° 0 min 0,000 mm 0,0 UV-I 42 W/m² 15,6 °C 16,4 °C 0,0 km/h (0 Bft)
25.08.2019 20:06 16,3 °C 95 % 1017,3 hPa 0,0 mm 0,0 km/h (0 Bft) O-NO 58 ° 0 min 0,000 mm 0,0 UV-I 40 W/m² 15,5 °C 16,3 °C 0,0 km/h (0 Bft)
25.08.2019 20:07 16,3 °C 95 % 1017,3 hPa 0,0 mm 0,0 km/h (0 Bft) O-NO 58 ° 0 min 0,000 mm 0,0 UV-I 37 W/m² 15,5 °C 16,3 °C 0,0 km/h (0 Bft)
25.08.2019 20:08 16,3 °C 95 % 1017,3 hPa 0,0 mm 0,0 km/h (0 Bft) O-NO 58 ° 0 min 0,000 mm 0,0 UV-I 35 W/m² 15,5 °C 16,3 °C 0,0 km/h (0 Bft)
25.08.2019 20:09 16,3 °C 95 % 1017,3 hPa 0,0 mm 0,0 km/h (0 Bft) O-NO 58 ° 0 min 0,000 mm 0,0 UV-I 33 W/m² 15,5 °C 16,3 °C 0,0 km/h (0 Bft)
25.08.2019 20:10 16,3 °C 95 % 1017,3 hPa 0,0 mm 0,0 km/h (0 Bft) O-NO 58 ° 0 min 0,000 mm 0,0 UV-I 32 W/m² 15,5 °C 16,3 °C 0,0 km/h (0 Bft)
25.08.2019 20:11 16,3 °C 95 % 1017,3 hPa 0,0 mm 0,0 km/h (0 Bft) O-NO 58 ° 0 min 0,000 mm 0,0 UV-I 28 W/m² 15,5 °C 16,3 °C 0,0 km/h (0 Bft)
25.08.2019 20:12 16,3 °C 95 % 1017,4 hPa 0,0 mm 0,0 km/h (0 Bft) O-NO 58 ° 0 min 0,000 mm 0,0 UV-I 26 W/m² 15,5 °C 16,3 °C 0,0 km/h (0 Bft)
25.08.2019 20:13 16,3 °C 95 % 1017,4 hPa 0,0 mm 0,0 km/h (0 Bft) O-NO 58 ° 0 min 0,000 mm 0,0 UV-I 25 W/m² 15,5 °C 16,3 °C 0,0 km/h (0 Bft)
25.08.2019 20:14 16,3 °C 95 % 1017,4 hPa 0,0 mm 0,0 km/h (0 Bft) O-NO 58 ° 0 min 0,000 mm 0,0 UV-I 23 W/m² 15,5 °C 16,3 °C 0,0 km/h (0 Bft)
25.08.2019 20:15 16,3 °C 95 % 1017,4 hPa 0,0 mm 0,0 km/h (0 Bft) O-NO 58 ° 0 min 0,000 mm 0,0 UV-I 21 W/m² 15,5 °C 16,3 °C 0,0 km/h (0 Bft)
25.08.2019 20:16 16,3 °C 95 % 1017,5 hPa 0,0 mm 0,0 km/h (0 Bft) O-NO 58 ° 0 min 0,000 mm 0,0 UV-I 16 W/m² 15,5 °C 16,3 °C 0,0 km/h (0 Bft)
25.08.2019 20:17 16,3 °C 95 % 1017,4 hPa 0,0 mm 0,0 km/h (0 Bft) O-NO 58 ° 0 min 0,000 mm 0,0 UV-I 14 W/m² 15,5 °C 16,3 °C 0,0 km/h (0 Bft)
25.08.2019 20:18 16,3 °C 95 % 1017,5 hPa 0,0 mm 0,0 km/h (0 Bft) O-NO 58 ° 0 min 0,000 mm 0,0 UV-I 12 W/m² 15,5 °C 16,3 °C 0,0 km/h (0 Bft)
25.08.2019 20:19 16,3 °C 95 % 1017,5 hPa 0,0 mm 0,3 km/h (0 Bft) O-NO 58 ° 0 min 0,000 mm 0,0 UV-I 11 W/m² 15,5 °C 16,3 °C 1,6 km/h (1 Bft)
25.08.2019 20:20 16,3 °C 95 % 1017,5 hPa 0,0 mm 0,4 km/h (0 Bft) O-NO 58 ° 0 min 0,000 mm 0,0 UV-I 9 W/m² 15,5 °C 16,3 °C 1,6 km/h (1 Bft)
25.08.2019 20:21 16,3 °C 95 % 1017,5 hPa 0,0 mm 0,0 km/h (0 Bft) O-NO 58 ° 0 min 0,000 mm 0,0 UV-I 7 W/m² 15,5 °C 16,3 °C 0,0 km/h (0 Bft)
25.08.2019 20:22 16,3 °C 95 % 1017,5 hPa 0,0 mm 0,0 km/h (0 Bft) O-NO 58 ° 0 min 0,000 mm 0,0 UV-I 5 W/m² 15,5 °C 16,3 °C 0,0 km/h (0 Bft)
25.08.2019 20:23 16,3 °C 95 % 1017,5 hPa 0,0 mm 0,0 km/h (0 Bft) O-NO 58 ° 0 min 0,000 mm 0,0 UV-I 5 W/m² 15,5 °C 16,3 °C 0,0 km/h (0 Bft)
25.08.2019 20:24 16,3 °C 95 % 1017,5 hPa 0,0 mm 0,0 km/h (0 Bft) O-NO 58 ° 0 min 0,000 mm 0,0 UV-I 0 W/m² 15,5 °C 16,3 °C 0,0 km/h (0 Bft)
25.08.2019 20:25 16,2 °C 95 % 1017,5 hPa 0,0 mm 0,0 km/h (0 Bft) O-NO 58 ° 0 min 0,000 mm 0,0 UV-I 0 W/m² 15,4 °C 16,2 °C 0,0 km/h (0 Bft)
25.08.2019 20:26 16,2 °C 95 % 1017,5 hPa 0,0 mm 0,0 km/h (0 Bft) O-NO 58 ° 0 min 0,000 mm 0,0 UV-I 0 W/m² 15,4 °C 16,2 °C 0,0 km/h (0 Bft)
25.08.2019 20:27 16,2 °C 95 % 1017,5 hPa 0,0 mm 0,0 km/h (0 Bft) O-NO 58 ° 0 min 0,000 mm 0,0 UV-I 0 W/m² 15,4 °C 16,2 °C 0,0 km/h (0 Bft)
25.08.2019 20:28 16,2 °C 95 % 1017,5 hPa 0,0 mm 0,0 km/h (0 Bft) O-NO 58 ° 0 min 0,000 mm 0,0 UV-I 0 W/m² 15,4 °C 16,2 °C 0,0 km/h (0 Bft)
25.08.2019 20:29 16,2 °C 95 % 1017,5 hPa 0,0 mm 0,1 km/h (0 Bft) O-NO 58 ° 0 min 0,000 mm 0,0 UV-I 0 W/m² 15,4 °C 16,2 °C 1,6 km/h (1 Bft)
25.08.2019 20:30 16,2 °C 95 % 1017,5 hPa 0,0 mm 0,3 km/h (0 Bft) O-NO 58 ° 0 min 0,000 mm 0,0 UV-I 0 W/m² 15,4 °C 16,2 °C 1,6 km/h (1 Bft)
25.08.2019 20:31 16,2 °C 95 % 1017,5 hPa 0,0 mm 0,0 km/h (0 Bft) O-NO 58 ° 0 min 0,000 mm 0,0 UV-I 0 W/m² 15,4 °C 16,2 °C 0,0 km/h (0 Bft)
25.08.2019 20:32 16,1 °C 95 % 1017,5 hPa 0,0 mm 0,8 km/h (0 Bft) O-NO 58 ° 0 min 0,000 mm 0,0 UV-I 0 W/m² 15,3 °C 16,1 °C 3,2 km/h (1 Bft)
25.08.2019 20:33 16,2 °C 95 % 1017,6 hPa 0,0 mm 2,0 km/h (1 Bft) S-SW 212 ° 0 min 0,000 mm 0,0 UV-I 0 W/m² 15,4 °C 16,2 °C 4,8 km/h (1 Bft)
25.08.2019 20:34 16,1 °C 95 % 1017,5 hPa 0,0 mm 0,5 km/h (0 Bft) S-SW 205 ° 0 min 0,000 mm 0,0 UV-I 0 W/m² 15,3 °C 16,1 °C 3,2 km/h (1 Bft)
25.08.2019 20:35 16,1 °C 95 % 1017,6 hPa 0,0 mm 0,0 km/h (0 Bft) S-SW 205 ° 0 min 0,000 mm 0,0 UV-I 0 W/m² 15,3 °C 16,1 °C 0,0 km/h (0 Bft)
25.08.2019 20:36 16,1 °C 95 % 1017,6 hPa 0,0 mm 0,1 km/h (0 Bft) N-NW 344 ° 0 min 0,000 mm 0,0 UV-I 0 W/m² 15,3 °C 16,1 °C 1,6 km/h (1 Bft)
25.08.2019 20:37 16,1 °C 95 % 1017,6 hPa 0,0 mm 0,0 km/h (0 Bft) N-NW 346 ° 0 min 0,000 mm 0,0 UV-I 0 W/m² 15,3 °C 16,1 °C 0,0 km/h (0 Bft)
25.08.2019 20:38 16,1 °C 95 % 1017,6 hPa 0,0 mm 0,0 km/h (0 Bft) O-SO 123 ° 0 min 0,000 mm 0,0 UV-I 0 W/m² 15,3 °C 16,1 °C 0,0 km/h (0 Bft)
25.08.2019 20:39 16,1 °C 95 % 1017,7 hPa 0,0 mm 0,0 km/h (0 Bft) O-SO 123 ° 0 min 0,000 mm 0,0 UV-I 0 W/m² 15,3 °C 16,1 °C 0,0 km/h (0 Bft)
25.08.2019 20:40 16,1 °C 95 % 1017,7 hPa 0,0 mm 0,0 km/h (0 Bft) O-SO 123 ° 0 min 0,000 mm 0,0 UV-I 0 W/m² 15,3 °C 16,1 °C 0,0 km/h (0 Bft)
25.08.2019 20:41 16,1 °C 95 % 1017,7 hPa 0,0 mm 0,0 km/h (0 Bft) O 92 ° 0 min 0,000 mm 0,0 UV-I 0 W/m² 15,3 °C 16,1 °C 0,0 km/h (0 Bft)
25.08.2019 20:42 16,1 °C 95 % 1017,8 hPa 0,0 mm 0,0 km/h (0 Bft) O 92 ° 0 min 0,000 mm 0,0 UV-I 0 W/m² 15,3 °C 16,1 °C 0,0 km/h (0 Bft)
25.08.2019 20:43 16,1 °C 95 % 1017,8 hPa 0,0 mm 0,0 km/h (0 Bft) O 92 ° 0 min 0,000 mm 0,0 UV-I 0 W/m² 15,3 °C 16,1 °C 0,0 km/h (0 Bft)
25.08.2019 20:44 16,1 °C 95 % 1017,8 hPa 0,0 mm 0,0 km/h (0 Bft) N-NW 346 ° 0 min 0,000 mm 0,0 UV-I 0 W/m² 15,3 °C 16,1 °C 0,0 km/h (0 Bft)
25.08.2019 20:45 16,1 °C 95 % 1017,8 hPa 0,0 mm 0,0 km/h (0 Bft) W-SW 248 ° 0 min 0,000 mm 0,0 UV-I 0 W/m² 15,3 °C 16,1 °C 0,0 km/h (0 Bft)
25.08.2019 20:46 16,1 °C 95 % 1017,8 hPa 0,0 mm 0,0 km/h (0 Bft) W-SW 248 ° 0 min 0,000 mm 0,0 UV-I 0 W/m² 15,3 °C 16,1 °C 0,0 km/h (0 Bft)
25.08.2019 20:47 16,1 °C 95 % 1017,8 hPa 0,0 mm 0,0 km/h (0 Bft) W 263 ° 0 min 0,000 mm 0,0 UV-I 0 W/m² 15,3 °C 16,1 °C 0,0 km/h (0 Bft)
25.08.2019 20:48 16,1 °C 95 % 1017,8 hPa 0,0 mm 0,0 km/h (0 Bft) W 263 ° 0 min 0,000 mm 0,0 UV-I 0 W/m² 15,3 °C 16,1 °C 0,0 km/h (0 Bft)
25.08.2019 20:49 16,1 °C 95 % 1017,8 hPa 0,0 mm 0,0 km/h (0 Bft) SO 132 ° 0 min 0,000 mm 0,0 UV-I 0 W/m² 15,3 °C 16,1 °C 0,0 km/h (0 Bft)
25.08.2019 20:50 16,1 °C 95 % 1017,8 hPa 0,0 mm 0,0 km/h (0 Bft) N-NO 13 ° 0 min 0,000 mm 0,0 UV-I 0 W/m² 15,3 °C 16,1 °C 0,0 km/h (0 Bft)
25.08.2019 20:51 16,1 °C 95 % 1017,9 hPa 0,0 mm 0,0 km/h (0 Bft) N-NO 13 ° 0 min 0,000 mm 0,0 UV-I 0 W/m² 15,3 °C 16,1 °C 0,0 km/h (0 Bft)
25.08.2019 20:52 16,1 °C 95 % 1017,9 hPa 0,0 mm 0,0 km/h (0 Bft) N-NO 13 ° 0 min 0,000 mm 0,0 UV-I 0 W/m² 15,3 °C 16,1 °C 0,0 km/h (0 Bft)
25.08.2019 20:53 16,1 °C 95 % 1017,9 hPa 0,0 mm 0,0 km/h (0 Bft) N-NO 13 ° 0 min 0,000 mm 0,0 UV-I 0 W/m² 15,3 °C 16,1 °C 0,0 km/h (0 Bft)
25.08.2019 20:54 16,1 °C 95 % 1017,9 hPa 0,0 mm 0,0 km/h (0 Bft) N-NO 13 ° 0 min 0,000 mm 0,0 UV-I 0 W/m² 15,3 °C 16,1 °C 0,0 km/h (0 Bft)
25.08.2019 20:55 16,1 °C 95 % 1017,9 hPa 0,0 mm 0,0 km/h (0 Bft) N-NO 13 ° 0 min 0,000 mm 0,0 UV-I 0 W/m² 15,3 °C 16,1 °C 0,0 km/h (0 Bft)
25.08.2019 20:56 16,1 °C 95 % 1017,9 hPa 0,2 mm 0,0 km/h (0 Bft) N-NO 13 ° 0 min 0,000 mm 0,0 UV-I 0 W/m² 15,3 °C 16,1 °C 0,0 km/h (0 Bft)
25.08.2019 20:57 16,1 °C 95 % 1017,9 hPa 0,0 mm 0,0 km/h (0 Bft) N-NO 13 ° 0 min 0,000 mm 0,0 UV-I 0 W/m² 15,3 °C 16,1 °C 0,0 km/h (0 Bft)
25.08.2019 20:58 16,1 °C 95 % 1017,9 hPa 0,0 mm 0,0 km/h (0 Bft) N-NO 13 ° 0 min 0,000 mm 0,0 UV-I 0 W/m² 15,3 °C 16,1 °C 0,0 km/h (0 Bft)
25.08.2019 20:59 16,1 °C 95 % 1017,9 hPa 0,0 mm 0,0 km/h (0 Bft) N-NO 13 ° 0 min 0,000 mm 0,0 UV-I 0 W/m² 15,3 °C 16,1 °C 0,0 km/h (0 Bft)
25.08.2019 21:00 16,1 °C 95 % 1017,9 hPa 0,0 mm 0,0 km/h (0 Bft) N-NO 13 ° 0 min 0,000 mm 0,0 UV-I 0 W/m² 15,3 °C 16,1 °C 0,0 km/h (0 Bft)
25.08.2019 21:01 16,1 °C 95 % 1017,9 hPa 0,0 mm 0,0 km/h (0 Bft) N-NO 13 ° 0 min 0,000 mm 0,0 UV-I 0 W/m² 15,3 °C 16,1 °C 0,0 km/h (0 Bft)
25.08.2019 21:02 16,1 °C 95 % 1017,9 hPa 0,0 mm 0,0 km/h (0 Bft) N-NO 13 ° 0 min 0,000 mm 0,0 UV-I 0 W/m² 15,3 °C 16,1 °C 0,0 km/h (0 Bft)
25.08.2019 21:03 16,2 °C 95 % 1017,9 hPa 0,0 mm 0,4 km/h (0 Bft) N-NW 339 ° 0 min 0,000 mm 0,0 UV-I 0 W/m² 15,4 °C 16,2 °C 3,2 km/h (1 Bft)
25.08.2019 21:04 16,2 °C 95 % 1017,9 hPa 0,0 mm 0,9 km/h (0 Bft) N-NW 342 ° 0 min 0,000 mm 0,0 UV-I 0 W/m² 15,4 °C 16,2 °C 3,2 km/h (1 Bft)
25.08.2019 21:05 16,1 °C 95 % 1017,8 hPa 0,0 mm 0,0 km/h (0 Bft) N-NW 342 ° 0 min 0,000 mm 0,0 UV-I 0 W/m² 15,3 °C 16,1 °C 0,0 km/h (0 Bft)
25.08.2019 21:06 16,1 °C 94 % 1017,8 hPa 0,0 mm 0,0 km/h (0 Bft) N-NW 342 ° 0 min 0,000 mm 0,0 UV-I 0 W/m² 15,1 °C 16,1 °C 0,0 km/h (0 Bft)
25.08.2019 21:07 16,2 °C 95 % 1017,8 hPa 0,0 mm 0,1 km/h (0 Bft) N-NW 338 ° 0 min 0,000 mm 0,0 UV-I 0 W/m² 15,4 °C 16,2 °C 1,6 km/h (1 Bft)
25.08.2019 21:08 16,1 °C 95 % 1017,8 hPa 0,0 mm 3,8 km/h (1 Bft) W-SW 256 ° 0 min 0,000 mm 0,0 UV-I 0 W/m² 15,3 °C 16,1 °C 9,7 km/h (2 Bft)
25.08.2019 21:09 16,2 °C 94 % 1017,8 hPa 0,0 mm 0,3 km/h (0 Bft) W-SW 257 ° 0 min 0,000 mm 0,0 UV-I 0 W/m² 15,2 °C 16,2 °C 1,6 km/h (1 Bft)
25.08.2019 21:10 16,2 °C 94 % 1017,8 hPa 0,0 mm 0,0 km/h (0 Bft) W-SW 257 ° 0 min 0,000 mm 0,0 UV-I 0 W/m² 15,2 °C 16,2 °C 0,0 km/h (0 Bft)
25.08.2019 21:11 16,2 °C 94 % 1017,8 hPa 0,0 mm 1,5 km/h (1 Bft) N-NW 331 ° 0 min 0,000 mm 0,0 UV-I 0 W/m² 15,2 °C 16,2 °C 4,8 km/h (1 Bft)
25.08.2019 21:12 16,2 °C 94 % 1017,7 hPa 0,0 mm 0,1 km/h (0 Bft) N-NW 336 ° 0 min 0,000 mm 0,0 UV-I 0 W/m² 15,2 °C 16,2 °C 1,6 km/h (1 Bft)
25.08.2019 21:13 16,2 °C 94 % 1017,8 hPa 0,0 mm 0,0 km/h (0 Bft) N-NW 336 ° 0 min 0,000 mm 0,0 UV-I 0 W/m² 15,2 °C 16,2 °C 0,0 km/h (0 Bft)
25.08.2019 21:14 16,1 °C 94 % 1017,7 hPa 0,0 mm 0,3 km/h (0 Bft) N-NW 336 ° 0 min 0,000 mm 0,0 UV-I 0 W/m² 15,1 °C 16,1 °C 1,6 km/h (1 Bft)
25.08.2019 21:15 16,1 °C 94 % 1017,7 hPa 0,0 mm 0,0 km/h (0 Bft) N-NW 336 ° 0 min 0,000 mm 0,0 UV-I 0 W/m² 15,1 °C 16,1 °C 0,0 km/h (0 Bft)
25.08.2019 21:16 16,1 °C 94 % 1017,7 hPa 0,0 mm 0,0 km/h (0 Bft) N-NW 336 ° 0 min 0,000 mm 0,0 UV-I 0 W/m² 15,1 °C 16,1 °C 0,0 km/h (0 Bft)
25.08.2019 21:17 16,1 °C 95 % 1017,8 hPa 0,0 mm 0,0 km/h (0 Bft) N-NW 336 ° 0 min 0,000 mm 0,0 UV-I 0 W/m² 15,3 °C 16,1 °C 0,0 km/h (0 Bft)
25.08.2019 21:18 16,1 °C 94 % 1017,7 hPa 0,0 mm 0,0 km/h (0 Bft) N-NW 336 ° 0 min 0,000 mm 0,0 UV-I 0 W/m² 15,1 °C 16,1 °C 0,0 km/h (0 Bft)
25.08.2019 21:19 16,0 °C 94 % 1017,7 hPa 0,0 mm 0,0 km/h (0 Bft) N-NW 336 ° 0 min 0,000 mm 0,0 UV-I 0 W/m² 15,0 °C 16,0 °C 0,0 km/h (0 Bft)
25.08.2019 21:20 16,0 °C 94 % 1017,7 hPa 0,0 mm 0,0 km/h (0 Bft) N-NW 336 ° 0 min 0,000 mm 0,0 UV-I 0 W/m² 15,0 °C 16,0 °C 0,0 km/h (0 Bft)
25.08.2019 21:21 15,9 °C 94 % 1017,7 hPa 0,0 mm 0,0 km/h (0 Bft) N-NW 336 ° 0 min 0,000 mm 0,0 UV-I 0 W/m² 14,9 °C 15,9 °C 0,0 km/h (0 Bft)
25.08.2019 21:22 15,9 °C 95 % 1017,7 hPa 0,0 mm 0,0 km/h (0 Bft) N-NW 336 ° 0 min 0,000 mm 0,0 UV-I 0 W/m² 15,1 °C 15,9 °C 0,0 km/h (0 Bft)
25.08.2019 21:23 15,9 °C 94 % 1017,7 hPa 0,0 mm 0,0 km/h (0 Bft) N-NW 336 ° 0 min 0,000 mm 0,0 UV-I 0 W/m² 14,9 °C 15,9 °C 0,0 km/h (0 Bft)
25.08.2019 21:24 15,9 °C 94 % 1017,7 hPa 0,0 mm 0,0 km/h (0 Bft) N-NW 336 ° 0 min 0,000 mm 0,0 UV-I 0 W/m² 14,9 °C 15,9 °C 0,0 km/h (0 Bft)
25.08.2019 21:25 15,9 °C 94 % 1017,8 hPa 0,0 mm 0,0 km/h (0 Bft) N-NW 336 ° 0 min 0,000 mm 0,0 UV-I 0 W/m² 14,9 °C 15,9 °C 0,0 km/h (0 Bft)
25.08.2019 21:26 15,9 °C 94 % 1017,7 hPa 0,0 mm 0,0 km/h (0 Bft) N-NW 336 ° 0 min 0,000 mm 0,0 UV-I 0 W/m² 14,9 °C 15,9 °C 0,0 km/h (0 Bft)
25.08.2019 21:27 15,9 °C 94 % 1017,7 hPa 0,0 mm 0,0 km/h (0 Bft) N-NW 336 ° 0 min 0,000 mm 0,0 UV-I 0 W/m² 14,9 °C 15,9 °C 0,0 km/h (0 Bft)
25.08.2019 21:28 15,9 °C 94 % 1017,7 hPa 0,0 mm 0,0 km/h (0 Bft) N-NW 336 ° 0 min 0,000 mm 0,0 UV-I 0 W/m² 14,9 °C 15,9 °C 0,0 km/h (0 Bft)
25.08.2019 21:29 15,9 °C 95 % 1017,8 hPa 0,0 mm 0,0 km/h (0 Bft) N-NW 336 ° 0 min 0,000 mm 0,0 UV-I 0 W/m² 15,1 °C 15,9 °C 0,0 km/h (0 Bft)
25.08.2019 21:30 15,9 °C 95 % 1017,7 hPa 0,0 mm 0,0 km/h (0 Bft) N-NW 336 ° 0 min 0,000 mm 0,0 UV-I 0 W/m² 15,1 °C 15,9 °C 0,0 km/h (0 Bft)
25.08.2019 21:31 15,8 °C 95 % 1017,7 hPa 0,0 mm 0,0 km/h (0 Bft) N-NW 336 ° 0 min 0,000 mm 0,0 UV-I 0 W/m² 15,0 °C 15,8 °C 0,0 km/h (0 Bft)
25.08.2019 21:32 15,9 °C 95 % 1017,7 hPa 0,0 mm 0,0 km/h (0 Bft) N-NW 336 ° 0 min 0,000 mm 0,0 UV-I 0 W/m² 15,1 °C 15,9 °C 0,0 km/h (0 Bft)
25.08.2019 21:33 15,8 °C 95 % 1017,7 hPa 0,0 mm 0,0 km/h (0 Bft) N-NW 336 ° 0 min 0,000 mm 0,0 UV-I 0 W/m² 15,0 °C 15,8 °C 0,0 km/h (0 Bft)
25.08.2019 21:34 15,8 °C 95 % 1017,7 hPa 0,0 mm 0,0 km/h (0 Bft) N-NW 336 ° 0 min 0,000 mm 0,0 UV-I 0 W/m² 15,0 °C 15,8 °C 0,0 km/h (0 Bft)
25.08.2019 21:35 15,9 °C 95 % 1017,7 hPa 0,0 mm 0,0 km/h (0 Bft) N-NW 336 ° 0 min 0,000 mm 0,0 UV-I 0 W/m² 15,1 °C 15,9 °C 0,0 km/h (0 Bft)
25.08.2019 21:36 15,9 °C 95 % 1017,7 hPa 0,0 mm 0,0 km/h (0 Bft) N-NW 336 ° 0 min 0,000 mm 0,0 UV-I 0 W/m² 15,1 °C 15,9 °C 0,0 km/h (0 Bft)
25.08.2019 21:37 15,9 °C 95 % 1017,8 hPa 0,0 mm 0,0 km/h (0 Bft) N-NW 336 ° 0 min 0,000 mm 0,0 UV-I 0 W/m² 15,1 °C 15,9 °C 0,0 km/h (0 Bft)
25.08.2019 21:38 15,9 °C 95 % 1017,8 hPa 0,0 mm 0,0 km/h (0 Bft) N-NW 336 ° 0 min 0,000 mm 0,0 UV-I 0 W/m² 15,1 °C 15,9 °C 0,0 km/h (0 Bft)
25.08.2019 21:39 15,9 °C 95 % 1017,8 hPa 0,0 mm 0,0 km/h (0 Bft) N-NW 336 ° 0 min 0,000 mm 0,0 UV-I 0 W/m² 15,1 °C 15,9 °C 0,0 km/h (0 Bft)
25.08.2019 21:40 15,9 °C 95 % 1017,8 hPa 0,0 mm 0,0 km/h (0 Bft) N-NW 336 ° 0 min 0,000 mm 0,0 UV-I 0 W/m² 15,1 °C 15,9 °C 0,0 km/h (0 Bft)
25.08.2019 21:41 15,9 °C 95 % 1017,8 hPa 0,0 mm 0,0 km/h (0 Bft) N-NW 336 ° 0 min 0,000 mm 0,0 UV-I 0 W/m² 15,1 °C 15,9 °C 0,0 km/h (0 Bft)
25.08.2019 21:42 15,9 °C 95 % 1017,8 hPa 0,0 mm 0,0 km/h (0 Bft) N-NW 336 ° 0 min 0,000 mm 0,0 UV-I 0 W/m² 15,1 °C 15,9 °C 0,0 km/h (0 Bft)
25.08.2019 21:43 15,9 °C 94 % 1017,8 hPa 0,0 mm 0,0 km/h (0 Bft) N-NW 336 ° 0 min 0,000 mm 0,0 UV-I 0 W/m² 14,9 °C 15,9 °C 0,0 km/h (0 Bft)
25.08.2019 21:44 15,9 °C 95 % 1017,8 hPa 0,0 mm 0,0 km/h (0 Bft) N-NW 336 ° 0 min 0,000 mm 0,0 UV-I 0 W/m² 15,1 °C 15,9 °C 0,0 km/h (0 Bft)
25.08.2019 21:45 15,8 °C 95 % 1017,8 hPa 0,0 mm 0,0 km/h (0 Bft) N-NW 336 ° 0 min 0,000 mm 0,0 UV-I 0 W/m² 15,0 °C 15,8 °C 0,0 km/h (0 Bft)
25.08.2019 21:46 15,8 °C 94 % 1017,8 hPa 0,0 mm 0,0 km/h (0 Bft) N-NW 336 ° 0 min 0,000 mm 0,0 UV-I 0 W/m² 14,8 °C 15,8 °C 0,0 km/h (0 Bft)
25.08.2019 21:47 15,8 °C 95 % 1017,8 hPa 0,0 mm 0,0 km/h (0 Bft) N-NW 336 ° 0 min 0,000 mm 0,0 UV-I 0 W/m² 15,0 °C 15,8 °C 0,0 km/h (0 Bft)
25.08.2019 21:48 15,8 °C 95 % 1017,8 hPa 0,0 mm 0,0 km/h (0 Bft) N-NW 336 ° 0 min 0,000 mm 0,0 UV-I 0 W/m² 15,0 °C 15,8 °C 0,0 km/h (0 Bft)
25.08.2019 21:49 15,8 °C 95 % 1017,8 hPa 0,0 mm 0,0 km/h (0 Bft) N-NW 336 ° 0 min 0,000 mm 0,0 UV-I 0 W/m² 15,0 °C 15,8 °C 0,0 km/h (0 Bft)
25.08.2019 21:50 15,8 °C 95 % 1017,8 hPa 0,0 mm 0,0 km/h (0 Bft) N-NW 336 ° 0 min 0,000 mm 0,0 UV-I 0 W/m² 15,0 °C 15,8 °C 0,0 km/h (0 Bft)
25.08.2019 21:51 15,8 °C 95 % 1017,8 hPa 0,0 mm 0,0 km/h (0 Bft) N-NW 336 ° 0 min 0,000 mm 0,0 UV-I 0 W/m² 15,0 °C 15,8 °C 0,0 km/h (0 Bft)
25.08.2019 21:52 15,8 °C 95 % 1017,8 hPa 0,0 mm 0,0 km/h (0 Bft) N-NW 336 ° 0 min 0,000 mm 0,0 UV-I 0 W/m² 15,0 °C 15,8 °C 0,0 km/h (0 Bft)
25.08.2019 21:53 15,8 °C 95 % 1017,9 hPa 0,0 mm 0,0 km/h (0 Bft) N-NW 336 ° 0 min 0,000 mm 0,0 UV-I 0 W/m² 15,0 °C 15,8 °C 0,0 km/h (0 Bft)
25.08.2019 21:54 15,8 °C 95 % 1017,9 hPa 0,0 mm 0,0 km/h (0 Bft) N-NW 336 ° 0 min 0,000 mm 0,0 UV-I 0 W/m² 15,0 °C 15,8 °C 0,0 km/h (0 Bft)
25.08.2019 21:55 15,7 °C 95 % 1017,9 hPa 0,0 mm 0,0 km/h (0 Bft) N-NW 336 ° 0 min 0,000 mm 0,0 UV-I 0 W/m² 14,9 °C 15,7 °C 0,0 km/h (0 Bft)
25.08.2019 21:56 15,7 °C 95 % 1017,9 hPa 0,0 mm 0,0 km/h (0 Bft) N-NW 336 ° 0 min 0,000 mm 0,0 UV-I 0 W/m² 14,9 °C 15,7 °C 0,0 km/h (0 Bft)
25.08.2019 21:57 15,7 °C 95 % 1017,8 hPa 0,0 mm 0,0 km/h (0 Bft) N-NW 336 ° 0 min 0,000 mm 0,0 UV-I 0 W/m² 14,9 °C 15,7 °C 0,0 km/h (0 Bft)
25.08.2019 21:58 15,7 °C 95 % 1017,8 hPa 0,0 mm 0,0 km/h (0 Bft) N-NW 336 ° 0 min 0,000 mm 0,0 UV-I 0 W/m² 14,9 °C 15,7 °C 0,0 km/h (0 Bft)
25.08.2019 21:59 15,7 °C 95 % 1017,9 hPa 0,0 mm 0,0 km/h (0 Bft) N-NW 336 ° 0 min 0,000 mm 0,0 UV-I 0 W/m² 14,9 °C 15,7 °C 0,0 km/h (0 Bft)
25.08.2019 22:00 15,7 °C 95 % 1017,9 hPa 0,0 mm 0,0 km/h (0 Bft) N-NW 336 ° 0 min 0,000 mm 0,0 UV-I 0 W/m² 14,9 °C 15,7 °C 0,0 km/h (0 Bft)
25.08.2019 22:01 15,7 °C 95 % 1017,8 hPa 0,0 mm 0,0 km/h (0 Bft) N-NW 336 ° 0 min 0,000 mm 0,0 UV-I 0 W/m² 14,9 °C 15,7 °C 0,0 km/h (0 Bft)
25.08.2019 22:02 15,7 °C 95 % 1017,8 hPa 0,0 mm 0,2 km/h (0 Bft) N-NW 336 ° 0 min 0,000 mm 0,0 UV-I 0 W/m² 14,9 °C 15,7 °C 1,6 km/h (1 Bft)
25.08.2019 22:03 15,7 °C 95 % 1017,8 hPa 0,2 mm 0,0 km/h (0 Bft) N-NW 336 ° 0 min 0,000 mm 0,0 UV-I 0 W/m² 14,9 °C 15,7 °C 0,0 km/h (0 Bft)
25.08.2019 22:04 15,7 °C 95 % 1017,8 hPa 0,0 mm 0,0 km/h (0 Bft) N-NW 336 ° 0 min 0,000 mm 0,0 UV-I 0 W/m² 14,9 °C 15,7 °C 0,0 km/h (0 Bft)
25.08.2019 22:05 15,7 °C 95 % 1017,7 hPa 0,0 mm 0,0 km/h (0 Bft) N-NW 336 ° 0 min 0,000 mm 0,0 UV-I 0 W/m² 14,9 °C 15,7 °C 0,0 km/h (0 Bft)
25.08.2019 22:06 15,7 °C 95 % 1017,8 hPa 0,0 mm 0,0 km/h (0 Bft) N-NW 336 ° 0 min 0,000 mm 0,0 UV-I 0 W/m² 14,9 °C 15,7 °C 0,0 km/h (0 Bft)
25.08.2019 22:07 15,7 °C 95 % 1017,7 hPa 0,0 mm 0,0 km/h (0 Bft) N-NW 336 ° 0 min 0,000 mm 0,0 UV-I 0 W/m² 14,9 °C 15,7 °C 0,0 km/h (0 Bft)
25.08.2019 22:08 15,7 °C 95 % 1017,7 hPa 0,0 mm 0,0 km/h (0 Bft) N-NW 336 ° 0 min 0,000 mm 0,0 UV-I 0 W/m² 14,9 °C 15,7 °C 0,0 km/h (0 Bft)
25.08.2019 22:09 15,7 °C 95 % 1017,8 hPa 0,0 mm 0,0 km/h (0 Bft) N-NW 336 ° 0 min 0,000 mm 0,0 UV-I 0 W/m² 14,9 °C 15,7 °C 0,0 km/h (0 Bft)
25.08.2019 22:10 15,7 °C 95 % 1017,8 hPa 0,0 mm 0,5 km/h (0 Bft) NW 325 ° 0 min 0,000 mm 0,0 UV-I 0 W/m² 14,9 °C 15,7 °C 3,2 km/h (1 Bft)
25.08.2019 22:11 15,7 °C 95 % 1017,8 hPa 0,0 mm 0,6 km/h (0 Bft) W 281 ° 0 min 0,000 mm 0,0 UV-I 0 W/m² 14,9 °C 15,7 °C 3,2 km/h (1 Bft)
25.08.2019 22:12 15,7 °C 95 % 1017,8 hPa 0,0 mm 0,0 km/h (0 Bft) W 281 ° 0 min 0,000 mm 0,0 UV-I 0 W/m² 14,9 °C 15,7 °C 0,0 km/h (0 Bft)
25.08.2019 22:13 15,7 °C 95 % 1017,8 hPa 0,0 mm 0,0 km/h (0 Bft) W 281 ° 0 min 0,000 mm 0,0 UV-I 0 W/m² 14,9 °C 15,7 °C 0,0 km/h (0 Bft)
25.08.2019 22:14 15,7 °C 95 % 1017,8 hPa 0,0 mm 0,0 km/h (0 Bft) W 281 ° 0 min 0,000 mm 0,0 UV-I 0 W/m² 14,9 °C 15,7 °C 0,0 km/h (0 Bft)
25.08.2019 22:15 15,7 °C 95 % 1017,8 hPa 0,0 mm 0,3 km/h (0 Bft) SW 215 ° 0 min 0,000 mm 0,0 UV-I 0 W/m² 14,9 °C 15,7 °C 3,2 km/h (1 Bft)
25.08.2019 22:16 15,7 °C 95 % 1017,8 hPa 0,0 mm 0,2 km/h (0 Bft) S-SW 213 ° 0 min 0,000 mm 0,0 UV-I 0 W/m² 14,9 °C 15,7 °C 1,6 km/h (1 Bft)
25.08.2019 22:17 15,7 °C 95 % 1017,9 hPa 0,0 mm 0,1 km/h (0 Bft) S-SW 213 ° 0 min 0,000 mm 0,0 UV-I 0 W/m² 14,9 °C 15,7 °C 1,6 km/h (1 Bft)
25.08.2019 22:18 15,8 °C 95 % 1017,9 hPa 0,0 mm 0,0 km/h (0 Bft) S-SW 213 ° 0 min 0,000 mm 0,0 UV-I 0 W/m² 15,0 °C 15,8 °C 0,0 km/h (0 Bft)
25.08.2019 22:19 15,7 °C 95 % 1017,8 hPa 0,0 mm 0,0 km/h (0 Bft) S-SW 213 ° 0 min 0,000 mm 0,0 UV-I 0 W/m² 14,9 °C 15,7 °C 0,0 km/h (0 Bft)
25.08.2019 22:20 15,8 °C 95 % 1017,8 hPa 0,0 mm 0,0 km/h (0 Bft) S-SW 213 ° 0 min 0,000 mm 0,0 UV-I 0 W/m² 15,0 °C 15,8 °C 0,0 km/h (0 Bft)
25.08.2019 22:21 15,8 °C 95 % 1017,9 hPa 0,0 mm 0,0 km/h (0 Bft) S-SW 213 ° 0 min 0,000 mm 0,0 UV-I 0 W/m² 15,0 °C 15,8 °C 0,0 km/h (0 Bft)
25.08.2019 22:22 15,8 °C 94 % 1017,8 hPa 0,0 mm 0,0 km/h (0 Bft) S-SW 213 ° 0 min 0,000 mm 0,0 UV-I 0 W/m² 14,8 °C 15,8 °C 0,0 km/h (0 Bft)
25.08.2019 22:23 15,8 °C 95 % 1017,8 hPa 0,0 mm 0,0 km/h (0 Bft) S-SW 211 ° 0 min 0,000 mm 0,0 UV-I 0 W/m² 15,0 °C 15,8 °C 0,0 km/h (0 Bft)
25.08.2019 22:24 15,7 °C 94 % 1017,9 hPa 0,0 mm 0,0 km/h (0 Bft) S-SW 211 ° 0 min 0,000 mm 0,0 UV-I 0 W/m² 14,7 °C 15,7 °C 0,0 km/h (0 Bft)
25.08.2019 22:25 15,7 °C 95 % 1017,9 hPa 0,0 mm 0,0 km/h (0 Bft) S-SW 211 ° 0 min 0,000 mm 0,0 UV-I 0 W/m² 14,9 °C 15,7 °C 0,0 km/h (0 Bft)
25.08.2019 22:26 15,8 °C 94 % 1017,9 hPa 0,0 mm 0,0 km/h (0 Bft) S-SW 211 ° 0 min 0,000 mm 0,0 UV-I 0 W/m² 14,8 °C 15,8 °C 0,0 km/h (0 Bft)
25.08.2019 22:27 15,8 °C 94 % 1017,9 hPa 0,0 mm 0,1 km/h (0 Bft) S-SW 213 ° 0 min 0,000 mm 0,0 UV-I 0 W/m² 14,8 °C 15,8 °C 1,6 km/h (1 Bft)
25.08.2019 22:28 15,7 °C 94 % 1017,8 hPa 0,0 mm 0,0 km/h (0 Bft) S-SW 213 ° 0 min 0,000 mm 0,0 UV-I 0 W/m² 14,7 °C 15,7 °C 0,0 km/h (0 Bft)
25.08.2019 22:29 15,7 °C 94 % 1017,8 hPa 0,0 mm 0,0 km/h (0 Bft) S-SW 213 ° 0 min 0,000 mm 0,0 UV-I 0 W/m² 14,7 °C 15,7 °C 0,0 km/h (0 Bft)
25.08.2019 22:30 15,7 °C 94 % 1017,8 hPa 0,0 mm 0,0 km/h (0 Bft) S-SW 213 ° 0 min 0,000 mm 0,0 UV-I 0 W/m² 14,7 °C 15,7 °C 0,0 km/h (0 Bft)
25.08.2019 22:31 15,7 °C 94 % 1017,8 hPa 0,0 mm 0,0 km/h (0 Bft) S-SW 213 ° 0 min 0,000 mm 0,0 UV-I 0 W/m² 14,7 °C 15,7 °C 0,0 km/h (0 Bft)
25.08.2019 22:32 15,7 °C 94 % 1017,8 hPa 0,0 mm 0,0 km/h (0 Bft) S-SW 213 ° 0 min 0,000 mm 0,0 UV-I 0 W/m² 14,7 °C 15,7 °C 0,0 km/h (0 Bft)
25.08.2019 22:33 15,7 °C 95 % 1017,8 hPa 0,0 mm 0,0 km/h (0 Bft) S-SW 213 ° 0 min 0,000 mm 0,0 UV-I 0 W/m² 14,9 °C 15,7 °C 0,0 km/h (0 Bft)
25.08.2019 22:34 15,7 °C 94 % 1017,8 hPa 0,0 mm 0,0 km/h (0 Bft) S-SW 213 ° 0 min 0,000 mm 0,0 UV-I 0 W/m² 14,7 °C 15,7 °C 0,0 km/h (0 Bft)
25.08.2019 22:35 15,7 °C 94 % 1017,8 hPa 0,0 mm 0,0 km/h (0 Bft) S-SW 213 ° 0 min 0,000 mm 0,0 UV-I 0 W/m² 14,7 °C 15,7 °C 0,0 km/h (0 Bft)
25.08.2019 22:36 15,7 °C 94 % 1017,8 hPa 0,0 mm 0,0 km/h (0 Bft) S-SW 213 ° 0 min 0,000 mm 0,0 UV-I 0 W/m² 14,7 °C 15,7 °C 0,0 km/h (0 Bft)
25.08.2019 22:37 15,7 °C 94 % 1017,8 hPa 0,0 mm 0,0 km/h (0 Bft) S-SW 213 ° 0 min 0,000 mm 0,0 UV-I 0 W/m² 14,7 °C 15,7 °C 0,0 km/h (0 Bft)
25.08.2019 22:38 15,7 °C 94 % 1017,8 hPa 0,0 mm 0,0 km/h (0 Bft) S-SW 213 ° 0 min 0,000 mm 0,0 UV-I 0 W/m² 14,7 °C 15,7 °C 0,0 km/h (0 Bft)
25.08.2019 22:39 15,7 °C 94 % 1017,8 hPa 0,0 mm 0,0 km/h (0 Bft) S-SW 213 ° 0 min 0,000 mm 0,0 UV-I 0 W/m² 14,7 °C 15,7 °C 0,0 km/h (0 Bft)
25.08.2019 22:40 15,7 °C 94 % 1017,8 hPa 0,0 mm 0,0 km/h (0 Bft) S-SW 213 ° 0 min 0,000 mm 0,0 UV-I 0 W/m² 14,7 °C 15,7 °C 0,0 km/h (0 Bft)
25.08.2019 22:41 15,7 °C 94 % 1017,8 hPa 0,0 mm 0,0 km/h (0 Bft) S-SW 213 ° 0 min 0,000 mm 0,0 UV-I 0 W/m² 14,7 °C 15,7 °C 0,0 km/h (0 Bft)
25.08.2019 22:42 15,6 °C 94 % 1017,8 hPa 0,0 mm 0,0 km/h (0 Bft) S-SW 213 ° 0 min 0,000 mm 0,0 UV-I 0 W/m² 14,6 °C 15,6 °C 0,0 km/h (0 Bft)
25.08.2019 22:43 15,6 °C 94 % 1017,8 hPa 0,0 mm 0,0 km/h (0 Bft) S-SW 213 ° 0 min 0,000 mm 0,0 UV-I 0 W/m² 14,6 °C 15,6 °C 0,0 km/h (0 Bft)
25.08.2019 22:44 15,6 °C 94 % 1017,8 hPa 0,0 mm 0,0 km/h (0 Bft) S-SW 213 ° 0 min 0,000 mm 0,0 UV-I 0 W/m² 14,6 °C 15,6 °C 0,0 km/h (0 Bft)
25.08.2019 22:45 15,6 °C 94 % 1017,8 hPa 0,0 mm 0,0 km/h (0 Bft) S-SW 213 ° 0 min 0,000 mm 0,0 UV-I 0 W/m² 14,6 °C 15,6 °C 0,0 km/h (0 Bft)
25.08.2019 22:46 15,6 °C 94 % 1017,8 hPa 0,0 mm 0,0 km/h (0 Bft) S-SW 213 ° 0 min 0,000 mm 0,0 UV-I 0 W/m² 14,6 °C 15,6 °C 0,0 km/h (0 Bft)
25.08.2019 22:47 15,6 °C 94 % 1017,8 hPa 0,0 mm 0,0 km/h (0 Bft) S-SW 213 ° 0 min 0,000 mm 0,0 UV-I 0 W/m² 14,6 °C 15,6 °C 0,0 km/h (0 Bft)
25.08.2019 22:48 15,5 °C 94 % 1017,8 hPa 0,0 mm 0,0 km/h (0 Bft) S-SW 213 ° 0 min 0,000 mm 0,0 UV-I 0 W/m² 14,5 °C 15,5 °C 0,0 km/h (0 Bft)
25.08.2019 22:49 15,4 °C 94 % 1017,8 hPa 0,0 mm 0,0 km/h (0 Bft) S-SW 213 ° 0 min 0,000 mm 0,0 UV-I 0 W/m² 14,4 °C 15,4 °C 0,0 km/h (0 Bft)
25.08.2019 22:50 15,4 °C 94 % 1017,8 hPa 0,0 mm 0,0 km/h (0 Bft) S-SW 213 ° 0 min 0,000 mm 0,0 UV-I 0 W/m² 14,4 °C 15,4 °C 0,0 km/h (0 Bft)
25.08.2019 22:51 15,4 °C 94 % 1017,8 hPa 0,0 mm 0,0 km/h (0 Bft) SW 215 ° 0 min 0,000 mm 0,0 UV-I 0 W/m² 14,4 °C 15,4 °C 0,0 km/h (0 Bft)
25.08.2019 22:52 15,4 °C 94 % 1017,8 hPa 0,0 mm 0,6 km/h (0 Bft) W-NW 294 ° 0 min 0,000 mm 0,0 UV-I 0 W/m² 14,4 °C 15,4 °C 3,2 km/h (1 Bft)
25.08.2019 22:53 15,4 °C 94 % 1017,8 hPa 0,0 mm 0,5 km/h (0 Bft) W-NW 294 ° 0 min 0,000 mm 0,0 UV-I 0 W/m² 14,4 °C 15,4 °C 1,6 km/h (1 Bft)
25.08.2019 22:54 15,4 °C 94 % 1017,8 hPa 0,0 mm 0,0 km/h (0 Bft) W-NW 294 ° 0 min 0,000 mm 0,0 UV-I 0 W/m² 14,4 °C 15,4 °C 0,0 km/h (0 Bft)
25.08.2019 22:55 15,4 °C 94 % 1017,8 hPa 0,0 mm 0,0 km/h (0 Bft) W-NW 294 ° 0 min 0,000 mm 0,0 UV-I 0 W/m² 14,4 °C 15,4 °C 0,0 km/h (0 Bft)
25.08.2019 22:56 15,4 °C 94 % 1017,8 hPa 0,0 mm 0,0 km/h (0 Bft) W-NW 294 ° 0 min 0,000 mm 0,0 UV-I 0 W/m² 14,4 °C 15,4 °C 0,0 km/h (0 Bft)
25.08.2019 22:57 15,4 °C 94 % 1017,8 hPa 0,0 mm 0,0 km/h (0 Bft) W-NW 294 ° 0 min 0,000 mm 0,0 UV-I 0 W/m² 14,4 °C 15,4 °C 0,0 km/h (0 Bft)
25.08.2019 22:58 15,4 °C 94 % 1017,8 hPa 0,0 mm 0,0 km/h (0 Bft) W-NW 294 ° 0 min 0,000 mm 0,0 UV-I 0 W/m² 14,4 °C 15,4 °C 0,0 km/h (0 Bft)
25.08.2019 22:59 15,3 °C 94 % 1017,8 hPa 0,0 mm 0,0 km/h (0 Bft) W-NW 294 ° 0 min 0,000 mm 0,0 UV-I 0 W/m² 14,3 °C 15,3 °C 0,0 km/h (0 Bft)
25.08.2019 23:00 15,3 °C 94 % 1017,8 hPa 0,0 mm 0,0 km/h (0 Bft) W-NW 294 ° 0 min 0,000 mm 0,0 UV-I 0 W/m² 14,3 °C 15,3 °C 0,0 km/h (0 Bft)
25.08.2019 23:01 15,3 °C 95 % 1017,8 hPa 0,0 mm 0,0 km/h (0 Bft) W-NW 294 ° 0 min 0,000 mm 0,0 UV-I 0 W/m² 14,5 °C 15,3 °C 0,0 km/h (0 Bft)
25.08.2019 23:02 15,3 °C 95 % 1017,8 hPa 0,0 mm 0,0 km/h (0 Bft) W-NW 294 ° 0 min 0,000 mm 0,0 UV-I 0 W/m² 14,5 °C 15,3 °C 0,0 km/h (0 Bft)
25.08.2019 23:03 15,3 °C 94 % 1017,8 hPa 0,0 mm 0,0 km/h (0 Bft) S-SW 196 ° 0 min 0,000 mm 0,0 UV-I 0 W/m² 14,3 °C 15,3 °C 0,0 km/h (0 Bft)
25.08.2019 23:04 15,3 °C 95 % 1017,8 hPa 0,0 mm 0,0 km/h (0 Bft) S-SW 196 ° 0 min 0,000 mm 0,0 UV-I 0 W/m² 14,5 °C 15,3 °C 0,0 km/h (0 Bft)
25.08.2019 23:05 15,3 °C 95 % 1017,8 hPa 0,0 mm 0,0 km/h (0 Bft) S-SW 196 ° 0 min 0,000 mm 0,0 UV-I 0 W/m² 14,5 °C 15,3 °C 0,0 km/h (0 Bft)
25.08.2019 23:06 15,4 °C 95 % 1017,8 hPa 0,0 mm 0,3 km/h (0 Bft) NO 48 ° 0 min 0,000 mm 0,0 UV-I 0 W/m² 14,6 °C 15,4 °C 3,2 km/h (1 Bft)
25.08.2019 23:07 15,3 °C 95 % 1017,8 hPa 0,0 mm 0,1 km/h (0 Bft) N-NW 346 ° 0 min 0,000 mm 0,0 UV-I 0 W/m² 14,5 °C 15,3 °C 1,6 km/h (1 Bft)
25.08.2019 23:08 15,3 °C 95 % 1017,7 hPa 0,0 mm 1,1 km/h (1 Bft) N-NW 333 ° 0 min 0,000 mm 0,0 UV-I 0 W/m² 14,5 °C 15,3 °C 3,2 km/h (1 Bft)
25.08.2019 23:09 15,3 °C 95 % 1017,8 hPa 0,0 mm 2,1 km/h (1 Bft) W-NW 289 ° 0 min 0,000 mm 0,0 UV-I 0 W/m² 14,5 °C 15,3 °C 3,2 km/h (1 Bft)
25.08.2019 23:10 15,3 °C 94 % 1017,8 hPa 0,0 mm 0,8 km/h (0 Bft) W-SW 247 ° 0 min 0,000 mm 0,0 UV-I 0 W/m² 14,3 °C 15,3 °C 4,8 km/h (1 Bft)
25.08.2019 23:11 15,3 °C 94 % 1017,7 hPa 0,0 mm 0,9 km/h (0 Bft) W 263 ° 0 min 0,000 mm 0,0 UV-I 0 W/m² 14,3 °C 15,3 °C 3,2 km/h (1 Bft)
25.08.2019 23:12 15,3 °C 95 % 1017,8 hPa 0,0 mm 0,1 km/h (0 Bft) W-NW 282 ° 0 min 0,000 mm 0,0 UV-I 0 W/m² 14,5 °C 15,3 °C 1,6 km/h (1 Bft)
25.08.2019 23:13 15,3 °C 95 % 1017,8 hPa 0,0 mm 0,0 km/h (0 Bft) W 269 ° 0 min 0,000 mm 0,0 UV-I 0 W/m² 14,5 °C 15,3 °C 0,0 km/h (0 Bft)
25.08.2019 23:14 15,3 °C 95 % 1017,8 hPa 0,0 mm 0,0 km/h (0 Bft) W 276 ° 0 min 0,000 mm 0,0 UV-I 0 W/m² 14,5 °C 15,3 °C 0,0 km/h (0 Bft)
25.08.2019 23:15 15,3 °C 95 % 1017,8 hPa 0,0 mm 0,0 km/h (0 Bft) W 276 ° 0 min 0,000 mm 0,0 UV-I 0 W/m² 14,5 °C 15,3 °C 0,0 km/h (0 Bft)
25.08.2019 23:16 15,3 °C 95 % 1017,7 hPa 0,0 mm 0,0 km/h (0 Bft) W 276 ° 0 min 0,000 mm 0,0 UV-I 0 W/m² 14,5 °C 15,3 °C 0,0 km/h (0 Bft)
25.08.2019 23:17 15,3 °C 95 % 1017,7 hPa 0,0 mm 0,0 km/h (0 Bft) W 277 ° 0 min 0,000 mm 0,0 UV-I 0 W/m² 14,5 °C 15,3 °C 0,0 km/h (0 Bft)
25.08.2019 23:18 15,3 °C 94 % 1017,7 hPa 0,0 mm 0,0 km/h (0 Bft) W 277 ° 0 min 0,000 mm 0,0 UV-I 0 W/m² 14,3 °C 15,3 °C 0,0 km/h (0 Bft)
25.08.2019 23:19 15,3 °C 95 % 1017,8 hPa 0,0 mm 0,0 km/h (0 Bft) W 277 ° 0 min 0,000 mm 0,0 UV-I 0 W/m² 14,5 °C 15,3 °C 0,0 km/h (0 Bft)
25.08.2019 23:20 15,2 °C 94 % 1017,8 hPa 0,0 mm 1,1 km/h (1 Bft) O-SO 117 ° 0 min 0,000 mm 0,0 UV-I 0 W/m² 14,2 °C 15,2 °C 4,8 km/h (1 Bft)
25.08.2019 23:21 15,2 °C 94 % 1017,8 hPa 0,0 mm 0,2 km/h (0 Bft) O-SO 117 ° 0 min 0,000 mm 0,0 UV-I 0 W/m² 14,2 °C 15,2 °C 1,6 km/h (1 Bft)
25.08.2019 23:22 15,2 °C 94 % 1017,8 hPa 0,0 mm 0,0 km/h (0 Bft) O-SO 117 ° 0 min 0,000 mm 0,0 UV-I 0 W/m² 14,2 °C 15,2 °C 0,0 km/h (0 Bft)
25.08.2019 23:23 15,2 °C 94 % 1017,8 hPa 0,2 mm 0,0 km/h (0 Bft) O-SO 117 ° 0 min 0,000 mm 0,0 UV-I 0 W/m² 14,2 °C 15,2 °C 0,0 km/h (0 Bft)
25.08.2019 23:24 15,2 °C 94 % 1017,8 hPa 0,0 mm 0,1 km/h (0 Bft) O-SO 117 ° 0 min 0,000 mm 0,0 UV-I 0 W/m² 14,2 °C 15,2 °C 1,6 km/h (1 Bft)
25.08.2019 23:25 15,2 °C 94 % 1017,8 hPa 0,0 mm 1,7 km/h (1 Bft) N 351 ° 0 min 0,000 mm 0,0 UV-I 0 W/m² 14,2 °C 15,2 °C 3,2 km/h (1 Bft)
25.08.2019 23:26 15,2 °C 94 % 1017,8 hPa 0,0 mm 0,6 km/h (0 Bft) W-NW 289 ° 0 min 0,000 mm 0,0 UV-I 0 W/m² 14,2 °C 15,2 °C 3,2 km/h (1 Bft)
25.08.2019 23:27 15,2 °C 94 % 1017,8 hPa 0,0 mm 0,5 km/h (0 Bft) W-NW 287 ° 0 min 0,000 mm 0,0 UV-I 0 W/m² 14,2 °C 15,2 °C 3,2 km/h (1 Bft)
25.08.2019 23:28 15,2 °C 94 % 1017,8 hPa 0,0 mm 0,0 km/h (0 Bft) W-NW 287 ° 0 min 0,000 mm 0,0 UV-I 0 W/m² 14,2 °C 15,2 °C 0,0 km/h (0 Bft)
25.08.2019 23:29 15,2 °C 94 % 1017,7 hPa 0,0 mm 0,1 km/h (0 Bft) W-NW 287 ° 0 min 0,000 mm 0,0 UV-I 0 W/m² 14,2 °C 15,2 °C 1,6 km/h (1 Bft)
25.08.2019 23:31 15,2 °C 94 % 1017,7 hPa 0,0 mm 1,4 km/h (1 Bft) W-NW 287 ° 0 min 0,000 mm 0,0 UV-I 0 W/m² 14,2 °C 15,2 °C 3,2 km/h (1 Bft)
25.08.2019 23:32 15,2 °C 94 % 1017,7 hPa 0,0 mm 1,7 km/h (1 Bft) W-NW 287 ° 0 min 0,000 mm 0,0 UV-I 0 W/m² 14,2 °C 15,2 °C 3,2 km/h (1 Bft)
25.08.2019 23:33 15,2 °C 94 % 1017,7 hPa 0,0 mm 0,0 km/h (0 Bft) W-NW 287 ° 0 min 0,000 mm 0,0 UV-I 0 W/m² 14,2 °C 15,2 °C 0,0 km/h (0 Bft)
25.08.2019 23:34 15,2 °C 94 % 1017,7 hPa 0,0 mm 0,0 km/h (0 Bft) W-NW 287 ° 0 min 0,000 mm 0,0 UV-I 0 W/m² 14,2 °C 15,2 °C 0,0 km/h (0 Bft)
25.08.2019 23:35 15,2 °C 94 % 1017,7 hPa 0,0 mm 0,0 km/h (0 Bft) W-NW 287 ° 0 min 0,000 mm 0,0 UV-I 0 W/m² 14,2 °C 15,2 °C 0,0 km/h (0 Bft)
25.08.2019 23:36 15,2 °C 94 % 1017,7 hPa 0,0 mm 0,0 km/h (0 Bft) W-NW 287 ° 0 min 0,000 mm 0,0 UV-I 0 W/m² 14,2 °C 15,2 °C 0,0 km/h (0 Bft)
25.08.2019 23:37 15,2 °C 94 % 1017,7 hPa 0,0 mm 0,0 km/h (0 Bft) W-NW 287 ° 0 min 0,000 mm 0,0 UV-I 0 W/m² 14,2 °C 15,2 °C 0,0 km/h (0 Bft)
25.08.2019 23:38 15,1 °C 94 % 1017,6 hPa 0,0 mm 0,0 km/h (0 Bft) W-NW 287 ° 0 min 0,000 mm 0,0 UV-I 0 W/m² 14,1 °C 15,1 °C 0,0 km/h (0 Bft)
25.08.2019 23:39 15,1 °C 94 % 1017,7 hPa 0,0 mm 0,0 km/h (0 Bft) W-NW 287 ° 0 min 0,000 mm 0,0 UV-I 0 W/m² 14,1 °C 15,1 °C 0,0 km/h (0 Bft)
25.08.2019 23:40 15,1 °C 94 % 1017,7 hPa 0,0 mm 0,0 km/h (0 Bft) W-NW 287 ° 0 min 0,000 mm 0,0 UV-I 0 W/m² 14,1 °C 15,1 °C 0,0 km/h (0 Bft)
25.08.2019 23:41 15,1 °C 94 % 1017,7 hPa 0,0 mm 0,0 km/h (0 Bft) W-NW 287 ° 0 min 0,000 mm 0,0 UV-I 0 W/m² 14,1 °C 15,1 °C 0,0 km/h (0 Bft)
25.08.2019 23:42 15,1 °C 94 % 1017,6 hPa 0,0 mm 0,2 km/h (0 Bft) W-NW 287 ° 0 min 0,000 mm 0,0 UV-I 0 W/m² 14,1 °C 15,1 °C 1,6 km/h (1 Bft)
25.08.2019 23:43 15,1 °C 94 % 1017,7 hPa 0,0 mm 0,3 km/h (0 Bft) W-NW 287 ° 0 min 0,000 mm 0,0 UV-I 0 W/m² 14,1 °C 15,1 °C 1,6 km/h (1 Bft)
25.08.2019 23:44 15,1 °C 94 % 1017,7 hPa 0,0 mm 0,3 km/h (0 Bft) W-NW 287 ° 0 min 0,000 mm 0,0 UV-I 0 W/m² 14,1 °C 15,1 °C 1,6 km/h (1 Bft)
25.08.2019 23:45 15,1 °C 94 % 1017,7 hPa 0,0 mm 0,0 km/h (0 Bft) W-NW 287 ° 0 min 0,000 mm 0,0 UV-I 0 W/m² 14,1 °C 15,1 °C 0,0 km/h (0 Bft)
25.08.2019 23:46 15,1 °C 94 % 1017,7 hPa 0,0 mm 0,0 km/h (0 Bft) W-NW 287 ° 0 min 0,000 mm 0,0 UV-I 0 W/m² 14,1 °C 15,1 °C 0,0 km/h (0 Bft)
25.08.2019 23:47 15,1 °C 94 % 1017,7 hPa 0,0 mm 0,0 km/h (0 Bft) W-NW 287 ° 0 min 0,000 mm 0,0 UV-I 0 W/m² 14,1 °C 15,1 °C 0,0 km/h (0 Bft)
25.08.2019 23:48 15,1 °C 94 % 1017,7 hPa 0,0 mm 0,0 km/h (0 Bft) W-NW 287 ° 0 min 0,000 mm 0,0 UV-I 0 W/m² 14,1 °C 15,1 °C 0,0 km/h (0 Bft)
25.08.2019 23:49 15,1 °C 94 % 1017,7 hPa 0,0 mm 0,5 km/h (0 Bft) W-NW 287 ° 0 min 0,000 mm 0,0 UV-I 0 W/m² 14,1 °C 15,1 °C 1,6 km/h (1 Bft)
25.08.2019 23:50 15,1 °C 94 % 1017,7 hPa 0,0 mm 0,0 km/h (0 Bft) W-NW 287 ° 0 min 0,000 mm 0,0 UV-I 0 W/m² 14,1 °C 15,1 °C 0,0 km/h (0 Bft)
25.08.2019 23:51 15,1 °C 95 % 1017,6 hPa 0,0 mm 0,3 km/h (0 Bft) W 279 ° 0 min 0,000 mm 0,0 UV-I 0 W/m² 14,3 °C 15,1 °C 1,6 km/h (1 Bft)
25.08.2019 23:52 15,1 °C 94 % 1017,6 hPa 0,0 mm 0,1 km/h (0 Bft) W 279 ° 0 min 0,000 mm 0,0 UV-I 0 W/m² 14,1 °C 15,1 °C 1,6 km/h (1 Bft)
25.08.2019 23:53 15,1 °C 94 % 1017,6 hPa 0,0 mm 0,0 km/h (0 Bft) W 279 ° 0 min 0,000 mm 0,0 UV-I 0 W/m² 14,1 °C 15,1 °C 0,0 km/h (0 Bft)
25.08.2019 23:54 15,2 °C 94 % 1017,6 hPa 0,0 mm 0,3 km/h (0 Bft) W-NW 285 ° 0 min 0,000 mm 0,0 UV-I 0 W/m² 14,2 °C 15,2 °C 1,6 km/h (1 Bft)
25.08.2019 23:55 15,1 °C 94 % 1017,6 hPa 0,0 mm 0,2 km/h (0 Bft) W 273 ° 0 min 0,000 mm 0,0 UV-I 0 W/m² 14,1 °C 15,1 °C 1,6 km/h (1 Bft)
25.08.2019 23:56 15,1 °C 94 % 1017,6 hPa 0,0 mm 0,0 km/h (0 Bft) W 273 ° 0 min 0,000 mm 0,0 UV-I 0 W/m² 14,1 °C 15,1 °C 0,0 km/h (0 Bft)
25.08.2019 23:57 15,1 °C 94 % 1017,6 hPa 0,0 mm 0,9 km/h (0 Bft) N-NW 338 ° 0 min 0,000 mm 0,0 UV-I 0 W/m² 14,1 °C 15,1 °C 4,8 km/h (1 Bft)
25.08.2019 23:58 15,1 °C 94 % 1017,5 hPa 0,0 mm 0,0 km/h (0 Bft) N-NW 338 ° 0 min 0,000 mm 0,0 UV-I 0 W/m² 14,1 °C 15,1 °C 0,0 km/h (0 Bft)
25.08.2019 23:59 15,1 °C 94 % 1017,5 hPa 0,0 mm 0,2 km/h (0 Bft) NW 321 ° 0 min 0,000 mm 0,0 UV-I 0 W/m² 14,1 °C 15,1 °C 1,6 km/h (1 Bft)
_ Min-Zeit 05:49 14:14 16:15 - 23:58 - - - - - - 05:49 05:49 23:58
Minimum _ 11,7 °C 63 % 1015,9 hPa - 0,0 km/h (0 Bft) - - - - - - 10,9 °C 11,7 °C 0,0 km/h (0 Bft)
_ Max-Zeit 14:21 07:38 22:27 23:23 16:44 - - 15:54 13:01 14:19 14:20 16:07 14:21 16:44
Maximum _ 25,1 °C 96 % 1017,9 hPa 0,2 mm 28,0 km/h
W (4 Bft)
- - 1 min 0,432 mm 6,2 UV-I 907 W/m² 19,4 °C 25,1 °C 40,2 km/h
W (6 Bft)
Durchschnitt _ 17,1 °C 87 % 1017,0 hPa #2,8 mm 0,8 km/h (0 Bft) W - #3:13 h #2,667 mm 3,3 UV-I 182 W/m² 14,8 °C 17,1 °C 1,6 km/h (1 Bft)